<?xml version="1.0" encoding="UTF-8" standalone="no" ?>
<gpx xmlns="http://www.topografix.com/GPX/1/1" xmlns:xsi="http://www.w3.org/2001/XMLSchema-instance" xsi:schemaLocation="http://www.topografix.com/GPX/1/1 http://www.topografix.com/GPX/1/1/gpx.xsd" version="1.1" creator="VisuGPX - https://www.visugpx.com">
  <metadata>
    <name>Chamelet Claveisolles Poule Grandris St-Just</name>
    <desc><![CDATA[Chamelet -> Lamure -> Claveisolles -> Poule-lès-Echarmeaux -> St Nizier -> Grandris -> St Just -> Chamelet]]></desc>
  </metadata>
  <trk>
    <name><![CDATA[Cycling 10/2/14 11:07 am]]></name>
    <trkseg>
      <trkpt lat="45.98236" lon="4.5095">
        <ele>321</ele>
        <time>2014-10-02T11:07:00Z</time>
      </trkpt>
      <trkpt lat="45.98236" lon="4.5095">
        <ele>321</ele>
        <time>2014-10-02T11:07:02Z</time>
      </trkpt>
      <trkpt lat="45.98236" lon="4.5095">
        <ele>321</ele>
        <time>2014-10-02T11:07:11Z</time>
      </trkpt>
      <trkpt lat="45.98227" lon="4.50949">
        <ele>320</ele>
        <time>2014-10-02T11:07:32Z</time>
      </trkpt>
      <trkpt lat="45.98227" lon="4.50949">
        <ele>319.7</ele>
        <time>2014-10-02T11:07:32Z</time>
      </trkpt>
      <trkpt lat="45.98219" lon="4.50951">
        <ele>319.5</ele>
        <time>2014-10-02T11:07:38Z</time>
      </trkpt>
      <trkpt lat="45.98211" lon="4.50955">
        <ele>319.3</ele>
        <time>2014-10-02T11:07:44Z</time>
      </trkpt>
      <trkpt lat="45.98202" lon="4.50958">
        <ele>319.2</ele>
        <time>2014-10-02T11:07:47Z</time>
      </trkpt>
      <trkpt lat="45.98193" lon="4.50956">
        <ele>319.1</ele>
        <time>2014-10-02T11:07:49Z</time>
      </trkpt>
      <trkpt lat="45.98182" lon="4.50947">
        <ele>318.8</ele>
        <time>2014-10-02T11:07:51Z</time>
      </trkpt>
      <trkpt lat="45.98171" lon="4.50938">
        <ele>318.5</ele>
        <time>2014-10-02T11:07:53Z</time>
      </trkpt>
      <trkpt lat="45.98159" lon="4.50924">
        <ele>317.7</ele>
        <time>2014-10-02T11:07:55Z</time>
      </trkpt>
      <trkpt lat="45.98151" lon="4.50915">
        <ele>316.9</ele>
        <time>2014-10-02T11:07:56Z</time>
      </trkpt>
      <trkpt lat="45.98145" lon="4.50907">
        <ele>316.4</ele>
        <time>2014-10-02T11:07:57Z</time>
      </trkpt>
      <trkpt lat="45.98138" lon="4.50899">
        <ele>315.8</ele>
        <time>2014-10-02T11:07:58Z</time>
      </trkpt>
      <trkpt lat="45.98129" lon="4.50886">
        <ele>315.3</ele>
        <time>2014-10-02T11:08:00Z</time>
      </trkpt>
      <trkpt lat="45.9812" lon="4.50873">
        <ele>314.7</ele>
        <time>2014-10-02T11:08:02Z</time>
      </trkpt>
      <trkpt lat="45.9811" lon="4.50862">
        <ele>314.2</ele>
        <time>2014-10-02T11:08:04Z</time>
      </trkpt>
      <trkpt lat="45.981" lon="4.50852">
        <ele>313.6</ele>
        <time>2014-10-02T11:08:06Z</time>
      </trkpt>
      <trkpt lat="45.9809" lon="4.50843">
        <ele>312.4</ele>
        <time>2014-10-02T11:08:08Z</time>
      </trkpt>
      <trkpt lat="45.98079" lon="4.50834">
        <ele>311.1</ele>
        <time>2014-10-02T11:08:10Z</time>
      </trkpt>
      <trkpt lat="45.9807" lon="4.50827">
        <ele>309.8</ele>
        <time>2014-10-02T11:08:12Z</time>
      </trkpt>
      <trkpt lat="45.98061" lon="4.50818">
        <ele>309.1</ele>
        <time>2014-10-02T11:08:14Z</time>
      </trkpt>
      <trkpt lat="45.98055" lon="4.5081">
        <ele>309.1</ele>
        <time>2014-10-02T11:08:16Z</time>
      </trkpt>
      <trkpt lat="45.98049" lon="4.50795">
        <ele>309.1</ele>
        <time>2014-10-02T11:08:19Z</time>
      </trkpt>
      <trkpt lat="45.98055" lon="4.50784">
        <ele>309.1</ele>
        <time>2014-10-02T11:08:23Z</time>
      </trkpt>
      <trkpt lat="45.98064" lon="4.50786">
        <ele>309.1</ele>
        <time>2014-10-02T11:08:26Z</time>
      </trkpt>
      <trkpt lat="45.98073" lon="4.50793">
        <ele>309.1</ele>
        <time>2014-10-02T11:08:29Z</time>
      </trkpt>
      <trkpt lat="45.9808" lon="4.50799">
        <ele>309.1</ele>
        <time>2014-10-02T11:08:31Z</time>
      </trkpt>
      <trkpt lat="45.9809" lon="4.50805">
        <ele>308.5</ele>
        <time>2014-10-02T11:08:33Z</time>
      </trkpt>
      <trkpt lat="45.98099" lon="4.50811">
        <ele>308.5</ele>
        <time>2014-10-02T11:08:35Z</time>
      </trkpt>
      <trkpt lat="45.98107" lon="4.50818">
        <ele>308.6</ele>
        <time>2014-10-02T11:08:37Z</time>
      </trkpt>
      <trkpt lat="45.98116" lon="4.50825">
        <ele>308.7</ele>
        <time>2014-10-02T11:08:39Z</time>
      </trkpt>
      <trkpt lat="45.98126" lon="4.50833">
        <ele>308.8</ele>
        <time>2014-10-02T11:08:41Z</time>
      </trkpt>
      <trkpt lat="45.98134" lon="4.50842">
        <ele>308.2</ele>
        <time>2014-10-02T11:08:43Z</time>
      </trkpt>
      <trkpt lat="45.98144" lon="4.5085">
        <ele>307.5</ele>
        <time>2014-10-02T11:08:45Z</time>
      </trkpt>
      <trkpt lat="45.98156" lon="4.50857">
        <ele>306.9</ele>
        <time>2014-10-02T11:08:47Z</time>
      </trkpt>
      <trkpt lat="45.98167" lon="4.50864">
        <ele>306.3</ele>
        <time>2014-10-02T11:08:49Z</time>
      </trkpt>
      <trkpt lat="45.98179" lon="4.50868">
        <ele>305.6</ele>
        <time>2014-10-02T11:08:51Z</time>
      </trkpt>
      <trkpt lat="45.98191" lon="4.50868">
        <ele>305</ele>
        <time>2014-10-02T11:08:53Z</time>
      </trkpt>
      <trkpt lat="45.98203" lon="4.50869">
        <ele>305</ele>
        <time>2014-10-02T11:08:55Z</time>
      </trkpt>
      <trkpt lat="45.98216" lon="4.50871">
        <ele>306.5</ele>
        <time>2014-10-02T11:08:57Z</time>
      </trkpt>
      <trkpt lat="45.98228" lon="4.50872">
        <ele>307.9</ele>
        <time>2014-10-02T11:08:59Z</time>
      </trkpt>
      <trkpt lat="45.9824" lon="4.50873">
        <ele>309.2</ele>
        <time>2014-10-02T11:09:01Z</time>
      </trkpt>
      <trkpt lat="45.98252" lon="4.50874">
        <ele>310.5</ele>
        <time>2014-10-02T11:09:03Z</time>
      </trkpt>
      <trkpt lat="45.98263" lon="4.50878">
        <ele>311.7</ele>
        <time>2014-10-02T11:09:05Z</time>
      </trkpt>
      <trkpt lat="45.98274" lon="4.50881">
        <ele>313</ele>
        <time>2014-10-02T11:09:07Z</time>
      </trkpt>
      <trkpt lat="45.98283" lon="4.50884">
        <ele>314.3</ele>
        <time>2014-10-02T11:09:09Z</time>
      </trkpt>
      <trkpt lat="45.98293" lon="4.50885">
        <ele>315.5</ele>
        <time>2014-10-02T11:09:11Z</time>
      </trkpt>
      <trkpt lat="45.98304" lon="4.50886">
        <ele>316.8</ele>
        <time>2014-10-02T11:09:13Z</time>
      </trkpt>
      <trkpt lat="45.98316" lon="4.50885">
        <ele>318.1</ele>
        <time>2014-10-02T11:09:15Z</time>
      </trkpt>
      <trkpt lat="45.98327" lon="4.50883">
        <ele>318.8</ele>
        <time>2014-10-02T11:09:17Z</time>
      </trkpt>
      <trkpt lat="45.98336" lon="4.5088">
        <ele>318.1</ele>
        <time>2014-10-02T11:09:19Z</time>
      </trkpt>
      <trkpt lat="45.98345" lon="4.50878">
        <ele>317.4</ele>
        <time>2014-10-02T11:09:21Z</time>
      </trkpt>
      <trkpt lat="45.98358" lon="4.50878">
        <ele>316.8</ele>
        <time>2014-10-02T11:09:23Z</time>
      </trkpt>
      <trkpt lat="45.98369" lon="4.50881">
        <ele>316.3</ele>
        <time>2014-10-02T11:09:25Z</time>
      </trkpt>
      <trkpt lat="45.98382" lon="4.50882">
        <ele>315.7</ele>
        <time>2014-10-02T11:09:27Z</time>
      </trkpt>
      <trkpt lat="45.98394" lon="4.50888">
        <ele>315.2</ele>
        <time>2014-10-02T11:09:29Z</time>
      </trkpt>
      <trkpt lat="45.98403" lon="4.50897">
        <ele>314.6</ele>
        <time>2014-10-02T11:09:31Z</time>
      </trkpt>
      <trkpt lat="45.98412" lon="4.50907">
        <ele>315.5</ele>
        <time>2014-10-02T11:09:33Z</time>
      </trkpt>
      <trkpt lat="45.98419" lon="4.50919">
        <ele>316.3</ele>
        <time>2014-10-02T11:09:35Z</time>
      </trkpt>
      <trkpt lat="45.98426" lon="4.50932">
        <ele>316.8</ele>
        <time>2014-10-02T11:09:37Z</time>
      </trkpt>
      <trkpt lat="45.98435" lon="4.50945">
        <ele>317.9</ele>
        <time>2014-10-02T11:09:39Z</time>
      </trkpt>
      <trkpt lat="45.98442" lon="4.50955">
        <ele>319</ele>
        <time>2014-10-02T11:09:41Z</time>
      </trkpt>
      <trkpt lat="45.9845" lon="4.50966">
        <ele>320.1</ele>
        <time>2014-10-02T11:09:43Z</time>
      </trkpt>
      <trkpt lat="45.9846" lon="4.50973">
        <ele>321.2</ele>
        <time>2014-10-02T11:09:45Z</time>
      </trkpt>
      <trkpt lat="45.98471" lon="4.50977">
        <ele>320.9</ele>
        <time>2014-10-02T11:09:47Z</time>
      </trkpt>
      <trkpt lat="45.98482" lon="4.50979">
        <ele>320.6</ele>
        <time>2014-10-02T11:09:49Z</time>
      </trkpt>
      <trkpt lat="45.98491" lon="4.50976">
        <ele>320.4</ele>
        <time>2014-10-02T11:09:51Z</time>
      </trkpt>
      <trkpt lat="45.98499" lon="4.50972">
        <ele>321.5</ele>
        <time>2014-10-02T11:09:53Z</time>
      </trkpt>
      <trkpt lat="45.98509" lon="4.50966">
        <ele>321.4</ele>
        <time>2014-10-02T11:09:55Z</time>
      </trkpt>
      <trkpt lat="45.98519" lon="4.50959">
        <ele>321.2</ele>
        <time>2014-10-02T11:09:57Z</time>
      </trkpt>
      <trkpt lat="45.98528" lon="4.50951">
        <ele>321.3</ele>
        <time>2014-10-02T11:09:59Z</time>
      </trkpt>
      <trkpt lat="45.9854" lon="4.50938">
        <ele>321.4</ele>
        <time>2014-10-02T11:10:01Z</time>
      </trkpt>
      <trkpt lat="45.98548" lon="4.50929">
        <ele>321.5</ele>
        <time>2014-10-02T11:10:03Z</time>
      </trkpt>
      <trkpt lat="45.98555" lon="4.50923">
        <ele>320.7</ele>
        <time>2014-10-02T11:10:06Z</time>
      </trkpt>
      <trkpt lat="45.98561" lon="4.50913">
        <ele>320</ele>
        <time>2014-10-02T11:10:08Z</time>
      </trkpt>
      <trkpt lat="45.98566" lon="4.50903">
        <ele>320.6</ele>
        <time>2014-10-02T11:10:10Z</time>
      </trkpt>
      <trkpt lat="45.98573" lon="4.5089">
        <ele>321.3</ele>
        <time>2014-10-02T11:10:12Z</time>
      </trkpt>
      <trkpt lat="45.98577" lon="4.50879">
        <ele>321.9</ele>
        <time>2014-10-02T11:10:14Z</time>
      </trkpt>
      <trkpt lat="45.98581" lon="4.50867">
        <ele>321.1</ele>
        <time>2014-10-02T11:10:16Z</time>
      </trkpt>
      <trkpt lat="45.98584" lon="4.50855">
        <ele>320.3</ele>
        <time>2014-10-02T11:10:18Z</time>
      </trkpt>
      <trkpt lat="45.98587" lon="4.50843">
        <ele>319.2</ele>
        <time>2014-10-02T11:10:20Z</time>
      </trkpt>
      <trkpt lat="45.98591" lon="4.50831">
        <ele>318.1</ele>
        <time>2014-10-02T11:10:22Z</time>
      </trkpt>
      <trkpt lat="45.98595" lon="4.5082">
        <ele>317</ele>
        <time>2014-10-02T11:10:24Z</time>
      </trkpt>
      <trkpt lat="45.986" lon="4.50809">
        <ele>315.9</ele>
        <time>2014-10-02T11:10:26Z</time>
      </trkpt>
      <trkpt lat="45.98604" lon="4.50797">
        <ele>315.6</ele>
        <time>2014-10-02T11:10:28Z</time>
      </trkpt>
      <trkpt lat="45.98608" lon="4.50785">
        <ele>316.5</ele>
        <time>2014-10-02T11:10:30Z</time>
      </trkpt>
      <trkpt lat="45.98611" lon="4.50774">
        <ele>317.5</ele>
        <time>2014-10-02T11:10:32Z</time>
      </trkpt>
      <trkpt lat="45.98615" lon="4.50761">
        <ele>318.4</ele>
        <time>2014-10-02T11:10:34Z</time>
      </trkpt>
      <trkpt lat="45.98619" lon="4.50749">
        <ele>319.3</ele>
        <time>2014-10-02T11:10:36Z</time>
      </trkpt>
      <trkpt lat="45.98621" lon="4.50738">
        <ele>320.2</ele>
        <time>2014-10-02T11:10:38Z</time>
      </trkpt>
      <trkpt lat="45.9863" lon="4.50688">
        <ele>320.2</ele>
        <time>2014-10-02T11:10:47Z</time>
      </trkpt>
      <trkpt lat="45.98634" lon="4.50675">
        <ele>320.5</ele>
        <time>2014-10-02T11:10:48Z</time>
      </trkpt>
      <trkpt lat="45.98635" lon="4.50664">
        <ele>320.7</ele>
        <time>2014-10-02T11:10:50Z</time>
      </trkpt>
      <trkpt lat="45.98638" lon="4.50651">
        <ele>321</ele>
        <time>2014-10-02T11:10:53Z</time>
      </trkpt>
      <trkpt lat="45.98643" lon="4.50639">
        <ele>321.3</ele>
        <time>2014-10-02T11:10:54Z</time>
      </trkpt>
      <trkpt lat="45.98649" lon="4.50627">
        <ele>321.5</ele>
        <time>2014-10-02T11:10:56Z</time>
      </trkpt>
      <trkpt lat="45.98656" lon="4.50616">
        <ele>320.6</ele>
        <time>2014-10-02T11:10:58Z</time>
      </trkpt>
      <trkpt lat="45.98665" lon="4.50604">
        <ele>319.7</ele>
        <time>2014-10-02T11:11:01Z</time>
      </trkpt>
      <trkpt lat="45.98674" lon="4.50596">
        <ele>319.1</ele>
        <time>2014-10-02T11:11:03Z</time>
      </trkpt>
      <trkpt lat="45.98682" lon="4.50587">
        <ele>318.5</ele>
        <time>2014-10-02T11:11:05Z</time>
      </trkpt>
      <trkpt lat="45.98692" lon="4.50577">
        <ele>317.8</ele>
        <time>2014-10-02T11:11:07Z</time>
      </trkpt>
      <trkpt lat="45.98701" lon="4.50566">
        <ele>318.1</ele>
        <time>2014-10-02T11:11:09Z</time>
      </trkpt>
      <trkpt lat="45.98709" lon="4.50554">
        <ele>318.4</ele>
        <time>2014-10-02T11:11:11Z</time>
      </trkpt>
      <trkpt lat="45.98716" lon="4.50543">
        <ele>318.6</ele>
        <time>2014-10-02T11:11:13Z</time>
      </trkpt>
      <trkpt lat="45.98724" lon="4.50529">
        <ele>318.8</ele>
        <time>2014-10-02T11:11:15Z</time>
      </trkpt>
      <trkpt lat="45.9873" lon="4.50515">
        <ele>319</ele>
        <time>2014-10-02T11:11:17Z</time>
      </trkpt>
      <trkpt lat="45.98734" lon="4.50502">
        <ele>319.2</ele>
        <time>2014-10-02T11:11:19Z</time>
      </trkpt>
      <trkpt lat="45.98739" lon="4.50487">
        <ele>319.4</ele>
        <time>2014-10-02T11:11:21Z</time>
      </trkpt>
      <trkpt lat="45.98741" lon="4.50472">
        <ele>319.5</ele>
        <time>2014-10-02T11:11:23Z</time>
      </trkpt>
      <trkpt lat="45.98744" lon="4.50457">
        <ele>319.2</ele>
        <time>2014-10-02T11:11:25Z</time>
      </trkpt>
      <trkpt lat="45.98745" lon="4.50442">
        <ele>318.8</ele>
        <time>2014-10-02T11:11:27Z</time>
      </trkpt>
      <trkpt lat="45.98746" lon="4.50427">
        <ele>318.5</ele>
        <time>2014-10-02T11:11:30Z</time>
      </trkpt>
      <trkpt lat="45.98747" lon="4.50412">
        <ele>318.1</ele>
        <time>2014-10-02T11:11:31Z</time>
      </trkpt>
      <trkpt lat="45.98748" lon="4.50397">
        <ele>317.7</ele>
        <time>2014-10-02T11:11:33Z</time>
      </trkpt>
      <trkpt lat="45.98749" lon="4.50382">
        <ele>317.4</ele>
        <time>2014-10-02T11:11:35Z</time>
      </trkpt>
      <trkpt lat="45.98751" lon="4.50368">
        <ele>316.7</ele>
        <time>2014-10-02T11:11:37Z</time>
      </trkpt>
      <trkpt lat="45.98753" lon="4.50352">
        <ele>316.1</ele>
        <time>2014-10-02T11:11:39Z</time>
      </trkpt>
      <trkpt lat="45.98756" lon="4.50337">
        <ele>315.5</ele>
        <time>2014-10-02T11:11:41Z</time>
      </trkpt>
      <trkpt lat="45.98761" lon="4.50321">
        <ele>315.7</ele>
        <time>2014-10-02T11:11:43Z</time>
      </trkpt>
      <trkpt lat="45.98767" lon="4.50307">
        <ele>316</ele>
        <time>2014-10-02T11:11:45Z</time>
      </trkpt>
      <trkpt lat="45.98773" lon="4.50294">
        <ele>316.5</ele>
        <time>2014-10-02T11:11:47Z</time>
      </trkpt>
      <trkpt lat="45.98781" lon="4.50281">
        <ele>317.1</ele>
        <time>2014-10-02T11:11:49Z</time>
      </trkpt>
      <trkpt lat="45.9879" lon="4.50269">
        <ele>317.6</ele>
        <time>2014-10-02T11:11:51Z</time>
      </trkpt>
      <trkpt lat="45.98799" lon="4.50258">
        <ele>318.2</ele>
        <time>2014-10-02T11:11:53Z</time>
      </trkpt>
      <trkpt lat="45.98809" lon="4.5025">
        <ele>318.7</ele>
        <time>2014-10-02T11:11:55Z</time>
      </trkpt>
      <trkpt lat="45.98818" lon="4.50242">
        <ele>319.3</ele>
        <time>2014-10-02T11:11:57Z</time>
      </trkpt>
      <trkpt lat="45.98829" lon="4.50235">
        <ele>319.1</ele>
        <time>2014-10-02T11:11:59Z</time>
      </trkpt>
      <trkpt lat="45.9884" lon="4.5023">
        <ele>319.1</ele>
        <time>2014-10-02T11:12:01Z</time>
      </trkpt>
      <trkpt lat="45.98851" lon="4.50227">
        <ele>319.1</ele>
        <time>2014-10-02T11:12:03Z</time>
      </trkpt>
      <trkpt lat="45.9886" lon="4.50225">
        <ele>318.2</ele>
        <time>2014-10-02T11:12:05Z</time>
      </trkpt>
      <trkpt lat="45.98871" lon="4.50222">
        <ele>317.3</ele>
        <time>2014-10-02T11:12:07Z</time>
      </trkpt>
      <trkpt lat="45.9888" lon="4.5022">
        <ele>316.4</ele>
        <time>2014-10-02T11:12:09Z</time>
      </trkpt>
      <trkpt lat="45.98891" lon="4.50217">
        <ele>316.7</ele>
        <time>2014-10-02T11:12:11Z</time>
      </trkpt>
      <trkpt lat="45.98901" lon="4.50216">
        <ele>317.1</ele>
        <time>2014-10-02T11:12:13Z</time>
      </trkpt>
      <trkpt lat="45.98911" lon="4.50214">
        <ele>317.5</ele>
        <time>2014-10-02T11:12:15Z</time>
      </trkpt>
      <trkpt lat="45.9892" lon="4.50214">
        <ele>317.2</ele>
        <time>2014-10-02T11:12:17Z</time>
      </trkpt>
      <trkpt lat="45.98932" lon="4.50218">
        <ele>316.9</ele>
        <time>2014-10-02T11:12:19Z</time>
      </trkpt>
      <trkpt lat="45.98939" lon="4.50224">
        <ele>317.7</ele>
        <time>2014-10-02T11:12:21Z</time>
      </trkpt>
      <trkpt lat="45.98951" lon="4.50229">
        <ele>318.4</ele>
        <time>2014-10-02T11:12:23Z</time>
      </trkpt>
      <trkpt lat="45.98959" lon="4.50243">
        <ele>319.8</ele>
        <time>2014-10-02T11:12:25Z</time>
      </trkpt>
      <trkpt lat="45.98968" lon="4.50253">
        <ele>321.3</ele>
        <time>2014-10-02T11:12:27Z</time>
      </trkpt>
      <trkpt lat="45.98973" lon="4.50267">
        <ele>322.7</ele>
        <time>2014-10-02T11:12:29Z</time>
      </trkpt>
      <trkpt lat="45.98979" lon="4.50279">
        <ele>324.2</ele>
        <time>2014-10-02T11:12:31Z</time>
      </trkpt>
      <trkpt lat="45.98984" lon="4.50293">
        <ele>324.4</ele>
        <time>2014-10-02T11:12:33Z</time>
      </trkpt>
      <trkpt lat="45.9899" lon="4.50307">
        <ele>324.5</ele>
        <time>2014-10-02T11:12:35Z</time>
      </trkpt>
      <trkpt lat="45.98995" lon="4.5032">
        <ele>324.7</ele>
        <time>2014-10-02T11:12:37Z</time>
      </trkpt>
      <trkpt lat="45.99" lon="4.50331">
        <ele>325.5</ele>
        <time>2014-10-02T11:12:39Z</time>
      </trkpt>
      <trkpt lat="45.99006" lon="4.50342">
        <ele>327.2</ele>
        <time>2014-10-02T11:12:41Z</time>
      </trkpt>
      <trkpt lat="45.99012" lon="4.50352">
        <ele>328.8</ele>
        <time>2014-10-02T11:12:43Z</time>
      </trkpt>
      <trkpt lat="45.99019" lon="4.50361">
        <ele>330.5</ele>
        <time>2014-10-02T11:12:45Z</time>
      </trkpt>
      <trkpt lat="45.99027" lon="4.50372">
        <ele>331.3</ele>
        <time>2014-10-02T11:12:47Z</time>
      </trkpt>
      <trkpt lat="45.99036" lon="4.5038">
        <ele>332.1</ele>
        <time>2014-10-02T11:12:49Z</time>
      </trkpt>
      <trkpt lat="45.99048" lon="4.50386">
        <ele>332.9</ele>
        <time>2014-10-02T11:12:51Z</time>
      </trkpt>
      <trkpt lat="45.9906" lon="4.50391">
        <ele>333.6</ele>
        <time>2014-10-02T11:12:53Z</time>
      </trkpt>
      <trkpt lat="45.99073" lon="4.50394">
        <ele>334.4</ele>
        <time>2014-10-02T11:12:55Z</time>
      </trkpt>
      <trkpt lat="45.99087" lon="4.50397">
        <ele>335.1</ele>
        <time>2014-10-02T11:12:57Z</time>
      </trkpt>
      <trkpt lat="45.99102" lon="4.50399">
        <ele>335.8</ele>
        <time>2014-10-02T11:12:59Z</time>
      </trkpt>
      <trkpt lat="45.99116" lon="4.50399">
        <ele>336.5</ele>
        <time>2014-10-02T11:13:01Z</time>
      </trkpt>
      <trkpt lat="45.99129" lon="4.50398">
        <ele>336.5</ele>
        <time>2014-10-02T11:13:03Z</time>
      </trkpt>
      <trkpt lat="45.99142" lon="4.50398">
        <ele>336.4</ele>
        <time>2014-10-02T11:13:05Z</time>
      </trkpt>
      <trkpt lat="45.99154" lon="4.50397">
        <ele>336.6</ele>
        <time>2014-10-02T11:13:07Z</time>
      </trkpt>
      <trkpt lat="45.99167" lon="4.50395">
        <ele>336.9</ele>
        <time>2014-10-02T11:13:09Z</time>
      </trkpt>
      <trkpt lat="45.99178" lon="4.50393">
        <ele>337.2</ele>
        <time>2014-10-02T11:13:11Z</time>
      </trkpt>
      <trkpt lat="45.9919" lon="4.50392">
        <ele>335.5</ele>
        <time>2014-10-02T11:13:13Z</time>
      </trkpt>
      <trkpt lat="45.99202" lon="4.50389">
        <ele>333.8</ele>
        <time>2014-10-02T11:13:15Z</time>
      </trkpt>
      <trkpt lat="45.99212" lon="4.50388">
        <ele>332.2</ele>
        <time>2014-10-02T11:13:17Z</time>
      </trkpt>
      <trkpt lat="45.99222" lon="4.50388">
        <ele>330.5</ele>
        <time>2014-10-02T11:13:19Z</time>
      </trkpt>
      <trkpt lat="45.99234" lon="4.50386">
        <ele>328.9</ele>
        <time>2014-10-02T11:13:21Z</time>
      </trkpt>
      <trkpt lat="45.99245" lon="4.50383">
        <ele>328.2</ele>
        <time>2014-10-02T11:13:23Z</time>
      </trkpt>
      <trkpt lat="45.99255" lon="4.5038">
        <ele>327.5</ele>
        <time>2014-10-02T11:13:25Z</time>
      </trkpt>
      <trkpt lat="45.99266" lon="4.50376">
        <ele>326.7</ele>
        <time>2014-10-02T11:13:27Z</time>
      </trkpt>
      <trkpt lat="45.99277" lon="4.50372">
        <ele>325.6</ele>
        <time>2014-10-02T11:13:29Z</time>
      </trkpt>
      <trkpt lat="45.9929" lon="4.5037">
        <ele>324.5</ele>
        <time>2014-10-02T11:13:31Z</time>
      </trkpt>
      <trkpt lat="45.99297" lon="4.50365">
        <ele>323.5</ele>
        <time>2014-10-02T11:13:33Z</time>
      </trkpt>
      <trkpt lat="45.99308" lon="4.50358">
        <ele>324.4</ele>
        <time>2014-10-02T11:13:35Z</time>
      </trkpt>
      <trkpt lat="45.9932" lon="4.50353">
        <ele>325.3</ele>
        <time>2014-10-02T11:13:37Z</time>
      </trkpt>
      <trkpt lat="45.99329" lon="4.50346">
        <ele>326.2</ele>
        <time>2014-10-02T11:13:39Z</time>
      </trkpt>
      <trkpt lat="45.99338" lon="4.50341">
        <ele>327.4</ele>
        <time>2014-10-02T11:13:41Z</time>
      </trkpt>
      <trkpt lat="45.99345" lon="4.50333">
        <ele>328.5</ele>
        <time>2014-10-02T11:13:43Z</time>
      </trkpt>
      <trkpt lat="45.99354" lon="4.50326">
        <ele>328.8</ele>
        <time>2014-10-02T11:13:45Z</time>
      </trkpt>
      <trkpt lat="45.99365" lon="4.50316">
        <ele>329.1</ele>
        <time>2014-10-02T11:13:48Z</time>
      </trkpt>
      <trkpt lat="45.99373" lon="4.5031">
        <ele>329.4</ele>
        <time>2014-10-02T11:13:50Z</time>
      </trkpt>
      <trkpt lat="45.99382" lon="4.50299">
        <ele>329.6</ele>
        <time>2014-10-02T11:13:52Z</time>
      </trkpt>
      <trkpt lat="45.99391" lon="4.50291">
        <ele>329.9</ele>
        <time>2014-10-02T11:13:54Z</time>
      </trkpt>
      <trkpt lat="45.994" lon="4.50281">
        <ele>330.2</ele>
        <time>2014-10-02T11:13:56Z</time>
      </trkpt>
      <trkpt lat="45.99409" lon="4.5027">
        <ele>330.5</ele>
        <time>2014-10-02T11:13:58Z</time>
      </trkpt>
      <trkpt lat="45.99417" lon="4.50261">
        <ele>330.3</ele>
        <time>2014-10-02T11:14:00Z</time>
      </trkpt>
      <trkpt lat="45.99424" lon="4.50251">
        <ele>330.8</ele>
        <time>2014-10-02T11:14:02Z</time>
      </trkpt>
      <trkpt lat="45.99431" lon="4.50242">
        <ele>331.1</ele>
        <time>2014-10-02T11:14:04Z</time>
      </trkpt>
      <trkpt lat="45.9944" lon="4.50232">
        <ele>331.4</ele>
        <time>2014-10-02T11:14:06Z</time>
      </trkpt>
      <trkpt lat="45.99449" lon="4.50222">
        <ele>331.6</ele>
        <time>2014-10-02T11:14:08Z</time>
      </trkpt>
      <trkpt lat="45.99458" lon="4.50211">
        <ele>331.9</ele>
        <time>2014-10-02T11:14:10Z</time>
      </trkpt>
      <trkpt lat="45.99467" lon="4.50195">
        <ele>331.2</ele>
        <time>2014-10-02T11:14:12Z</time>
      </trkpt>
      <trkpt lat="45.99476" lon="4.50183">
        <ele>330.5</ele>
        <time>2014-10-02T11:14:14Z</time>
      </trkpt>
      <trkpt lat="45.99482" lon="4.50173">
        <ele>329.7</ele>
        <time>2014-10-02T11:14:16Z</time>
      </trkpt>
      <trkpt lat="45.9949" lon="4.50159">
        <ele>329</ele>
        <time>2014-10-02T11:14:18Z</time>
      </trkpt>
      <trkpt lat="45.99498" lon="4.50147">
        <ele>328.3</ele>
        <time>2014-10-02T11:14:20Z</time>
      </trkpt>
      <trkpt lat="45.99505" lon="4.50134">
        <ele>328</ele>
        <time>2014-10-02T11:14:22Z</time>
      </trkpt>
      <trkpt lat="45.99514" lon="4.5012">
        <ele>327.9</ele>
        <time>2014-10-02T11:14:24Z</time>
      </trkpt>
      <trkpt lat="45.99521" lon="4.50108">
        <ele>326.9</ele>
        <time>2014-10-02T11:14:26Z</time>
      </trkpt>
      <trkpt lat="45.99529" lon="4.50095">
        <ele>325.9</ele>
        <time>2014-10-02T11:14:28Z</time>
      </trkpt>
      <trkpt lat="45.99537" lon="4.50082">
        <ele>324.9</ele>
        <time>2014-10-02T11:14:30Z</time>
      </trkpt>
      <trkpt lat="45.99545" lon="4.50069">
        <ele>323.9</ele>
        <time>2014-10-02T11:14:32Z</time>
      </trkpt>
      <trkpt lat="45.99553" lon="4.50055">
        <ele>323.9</ele>
        <time>2014-10-02T11:14:34Z</time>
      </trkpt>
      <trkpt lat="45.99562" lon="4.50042">
        <ele>323.9</ele>
        <time>2014-10-02T11:14:36Z</time>
      </trkpt>
      <trkpt lat="45.99571" lon="4.50031">
        <ele>323.9</ele>
        <time>2014-10-02T11:14:38Z</time>
      </trkpt>
      <trkpt lat="45.9958" lon="4.5002">
        <ele>325</ele>
        <time>2014-10-02T11:14:40Z</time>
      </trkpt>
      <trkpt lat="45.9959" lon="4.5001">
        <ele>326.1</ele>
        <time>2014-10-02T11:14:42Z</time>
      </trkpt>
      <trkpt lat="45.99599" lon="4.5">
        <ele>327.2</ele>
        <time>2014-10-02T11:14:44Z</time>
      </trkpt>
      <trkpt lat="45.99608" lon="4.49991">
        <ele>326.1</ele>
        <time>2014-10-02T11:14:46Z</time>
      </trkpt>
      <trkpt lat="45.99619" lon="4.49983">
        <ele>325.9</ele>
        <time>2014-10-02T11:14:48Z</time>
      </trkpt>
      <trkpt lat="45.99629" lon="4.49976">
        <ele>325.7</ele>
        <time>2014-10-02T11:14:50Z</time>
      </trkpt>
      <trkpt lat="45.99639" lon="4.49969">
        <ele>325.5</ele>
        <time>2014-10-02T11:14:52Z</time>
      </trkpt>
      <trkpt lat="45.9965" lon="4.49962">
        <ele>325.4</ele>
        <time>2014-10-02T11:14:54Z</time>
      </trkpt>
      <trkpt lat="45.9966" lon="4.49956">
        <ele>325.5</ele>
        <time>2014-10-02T11:14:56Z</time>
      </trkpt>
      <trkpt lat="45.99672" lon="4.4995">
        <ele>325.5</ele>
        <time>2014-10-02T11:14:58Z</time>
      </trkpt>
      <trkpt lat="45.99682" lon="4.49945">
        <ele>325.6</ele>
        <time>2014-10-02T11:15:00Z</time>
      </trkpt>
      <trkpt lat="45.99693" lon="4.49937">
        <ele>324.6</ele>
        <time>2014-10-02T11:15:02Z</time>
      </trkpt>
      <trkpt lat="45.99706" lon="4.49931">
        <ele>323.6</ele>
        <time>2014-10-02T11:15:04Z</time>
      </trkpt>
      <trkpt lat="45.99716" lon="4.49927">
        <ele>322.6</ele>
        <time>2014-10-02T11:15:06Z</time>
      </trkpt>
      <trkpt lat="45.99727" lon="4.49926">
        <ele>322.9</ele>
        <time>2014-10-02T11:15:08Z</time>
      </trkpt>
      <trkpt lat="45.99738" lon="4.49925">
        <ele>323.2</ele>
        <time>2014-10-02T11:15:10Z</time>
      </trkpt>
      <trkpt lat="45.9975" lon="4.49926">
        <ele>323.6</ele>
        <time>2014-10-02T11:15:12Z</time>
      </trkpt>
      <trkpt lat="45.99761" lon="4.49929">
        <ele>324.1</ele>
        <time>2014-10-02T11:15:14Z</time>
      </trkpt>
      <trkpt lat="45.99771" lon="4.49932">
        <ele>324.5</ele>
        <time>2014-10-02T11:15:16Z</time>
      </trkpt>
      <trkpt lat="45.99781" lon="4.49935">
        <ele>324.7</ele>
        <time>2014-10-02T11:15:18Z</time>
      </trkpt>
      <trkpt lat="45.99792" lon="4.49938">
        <ele>324.9</ele>
        <time>2014-10-02T11:15:20Z</time>
      </trkpt>
      <trkpt lat="45.99803" lon="4.49938">
        <ele>325.1</ele>
        <time>2014-10-02T11:15:22Z</time>
      </trkpt>
      <trkpt lat="45.99813" lon="4.49941">
        <ele>325.3</ele>
        <time>2014-10-02T11:15:24Z</time>
      </trkpt>
      <trkpt lat="45.99824" lon="4.49941">
        <ele>325.5</ele>
        <time>2014-10-02T11:15:26Z</time>
      </trkpt>
      <trkpt lat="45.99835" lon="4.49941">
        <ele>326.4</ele>
        <time>2014-10-02T11:15:28Z</time>
      </trkpt>
      <trkpt lat="45.99845" lon="4.49938">
        <ele>327.3</ele>
        <time>2014-10-02T11:15:30Z</time>
      </trkpt>
      <trkpt lat="45.99854" lon="4.49938">
        <ele>328.2</ele>
        <time>2014-10-02T11:15:32Z</time>
      </trkpt>
      <trkpt lat="45.99864" lon="4.49935">
        <ele>328.9</ele>
        <time>2014-10-02T11:15:34Z</time>
      </trkpt>
      <trkpt lat="45.99874" lon="4.49931">
        <ele>329.6</ele>
        <time>2014-10-02T11:15:36Z</time>
      </trkpt>
      <trkpt lat="45.99885" lon="4.49931">
        <ele>330.9</ele>
        <time>2014-10-02T11:15:38Z</time>
      </trkpt>
      <trkpt lat="45.9992" lon="4.49909">
        <ele>330.9</ele>
        <time>2014-10-02T11:15:46Z</time>
      </trkpt>
      <trkpt lat="45.99927" lon="4.499">
        <ele>330.9</ele>
        <time>2014-10-02T11:15:47Z</time>
      </trkpt>
      <trkpt lat="45.99941" lon="4.49897">
        <ele>330.9</ele>
        <time>2014-10-02T11:15:49Z</time>
      </trkpt>
      <trkpt lat="45.99953" lon="4.49887">
        <ele>330.9</ele>
        <time>2014-10-02T11:15:51Z</time>
      </trkpt>
      <trkpt lat="45.99964" lon="4.49882">
        <ele>330.9</ele>
        <time>2014-10-02T11:15:53Z</time>
      </trkpt>
      <trkpt lat="45.99982" lon="4.4987">
        <ele>330.2</ele>
        <time>2014-10-02T11:15:56Z</time>
      </trkpt>
      <trkpt lat="45.99991" lon="4.49863">
        <ele>329.5</ele>
        <time>2014-10-02T11:15:58Z</time>
      </trkpt>
      <trkpt lat="46.00002" lon="4.49849">
        <ele>329.5</ele>
        <time>2014-10-02T11:16:00Z</time>
      </trkpt>
      <trkpt lat="46.00009" lon="4.49841">
        <ele>329.6</ele>
        <time>2014-10-02T11:16:01Z</time>
      </trkpt>
      <trkpt lat="46.00019" lon="4.4984">
        <ele>329.7</ele>
        <time>2014-10-02T11:16:03Z</time>
      </trkpt>
      <trkpt lat="46.00028" lon="4.49828">
        <ele>328.3</ele>
        <time>2014-10-02T11:16:04Z</time>
      </trkpt>
      <trkpt lat="46.0004" lon="4.49822">
        <ele>328.1</ele>
        <time>2014-10-02T11:16:06Z</time>
      </trkpt>
      <trkpt lat="46.0005" lon="4.49814">
        <ele>327.9</ele>
        <time>2014-10-02T11:16:08Z</time>
      </trkpt>
      <trkpt lat="46.00061" lon="4.49808">
        <ele>327.7</ele>
        <time>2014-10-02T11:16:10Z</time>
      </trkpt>
      <trkpt lat="46.00074" lon="4.49799">
        <ele>327.9</ele>
        <time>2014-10-02T11:16:12Z</time>
      </trkpt>
      <trkpt lat="46.00086" lon="4.49792">
        <ele>328.1</ele>
        <time>2014-10-02T11:16:14Z</time>
      </trkpt>
      <trkpt lat="46.00098" lon="4.49784">
        <ele>328.3</ele>
        <time>2014-10-02T11:16:16Z</time>
      </trkpt>
      <trkpt lat="46.0011" lon="4.49777">
        <ele>328.5</ele>
        <time>2014-10-02T11:16:18Z</time>
      </trkpt>
      <trkpt lat="46.00122" lon="4.4977">
        <ele>327.8</ele>
        <time>2014-10-02T11:16:20Z</time>
      </trkpt>
      <trkpt lat="46.00134" lon="4.49761">
        <ele>327.2</ele>
        <time>2014-10-02T11:16:22Z</time>
      </trkpt>
      <trkpt lat="46.00146" lon="4.4975">
        <ele>326.5</ele>
        <time>2014-10-02T11:16:24Z</time>
      </trkpt>
      <trkpt lat="46.00157" lon="4.49743">
        <ele>326.9</ele>
        <time>2014-10-02T11:16:26Z</time>
      </trkpt>
      <trkpt lat="46.00168" lon="4.49736">
        <ele>327.3</ele>
        <time>2014-10-02T11:16:28Z</time>
      </trkpt>
      <trkpt lat="46.00179" lon="4.49729">
        <ele>327.6</ele>
        <time>2014-10-02T11:16:30Z</time>
      </trkpt>
      <trkpt lat="46.0019" lon="4.49722">
        <ele>328</ele>
        <time>2014-10-02T11:16:32Z</time>
      </trkpt>
      <trkpt lat="46.00199" lon="4.49717">
        <ele>328</ele>
        <time>2014-10-02T11:16:34Z</time>
      </trkpt>
      <trkpt lat="46.00211" lon="4.49712">
        <ele>328</ele>
        <time>2014-10-02T11:16:36Z</time>
      </trkpt>
      <trkpt lat="46.00222" lon="4.49708">
        <ele>328</ele>
        <time>2014-10-02T11:16:38Z</time>
      </trkpt>
      <trkpt lat="46.00234" lon="4.49704">
        <ele>328</ele>
        <time>2014-10-02T11:16:40Z</time>
      </trkpt>
      <trkpt lat="46.00245" lon="4.49703">
        <ele>328.2</ele>
        <time>2014-10-02T11:16:42Z</time>
      </trkpt>
      <trkpt lat="46.00257" lon="4.49701">
        <ele>328.4</ele>
        <time>2014-10-02T11:16:44Z</time>
      </trkpt>
      <trkpt lat="46.00268" lon="4.49701">
        <ele>328.5</ele>
        <time>2014-10-02T11:16:46Z</time>
      </trkpt>
      <trkpt lat="46.00279" lon="4.49699">
        <ele>328.7</ele>
        <time>2014-10-02T11:16:48Z</time>
      </trkpt>
      <trkpt lat="46.00291" lon="4.49698">
        <ele>328.9</ele>
        <time>2014-10-02T11:16:50Z</time>
      </trkpt>
      <trkpt lat="46.00302" lon="4.49698">
        <ele>329.1</ele>
        <time>2014-10-02T11:16:52Z</time>
      </trkpt>
      <trkpt lat="46.00312" lon="4.49697">
        <ele>329.3</ele>
        <time>2014-10-02T11:16:54Z</time>
      </trkpt>
      <trkpt lat="46.00321" lon="4.49698">
        <ele>329.5</ele>
        <time>2014-10-02T11:16:56Z</time>
      </trkpt>
      <trkpt lat="46.00333" lon="4.49696">
        <ele>329.8</ele>
        <time>2014-10-02T11:16:58Z</time>
      </trkpt>
      <trkpt lat="46.00343" lon="4.49694">
        <ele>330.2</ele>
        <time>2014-10-02T11:17:00Z</time>
      </trkpt>
      <trkpt lat="46.00355" lon="4.49693">
        <ele>330.5</ele>
        <time>2014-10-02T11:17:02Z</time>
      </trkpt>
      <trkpt lat="46.00366" lon="4.49692">
        <ele>330.7</ele>
        <time>2014-10-02T11:17:04Z</time>
      </trkpt>
      <trkpt lat="46.00378" lon="4.49692">
        <ele>330.9</ele>
        <time>2014-10-02T11:17:06Z</time>
      </trkpt>
      <trkpt lat="46.00389" lon="4.49689">
        <ele>331.1</ele>
        <time>2014-10-02T11:17:08Z</time>
      </trkpt>
      <trkpt lat="46.004" lon="4.49688">
        <ele>331.3</ele>
        <time>2014-10-02T11:17:10Z</time>
      </trkpt>
      <trkpt lat="46.00412" lon="4.49687">
        <ele>331</ele>
        <time>2014-10-02T11:17:12Z</time>
      </trkpt>
      <trkpt lat="46.00424" lon="4.49686">
        <ele>330.7</ele>
        <time>2014-10-02T11:17:14Z</time>
      </trkpt>
      <trkpt lat="46.00435" lon="4.49689">
        <ele>330.5</ele>
        <time>2014-10-02T11:17:16Z</time>
      </trkpt>
      <trkpt lat="46.00446" lon="4.4969">
        <ele>330.9</ele>
        <time>2014-10-02T11:17:18Z</time>
      </trkpt>
      <trkpt lat="46.00456" lon="4.49693">
        <ele>331.2</ele>
        <time>2014-10-02T11:17:20Z</time>
      </trkpt>
      <trkpt lat="46.00467" lon="4.49699">
        <ele>331.5</ele>
        <time>2014-10-02T11:17:22Z</time>
      </trkpt>
      <trkpt lat="46.00476" lon="4.49701">
        <ele>331.7</ele>
        <time>2014-10-02T11:17:24Z</time>
      </trkpt>
      <trkpt lat="46.00485" lon="4.49708">
        <ele>332</ele>
        <time>2014-10-02T11:17:26Z</time>
      </trkpt>
      <trkpt lat="46.00494" lon="4.49715">
        <ele>332.3</ele>
        <time>2014-10-02T11:17:28Z</time>
      </trkpt>
      <trkpt lat="46.00504" lon="4.49724">
        <ele>331.5</ele>
        <time>2014-10-02T11:17:30Z</time>
      </trkpt>
      <trkpt lat="46.00513" lon="4.49729">
        <ele>330.8</ele>
        <time>2014-10-02T11:17:32Z</time>
      </trkpt>
      <trkpt lat="46.00522" lon="4.49735">
        <ele>330.5</ele>
        <time>2014-10-02T11:17:34Z</time>
      </trkpt>
      <trkpt lat="46.00532" lon="4.49742">
        <ele>330.3</ele>
        <time>2014-10-02T11:17:36Z</time>
      </trkpt>
      <trkpt lat="46.00542" lon="4.49748">
        <ele>330</ele>
        <time>2014-10-02T11:17:38Z</time>
      </trkpt>
      <trkpt lat="46.00552" lon="4.49753">
        <ele>329</ele>
        <time>2014-10-02T11:17:40Z</time>
      </trkpt>
      <trkpt lat="46.00563" lon="4.49758">
        <ele>328</ele>
        <time>2014-10-02T11:17:42Z</time>
      </trkpt>
      <trkpt lat="46.00573" lon="4.49762">
        <ele>327.3</ele>
        <time>2014-10-02T11:17:44Z</time>
      </trkpt>
      <trkpt lat="46.00584" lon="4.49767">
        <ele>326.5</ele>
        <time>2014-10-02T11:17:46Z</time>
      </trkpt>
      <trkpt lat="46.00596" lon="4.49771">
        <ele>325.8</ele>
        <time>2014-10-02T11:17:48Z</time>
      </trkpt>
      <trkpt lat="46.00607" lon="4.49776">
        <ele>325.1</ele>
        <time>2014-10-02T11:17:50Z</time>
      </trkpt>
      <trkpt lat="46.00619" lon="4.49778">
        <ele>325.4</ele>
        <time>2014-10-02T11:17:52Z</time>
      </trkpt>
      <trkpt lat="46.0063" lon="4.49779">
        <ele>325.6</ele>
        <time>2014-10-02T11:17:54Z</time>
      </trkpt>
      <trkpt lat="46.00642" lon="4.4978">
        <ele>325.9</ele>
        <time>2014-10-02T11:17:56Z</time>
      </trkpt>
      <trkpt lat="46.00653" lon="4.4978">
        <ele>326.4</ele>
        <time>2014-10-02T11:17:58Z</time>
      </trkpt>
      <trkpt lat="46.00666" lon="4.49786">
        <ele>326.8</ele>
        <time>2014-10-02T11:18:00Z</time>
      </trkpt>
      <trkpt lat="46.00679" lon="4.49786">
        <ele>327.3</ele>
        <time>2014-10-02T11:18:02Z</time>
      </trkpt>
      <trkpt lat="46.00692" lon="4.49784">
        <ele>327.7</ele>
        <time>2014-10-02T11:18:04Z</time>
      </trkpt>
      <trkpt lat="46.00703" lon="4.49781">
        <ele>327.9</ele>
        <time>2014-10-02T11:18:06Z</time>
      </trkpt>
      <trkpt lat="46.00714" lon="4.49777">
        <ele>328.1</ele>
        <time>2014-10-02T11:18:08Z</time>
      </trkpt>
      <trkpt lat="46.00726" lon="4.49772">
        <ele>328.3</ele>
        <time>2014-10-02T11:18:10Z</time>
      </trkpt>
      <trkpt lat="46.00736" lon="4.49768">
        <ele>329.5</ele>
        <time>2014-10-02T11:18:12Z</time>
      </trkpt>
      <trkpt lat="46.00748" lon="4.49761">
        <ele>330.8</ele>
        <time>2014-10-02T11:18:14Z</time>
      </trkpt>
      <trkpt lat="46.0076" lon="4.49753">
        <ele>332.1</ele>
        <time>2014-10-02T11:18:16Z</time>
      </trkpt>
      <trkpt lat="46.00773" lon="4.49745">
        <ele>333.4</ele>
        <time>2014-10-02T11:18:18Z</time>
      </trkpt>
      <trkpt lat="46.00784" lon="4.49739">
        <ele>333.5</ele>
        <time>2014-10-02T11:18:20Z</time>
      </trkpt>
      <trkpt lat="46.00796" lon="4.49732">
        <ele>333.5</ele>
        <time>2014-10-02T11:18:22Z</time>
      </trkpt>
      <trkpt lat="46.00808" lon="4.49726">
        <ele>333.6</ele>
        <time>2014-10-02T11:18:24Z</time>
      </trkpt>
      <trkpt lat="46.00819" lon="4.4972">
        <ele>333.7</ele>
        <time>2014-10-02T11:18:26Z</time>
      </trkpt>
      <trkpt lat="46.0083" lon="4.49714">
        <ele>333.8</ele>
        <time>2014-10-02T11:18:28Z</time>
      </trkpt>
      <trkpt lat="46.0084" lon="4.49711">
        <ele>335.2</ele>
        <time>2014-10-02T11:18:30Z</time>
      </trkpt>
      <trkpt lat="46.00848" lon="4.49712">
        <ele>335.3</ele>
        <time>2014-10-02T11:18:32Z</time>
      </trkpt>
      <trkpt lat="46.0086" lon="4.49711">
        <ele>334.3</ele>
        <time>2014-10-02T11:18:34Z</time>
      </trkpt>
      <trkpt lat="46.0087" lon="4.49711">
        <ele>333.3</ele>
        <time>2014-10-02T11:18:36Z</time>
      </trkpt>
      <trkpt lat="46.0088" lon="4.49713">
        <ele>332.3</ele>
        <time>2014-10-02T11:18:38Z</time>
      </trkpt>
      <trkpt lat="46.00891" lon="4.49715">
        <ele>331.3</ele>
        <time>2014-10-02T11:18:40Z</time>
      </trkpt>
      <trkpt lat="46.00899" lon="4.49699">
        <ele>331.3</ele>
        <time>2014-10-02T11:18:42Z</time>
      </trkpt>
      <trkpt lat="46.00908" lon="4.49697">
        <ele>331.3</ele>
        <time>2014-10-02T11:18:44Z</time>
      </trkpt>
      <trkpt lat="46.00917" lon="4.49696">
        <ele>331.3</ele>
        <time>2014-10-02T11:18:46Z</time>
      </trkpt>
      <trkpt lat="46.00927" lon="4.49694">
        <ele>331.3</ele>
        <time>2014-10-02T11:18:48Z</time>
      </trkpt>
      <trkpt lat="46.00938" lon="4.49694">
        <ele>331.3</ele>
        <time>2014-10-02T11:18:50Z</time>
      </trkpt>
      <trkpt lat="46.00949" lon="4.49698">
        <ele>331</ele>
        <time>2014-10-02T11:18:52Z</time>
      </trkpt>
      <trkpt lat="46.00959" lon="4.49698">
        <ele>332</ele>
        <time>2014-10-02T11:18:54Z</time>
      </trkpt>
      <trkpt lat="46.00969" lon="4.49706">
        <ele>333</ele>
        <time>2014-10-02T11:18:56Z</time>
      </trkpt>
      <trkpt lat="46.0098" lon="4.49709">
        <ele>334</ele>
        <time>2014-10-02T11:18:58Z</time>
      </trkpt>
      <trkpt lat="46.00991" lon="4.49714">
        <ele>335</ele>
        <time>2014-10-02T11:19:00Z</time>
      </trkpt>
      <trkpt lat="46.01001" lon="4.49724">
        <ele>335.8</ele>
        <time>2014-10-02T11:19:02Z</time>
      </trkpt>
      <trkpt lat="46.01012" lon="4.49726">
        <ele>336.6</ele>
        <time>2014-10-02T11:19:04Z</time>
      </trkpt>
      <trkpt lat="46.01024" lon="4.49735">
        <ele>337.5</ele>
        <time>2014-10-02T11:19:06Z</time>
      </trkpt>
      <trkpt lat="46.01034" lon="4.49741">
        <ele>338.3</ele>
        <time>2014-10-02T11:19:08Z</time>
      </trkpt>
      <trkpt lat="46.01045" lon="4.49746">
        <ele>339.1</ele>
        <time>2014-10-02T11:19:10Z</time>
      </trkpt>
      <trkpt lat="46.01055" lon="4.49751">
        <ele>339.9</ele>
        <time>2014-10-02T11:19:12Z</time>
      </trkpt>
      <trkpt lat="46.01065" lon="4.49755">
        <ele>339.7</ele>
        <time>2014-10-02T11:19:14Z</time>
      </trkpt>
      <trkpt lat="46.01074" lon="4.49761">
        <ele>339.5</ele>
        <time>2014-10-02T11:19:16Z</time>
      </trkpt>
      <trkpt lat="46.01083" lon="4.49765">
        <ele>339</ele>
        <time>2014-10-02T11:19:18Z</time>
      </trkpt>
      <trkpt lat="46.01093" lon="4.4977">
        <ele>338.5</ele>
        <time>2014-10-02T11:19:20Z</time>
      </trkpt>
      <trkpt lat="46.01102" lon="4.49774">
        <ele>337.9</ele>
        <time>2014-10-02T11:19:22Z</time>
      </trkpt>
      <trkpt lat="46.01111" lon="4.49778">
        <ele>337.5</ele>
        <time>2014-10-02T11:19:24Z</time>
      </trkpt>
      <trkpt lat="46.01119" lon="4.4978">
        <ele>337.2</ele>
        <time>2014-10-02T11:19:27Z</time>
      </trkpt>
      <trkpt lat="46.01128" lon="4.49781">
        <ele>336.8</ele>
        <time>2014-10-02T11:19:28Z</time>
      </trkpt>
      <trkpt lat="46.01138" lon="4.49781">
        <ele>336.5</ele>
        <time>2014-10-02T11:19:30Z</time>
      </trkpt>
      <trkpt lat="46.01146" lon="4.49782">
        <ele>336.1</ele>
        <time>2014-10-02T11:19:32Z</time>
      </trkpt>
      <trkpt lat="46.01159" lon="4.49781">
        <ele>335.7</ele>
        <time>2014-10-02T11:19:35Z</time>
      </trkpt>
      <trkpt lat="46.01167" lon="4.49779">
        <ele>335.6</ele>
        <time>2014-10-02T11:19:37Z</time>
      </trkpt>
      <trkpt lat="46.01176" lon="4.49779">
        <ele>335.5</ele>
        <time>2014-10-02T11:19:39Z</time>
      </trkpt>
      <trkpt lat="46.01186" lon="4.49779">
        <ele>335.8</ele>
        <time>2014-10-02T11:19:41Z</time>
      </trkpt>
      <trkpt lat="46.01195" lon="4.49777">
        <ele>336.1</ele>
        <time>2014-10-02T11:19:43Z</time>
      </trkpt>
      <trkpt lat="46.01205" lon="4.49775">
        <ele>336.4</ele>
        <time>2014-10-02T11:19:45Z</time>
      </trkpt>
      <trkpt lat="46.01215" lon="4.49773">
        <ele>336.6</ele>
        <time>2014-10-02T11:19:47Z</time>
      </trkpt>
      <trkpt lat="46.01224" lon="4.49771">
        <ele>336.9</ele>
        <time>2014-10-02T11:19:49Z</time>
      </trkpt>
      <trkpt lat="46.01233" lon="4.4977">
        <ele>337.2</ele>
        <time>2014-10-02T11:19:51Z</time>
      </trkpt>
      <trkpt lat="46.01243" lon="4.49766">
        <ele>337.2</ele>
        <time>2014-10-02T11:19:53Z</time>
      </trkpt>
      <trkpt lat="46.01254" lon="4.49763">
        <ele>337.2</ele>
        <time>2014-10-02T11:19:55Z</time>
      </trkpt>
      <trkpt lat="46.01264" lon="4.49761">
        <ele>337.2</ele>
        <time>2014-10-02T11:19:57Z</time>
      </trkpt>
      <trkpt lat="46.01274" lon="4.49762">
        <ele>336.9</ele>
        <time>2014-10-02T11:19:59Z</time>
      </trkpt>
      <trkpt lat="46.01284" lon="4.49762">
        <ele>336.6</ele>
        <time>2014-10-02T11:20:01Z</time>
      </trkpt>
      <trkpt lat="46.01294" lon="4.49764">
        <ele>338.2</ele>
        <time>2014-10-02T11:20:03Z</time>
      </trkpt>
      <trkpt lat="46.01306" lon="4.49768">
        <ele>339.7</ele>
        <time>2014-10-02T11:20:05Z</time>
      </trkpt>
      <trkpt lat="46.01316" lon="4.49774">
        <ele>341.3</ele>
        <time>2014-10-02T11:20:07Z</time>
      </trkpt>
      <trkpt lat="46.01326" lon="4.49784">
        <ele>341.9</ele>
        <time>2014-10-02T11:20:09Z</time>
      </trkpt>
      <trkpt lat="46.01337" lon="4.49792">
        <ele>342.5</ele>
        <time>2014-10-02T11:20:11Z</time>
      </trkpt>
      <trkpt lat="46.01348" lon="4.49801">
        <ele>343.2</ele>
        <time>2014-10-02T11:20:13Z</time>
      </trkpt>
      <trkpt lat="46.0136" lon="4.4981">
        <ele>344.1</ele>
        <time>2014-10-02T11:20:15Z</time>
      </trkpt>
      <trkpt lat="46.01371" lon="4.49817">
        <ele>345</ele>
        <time>2014-10-02T11:20:17Z</time>
      </trkpt>
      <trkpt lat="46.01384" lon="4.49823">
        <ele>345.9</ele>
        <time>2014-10-02T11:20:19Z</time>
      </trkpt>
      <trkpt lat="46.01396" lon="4.49826">
        <ele>346.8</ele>
        <time>2014-10-02T11:20:21Z</time>
      </trkpt>
      <trkpt lat="46.01409" lon="4.49825">
        <ele>347.7</ele>
        <time>2014-10-02T11:20:23Z</time>
      </trkpt>
      <trkpt lat="46.01421" lon="4.49821">
        <ele>346.5</ele>
        <time>2014-10-02T11:20:25Z</time>
      </trkpt>
      <trkpt lat="46.01432" lon="4.49816">
        <ele>345.4</ele>
        <time>2014-10-02T11:20:27Z</time>
      </trkpt>
      <trkpt lat="46.01442" lon="4.4981">
        <ele>344.2</ele>
        <time>2014-10-02T11:20:29Z</time>
      </trkpt>
      <trkpt lat="46.01452" lon="4.49803">
        <ele>343.9</ele>
        <time>2014-10-02T11:20:31Z</time>
      </trkpt>
      <trkpt lat="46.01462" lon="4.49796">
        <ele>343.6</ele>
        <time>2014-10-02T11:20:33Z</time>
      </trkpt>
      <trkpt lat="46.01471" lon="4.49788">
        <ele>343.4</ele>
        <time>2014-10-02T11:20:35Z</time>
      </trkpt>
      <trkpt lat="46.0148" lon="4.49781">
        <ele>343.1</ele>
        <time>2014-10-02T11:20:37Z</time>
      </trkpt>
      <trkpt lat="46.01489" lon="4.49774">
        <ele>343.5</ele>
        <time>2014-10-02T11:20:39Z</time>
      </trkpt>
      <trkpt lat="46.01519" lon="4.49752">
        <ele>344</ele>
        <time>2014-10-02T11:20:47Z</time>
      </trkpt>
      <trkpt lat="46.01528" lon="4.49746">
        <ele>344.5</ele>
        <time>2014-10-02T11:20:48Z</time>
      </trkpt>
      <trkpt lat="46.01536" lon="4.4974">
        <ele>344.9</ele>
        <time>2014-10-02T11:20:50Z</time>
      </trkpt>
      <trkpt lat="46.01544" lon="4.49736">
        <ele>345.6</ele>
        <time>2014-10-02T11:20:52Z</time>
      </trkpt>
      <trkpt lat="46.01553" lon="4.49731">
        <ele>346.4</ele>
        <time>2014-10-02T11:20:54Z</time>
      </trkpt>
      <trkpt lat="46.01562" lon="4.49728">
        <ele>347.1</ele>
        <time>2014-10-02T11:20:56Z</time>
      </trkpt>
      <trkpt lat="46.01572" lon="4.49725">
        <ele>347.8</ele>
        <time>2014-10-02T11:20:58Z</time>
      </trkpt>
      <trkpt lat="46.01583" lon="4.49721">
        <ele>347.8</ele>
        <time>2014-10-02T11:21:00Z</time>
      </trkpt>
      <trkpt lat="46.01593" lon="4.49726">
        <ele>347.8</ele>
        <time>2014-10-02T11:21:02Z</time>
      </trkpt>
      <trkpt lat="46.01602" lon="4.49729">
        <ele>347.8</ele>
        <time>2014-10-02T11:21:04Z</time>
      </trkpt>
      <trkpt lat="46.01611" lon="4.49732">
        <ele>347.1</ele>
        <time>2014-10-02T11:21:06Z</time>
      </trkpt>
      <trkpt lat="46.0162" lon="4.49738">
        <ele>346.4</ele>
        <time>2014-10-02T11:21:08Z</time>
      </trkpt>
      <trkpt lat="46.0163" lon="4.49743">
        <ele>345.6</ele>
        <time>2014-10-02T11:21:10Z</time>
      </trkpt>
      <trkpt lat="46.0164" lon="4.4975">
        <ele>344.9</ele>
        <time>2014-10-02T11:21:12Z</time>
      </trkpt>
      <trkpt lat="46.0165" lon="4.49757">
        <ele>344.2</ele>
        <time>2014-10-02T11:21:14Z</time>
      </trkpt>
      <trkpt lat="46.01659" lon="4.49764">
        <ele>344</ele>
        <time>2014-10-02T11:21:16Z</time>
      </trkpt>
      <trkpt lat="46.01669" lon="4.49773">
        <ele>343.8</ele>
        <time>2014-10-02T11:21:18Z</time>
      </trkpt>
      <trkpt lat="46.01679" lon="4.4978">
        <ele>343.6</ele>
        <time>2014-10-02T11:21:20Z</time>
      </trkpt>
      <trkpt lat="46.01689" lon="4.49788">
        <ele>344.2</ele>
        <time>2014-10-02T11:21:22Z</time>
      </trkpt>
      <trkpt lat="46.017" lon="4.49795">
        <ele>344.7</ele>
        <time>2014-10-02T11:21:24Z</time>
      </trkpt>
      <trkpt lat="46.0171" lon="4.49801">
        <ele>345.3</ele>
        <time>2014-10-02T11:21:26Z</time>
      </trkpt>
      <trkpt lat="46.01721" lon="4.49808">
        <ele>345.8</ele>
        <time>2014-10-02T11:21:28Z</time>
      </trkpt>
      <trkpt lat="46.01732" lon="4.49815">
        <ele>346.4</ele>
        <time>2014-10-02T11:21:30Z</time>
      </trkpt>
      <trkpt lat="46.01742" lon="4.4982">
        <ele>346.4</ele>
        <time>2014-10-02T11:21:32Z</time>
      </trkpt>
      <trkpt lat="46.01753" lon="4.49826">
        <ele>346.4</ele>
        <time>2014-10-02T11:21:34Z</time>
      </trkpt>
      <trkpt lat="46.01763" lon="4.49833">
        <ele>346.4</ele>
        <time>2014-10-02T11:21:36Z</time>
      </trkpt>
      <trkpt lat="46.01774" lon="4.49841">
        <ele>346.7</ele>
        <time>2014-10-02T11:21:38Z</time>
      </trkpt>
      <trkpt lat="46.01785" lon="4.49847">
        <ele>347.1</ele>
        <time>2014-10-02T11:21:40Z</time>
      </trkpt>
      <trkpt lat="46.01796" lon="4.49855">
        <ele>347.5</ele>
        <time>2014-10-02T11:21:42Z</time>
      </trkpt>
      <trkpt lat="46.01805" lon="4.49864">
        <ele>347.8</ele>
        <time>2014-10-02T11:21:44Z</time>
      </trkpt>
      <trkpt lat="46.01815" lon="4.49873">
        <ele>348.2</ele>
        <time>2014-10-02T11:21:46Z</time>
      </trkpt>
      <trkpt lat="46.01824" lon="4.49882">
        <ele>348.5</ele>
        <time>2014-10-02T11:21:48Z</time>
      </trkpt>
      <trkpt lat="46.01833" lon="4.49891">
        <ele>348.6</ele>
        <time>2014-10-02T11:21:50Z</time>
      </trkpt>
      <trkpt lat="46.01843" lon="4.49898">
        <ele>348.7</ele>
        <time>2014-10-02T11:21:52Z</time>
      </trkpt>
      <trkpt lat="46.01852" lon="4.49905">
        <ele>349.4</ele>
        <time>2014-10-02T11:21:54Z</time>
      </trkpt>
      <trkpt lat="46.01862" lon="4.49909">
        <ele>350</ele>
        <time>2014-10-02T11:21:56Z</time>
      </trkpt>
      <trkpt lat="46.01871" lon="4.49914">
        <ele>350.6</ele>
        <time>2014-10-02T11:21:58Z</time>
      </trkpt>
      <trkpt lat="46.01881" lon="4.49919">
        <ele>350.4</ele>
        <time>2014-10-02T11:22:00Z</time>
      </trkpt>
      <trkpt lat="46.01891" lon="4.49924">
        <ele>350.1</ele>
        <time>2014-10-02T11:22:02Z</time>
      </trkpt>
      <trkpt lat="46.01902" lon="4.49931">
        <ele>349.8</ele>
        <time>2014-10-02T11:22:04Z</time>
      </trkpt>
      <trkpt lat="46.01913" lon="4.49935">
        <ele>349.5</ele>
        <time>2014-10-02T11:22:06Z</time>
      </trkpt>
      <trkpt lat="46.01924" lon="4.49941">
        <ele>349</ele>
        <time>2014-10-02T11:22:08Z</time>
      </trkpt>
      <trkpt lat="46.01934" lon="4.49947">
        <ele>348.5</ele>
        <time>2014-10-02T11:22:10Z</time>
      </trkpt>
      <trkpt lat="46.01944" lon="4.49944">
        <ele>348.2</ele>
        <time>2014-10-02T11:22:12Z</time>
      </trkpt>
      <trkpt lat="46.01953" lon="4.49945">
        <ele>347.9</ele>
        <time>2014-10-02T11:22:14Z</time>
      </trkpt>
      <trkpt lat="46.0196" lon="4.49951">
        <ele>347.6</ele>
        <time>2014-10-02T11:22:16Z</time>
      </trkpt>
      <trkpt lat="46.01971" lon="4.49939">
        <ele>347.4</ele>
        <time>2014-10-02T11:22:18Z</time>
      </trkpt>
      <trkpt lat="46.01984" lon="4.4994">
        <ele>346.9</ele>
        <time>2014-10-02T11:22:20Z</time>
      </trkpt>
      <trkpt lat="46.01995" lon="4.49941">
        <ele>346.5</ele>
        <time>2014-10-02T11:22:22Z</time>
      </trkpt>
      <trkpt lat="46.02007" lon="4.49943">
        <ele>346</ele>
        <time>2014-10-02T11:22:24Z</time>
      </trkpt>
      <trkpt lat="46.02021" lon="4.49938">
        <ele>345.5</ele>
        <time>2014-10-02T11:22:26Z</time>
      </trkpt>
      <trkpt lat="46.02035" lon="4.49935">
        <ele>345.1</ele>
        <time>2014-10-02T11:22:28Z</time>
      </trkpt>
      <trkpt lat="46.02051" lon="4.49932">
        <ele>344.9</ele>
        <time>2014-10-02T11:22:30Z</time>
      </trkpt>
      <trkpt lat="46.02065" lon="4.49934">
        <ele>344.4</ele>
        <time>2014-10-02T11:22:32Z</time>
      </trkpt>
      <trkpt lat="46.02078" lon="4.49937">
        <ele>343.8</ele>
        <time>2014-10-02T11:22:34Z</time>
      </trkpt>
      <trkpt lat="46.02092" lon="4.49941">
        <ele>343.3</ele>
        <time>2014-10-02T11:22:36Z</time>
      </trkpt>
      <trkpt lat="46.02109" lon="4.4994">
        <ele>342.7</ele>
        <time>2014-10-02T11:22:38Z</time>
      </trkpt>
      <trkpt lat="46.02124" lon="4.49943">
        <ele>342.2</ele>
        <time>2014-10-02T11:22:40Z</time>
      </trkpt>
      <trkpt lat="46.02138" lon="4.49947">
        <ele>341.8</ele>
        <time>2014-10-02T11:22:42Z</time>
      </trkpt>
      <trkpt lat="46.02147" lon="4.49949">
        <ele>341.2</ele>
        <time>2014-10-02T11:22:43Z</time>
      </trkpt>
      <trkpt lat="46.02161" lon="4.49949">
        <ele>340.5</ele>
        <time>2014-10-02T11:22:45Z</time>
      </trkpt>
      <trkpt lat="46.02177" lon="4.49951">
        <ele>339.9</ele>
        <time>2014-10-02T11:22:47Z</time>
      </trkpt>
      <trkpt lat="46.02193" lon="4.49953">
        <ele>339.3</ele>
        <time>2014-10-02T11:22:49Z</time>
      </trkpt>
      <trkpt lat="46.02201" lon="4.49952">
        <ele>338.6</ele>
        <time>2014-10-02T11:22:50Z</time>
      </trkpt>
      <trkpt lat="46.0221" lon="4.49952">
        <ele>338.4</ele>
        <time>2014-10-02T11:22:51Z</time>
      </trkpt>
      <trkpt lat="46.02218" lon="4.49953">
        <ele>338.1</ele>
        <time>2014-10-02T11:22:52Z</time>
      </trkpt>
      <trkpt lat="46.02235" lon="4.49952">
        <ele>338.3</ele>
        <time>2014-10-02T11:22:54Z</time>
      </trkpt>
      <trkpt lat="46.02243" lon="4.49951">
        <ele>338.5</ele>
        <time>2014-10-02T11:22:55Z</time>
      </trkpt>
      <trkpt lat="46.02251" lon="4.4995">
        <ele>338.6</ele>
        <time>2014-10-02T11:22:56Z</time>
      </trkpt>
      <trkpt lat="46.02266" lon="4.4995">
        <ele>338.8</ele>
        <time>2014-10-02T11:22:58Z</time>
      </trkpt>
      <trkpt lat="46.02281" lon="4.49949">
        <ele>339.3</ele>
        <time>2014-10-02T11:23:00Z</time>
      </trkpt>
      <trkpt lat="46.02296" lon="4.49949">
        <ele>339.7</ele>
        <time>2014-10-02T11:23:02Z</time>
      </trkpt>
      <trkpt lat="46.02304" lon="4.49947">
        <ele>340.2</ele>
        <time>2014-10-02T11:23:03Z</time>
      </trkpt>
      <trkpt lat="46.02317" lon="4.49946">
        <ele>340.6</ele>
        <time>2014-10-02T11:23:05Z</time>
      </trkpt>
      <trkpt lat="46.02331" lon="4.49944">
        <ele>341.5</ele>
        <time>2014-10-02T11:23:07Z</time>
      </trkpt>
      <trkpt lat="46.02344" lon="4.49943">
        <ele>342.3</ele>
        <time>2014-10-02T11:23:09Z</time>
      </trkpt>
      <trkpt lat="46.02356" lon="4.49942">
        <ele>343.1</ele>
        <time>2014-10-02T11:23:11Z</time>
      </trkpt>
      <trkpt lat="46.02369" lon="4.49939">
        <ele>343.5</ele>
        <time>2014-10-02T11:23:13Z</time>
      </trkpt>
      <trkpt lat="46.0238" lon="4.49938">
        <ele>343.8</ele>
        <time>2014-10-02T11:23:15Z</time>
      </trkpt>
      <trkpt lat="46.02392" lon="4.49937">
        <ele>344.2</ele>
        <time>2014-10-02T11:23:17Z</time>
      </trkpt>
      <trkpt lat="46.02403" lon="4.49934">
        <ele>344.5</ele>
        <time>2014-10-02T11:23:19Z</time>
      </trkpt>
      <trkpt lat="46.02415" lon="4.49931">
        <ele>346.3</ele>
        <time>2014-10-02T11:23:21Z</time>
      </trkpt>
      <trkpt lat="46.02426" lon="4.49926">
        <ele>348</ele>
        <time>2014-10-02T11:23:23Z</time>
      </trkpt>
      <trkpt lat="46.02437" lon="4.49923">
        <ele>349.7</ele>
        <time>2014-10-02T11:23:25Z</time>
      </trkpt>
      <trkpt lat="46.02448" lon="4.49919">
        <ele>351.5</ele>
        <time>2014-10-02T11:23:27Z</time>
      </trkpt>
      <trkpt lat="46.02459" lon="4.49914">
        <ele>352.8</ele>
        <time>2014-10-02T11:23:29Z</time>
      </trkpt>
      <trkpt lat="46.0247" lon="4.4991">
        <ele>354.2</ele>
        <time>2014-10-02T11:23:31Z</time>
      </trkpt>
      <trkpt lat="46.02481" lon="4.49905">
        <ele>355.5</ele>
        <time>2014-10-02T11:23:33Z</time>
      </trkpt>
      <trkpt lat="46.02491" lon="4.499">
        <ele>355.5</ele>
        <time>2014-10-02T11:23:35Z</time>
      </trkpt>
      <trkpt lat="46.02501" lon="4.49896">
        <ele>356.1</ele>
        <time>2014-10-02T11:23:37Z</time>
      </trkpt>
      <trkpt lat="46.02512" lon="4.4989">
        <ele>356.7</ele>
        <time>2014-10-02T11:23:39Z</time>
      </trkpt>
      <trkpt lat="46.02522" lon="4.49884">
        <ele>357.4</ele>
        <time>2014-10-02T11:23:41Z</time>
      </trkpt>
      <trkpt lat="46.02532" lon="4.49879">
        <ele>356.6</ele>
        <time>2014-10-02T11:23:43Z</time>
      </trkpt>
      <trkpt lat="46.02543" lon="4.49875">
        <ele>355.9</ele>
        <time>2014-10-02T11:23:45Z</time>
      </trkpt>
      <trkpt lat="46.02553" lon="4.49869">
        <ele>355.2</ele>
        <time>2014-10-02T11:23:47Z</time>
      </trkpt>
      <trkpt lat="46.02563" lon="4.49865">
        <ele>354.5</ele>
        <time>2014-10-02T11:23:49Z</time>
      </trkpt>
      <trkpt lat="46.02573" lon="4.49859">
        <ele>353.7</ele>
        <time>2014-10-02T11:23:51Z</time>
      </trkpt>
      <trkpt lat="46.02582" lon="4.49855">
        <ele>353.3</ele>
        <time>2014-10-02T11:23:53Z</time>
      </trkpt>
      <trkpt lat="46.02592" lon="4.49849">
        <ele>352.8</ele>
        <time>2014-10-02T11:23:55Z</time>
      </trkpt>
      <trkpt lat="46.02601" lon="4.49845">
        <ele>353.8</ele>
        <time>2014-10-02T11:23:57Z</time>
      </trkpt>
      <trkpt lat="46.02611" lon="4.49841">
        <ele>354.1</ele>
        <time>2014-10-02T11:23:59Z</time>
      </trkpt>
      <trkpt lat="46.0262" lon="4.49837">
        <ele>354.4</ele>
        <time>2014-10-02T11:24:01Z</time>
      </trkpt>
      <trkpt lat="46.0263" lon="4.49832">
        <ele>354.6</ele>
        <time>2014-10-02T11:24:03Z</time>
      </trkpt>
      <trkpt lat="46.02638" lon="4.49827">
        <ele>354.9</ele>
        <time>2014-10-02T11:24:05Z</time>
      </trkpt>
      <trkpt lat="46.02648" lon="4.49822">
        <ele>355.2</ele>
        <time>2014-10-02T11:24:07Z</time>
      </trkpt>
      <trkpt lat="46.02658" lon="4.49817">
        <ele>355.5</ele>
        <time>2014-10-02T11:24:09Z</time>
      </trkpt>
      <trkpt lat="46.02667" lon="4.49817">
        <ele>355.7</ele>
        <time>2014-10-02T11:24:11Z</time>
      </trkpt>
      <trkpt lat="46.02675" lon="4.49815">
        <ele>355.2</ele>
        <time>2014-10-02T11:24:13Z</time>
      </trkpt>
      <trkpt lat="46.02685" lon="4.49809">
        <ele>354.4</ele>
        <time>2014-10-02T11:24:15Z</time>
      </trkpt>
      <trkpt lat="46.02695" lon="4.49804">
        <ele>353.5</ele>
        <time>2014-10-02T11:24:17Z</time>
      </trkpt>
      <trkpt lat="46.02706" lon="4.49799">
        <ele>352.7</ele>
        <time>2014-10-02T11:24:19Z</time>
      </trkpt>
      <trkpt lat="46.02715" lon="4.49798">
        <ele>351.9</ele>
        <time>2014-10-02T11:24:21Z</time>
      </trkpt>
      <trkpt lat="46.02725" lon="4.49794">
        <ele>351.1</ele>
        <time>2014-10-02T11:24:23Z</time>
      </trkpt>
      <trkpt lat="46.02735" lon="4.49793">
        <ele>350.3</ele>
        <time>2014-10-02T11:24:25Z</time>
      </trkpt>
      <trkpt lat="46.02746" lon="4.49792">
        <ele>349.7</ele>
        <time>2014-10-02T11:24:27Z</time>
      </trkpt>
      <trkpt lat="46.02755" lon="4.49792">
        <ele>349.2</ele>
        <time>2014-10-02T11:24:29Z</time>
      </trkpt>
      <trkpt lat="46.02766" lon="4.49788">
        <ele>348.6</ele>
        <time>2014-10-02T11:24:31Z</time>
      </trkpt>
      <trkpt lat="46.02777" lon="4.49785">
        <ele>348.1</ele>
        <time>2014-10-02T11:24:33Z</time>
      </trkpt>
      <trkpt lat="46.02787" lon="4.49783">
        <ele>348.4</ele>
        <time>2014-10-02T11:24:35Z</time>
      </trkpt>
      <trkpt lat="46.02799" lon="4.49784">
        <ele>348.6</ele>
        <time>2014-10-02T11:24:37Z</time>
      </trkpt>
      <trkpt lat="46.02809" lon="4.49781">
        <ele>348.9</ele>
        <time>2014-10-02T11:24:39Z</time>
      </trkpt>
      <trkpt lat="46.02819" lon="4.4978">
        <ele>349.2</ele>
        <time>2014-10-02T11:24:41Z</time>
      </trkpt>
      <trkpt lat="46.02829" lon="4.49778">
        <ele>349.5</ele>
        <time>2014-10-02T11:24:43Z</time>
      </trkpt>
      <trkpt lat="46.02839" lon="4.49776">
        <ele>349.9</ele>
        <time>2014-10-02T11:24:45Z</time>
      </trkpt>
      <trkpt lat="46.02849" lon="4.49775">
        <ele>350.4</ele>
        <time>2014-10-02T11:24:47Z</time>
      </trkpt>
      <trkpt lat="46.02859" lon="4.49773">
        <ele>350.5</ele>
        <time>2014-10-02T11:24:49Z</time>
      </trkpt>
      <trkpt lat="46.02868" lon="4.49773">
        <ele>350.7</ele>
        <time>2014-10-02T11:24:51Z</time>
      </trkpt>
      <trkpt lat="46.02879" lon="4.4977">
        <ele>350.9</ele>
        <time>2014-10-02T11:24:53Z</time>
      </trkpt>
      <trkpt lat="46.0289" lon="4.49767">
        <ele>351.1</ele>
        <time>2014-10-02T11:24:55Z</time>
      </trkpt>
      <trkpt lat="46.02899" lon="4.49766">
        <ele>351.3</ele>
        <time>2014-10-02T11:24:57Z</time>
      </trkpt>
      <trkpt lat="46.02909" lon="4.49763">
        <ele>351.5</ele>
        <time>2014-10-02T11:24:59Z</time>
      </trkpt>
      <trkpt lat="46.0292" lon="4.49761">
        <ele>351.7</ele>
        <time>2014-10-02T11:25:01Z</time>
      </trkpt>
      <trkpt lat="46.02929" lon="4.49759">
        <ele>352</ele>
        <time>2014-10-02T11:25:03Z</time>
      </trkpt>
      <trkpt lat="46.0294" lon="4.49758">
        <ele>352.3</ele>
        <time>2014-10-02T11:25:05Z</time>
      </trkpt>
      <trkpt lat="46.02951" lon="4.49755">
        <ele>352.4</ele>
        <time>2014-10-02T11:25:07Z</time>
      </trkpt>
      <trkpt lat="46.02961" lon="4.49753">
        <ele>352.5</ele>
        <time>2014-10-02T11:25:09Z</time>
      </trkpt>
      <trkpt lat="46.02973" lon="4.49749">
        <ele>352.5</ele>
        <time>2014-10-02T11:25:11Z</time>
      </trkpt>
      <trkpt lat="46.02984" lon="4.49745">
        <ele>352.6</ele>
        <time>2014-10-02T11:25:13Z</time>
      </trkpt>
      <trkpt lat="46.02995" lon="4.49742">
        <ele>352.9</ele>
        <time>2014-10-02T11:25:15Z</time>
      </trkpt>
      <trkpt lat="46.03006" lon="4.49737">
        <ele>353.2</ele>
        <time>2014-10-02T11:25:17Z</time>
      </trkpt>
      <trkpt lat="46.03017" lon="4.49732">
        <ele>353</ele>
        <time>2014-10-02T11:25:19Z</time>
      </trkpt>
      <trkpt lat="46.03028" lon="4.49727">
        <ele>352.8</ele>
        <time>2014-10-02T11:25:21Z</time>
      </trkpt>
      <trkpt lat="46.03039" lon="4.49722">
        <ele>352.5</ele>
        <time>2014-10-02T11:25:23Z</time>
      </trkpt>
      <trkpt lat="46.03049" lon="4.49718">
        <ele>352.3</ele>
        <time>2014-10-02T11:25:25Z</time>
      </trkpt>
      <trkpt lat="46.03059" lon="4.49715">
        <ele>352</ele>
        <time>2014-10-02T11:25:27Z</time>
      </trkpt>
      <trkpt lat="46.03069" lon="4.4971">
        <ele>351.7</ele>
        <time>2014-10-02T11:25:29Z</time>
      </trkpt>
      <trkpt lat="46.0308" lon="4.49706">
        <ele>352</ele>
        <time>2014-10-02T11:25:31Z</time>
      </trkpt>
      <trkpt lat="46.03089" lon="4.49702">
        <ele>352.3</ele>
        <time>2014-10-02T11:25:33Z</time>
      </trkpt>
      <trkpt lat="46.03098" lon="4.49699">
        <ele>352.5</ele>
        <time>2014-10-02T11:25:35Z</time>
      </trkpt>
      <trkpt lat="46.03108" lon="4.49694">
        <ele>352.6</ele>
        <time>2014-10-02T11:25:37Z</time>
      </trkpt>
      <trkpt lat="46.03118" lon="4.4969">
        <ele>352.7</ele>
        <time>2014-10-02T11:25:39Z</time>
      </trkpt>
      <trkpt lat="46.03174" lon="4.49658">
        <ele>353.3</ele>
        <time>2014-10-02T11:25:50Z</time>
      </trkpt>
      <trkpt lat="46.03183" lon="4.49656">
        <ele>353.5</ele>
        <time>2014-10-02T11:25:52Z</time>
      </trkpt>
      <trkpt lat="46.03195" lon="4.49652">
        <ele>353.6</ele>
        <time>2014-10-02T11:25:54Z</time>
      </trkpt>
      <trkpt lat="46.03206" lon="4.49646">
        <ele>353.8</ele>
        <time>2014-10-02T11:25:56Z</time>
      </trkpt>
      <trkpt lat="46.03217" lon="4.4964">
        <ele>354</ele>
        <time>2014-10-02T11:25:58Z</time>
      </trkpt>
      <trkpt lat="46.03228" lon="4.49633">
        <ele>354.2</ele>
        <time>2014-10-02T11:26:00Z</time>
      </trkpt>
      <trkpt lat="46.03238" lon="4.49627">
        <ele>353.8</ele>
        <time>2014-10-02T11:26:02Z</time>
      </trkpt>
      <trkpt lat="46.03249" lon="4.4962">
        <ele>353.5</ele>
        <time>2014-10-02T11:26:04Z</time>
      </trkpt>
      <trkpt lat="46.03259" lon="4.49614">
        <ele>353.1</ele>
        <time>2014-10-02T11:26:06Z</time>
      </trkpt>
      <trkpt lat="46.03271" lon="4.49607">
        <ele>352.7</ele>
        <time>2014-10-02T11:26:08Z</time>
      </trkpt>
      <trkpt lat="46.03283" lon="4.496">
        <ele>352.4</ele>
        <time>2014-10-02T11:26:10Z</time>
      </trkpt>
      <trkpt lat="46.03294" lon="4.49595">
        <ele>352</ele>
        <time>2014-10-02T11:26:12Z</time>
      </trkpt>
      <trkpt lat="46.03307" lon="4.49587">
        <ele>352</ele>
        <time>2014-10-02T11:26:14Z</time>
      </trkpt>
      <trkpt lat="46.03318" lon="4.49581">
        <ele>352</ele>
        <time>2014-10-02T11:26:16Z</time>
      </trkpt>
      <trkpt lat="46.03328" lon="4.49575">
        <ele>352</ele>
        <time>2014-10-02T11:26:18Z</time>
      </trkpt>
      <trkpt lat="46.03338" lon="4.4957">
        <ele>352</ele>
        <time>2014-10-02T11:26:20Z</time>
      </trkpt>
      <trkpt lat="46.03348" lon="4.49566">
        <ele>352</ele>
        <time>2014-10-02T11:26:22Z</time>
      </trkpt>
      <trkpt lat="46.03358" lon="4.49561">
        <ele>352</ele>
        <time>2014-10-02T11:26:24Z</time>
      </trkpt>
      <trkpt lat="46.03369" lon="4.49555">
        <ele>352</ele>
        <time>2014-10-02T11:26:26Z</time>
      </trkpt>
      <trkpt lat="46.03379" lon="4.4955">
        <ele>352</ele>
        <time>2014-10-02T11:26:28Z</time>
      </trkpt>
      <trkpt lat="46.03388" lon="4.49546">
        <ele>352</ele>
        <time>2014-10-02T11:26:30Z</time>
      </trkpt>
      <trkpt lat="46.03399" lon="4.4954">
        <ele>352</ele>
        <time>2014-10-02T11:26:32Z</time>
      </trkpt>
      <trkpt lat="46.03414" lon="4.49525">
        <ele>352.2</ele>
        <time>2014-10-02T11:26:34Z</time>
      </trkpt>
      <trkpt lat="46.03426" lon="4.49519">
        <ele>352.4</ele>
        <time>2014-10-02T11:26:37Z</time>
      </trkpt>
      <trkpt lat="46.03434" lon="4.49514">
        <ele>352.5</ele>
        <time>2014-10-02T11:26:39Z</time>
      </trkpt>
      <trkpt lat="46.03444" lon="4.49507">
        <ele>352.7</ele>
        <time>2014-10-02T11:26:41Z</time>
      </trkpt>
      <trkpt lat="46.03454" lon="4.49501">
        <ele>352.7</ele>
        <time>2014-10-02T11:26:43Z</time>
      </trkpt>
      <trkpt lat="46.03464" lon="4.49494">
        <ele>352.7</ele>
        <time>2014-10-02T11:26:45Z</time>
      </trkpt>
      <trkpt lat="46.03472" lon="4.49487">
        <ele>352.7</ele>
        <time>2014-10-02T11:26:47Z</time>
      </trkpt>
      <trkpt lat="46.03486" lon="4.49475">
        <ele>352.7</ele>
        <time>2014-10-02T11:26:49Z</time>
      </trkpt>
      <trkpt lat="46.03494" lon="4.49468">
        <ele>352.7</ele>
        <time>2014-10-02T11:26:51Z</time>
      </trkpt>
      <trkpt lat="46.03503" lon="4.49459">
        <ele>352.7</ele>
        <time>2014-10-02T11:26:53Z</time>
      </trkpt>
      <trkpt lat="46.03513" lon="4.49448">
        <ele>352.8</ele>
        <time>2014-10-02T11:26:55Z</time>
      </trkpt>
      <trkpt lat="46.03521" lon="4.4944">
        <ele>352.7</ele>
        <time>2014-10-02T11:26:57Z</time>
      </trkpt>
      <trkpt lat="46.03529" lon="4.49433">
        <ele>352.5</ele>
        <time>2014-10-02T11:26:59Z</time>
      </trkpt>
      <trkpt lat="46.03537" lon="4.49423">
        <ele>352.2</ele>
        <time>2014-10-02T11:27:01Z</time>
      </trkpt>
      <trkpt lat="46.03544" lon="4.49414">
        <ele>351.9</ele>
        <time>2014-10-02T11:27:03Z</time>
      </trkpt>
      <trkpt lat="46.03554" lon="4.49402">
        <ele>351.8</ele>
        <time>2014-10-02T11:27:05Z</time>
      </trkpt>
      <trkpt lat="46.03561" lon="4.4939">
        <ele>351.7</ele>
        <time>2014-10-02T11:27:07Z</time>
      </trkpt>
      <trkpt lat="46.03568" lon="4.49378">
        <ele>351.6</ele>
        <time>2014-10-02T11:27:09Z</time>
      </trkpt>
      <trkpt lat="46.03576" lon="4.49367">
        <ele>351.5</ele>
        <time>2014-10-02T11:27:11Z</time>
      </trkpt>
      <trkpt lat="46.03582" lon="4.49356">
        <ele>351.9</ele>
        <time>2014-10-02T11:27:13Z</time>
      </trkpt>
      <trkpt lat="46.03589" lon="4.49345">
        <ele>352.3</ele>
        <time>2014-10-02T11:27:15Z</time>
      </trkpt>
      <trkpt lat="46.03595" lon="4.49333">
        <ele>352.5</ele>
        <time>2014-10-02T11:27:17Z</time>
      </trkpt>
      <trkpt lat="46.03602" lon="4.49321">
        <ele>352.8</ele>
        <time>2014-10-02T11:27:20Z</time>
      </trkpt>
      <trkpt lat="46.03608" lon="4.49309">
        <ele>353.3</ele>
        <time>2014-10-02T11:27:22Z</time>
      </trkpt>
      <trkpt lat="46.03616" lon="4.49298">
        <ele>353.7</ele>
        <time>2014-10-02T11:27:23Z</time>
      </trkpt>
      <trkpt lat="46.03622" lon="4.49287">
        <ele>354.2</ele>
        <time>2014-10-02T11:27:25Z</time>
      </trkpt>
      <trkpt lat="46.03629" lon="4.49276">
        <ele>354.6</ele>
        <time>2014-10-02T11:27:27Z</time>
      </trkpt>
      <trkpt lat="46.03636" lon="4.49265">
        <ele>355.6</ele>
        <time>2014-10-02T11:27:29Z</time>
      </trkpt>
      <trkpt lat="46.03643" lon="4.49254">
        <ele>356.6</ele>
        <time>2014-10-02T11:27:31Z</time>
      </trkpt>
      <trkpt lat="46.0365" lon="4.49245">
        <ele>357.6</ele>
        <time>2014-10-02T11:27:33Z</time>
      </trkpt>
      <trkpt lat="46.03658" lon="4.49236">
        <ele>358.2</ele>
        <time>2014-10-02T11:27:35Z</time>
      </trkpt>
      <trkpt lat="46.03665" lon="4.49225">
        <ele>358.7</ele>
        <time>2014-10-02T11:27:37Z</time>
      </trkpt>
      <trkpt lat="46.03672" lon="4.49216">
        <ele>358.7</ele>
        <time>2014-10-02T11:27:39Z</time>
      </trkpt>
      <trkpt lat="46.0368" lon="4.49207">
        <ele>358.7</ele>
        <time>2014-10-02T11:27:41Z</time>
      </trkpt>
      <trkpt lat="46.03686" lon="4.49198">
        <ele>358.7</ele>
        <time>2014-10-02T11:27:43Z</time>
      </trkpt>
      <trkpt lat="46.03694" lon="4.49189">
        <ele>358.7</ele>
        <time>2014-10-02T11:27:45Z</time>
      </trkpt>
      <trkpt lat="46.03702" lon="4.49181">
        <ele>359.5</ele>
        <time>2014-10-02T11:27:47Z</time>
      </trkpt>
      <trkpt lat="46.0371" lon="4.49172">
        <ele>360.4</ele>
        <time>2014-10-02T11:27:49Z</time>
      </trkpt>
      <trkpt lat="46.03717" lon="4.49162">
        <ele>360.6</ele>
        <time>2014-10-02T11:27:51Z</time>
      </trkpt>
      <trkpt lat="46.03725" lon="4.49152">
        <ele>360.9</ele>
        <time>2014-10-02T11:27:53Z</time>
      </trkpt>
      <trkpt lat="46.03732" lon="4.49143">
        <ele>361.2</ele>
        <time>2014-10-02T11:27:55Z</time>
      </trkpt>
      <trkpt lat="46.0374" lon="4.49134">
        <ele>361.5</ele>
        <time>2014-10-02T11:27:57Z</time>
      </trkpt>
      <trkpt lat="46.03747" lon="4.49125">
        <ele>361.7</ele>
        <time>2014-10-02T11:27:59Z</time>
      </trkpt>
      <trkpt lat="46.03755" lon="4.49116">
        <ele>362.5</ele>
        <time>2014-10-02T11:28:01Z</time>
      </trkpt>
      <trkpt lat="46.03762" lon="4.49106">
        <ele>362.6</ele>
        <time>2014-10-02T11:28:03Z</time>
      </trkpt>
      <trkpt lat="46.03769" lon="4.49097">
        <ele>362.7</ele>
        <time>2014-10-02T11:28:05Z</time>
      </trkpt>
      <trkpt lat="46.03776" lon="4.49088">
        <ele>364</ele>
        <time>2014-10-02T11:28:07Z</time>
      </trkpt>
      <trkpt lat="46.03783" lon="4.49079">
        <ele>364.5</ele>
        <time>2014-10-02T11:28:09Z</time>
      </trkpt>
      <trkpt lat="46.0379" lon="4.49069">
        <ele>364.9</ele>
        <time>2014-10-02T11:28:11Z</time>
      </trkpt>
      <trkpt lat="46.03798" lon="4.49059">
        <ele>365.4</ele>
        <time>2014-10-02T11:28:13Z</time>
      </trkpt>
      <trkpt lat="46.03806" lon="4.49049">
        <ele>365.8</ele>
        <time>2014-10-02T11:28:15Z</time>
      </trkpt>
      <trkpt lat="46.03813" lon="4.4904">
        <ele>366.3</ele>
        <time>2014-10-02T11:28:17Z</time>
      </trkpt>
      <trkpt lat="46.03821" lon="4.49031">
        <ele>366.7</ele>
        <time>2014-10-02T11:28:19Z</time>
      </trkpt>
      <trkpt lat="46.03828" lon="4.49023">
        <ele>367.2</ele>
        <time>2014-10-02T11:28:21Z</time>
      </trkpt>
      <trkpt lat="46.03836" lon="4.49015">
        <ele>366.6</ele>
        <time>2014-10-02T11:28:24Z</time>
      </trkpt>
      <trkpt lat="46.03845" lon="4.49009">
        <ele>366.8</ele>
        <time>2014-10-02T11:28:25Z</time>
      </trkpt>
      <trkpt lat="46.03855" lon="4.49002">
        <ele>367</ele>
        <time>2014-10-02T11:28:27Z</time>
      </trkpt>
      <trkpt lat="46.03863" lon="4.48997">
        <ele>366</ele>
        <time>2014-10-02T11:28:29Z</time>
      </trkpt>
      <trkpt lat="46.03873" lon="4.48991">
        <ele>365</ele>
        <time>2014-10-02T11:28:31Z</time>
      </trkpt>
      <trkpt lat="46.03882" lon="4.48986">
        <ele>364</ele>
        <time>2014-10-02T11:28:33Z</time>
      </trkpt>
      <trkpt lat="46.03891" lon="4.48983">
        <ele>363</ele>
        <time>2014-10-02T11:28:35Z</time>
      </trkpt>
      <trkpt lat="46.03901" lon="4.48981">
        <ele>362</ele>
        <time>2014-10-02T11:28:37Z</time>
      </trkpt>
      <trkpt lat="46.03911" lon="4.48979">
        <ele>360.9</ele>
        <time>2014-10-02T11:28:39Z</time>
      </trkpt>
      <trkpt lat="46.03921" lon="4.48976">
        <ele>359.8</ele>
        <time>2014-10-02T11:28:42Z</time>
      </trkpt>
      <trkpt lat="46.03931" lon="4.48974">
        <ele>358.7</ele>
        <time>2014-10-02T11:28:43Z</time>
      </trkpt>
      <trkpt lat="46.03942" lon="4.48971">
        <ele>358.6</ele>
        <time>2014-10-02T11:28:45Z</time>
      </trkpt>
      <trkpt lat="46.03952" lon="4.48969">
        <ele>358.5</ele>
        <time>2014-10-02T11:28:47Z</time>
      </trkpt>
      <trkpt lat="46.03964" lon="4.48967">
        <ele>358.5</ele>
        <time>2014-10-02T11:28:49Z</time>
      </trkpt>
      <trkpt lat="46.03975" lon="4.48964">
        <ele>358.4</ele>
        <time>2014-10-02T11:28:51Z</time>
      </trkpt>
      <trkpt lat="46.03985" lon="4.48963">
        <ele>358.3</ele>
        <time>2014-10-02T11:28:53Z</time>
      </trkpt>
      <trkpt lat="46.03995" lon="4.48962">
        <ele>358.2</ele>
        <time>2014-10-02T11:28:55Z</time>
      </trkpt>
      <trkpt lat="46.04005" lon="4.48961">
        <ele>358.1</ele>
        <time>2014-10-02T11:28:57Z</time>
      </trkpt>
      <trkpt lat="46.04015" lon="4.48962">
        <ele>358.9</ele>
        <time>2014-10-02T11:28:59Z</time>
      </trkpt>
      <trkpt lat="46.04027" lon="4.48961">
        <ele>359.8</ele>
        <time>2014-10-02T11:29:01Z</time>
      </trkpt>
      <trkpt lat="46.04037" lon="4.48962">
        <ele>360.7</ele>
        <time>2014-10-02T11:29:03Z</time>
      </trkpt>
      <trkpt lat="46.04047" lon="4.48962">
        <ele>361.6</ele>
        <time>2014-10-02T11:29:05Z</time>
      </trkpt>
      <trkpt lat="46.04058" lon="4.48961">
        <ele>362.5</ele>
        <time>2014-10-02T11:29:07Z</time>
      </trkpt>
      <trkpt lat="46.04068" lon="4.4896">
        <ele>363.5</ele>
        <time>2014-10-02T11:29:09Z</time>
      </trkpt>
      <trkpt lat="46.04078" lon="4.48959">
        <ele>363.9</ele>
        <time>2014-10-02T11:29:11Z</time>
      </trkpt>
      <trkpt lat="46.0409" lon="4.48954">
        <ele>364.4</ele>
        <time>2014-10-02T11:29:13Z</time>
      </trkpt>
      <trkpt lat="46.04101" lon="4.48949">
        <ele>364.8</ele>
        <time>2014-10-02T11:29:15Z</time>
      </trkpt>
      <trkpt lat="46.04111" lon="4.48945">
        <ele>365.3</ele>
        <time>2014-10-02T11:29:17Z</time>
      </trkpt>
      <trkpt lat="46.04121" lon="4.4894">
        <ele>365.7</ele>
        <time>2014-10-02T11:29:19Z</time>
      </trkpt>
      <trkpt lat="46.04132" lon="4.48935">
        <ele>365.3</ele>
        <time>2014-10-02T11:29:21Z</time>
      </trkpt>
      <trkpt lat="46.04143" lon="4.48932">
        <ele>364.8</ele>
        <time>2014-10-02T11:29:24Z</time>
      </trkpt>
      <trkpt lat="46.04153" lon="4.48928">
        <ele>364.4</ele>
        <time>2014-10-02T11:29:26Z</time>
      </trkpt>
      <trkpt lat="46.04163" lon="4.48921">
        <ele>363.8</ele>
        <time>2014-10-02T11:29:28Z</time>
      </trkpt>
      <trkpt lat="46.04173" lon="4.48915">
        <ele>363.3</ele>
        <time>2014-10-02T11:29:30Z</time>
      </trkpt>
      <trkpt lat="46.04183" lon="4.48909">
        <ele>362.7</ele>
        <time>2014-10-02T11:29:32Z</time>
      </trkpt>
      <trkpt lat="46.04193" lon="4.48903">
        <ele>363.4</ele>
        <time>2014-10-02T11:29:34Z</time>
      </trkpt>
      <trkpt lat="46.04204" lon="4.48895">
        <ele>364</ele>
        <time>2014-10-02T11:29:36Z</time>
      </trkpt>
      <trkpt lat="46.04215" lon="4.48888">
        <ele>364.6</ele>
        <time>2014-10-02T11:29:38Z</time>
      </trkpt>
      <trkpt lat="46.04223" lon="4.48886">
        <ele>365.3</ele>
        <time>2014-10-02T11:29:40Z</time>
      </trkpt>
      <trkpt lat="46.04233" lon="4.4888">
        <ele>365.9</ele>
        <time>2014-10-02T11:29:42Z</time>
      </trkpt>
      <trkpt lat="46.04243" lon="4.48875">
        <ele>366.5</ele>
        <time>2014-10-02T11:29:44Z</time>
      </trkpt>
      <trkpt lat="46.04253" lon="4.48872">
        <ele>366.8</ele>
        <time>2014-10-02T11:29:46Z</time>
      </trkpt>
      <trkpt lat="46.04262" lon="4.48867">
        <ele>367.1</ele>
        <time>2014-10-02T11:29:49Z</time>
      </trkpt>
      <trkpt lat="46.04271" lon="4.48862">
        <ele>367.5</ele>
        <time>2014-10-02T11:29:51Z</time>
      </trkpt>
      <trkpt lat="46.04281" lon="4.48857">
        <ele>367.8</ele>
        <time>2014-10-02T11:29:52Z</time>
      </trkpt>
      <trkpt lat="46.04291" lon="4.48852">
        <ele>368.2</ele>
        <time>2014-10-02T11:29:54Z</time>
      </trkpt>
      <trkpt lat="46.043" lon="4.4885">
        <ele>367.8</ele>
        <time>2014-10-02T11:29:56Z</time>
      </trkpt>
      <trkpt lat="46.04309" lon="4.48846">
        <ele>367.5</ele>
        <time>2014-10-02T11:29:58Z</time>
      </trkpt>
      <trkpt lat="46.04319" lon="4.48843">
        <ele>367.1</ele>
        <time>2014-10-02T11:30:00Z</time>
      </trkpt>
      <trkpt lat="46.04329" lon="4.48838">
        <ele>366.7</ele>
        <time>2014-10-02T11:30:02Z</time>
      </trkpt>
      <trkpt lat="46.04338" lon="4.48834">
        <ele>366.5</ele>
        <time>2014-10-02T11:30:04Z</time>
      </trkpt>
      <trkpt lat="46.04347" lon="4.48832">
        <ele>366.2</ele>
        <time>2014-10-02T11:30:06Z</time>
      </trkpt>
      <trkpt lat="46.04357" lon="4.4883">
        <ele>366.3</ele>
        <time>2014-10-02T11:30:08Z</time>
      </trkpt>
      <trkpt lat="46.04368" lon="4.48826">
        <ele>366.4</ele>
        <time>2014-10-02T11:30:10Z</time>
      </trkpt>
      <trkpt lat="46.04378" lon="4.48825">
        <ele>366.5</ele>
        <time>2014-10-02T11:30:12Z</time>
      </trkpt>
      <trkpt lat="46.04387" lon="4.48825">
        <ele>366.5</ele>
        <time>2014-10-02T11:30:14Z</time>
      </trkpt>
      <trkpt lat="46.04396" lon="4.48828">
        <ele>366.6</ele>
        <time>2014-10-02T11:30:16Z</time>
      </trkpt>
      <trkpt lat="46.04406" lon="4.4883">
        <ele>366.7</ele>
        <time>2014-10-02T11:30:18Z</time>
      </trkpt>
      <trkpt lat="46.04415" lon="4.48834">
        <ele>367.4</ele>
        <time>2014-10-02T11:30:20Z</time>
      </trkpt>
      <trkpt lat="46.04425" lon="4.48837">
        <ele>368</ele>
        <time>2014-10-02T11:30:22Z</time>
      </trkpt>
      <trkpt lat="46.04436" lon="4.48839">
        <ele>368.6</ele>
        <time>2014-10-02T11:30:24Z</time>
      </trkpt>
      <trkpt lat="46.04447" lon="4.48843">
        <ele>369.2</ele>
        <time>2014-10-02T11:30:26Z</time>
      </trkpt>
      <trkpt lat="46.04457" lon="4.48846">
        <ele>369.7</ele>
        <time>2014-10-02T11:30:28Z</time>
      </trkpt>
      <trkpt lat="46.04468" lon="4.48848">
        <ele>370.3</ele>
        <time>2014-10-02T11:30:30Z</time>
      </trkpt>
      <trkpt lat="46.04478" lon="4.48851">
        <ele>370.8</ele>
        <time>2014-10-02T11:30:32Z</time>
      </trkpt>
      <trkpt lat="46.04487" lon="4.48855">
        <ele>371.4</ele>
        <time>2014-10-02T11:30:34Z</time>
      </trkpt>
      <trkpt lat="46.04497" lon="4.48858">
        <ele>371.1</ele>
        <time>2014-10-02T11:30:36Z</time>
      </trkpt>
      <trkpt lat="46.04507" lon="4.48861">
        <ele>371.2</ele>
        <time>2014-10-02T11:30:38Z</time>
      </trkpt>
      <trkpt lat="46.04517" lon="4.48864">
        <ele>371.3</ele>
        <time>2014-10-02T11:30:40Z</time>
      </trkpt>
      <trkpt lat="46.04527" lon="4.48869">
        <ele>370.8</ele>
        <time>2014-10-02T11:30:42Z</time>
      </trkpt>
      <trkpt lat="46.04534" lon="4.48876">
        <ele>370.4</ele>
        <time>2014-10-02T11:30:44Z</time>
      </trkpt>
      <trkpt lat="46.04544" lon="4.48881">
        <ele>369.9</ele>
        <time>2014-10-02T11:30:46Z</time>
      </trkpt>
      <trkpt lat="46.04554" lon="4.48884">
        <ele>369.5</ele>
        <time>2014-10-02T11:30:48Z</time>
      </trkpt>
      <trkpt lat="46.04565" lon="4.48887">
        <ele>369</ele>
        <time>2014-10-02T11:30:50Z</time>
      </trkpt>
      <trkpt lat="46.04575" lon="4.48889">
        <ele>368.5</ele>
        <time>2014-10-02T11:30:52Z</time>
      </trkpt>
      <trkpt lat="46.04585" lon="4.4889">
        <ele>368.1</ele>
        <time>2014-10-02T11:30:54Z</time>
      </trkpt>
      <trkpt lat="46.04596" lon="4.48891">
        <ele>367.6</ele>
        <time>2014-10-02T11:30:56Z</time>
      </trkpt>
      <trkpt lat="46.04606" lon="4.48893">
        <ele>368</ele>
        <time>2014-10-02T11:30:58Z</time>
      </trkpt>
      <trkpt lat="46.04617" lon="4.48892">
        <ele>368</ele>
        <time>2014-10-02T11:31:00Z</time>
      </trkpt>
      <trkpt lat="46.04628" lon="4.48892">
        <ele>368</ele>
        <time>2014-10-02T11:31:02Z</time>
      </trkpt>
      <trkpt lat="46.04639" lon="4.48892">
        <ele>368</ele>
        <time>2014-10-02T11:31:04Z</time>
      </trkpt>
      <trkpt lat="46.04653" lon="4.4889">
        <ele>368</ele>
        <time>2014-10-02T11:31:06Z</time>
      </trkpt>
      <trkpt lat="46.04665" lon="4.48889">
        <ele>368.2</ele>
        <time>2014-10-02T11:31:09Z</time>
      </trkpt>
      <trkpt lat="46.04674" lon="4.48894">
        <ele>368.4</ele>
        <time>2014-10-02T11:31:11Z</time>
      </trkpt>
      <trkpt lat="46.04686" lon="4.48896">
        <ele>368.5</ele>
        <time>2014-10-02T11:31:13Z</time>
      </trkpt>
      <trkpt lat="46.04696" lon="4.48901">
        <ele>368.7</ele>
        <time>2014-10-02T11:31:14Z</time>
      </trkpt>
      <trkpt lat="46.04705" lon="4.48906">
        <ele>368.9</ele>
        <time>2014-10-02T11:31:16Z</time>
      </trkpt>
      <trkpt lat="46.04717" lon="4.48911">
        <ele>369.1</ele>
        <time>2014-10-02T11:31:18Z</time>
      </trkpt>
      <trkpt lat="46.04724" lon="4.48921">
        <ele>369.3</ele>
        <time>2014-10-02T11:31:20Z</time>
      </trkpt>
      <trkpt lat="46.04732" lon="4.48927">
        <ele>369.5</ele>
        <time>2014-10-02T11:31:22Z</time>
      </trkpt>
      <trkpt lat="46.04743" lon="4.48931">
        <ele>369.6</ele>
        <time>2014-10-02T11:31:24Z</time>
      </trkpt>
      <trkpt lat="46.04753" lon="4.48937">
        <ele>369.3</ele>
        <time>2014-10-02T11:31:26Z</time>
      </trkpt>
      <trkpt lat="46.04763" lon="4.48943">
        <ele>369.5</ele>
        <time>2014-10-02T11:31:28Z</time>
      </trkpt>
      <trkpt lat="46.04771" lon="4.48946">
        <ele>369.5</ele>
        <time>2014-10-02T11:31:30Z</time>
      </trkpt>
      <trkpt lat="46.0478" lon="4.4895">
        <ele>369.5</ele>
        <time>2014-10-02T11:31:32Z</time>
      </trkpt>
      <trkpt lat="46.0479" lon="4.48956">
        <ele>369.5</ele>
        <time>2014-10-02T11:31:34Z</time>
      </trkpt>
      <trkpt lat="46.04798" lon="4.48963">
        <ele>369.5</ele>
        <time>2014-10-02T11:31:36Z</time>
      </trkpt>
      <trkpt lat="46.04808" lon="4.48967">
        <ele>369.5</ele>
        <time>2014-10-02T11:31:38Z</time>
      </trkpt>
      <trkpt lat="46.04818" lon="4.48972">
        <ele>369.5</ele>
        <time>2014-10-02T11:31:40Z</time>
      </trkpt>
      <trkpt lat="46.04826" lon="4.48977">
        <ele>369.5</ele>
        <time>2014-10-02T11:31:42Z</time>
      </trkpt>
      <trkpt lat="46.04836" lon="4.48983">
        <ele>370.2</ele>
        <time>2014-10-02T11:31:45Z</time>
      </trkpt>
      <trkpt lat="46.04846" lon="4.48988">
        <ele>370.9</ele>
        <time>2014-10-02T11:31:46Z</time>
      </trkpt>
      <trkpt lat="46.04857" lon="4.48991">
        <ele>372.2</ele>
        <time>2014-10-02T11:31:48Z</time>
      </trkpt>
      <trkpt lat="46.04866" lon="4.48996">
        <ele>372.9</ele>
        <time>2014-10-02T11:31:50Z</time>
      </trkpt>
      <trkpt lat="46.04875" lon="4.49">
        <ele>373.6</ele>
        <time>2014-10-02T11:31:52Z</time>
      </trkpt>
      <trkpt lat="46.04884" lon="4.49004">
        <ele>374.4</ele>
        <time>2014-10-02T11:31:54Z</time>
      </trkpt>
      <trkpt lat="46.04893" lon="4.49008">
        <ele>374.3</ele>
        <time>2014-10-02T11:31:56Z</time>
      </trkpt>
      <trkpt lat="46.04902" lon="4.49013">
        <ele>374.2</ele>
        <time>2014-10-02T11:31:58Z</time>
      </trkpt>
      <trkpt lat="46.0491" lon="4.4902">
        <ele>374.1</ele>
        <time>2014-10-02T11:32:00Z</time>
      </trkpt>
      <trkpt lat="46.04918" lon="4.49027">
        <ele>374</ele>
        <time>2014-10-02T11:32:02Z</time>
      </trkpt>
      <trkpt lat="46.04926" lon="4.49034">
        <ele>373.9</ele>
        <time>2014-10-02T11:32:04Z</time>
      </trkpt>
      <trkpt lat="46.04934" lon="4.49043">
        <ele>374.4</ele>
        <time>2014-10-02T11:32:06Z</time>
      </trkpt>
      <trkpt lat="46.04941" lon="4.49051">
        <ele>374.8</ele>
        <time>2014-10-02T11:32:08Z</time>
      </trkpt>
      <trkpt lat="46.04948" lon="4.4906">
        <ele>375.3</ele>
        <time>2014-10-02T11:32:10Z</time>
      </trkpt>
      <trkpt lat="46.04955" lon="4.49071">
        <ele>375.7</ele>
        <time>2014-10-02T11:32:13Z</time>
      </trkpt>
      <trkpt lat="46.04961" lon="4.49081">
        <ele>376.2</ele>
        <time>2014-10-02T11:32:15Z</time>
      </trkpt>
      <trkpt lat="46.04967" lon="4.49091">
        <ele>376.6</ele>
        <time>2014-10-02T11:32:17Z</time>
      </trkpt>
      <trkpt lat="46.04974" lon="4.491">
        <ele>377.3</ele>
        <time>2014-10-02T11:32:19Z</time>
      </trkpt>
      <trkpt lat="46.04981" lon="4.49109">
        <ele>377.9</ele>
        <time>2014-10-02T11:32:20Z</time>
      </trkpt>
      <trkpt lat="46.04987" lon="4.49118">
        <ele>378.5</ele>
        <time>2014-10-02T11:32:22Z</time>
      </trkpt>
      <trkpt lat="46.04993" lon="4.49127">
        <ele>379.2</ele>
        <time>2014-10-02T11:32:24Z</time>
      </trkpt>
      <trkpt lat="46.04999" lon="4.49136">
        <ele>379.8</ele>
        <time>2014-10-02T11:32:26Z</time>
      </trkpt>
      <trkpt lat="46.05007" lon="4.49148">
        <ele>379.2</ele>
        <time>2014-10-02T11:32:29Z</time>
      </trkpt>
      <trkpt lat="46.05013" lon="4.49156">
        <ele>378.5</ele>
        <time>2014-10-02T11:32:31Z</time>
      </trkpt>
      <trkpt lat="46.05021" lon="4.49169">
        <ele>379</ele>
        <time>2014-10-02T11:32:35Z</time>
      </trkpt>
      <trkpt lat="46.05028" lon="4.49182">
        <ele>379.5</ele>
        <time>2014-10-02T11:32:38Z</time>
      </trkpt>
      <trkpt lat="46.05033" lon="4.49192">
        <ele>379.9</ele>
        <time>2014-10-02T11:32:40Z</time>
      </trkpt>
      <trkpt lat="46.05037" lon="4.49203">
        <ele>380.4</ele>
        <time>2014-10-02T11:32:41Z</time>
      </trkpt>
      <trkpt lat="46.05042" lon="4.49214">
        <ele>381.5</ele>
        <time>2014-10-02T11:32:43Z</time>
      </trkpt>
      <trkpt lat="46.05048" lon="4.49223">
        <ele>382.5</ele>
        <time>2014-10-02T11:32:45Z</time>
      </trkpt>
      <trkpt lat="46.05053" lon="4.49233">
        <ele>383.6</ele>
        <time>2014-10-02T11:32:47Z</time>
      </trkpt>
      <trkpt lat="46.05059" lon="4.49243">
        <ele>384.7</ele>
        <time>2014-10-02T11:32:49Z</time>
      </trkpt>
      <trkpt lat="46.05064" lon="4.49252">
        <ele>385.8</ele>
        <time>2014-10-02T11:32:51Z</time>
      </trkpt>
      <trkpt lat="46.05071" lon="4.4926">
        <ele>386.9</ele>
        <time>2014-10-02T11:32:53Z</time>
      </trkpt>
      <trkpt lat="46.05077" lon="4.49269">
        <ele>388</ele>
        <time>2014-10-02T11:32:55Z</time>
      </trkpt>
      <trkpt lat="46.05084" lon="4.49277">
        <ele>387.1</ele>
        <time>2014-10-02T11:32:57Z</time>
      </trkpt>
      <trkpt lat="46.05091" lon="4.49284">
        <ele>386.8</ele>
        <time>2014-10-02T11:32:59Z</time>
      </trkpt>
      <trkpt lat="46.05099" lon="4.49291">
        <ele>386.5</ele>
        <time>2014-10-02T11:33:01Z</time>
      </trkpt>
      <trkpt lat="46.05107" lon="4.49297">
        <ele>386.3</ele>
        <time>2014-10-02T11:33:03Z</time>
      </trkpt>
      <trkpt lat="46.05115" lon="4.49302">
        <ele>386</ele>
        <time>2014-10-02T11:33:05Z</time>
      </trkpt>
      <trkpt lat="46.05124" lon="4.49306">
        <ele>385.7</ele>
        <time>2014-10-02T11:33:07Z</time>
      </trkpt>
      <trkpt lat="46.05132" lon="4.49309">
        <ele>385.5</ele>
        <time>2014-10-02T11:33:10Z</time>
      </trkpt>
      <trkpt lat="46.05142" lon="4.4931">
        <ele>385.2</ele>
        <time>2014-10-02T11:33:12Z</time>
      </trkpt>
      <trkpt lat="46.05151" lon="4.49312">
        <ele>384.9</ele>
        <time>2014-10-02T11:33:14Z</time>
      </trkpt>
      <trkpt lat="46.0516" lon="4.49315">
        <ele>384.6</ele>
        <time>2014-10-02T11:33:16Z</time>
      </trkpt>
      <trkpt lat="46.05168" lon="4.49315">
        <ele>384.5</ele>
        <time>2014-10-02T11:33:17Z</time>
      </trkpt>
      <trkpt lat="46.05178" lon="4.49317">
        <ele>385.4</ele>
        <time>2014-10-02T11:33:19Z</time>
      </trkpt>
      <trkpt lat="46.05187" lon="4.4932">
        <ele>385.5</ele>
        <time>2014-10-02T11:33:21Z</time>
      </trkpt>
      <trkpt lat="46.05198" lon="4.49323">
        <ele>385.7</ele>
        <time>2014-10-02T11:33:23Z</time>
      </trkpt>
      <trkpt lat="46.05206" lon="4.49325">
        <ele>385.9</ele>
        <time>2014-10-02T11:33:25Z</time>
      </trkpt>
      <trkpt lat="46.05217" lon="4.49329">
        <ele>386.1</ele>
        <time>2014-10-02T11:33:27Z</time>
      </trkpt>
      <trkpt lat="46.05227" lon="4.49332">
        <ele>386.3</ele>
        <time>2014-10-02T11:33:29Z</time>
      </trkpt>
      <trkpt lat="46.05236" lon="4.49337">
        <ele>386.5</ele>
        <time>2014-10-02T11:33:31Z</time>
      </trkpt>
      <trkpt lat="46.05246" lon="4.49341">
        <ele>386.8</ele>
        <time>2014-10-02T11:33:33Z</time>
      </trkpt>
      <trkpt lat="46.05256" lon="4.49345">
        <ele>387.2</ele>
        <time>2014-10-02T11:33:35Z</time>
      </trkpt>
      <trkpt lat="46.05267" lon="4.4935">
        <ele>387.5</ele>
        <time>2014-10-02T11:33:37Z</time>
      </trkpt>
      <trkpt lat="46.05278" lon="4.49354">
        <ele>387.7</ele>
        <time>2014-10-02T11:33:39Z</time>
      </trkpt>
      <trkpt lat="46.05288" lon="4.49359">
        <ele>387.9</ele>
        <time>2014-10-02T11:33:42Z</time>
      </trkpt>
      <trkpt lat="46.05299" lon="4.49363">
        <ele>388.1</ele>
        <time>2014-10-02T11:33:43Z</time>
      </trkpt>
      <trkpt lat="46.05309" lon="4.49368">
        <ele>388.3</ele>
        <time>2014-10-02T11:33:45Z</time>
      </trkpt>
      <trkpt lat="46.05322" lon="4.49373">
        <ele>388.5</ele>
        <time>2014-10-02T11:33:47Z</time>
      </trkpt>
      <trkpt lat="46.05332" lon="4.49376">
        <ele>388.3</ele>
        <time>2014-10-02T11:33:49Z</time>
      </trkpt>
      <trkpt lat="46.05343" lon="4.49379">
        <ele>388.1</ele>
        <time>2014-10-02T11:33:51Z</time>
      </trkpt>
      <trkpt lat="46.05352" lon="4.49377">
        <ele>387.9</ele>
        <time>2014-10-02T11:33:52Z</time>
      </trkpt>
      <trkpt lat="46.05365" lon="4.49379">
        <ele>387.5</ele>
        <time>2014-10-02T11:33:54Z</time>
      </trkpt>
      <trkpt lat="46.05378" lon="4.49378">
        <ele>387.2</ele>
        <time>2014-10-02T11:33:56Z</time>
      </trkpt>
      <trkpt lat="46.05392" lon="4.49374">
        <ele>386.8</ele>
        <time>2014-10-02T11:33:58Z</time>
      </trkpt>
      <trkpt lat="46.05404" lon="4.49369">
        <ele>386.1</ele>
        <time>2014-10-02T11:34:00Z</time>
      </trkpt>
      <trkpt lat="46.05417" lon="4.49365">
        <ele>385.4</ele>
        <time>2014-10-02T11:34:02Z</time>
      </trkpt>
      <trkpt lat="46.05429" lon="4.49361">
        <ele>384.6</ele>
        <time>2014-10-02T11:34:04Z</time>
      </trkpt>
      <trkpt lat="46.05442" lon="4.49357">
        <ele>383.9</ele>
        <time>2014-10-02T11:34:06Z</time>
      </trkpt>
      <trkpt lat="46.05456" lon="4.49352">
        <ele>383.2</ele>
        <time>2014-10-02T11:34:09Z</time>
      </trkpt>
      <trkpt lat="46.0547" lon="4.49348">
        <ele>382.8</ele>
        <time>2014-10-02T11:34:11Z</time>
      </trkpt>
      <trkpt lat="46.05481" lon="4.49343">
        <ele>382.8</ele>
        <time>2014-10-02T11:34:12Z</time>
      </trkpt>
      <trkpt lat="46.05493" lon="4.49336">
        <ele>382.8</ele>
        <time>2014-10-02T11:34:14Z</time>
      </trkpt>
      <trkpt lat="46.05503" lon="4.49328">
        <ele>382.5</ele>
        <time>2014-10-02T11:34:16Z</time>
      </trkpt>
      <trkpt lat="46.05513" lon="4.49318">
        <ele>382.3</ele>
        <time>2014-10-02T11:34:18Z</time>
      </trkpt>
      <trkpt lat="46.05523" lon="4.49306">
        <ele>382</ele>
        <time>2014-10-02T11:34:20Z</time>
      </trkpt>
      <trkpt lat="46.05529" lon="4.49297">
        <ele>382.1</ele>
        <time>2014-10-02T11:34:22Z</time>
      </trkpt>
      <trkpt lat="46.05537" lon="4.49286">
        <ele>382.2</ele>
        <time>2014-10-02T11:34:24Z</time>
      </trkpt>
      <trkpt lat="46.05547" lon="4.49272">
        <ele>382.3</ele>
        <time>2014-10-02T11:34:26Z</time>
      </trkpt>
      <trkpt lat="46.05556" lon="4.4926">
        <ele>383.5</ele>
        <time>2014-10-02T11:34:28Z</time>
      </trkpt>
      <trkpt lat="46.05564" lon="4.49249">
        <ele>384.6</ele>
        <time>2014-10-02T11:34:30Z</time>
      </trkpt>
      <trkpt lat="46.05574" lon="4.49239">
        <ele>385.8</ele>
        <time>2014-10-02T11:34:32Z</time>
      </trkpt>
      <trkpt lat="46.05583" lon="4.4923">
        <ele>386.1</ele>
        <time>2014-10-02T11:34:34Z</time>
      </trkpt>
      <trkpt lat="46.05593" lon="4.49222">
        <ele>386.4</ele>
        <time>2014-10-02T11:34:36Z</time>
      </trkpt>
      <trkpt lat="46.05602" lon="4.49214">
        <ele>386.9</ele>
        <time>2014-10-02T11:34:38Z</time>
      </trkpt>
      <trkpt lat="46.05612" lon="4.49209">
        <ele>387.5</ele>
        <time>2014-10-02T11:34:40Z</time>
      </trkpt>
      <trkpt lat="46.05622" lon="4.49203">
        <ele>388</ele>
        <time>2014-10-02T11:34:42Z</time>
      </trkpt>
      <trkpt lat="46.05632" lon="4.49197">
        <ele>388.5</ele>
        <time>2014-10-02T11:34:44Z</time>
      </trkpt>
      <trkpt lat="46.05642" lon="4.49191">
        <ele>389.1</ele>
        <time>2014-10-02T11:34:46Z</time>
      </trkpt>
      <trkpt lat="46.05654" lon="4.49183">
        <ele>389.6</ele>
        <time>2014-10-02T11:34:48Z</time>
      </trkpt>
      <trkpt lat="46.05665" lon="4.49176">
        <ele>388.5</ele>
        <time>2014-10-02T11:34:50Z</time>
      </trkpt>
      <trkpt lat="46.05674" lon="4.4917">
        <ele>388</ele>
        <time>2014-10-02T11:34:52Z</time>
      </trkpt>
      <trkpt lat="46.05685" lon="4.49162">
        <ele>387.5</ele>
        <time>2014-10-02T11:34:54Z</time>
      </trkpt>
      <trkpt lat="46.05695" lon="4.49154">
        <ele>387.6</ele>
        <time>2014-10-02T11:34:56Z</time>
      </trkpt>
      <trkpt lat="46.05703" lon="4.49148">
        <ele>387.7</ele>
        <time>2014-10-02T11:34:58Z</time>
      </trkpt>
      <trkpt lat="46.05711" lon="4.49141">
        <ele>387.8</ele>
        <time>2014-10-02T11:35:00Z</time>
      </trkpt>
      <trkpt lat="46.0572" lon="4.49134">
        <ele>387.9</ele>
        <time>2014-10-02T11:35:02Z</time>
      </trkpt>
      <trkpt lat="46.0573" lon="4.49124">
        <ele>388</ele>
        <time>2014-10-02T11:35:04Z</time>
      </trkpt>
      <trkpt lat="46.05738" lon="4.49117">
        <ele>388.1</ele>
        <time>2014-10-02T11:35:06Z</time>
      </trkpt>
      <trkpt lat="46.05749" lon="4.49109">
        <ele>388.2</ele>
        <time>2014-10-02T11:35:09Z</time>
      </trkpt>
      <trkpt lat="46.05758" lon="4.49102">
        <ele>387.5</ele>
        <time>2014-10-02T11:35:11Z</time>
      </trkpt>
      <trkpt lat="46.05768" lon="4.49096">
        <ele>387.5</ele>
        <time>2014-10-02T11:35:13Z</time>
      </trkpt>
      <trkpt lat="46.05778" lon="4.4909">
        <ele>386.8</ele>
        <time>2014-10-02T11:35:15Z</time>
      </trkpt>
      <trkpt lat="46.05787" lon="4.49085">
        <ele>386.1</ele>
        <time>2014-10-02T11:35:17Z</time>
      </trkpt>
      <trkpt lat="46.05797" lon="4.4908">
        <ele>385.4</ele>
        <time>2014-10-02T11:35:19Z</time>
      </trkpt>
      <trkpt lat="46.05807" lon="4.49075">
        <ele>384.6</ele>
        <time>2014-10-02T11:35:21Z</time>
      </trkpt>
      <trkpt lat="46.05817" lon="4.49069">
        <ele>383.9</ele>
        <time>2014-10-02T11:35:23Z</time>
      </trkpt>
      <trkpt lat="46.05826" lon="4.49064">
        <ele>384.5</ele>
        <time>2014-10-02T11:35:25Z</time>
      </trkpt>
      <trkpt lat="46.05837" lon="4.49059">
        <ele>383.9</ele>
        <time>2014-10-02T11:35:27Z</time>
      </trkpt>
      <trkpt lat="46.05846" lon="4.49053">
        <ele>383.4</ele>
        <time>2014-10-02T11:35:29Z</time>
      </trkpt>
      <trkpt lat="46.05855" lon="4.49049">
        <ele>382.8</ele>
        <time>2014-10-02T11:35:31Z</time>
      </trkpt>
      <trkpt lat="46.05863" lon="4.49045">
        <ele>383</ele>
        <time>2014-10-02T11:35:33Z</time>
      </trkpt>
      <trkpt lat="46.05873" lon="4.49039">
        <ele>383.2</ele>
        <time>2014-10-02T11:35:35Z</time>
      </trkpt>
      <trkpt lat="46.05884" lon="4.49031">
        <ele>383.4</ele>
        <time>2014-10-02T11:35:37Z</time>
      </trkpt>
      <trkpt lat="46.05895" lon="4.49025">
        <ele>383.5</ele>
        <time>2014-10-02T11:35:40Z</time>
      </trkpt>
      <trkpt lat="46.05905" lon="4.49019">
        <ele>383.7</ele>
        <time>2014-10-02T11:35:41Z</time>
      </trkpt>
      <trkpt lat="46.05914" lon="4.49016">
        <ele>383.5</ele>
        <time>2014-10-02T11:35:43Z</time>
      </trkpt>
      <trkpt lat="46.05925" lon="4.49009">
        <ele>383.4</ele>
        <time>2014-10-02T11:35:45Z</time>
      </trkpt>
      <trkpt lat="46.05938" lon="4.49">
        <ele>381.9</ele>
        <time>2014-10-02T11:35:47Z</time>
      </trkpt>
      <trkpt lat="46.0595" lon="4.48993">
        <ele>381.5</ele>
        <time>2014-10-02T11:35:49Z</time>
      </trkpt>
      <trkpt lat="46.05962" lon="4.48989">
        <ele>381.2</ele>
        <time>2014-10-02T11:35:51Z</time>
      </trkpt>
      <trkpt lat="46.05976" lon="4.48983">
        <ele>380.8</ele>
        <time>2014-10-02T11:35:53Z</time>
      </trkpt>
      <trkpt lat="46.05991" lon="4.48976">
        <ele>380.5</ele>
        <time>2014-10-02T11:35:55Z</time>
      </trkpt>
      <trkpt lat="46.06005" lon="4.48973">
        <ele>380.1</ele>
        <time>2014-10-02T11:35:57Z</time>
      </trkpt>
      <trkpt lat="46.06013" lon="4.48971">
        <ele>379.7</ele>
        <time>2014-10-02T11:35:58Z</time>
      </trkpt>
      <trkpt lat="46.06021" lon="4.48968">
        <ele>379.4</ele>
        <time>2014-10-02T11:36:00Z</time>
      </trkpt>
      <trkpt lat="46.0603" lon="4.48966">
        <ele>379</ele>
        <time>2014-10-02T11:36:00Z</time>
      </trkpt>
      <trkpt lat="46.06044" lon="4.48967">
        <ele>379</ele>
        <time>2014-10-02T11:36:02Z</time>
      </trkpt>
      <trkpt lat="46.06058" lon="4.48969">
        <ele>379</ele>
        <time>2014-10-02T11:36:04Z</time>
      </trkpt>
      <trkpt lat="46.06071" lon="4.48972">
        <ele>379.5</ele>
        <time>2014-10-02T11:36:06Z</time>
      </trkpt>
      <trkpt lat="46.06083" lon="4.48977">
        <ele>380.1</ele>
        <time>2014-10-02T11:36:08Z</time>
      </trkpt>
      <trkpt lat="46.06093" lon="4.48983">
        <ele>380.6</ele>
        <time>2014-10-02T11:36:10Z</time>
      </trkpt>
      <trkpt lat="46.06105" lon="4.48987">
        <ele>381.2</ele>
        <time>2014-10-02T11:36:12Z</time>
      </trkpt>
      <trkpt lat="46.06117" lon="4.4899">
        <ele>381.7</ele>
        <time>2014-10-02T11:36:14Z</time>
      </trkpt>
      <trkpt lat="46.0613" lon="4.48993">
        <ele>382.3</ele>
        <time>2014-10-02T11:36:16Z</time>
      </trkpt>
      <trkpt lat="46.06141" lon="4.48999">
        <ele>382.8</ele>
        <time>2014-10-02T11:36:18Z</time>
      </trkpt>
      <trkpt lat="46.06152" lon="4.49003">
        <ele>383.4</ele>
        <time>2014-10-02T11:36:20Z</time>
      </trkpt>
      <trkpt lat="46.06163" lon="4.49005">
        <ele>384.6</ele>
        <time>2014-10-02T11:36:22Z</time>
      </trkpt>
      <trkpt lat="46.06174" lon="4.49006">
        <ele>385.9</ele>
        <time>2014-10-02T11:36:24Z</time>
      </trkpt>
      <trkpt lat="46.06185" lon="4.49005">
        <ele>387.2</ele>
        <time>2014-10-02T11:36:26Z</time>
      </trkpt>
      <trkpt lat="46.06196" lon="4.49005">
        <ele>387.9</ele>
        <time>2014-10-02T11:36:28Z</time>
      </trkpt>
      <trkpt lat="46.06207" lon="4.49004">
        <ele>388.6</ele>
        <time>2014-10-02T11:36:30Z</time>
      </trkpt>
      <trkpt lat="46.06219" lon="4.49001">
        <ele>389.4</ele>
        <time>2014-10-02T11:36:32Z</time>
      </trkpt>
      <trkpt lat="46.0623" lon="4.49001">
        <ele>388.9</ele>
        <time>2014-10-02T11:36:34Z</time>
      </trkpt>
      <trkpt lat="46.06243" lon="4.49002">
        <ele>388.5</ele>
        <time>2014-10-02T11:36:36Z</time>
      </trkpt>
      <trkpt lat="46.06252" lon="4.49011">
        <ele>388</ele>
        <time>2014-10-02T11:36:38Z</time>
      </trkpt>
      <trkpt lat="46.06264" lon="4.49021">
        <ele>387.5</ele>
        <time>2014-10-02T11:36:40Z</time>
      </trkpt>
      <trkpt lat="46.06271" lon="4.49036">
        <ele>387.7</ele>
        <time>2014-10-02T11:36:42Z</time>
      </trkpt>
      <trkpt lat="46.0628" lon="4.49051">
        <ele>387.2</ele>
        <time>2014-10-02T11:36:44Z</time>
      </trkpt>
      <trkpt lat="46.06286" lon="4.49068">
        <ele>386.4</ele>
        <time>2014-10-02T11:36:46Z</time>
      </trkpt>
      <trkpt lat="46.06289" lon="4.49083">
        <ele>385.5</ele>
        <time>2014-10-02T11:36:48Z</time>
      </trkpt>
      <trkpt lat="46.06294" lon="4.49094">
        <ele>384.7</ele>
        <time>2014-10-02T11:36:49Z</time>
      </trkpt>
      <trkpt lat="46.06299" lon="4.49111">
        <ele>383.9</ele>
        <time>2014-10-02T11:36:51Z</time>
      </trkpt>
      <trkpt lat="46.06304" lon="4.49128">
        <ele>383.1</ele>
        <time>2014-10-02T11:36:53Z</time>
      </trkpt>
      <trkpt lat="46.06309" lon="4.49144">
        <ele>383.5</ele>
        <time>2014-10-02T11:36:55Z</time>
      </trkpt>
      <trkpt lat="46.06314" lon="4.49161">
        <ele>383.8</ele>
        <time>2014-10-02T11:36:58Z</time>
      </trkpt>
      <trkpt lat="46.06322" lon="4.49172">
        <ele>384.2</ele>
        <time>2014-10-02T11:37:00Z</time>
      </trkpt>
      <trkpt lat="46.06333" lon="4.49188">
        <ele>384.5</ele>
        <time>2014-10-02T11:37:03Z</time>
      </trkpt>
      <trkpt lat="46.06344" lon="4.49198">
        <ele>384.5</ele>
        <time>2014-10-02T11:37:05Z</time>
      </trkpt>
      <trkpt lat="46.06354" lon="4.49207">
        <ele>384.4</ele>
        <time>2014-10-02T11:37:07Z</time>
      </trkpt>
      <trkpt lat="46.06362" lon="4.49217">
        <ele>384.5</ele>
        <time>2014-10-02T11:37:09Z</time>
      </trkpt>
      <trkpt lat="46.0637" lon="4.49226">
        <ele>384.7</ele>
        <time>2014-10-02T11:37:11Z</time>
      </trkpt>
      <trkpt lat="46.06379" lon="4.49235">
        <ele>384.9</ele>
        <time>2014-10-02T11:37:13Z</time>
      </trkpt>
      <trkpt lat="46.06388" lon="4.49239">
        <ele>385.1</ele>
        <time>2014-10-02T11:37:15Z</time>
      </trkpt>
      <trkpt lat="46.06399" lon="4.49245">
        <ele>385.3</ele>
        <time>2014-10-02T11:37:17Z</time>
      </trkpt>
      <trkpt lat="46.0641" lon="4.49247">
        <ele>385.6</ele>
        <time>2014-10-02T11:37:19Z</time>
      </trkpt>
      <trkpt lat="46.06421" lon="4.49249">
        <ele>386</ele>
        <time>2014-10-02T11:37:21Z</time>
      </trkpt>
      <trkpt lat="46.06432" lon="4.49245">
        <ele>386.4</ele>
        <time>2014-10-02T11:37:23Z</time>
      </trkpt>
      <trkpt lat="46.06443" lon="4.4924">
        <ele>386.7</ele>
        <time>2014-10-02T11:37:26Z</time>
      </trkpt>
      <trkpt lat="46.06454" lon="4.4924">
        <ele>386.9</ele>
        <time>2014-10-02T11:37:27Z</time>
      </trkpt>
      <trkpt lat="46.06465" lon="4.49236">
        <ele>387.1</ele>
        <time>2014-10-02T11:37:30Z</time>
      </trkpt>
      <trkpt lat="46.06474" lon="4.49232">
        <ele>387.3</ele>
        <time>2014-10-02T11:37:32Z</time>
      </trkpt>
      <trkpt lat="46.06485" lon="4.4923">
        <ele>387.5</ele>
        <time>2014-10-02T11:37:33Z</time>
      </trkpt>
      <trkpt lat="46.06493" lon="4.49226">
        <ele>387.6</ele>
        <time>2014-10-02T11:37:34Z</time>
      </trkpt>
      <trkpt lat="46.06503" lon="4.49227">
        <ele>388.1</ele>
        <time>2014-10-02T11:37:36Z</time>
      </trkpt>
      <trkpt lat="46.06513" lon="4.49228">
        <ele>388.5</ele>
        <time>2014-10-02T11:37:38Z</time>
      </trkpt>
      <trkpt lat="46.06524" lon="4.49228">
        <ele>388.8</ele>
        <time>2014-10-02T11:37:40Z</time>
      </trkpt>
      <trkpt lat="46.06533" lon="4.49227">
        <ele>389.1</ele>
        <time>2014-10-02T11:37:42Z</time>
      </trkpt>
      <trkpt lat="46.06542" lon="4.49231">
        <ele>389.4</ele>
        <time>2014-10-02T11:37:44Z</time>
      </trkpt>
      <trkpt lat="46.06552" lon="4.49229">
        <ele>389.6</ele>
        <time>2014-10-02T11:37:46Z</time>
      </trkpt>
      <trkpt lat="46.06561" lon="4.49228">
        <ele>389.9</ele>
        <time>2014-10-02T11:37:48Z</time>
      </trkpt>
      <trkpt lat="46.0657" lon="4.49229">
        <ele>390.2</ele>
        <time>2014-10-02T11:37:50Z</time>
      </trkpt>
      <trkpt lat="46.06578" lon="4.49228">
        <ele>390.5</ele>
        <time>2014-10-02T11:37:52Z</time>
      </trkpt>
      <trkpt lat="46.06589" lon="4.49226">
        <ele>390.7</ele>
        <time>2014-10-02T11:37:55Z</time>
      </trkpt>
      <trkpt lat="46.06601" lon="4.49226">
        <ele>391</ele>
        <time>2014-10-02T11:37:58Z</time>
      </trkpt>
      <trkpt lat="46.06609" lon="4.49226">
        <ele>391</ele>
        <time>2014-10-02T11:38:00Z</time>
      </trkpt>
      <trkpt lat="46.06618" lon="4.49226">
        <ele>392.4</ele>
        <time>2014-10-02T11:38:02Z</time>
      </trkpt>
      <trkpt lat="46.06627" lon="4.49226">
        <ele>393.7</ele>
        <time>2014-10-02T11:38:04Z</time>
      </trkpt>
      <trkpt lat="46.06636" lon="4.49225">
        <ele>395.1</ele>
        <time>2014-10-02T11:38:06Z</time>
      </trkpt>
      <trkpt lat="46.06645" lon="4.49223">
        <ele>396.5</ele>
        <time>2014-10-02T11:38:08Z</time>
      </trkpt>
      <trkpt lat="46.06653" lon="4.49222">
        <ele>397.8</ele>
        <time>2014-10-02T11:38:11Z</time>
      </trkpt>
      <trkpt lat="46.06662" lon="4.4922">
        <ele>399.3</ele>
        <time>2014-10-02T11:38:13Z</time>
      </trkpt>
      <trkpt lat="46.06671" lon="4.49217">
        <ele>400.7</ele>
        <time>2014-10-02T11:38:14Z</time>
      </trkpt>
      <trkpt lat="46.0668" lon="4.49214">
        <ele>402.2</ele>
        <time>2014-10-02T11:38:16Z</time>
      </trkpt>
      <trkpt lat="46.0669" lon="4.49209">
        <ele>403.6</ele>
        <time>2014-10-02T11:38:18Z</time>
      </trkpt>
      <trkpt lat="46.06699" lon="4.49206">
        <ele>405.1</ele>
        <time>2014-10-02T11:38:20Z</time>
      </trkpt>
      <trkpt lat="46.0671" lon="4.49204">
        <ele>406.5</ele>
        <time>2014-10-02T11:38:23Z</time>
      </trkpt>
      <trkpt lat="46.06722" lon="4.49201">
        <ele>406.6</ele>
        <time>2014-10-02T11:38:26Z</time>
      </trkpt>
      <trkpt lat="46.06731" lon="4.49198">
        <ele>406.7</ele>
        <time>2014-10-02T11:38:29Z</time>
      </trkpt>
      <trkpt lat="46.0674" lon="4.49195">
        <ele>406.8</ele>
        <time>2014-10-02T11:38:30Z</time>
      </trkpt>
      <trkpt lat="46.0675" lon="4.49191">
        <ele>406.9</ele>
        <time>2014-10-02T11:38:32Z</time>
      </trkpt>
      <trkpt lat="46.06759" lon="4.49187">
        <ele>406.8</ele>
        <time>2014-10-02T11:38:34Z</time>
      </trkpt>
      <trkpt lat="46.06767" lon="4.49184">
        <ele>406.6</ele>
        <time>2014-10-02T11:38:36Z</time>
      </trkpt>
      <trkpt lat="46.06779" lon="4.49181">
        <ele>406.5</ele>
        <time>2014-10-02T11:38:39Z</time>
      </trkpt>
      <trkpt lat="46.06788" lon="4.49179">
        <ele>406.3</ele>
        <time>2014-10-02T11:38:41Z</time>
      </trkpt>
      <trkpt lat="46.06796" lon="4.49176">
        <ele>406.1</ele>
        <time>2014-10-02T11:38:43Z</time>
      </trkpt>
      <trkpt lat="46.06804" lon="4.49174">
        <ele>405.9</ele>
        <time>2014-10-02T11:38:45Z</time>
      </trkpt>
      <trkpt lat="46.06815" lon="4.49172">
        <ele>405.7</ele>
        <time>2014-10-02T11:38:48Z</time>
      </trkpt>
      <trkpt lat="46.06827" lon="4.4917">
        <ele>405.5</ele>
        <time>2014-10-02T11:38:51Z</time>
      </trkpt>
      <trkpt lat="46.06836" lon="4.49166">
        <ele>404.6</ele>
        <time>2014-10-02T11:38:53Z</time>
      </trkpt>
      <trkpt lat="46.0685" lon="4.49157">
        <ele>405.9</ele>
        <time>2014-10-02T11:38:55Z</time>
      </trkpt>
      <trkpt lat="46.06858" lon="4.49155">
        <ele>407.2</ele>
        <time>2014-10-02T11:38:57Z</time>
      </trkpt>
      <trkpt lat="46.06868" lon="4.4915">
        <ele>408.6</ele>
        <time>2014-10-02T11:38:59Z</time>
      </trkpt>
      <trkpt lat="46.06877" lon="4.49147">
        <ele>410.1</ele>
        <time>2014-10-02T11:39:01Z</time>
      </trkpt>
      <trkpt lat="46.06888" lon="4.49141">
        <ele>411.5</ele>
        <time>2014-10-02T11:39:03Z</time>
      </trkpt>
      <trkpt lat="46.069" lon="4.49138">
        <ele>413</ele>
        <time>2014-10-02T11:39:06Z</time>
      </trkpt>
      <trkpt lat="46.06909" lon="4.49133">
        <ele>414.5</ele>
        <time>2014-10-02T11:39:08Z</time>
      </trkpt>
      <trkpt lat="46.06918" lon="4.4913">
        <ele>414.5</ele>
        <time>2014-10-02T11:39:10Z</time>
      </trkpt>
      <trkpt lat="46.06927" lon="4.49126">
        <ele>414.5</ele>
        <time>2014-10-02T11:39:12Z</time>
      </trkpt>
      <trkpt lat="46.06938" lon="4.49121">
        <ele>414.5</ele>
        <time>2014-10-02T11:39:14Z</time>
      </trkpt>
      <trkpt lat="46.06949" lon="4.49114">
        <ele>415.2</ele>
        <time>2014-10-02T11:39:16Z</time>
      </trkpt>
      <trkpt lat="46.06958" lon="4.49111">
        <ele>413.7</ele>
        <time>2014-10-02T11:39:18Z</time>
      </trkpt>
      <trkpt lat="46.06968" lon="4.49107">
        <ele>412.3</ele>
        <time>2014-10-02T11:39:20Z</time>
      </trkpt>
      <trkpt lat="46.06976" lon="4.49104">
        <ele>410.8</ele>
        <time>2014-10-02T11:39:22Z</time>
      </trkpt>
      <trkpt lat="46.06986" lon="4.491">
        <ele>409.4</ele>
        <time>2014-10-02T11:39:24Z</time>
      </trkpt>
      <trkpt lat="46.06996" lon="4.49094">
        <ele>407</ele>
        <time>2014-10-02T11:39:26Z</time>
      </trkpt>
      <trkpt lat="46.07005" lon="4.49091">
        <ele>404.6</ele>
        <time>2014-10-02T11:39:28Z</time>
      </trkpt>
      <trkpt lat="46.07018" lon="4.49083">
        <ele>402.3</ele>
        <time>2014-10-02T11:39:30Z</time>
      </trkpt>
      <trkpt lat="46.0703" lon="4.49077">
        <ele>401.4</ele>
        <time>2014-10-02T11:39:32Z</time>
      </trkpt>
      <trkpt lat="46.07043" lon="4.49073">
        <ele>400.5</ele>
        <time>2014-10-02T11:39:34Z</time>
      </trkpt>
      <trkpt lat="46.07051" lon="4.49068">
        <ele>399.5</ele>
        <time>2014-10-02T11:39:35Z</time>
      </trkpt>
      <trkpt lat="46.07065" lon="4.49064">
        <ele>398.6</ele>
        <time>2014-10-02T11:39:37Z</time>
      </trkpt>
      <trkpt lat="46.07077" lon="4.49057">
        <ele>397.5</ele>
        <time>2014-10-02T11:39:39Z</time>
      </trkpt>
      <trkpt lat="46.07088" lon="4.49056">
        <ele>398.5</ele>
        <time>2014-10-02T11:39:41Z</time>
      </trkpt>
      <trkpt lat="46.07099" lon="4.49053">
        <ele>399.5</ele>
        <time>2014-10-02T11:39:43Z</time>
      </trkpt>
      <trkpt lat="46.0711" lon="4.4905">
        <ele>400.5</ele>
        <time>2014-10-02T11:39:45Z</time>
      </trkpt>
      <trkpt lat="46.07119" lon="4.49051">
        <ele>402.4</ele>
        <time>2014-10-02T11:39:47Z</time>
      </trkpt>
      <trkpt lat="46.0713" lon="4.49047">
        <ele>404.3</ele>
        <time>2014-10-02T11:39:49Z</time>
      </trkpt>
      <trkpt lat="46.07143" lon="4.49042">
        <ele>406.2</ele>
        <time>2014-10-02T11:39:51Z</time>
      </trkpt>
      <trkpt lat="46.07154" lon="4.49037">
        <ele>407.9</ele>
        <time>2014-10-02T11:39:53Z</time>
      </trkpt>
      <trkpt lat="46.07168" lon="4.49034">
        <ele>409.6</ele>
        <time>2014-10-02T11:39:55Z</time>
      </trkpt>
      <trkpt lat="46.07176" lon="4.49029">
        <ele>411.4</ele>
        <time>2014-10-02T11:39:56Z</time>
      </trkpt>
      <trkpt lat="46.07191" lon="4.49023">
        <ele>413.1</ele>
        <time>2014-10-02T11:39:58Z</time>
      </trkpt>
      <trkpt lat="46.07202" lon="4.49022">
        <ele>415.1</ele>
        <time>2014-10-02T11:40:00Z</time>
      </trkpt>
      <trkpt lat="46.07216" lon="4.49024">
        <ele>414.9</ele>
        <time>2014-10-02T11:40:02Z</time>
      </trkpt>
      <trkpt lat="46.07228" lon="4.49023">
        <ele>414.7</ele>
        <time>2014-10-02T11:40:04Z</time>
      </trkpt>
      <trkpt lat="46.07241" lon="4.49022">
        <ele>413.9</ele>
        <time>2014-10-02T11:40:06Z</time>
      </trkpt>
      <trkpt lat="46.07253" lon="4.49023">
        <ele>413.1</ele>
        <time>2014-10-02T11:40:08Z</time>
      </trkpt>
      <trkpt lat="46.07265" lon="4.49023">
        <ele>412.3</ele>
        <time>2014-10-02T11:40:10Z</time>
      </trkpt>
      <trkpt lat="46.07279" lon="4.4902">
        <ele>411.5</ele>
        <time>2014-10-02T11:40:12Z</time>
      </trkpt>
      <trkpt lat="46.07291" lon="4.4902">
        <ele>410.8</ele>
        <time>2014-10-02T11:40:14Z</time>
      </trkpt>
      <trkpt lat="46.07303" lon="4.49022">
        <ele>410.2</ele>
        <time>2014-10-02T11:40:17Z</time>
      </trkpt>
      <trkpt lat="46.07313" lon="4.49023">
        <ele>409.5</ele>
        <time>2014-10-02T11:40:19Z</time>
      </trkpt>
      <trkpt lat="46.07327" lon="4.49023">
        <ele>408.4</ele>
        <time>2014-10-02T11:40:20Z</time>
      </trkpt>
      <trkpt lat="46.07337" lon="4.49027">
        <ele>407.2</ele>
        <time>2014-10-02T11:40:22Z</time>
      </trkpt>
      <trkpt lat="46.07348" lon="4.49028">
        <ele>406</ele>
        <time>2014-10-02T11:40:24Z</time>
      </trkpt>
      <trkpt lat="46.07359" lon="4.49029">
        <ele>404.8</ele>
        <time>2014-10-02T11:40:26Z</time>
      </trkpt>
      <trkpt lat="46.07373" lon="4.49025">
        <ele>404.3</ele>
        <time>2014-10-02T11:40:28Z</time>
      </trkpt>
      <trkpt lat="46.07384" lon="4.49025">
        <ele>403.7</ele>
        <time>2014-10-02T11:40:30Z</time>
      </trkpt>
      <trkpt lat="46.07394" lon="4.49025">
        <ele>403.2</ele>
        <time>2014-10-02T11:40:33Z</time>
      </trkpt>
      <trkpt lat="46.07404" lon="4.49027">
        <ele>402.6</ele>
        <time>2014-10-02T11:40:35Z</time>
      </trkpt>
      <trkpt lat="46.07414" lon="4.49026">
        <ele>401.5</ele>
        <time>2014-10-02T11:40:37Z</time>
      </trkpt>
      <trkpt lat="46.07423" lon="4.49028">
        <ele>400.3</ele>
        <time>2014-10-02T11:40:38Z</time>
      </trkpt>
      <trkpt lat="46.07433" lon="4.4903">
        <ele>399.1</ele>
        <time>2014-10-02T11:40:40Z</time>
      </trkpt>
      <trkpt lat="46.07442" lon="4.49031">
        <ele>398.5</ele>
        <time>2014-10-02T11:40:42Z</time>
      </trkpt>
      <trkpt lat="46.07451" lon="4.49037">
        <ele>397.8</ele>
        <time>2014-10-02T11:40:44Z</time>
      </trkpt>
      <trkpt lat="46.07455" lon="4.4905">
        <ele>397.2</ele>
        <time>2014-10-02T11:40:46Z</time>
      </trkpt>
      <trkpt lat="46.07458" lon="4.49063">
        <ele>396.5</ele>
        <time>2014-10-02T11:40:48Z</time>
      </trkpt>
      <trkpt lat="46.07459" lon="4.49078">
        <ele>396</ele>
        <time>2014-10-02T11:40:50Z</time>
      </trkpt>
      <trkpt lat="46.07461" lon="4.49094">
        <ele>395.5</ele>
        <time>2014-10-02T11:40:52Z</time>
      </trkpt>
      <trkpt lat="46.0746" lon="4.49109">
        <ele>394.9</ele>
        <time>2014-10-02T11:40:54Z</time>
      </trkpt>
      <trkpt lat="46.07453" lon="4.49123">
        <ele>394.4</ele>
        <time>2014-10-02T11:40:56Z</time>
      </trkpt>
      <trkpt lat="46.07443" lon="4.49134">
        <ele>394.5</ele>
        <time>2014-10-02T11:40:58Z</time>
      </trkpt>
      <trkpt lat="46.07432" lon="4.49144">
        <ele>394.4</ele>
        <time>2014-10-02T11:41:00Z</time>
      </trkpt>
      <trkpt lat="46.07421" lon="4.49152">
        <ele>394.3</ele>
        <time>2014-10-02T11:41:02Z</time>
      </trkpt>
      <trkpt lat="46.0741" lon="4.49159">
        <ele>394.2</ele>
        <time>2014-10-02T11:41:04Z</time>
      </trkpt>
      <trkpt lat="46.07399" lon="4.49165">
        <ele>394.1</ele>
        <time>2014-10-02T11:41:06Z</time>
      </trkpt>
      <trkpt lat="46.07388" lon="4.49171">
        <ele>394</ele>
        <time>2014-10-02T11:41:08Z</time>
      </trkpt>
      <trkpt lat="46.07377" lon="4.49179">
        <ele>394.3</ele>
        <time>2014-10-02T11:41:10Z</time>
      </trkpt>
      <trkpt lat="46.07368" lon="4.49187">
        <ele>394.5</ele>
        <time>2014-10-02T11:41:12Z</time>
      </trkpt>
      <trkpt lat="46.07357" lon="4.49196">
        <ele>394.6</ele>
        <time>2014-10-02T11:41:14Z</time>
      </trkpt>
      <trkpt lat="46.07346" lon="4.49206">
        <ele>394.8</ele>
        <time>2014-10-02T11:41:16Z</time>
      </trkpt>
      <trkpt lat="46.07339" lon="4.49216">
        <ele>395</ele>
        <time>2014-10-02T11:41:18Z</time>
      </trkpt>
      <trkpt lat="46.07332" lon="4.49228">
        <ele>395.2</ele>
        <time>2014-10-02T11:41:20Z</time>
      </trkpt>
      <trkpt lat="46.07325" lon="4.49241">
        <ele>395.5</ele>
        <time>2014-10-02T11:41:22Z</time>
      </trkpt>
      <trkpt lat="46.07322" lon="4.49257">
        <ele>395.7</ele>
        <time>2014-10-02T11:41:24Z</time>
      </trkpt>
      <trkpt lat="46.07322" lon="4.49271">
        <ele>396</ele>
        <time>2014-10-02T11:41:26Z</time>
      </trkpt>
      <trkpt lat="46.07326" lon="4.49282">
        <ele>396.3</ele>
        <time>2014-10-02T11:41:28Z</time>
      </trkpt>
      <trkpt lat="46.07333" lon="4.49296">
        <ele>396.5</ele>
        <time>2014-10-02T11:41:30Z</time>
      </trkpt>
      <trkpt lat="46.07339" lon="4.49307">
        <ele>396.5</ele>
        <time>2014-10-02T11:41:32Z</time>
      </trkpt>
      <trkpt lat="46.07346" lon="4.49322">
        <ele>397.3</ele>
        <time>2014-10-02T11:41:35Z</time>
      </trkpt>
      <trkpt lat="46.07353" lon="4.49333">
        <ele>397.7</ele>
        <time>2014-10-02T11:41:37Z</time>
      </trkpt>
      <trkpt lat="46.07361" lon="4.49345">
        <ele>398.2</ele>
        <time>2014-10-02T11:41:39Z</time>
      </trkpt>
      <trkpt lat="46.07369" lon="4.49356">
        <ele>398.6</ele>
        <time>2014-10-02T11:41:41Z</time>
      </trkpt>
      <trkpt lat="46.07376" lon="4.49367">
        <ele>399.1</ele>
        <time>2014-10-02T11:41:42Z</time>
      </trkpt>
      <trkpt lat="46.07383" lon="4.49379">
        <ele>399.6</ele>
        <time>2014-10-02T11:41:44Z</time>
      </trkpt>
      <trkpt lat="46.0739" lon="4.49391">
        <ele>400.2</ele>
        <time>2014-10-02T11:41:46Z</time>
      </trkpt>
      <trkpt lat="46.07397" lon="4.49402">
        <ele>400.7</ele>
        <time>2014-10-02T11:41:48Z</time>
      </trkpt>
      <trkpt lat="46.07404" lon="4.49414">
        <ele>400.7</ele>
        <time>2014-10-02T11:41:50Z</time>
      </trkpt>
      <trkpt lat="46.07411" lon="4.49425">
        <ele>400.7</ele>
        <time>2014-10-02T11:41:52Z</time>
      </trkpt>
      <trkpt lat="46.07418" lon="4.49437">
        <ele>400.7</ele>
        <time>2014-10-02T11:41:54Z</time>
      </trkpt>
      <trkpt lat="46.07425" lon="4.49448">
        <ele>400.6</ele>
        <time>2014-10-02T11:41:56Z</time>
      </trkpt>
      <trkpt lat="46.07433" lon="4.49459">
        <ele>400.9</ele>
        <time>2014-10-02T11:41:58Z</time>
      </trkpt>
      <trkpt lat="46.0744" lon="4.4947">
        <ele>401.2</ele>
        <time>2014-10-02T11:42:00Z</time>
      </trkpt>
      <trkpt lat="46.07448" lon="4.4948">
        <ele>401.5</ele>
        <time>2014-10-02T11:42:02Z</time>
      </trkpt>
      <trkpt lat="46.07457" lon="4.49489">
        <ele>401.7</ele>
        <time>2014-10-02T11:42:04Z</time>
      </trkpt>
      <trkpt lat="46.07466" lon="4.49499">
        <ele>402</ele>
        <time>2014-10-02T11:42:06Z</time>
      </trkpt>
      <trkpt lat="46.07475" lon="4.49506">
        <ele>402.3</ele>
        <time>2014-10-02T11:42:08Z</time>
      </trkpt>
      <trkpt lat="46.07484" lon="4.49514">
        <ele>401.7</ele>
        <time>2014-10-02T11:42:10Z</time>
      </trkpt>
      <trkpt lat="46.07494" lon="4.49521">
        <ele>401.7</ele>
        <time>2014-10-02T11:42:12Z</time>
      </trkpt>
      <trkpt lat="46.07503" lon="4.49528">
        <ele>402.2</ele>
        <time>2014-10-02T11:42:14Z</time>
      </trkpt>
      <trkpt lat="46.07512" lon="4.49535">
        <ele>402.6</ele>
        <time>2014-10-02T11:42:16Z</time>
      </trkpt>
      <trkpt lat="46.07522" lon="4.49543">
        <ele>402.3</ele>
        <time>2014-10-02T11:42:18Z</time>
      </trkpt>
      <trkpt lat="46.0753" lon="4.4955">
        <ele>401.9</ele>
        <time>2014-10-02T11:42:20Z</time>
      </trkpt>
      <trkpt lat="46.07539" lon="4.49557">
        <ele>401.5</ele>
        <time>2014-10-02T11:42:22Z</time>
      </trkpt>
      <trkpt lat="46.07565" lon="4.49578">
        <ele>401.2</ele>
        <time>2014-10-02T11:42:28Z</time>
      </trkpt>
      <trkpt lat="46.07574" lon="4.49586">
        <ele>400.8</ele>
        <time>2014-10-02T11:42:30Z</time>
      </trkpt>
      <trkpt lat="46.07582" lon="4.49594">
        <ele>400.5</ele>
        <time>2014-10-02T11:42:32Z</time>
      </trkpt>
      <trkpt lat="46.0759" lon="4.496">
        <ele>400.7</ele>
        <time>2014-10-02T11:42:34Z</time>
      </trkpt>
      <trkpt lat="46.07598" lon="4.49607">
        <ele>401.2</ele>
        <time>2014-10-02T11:42:36Z</time>
      </trkpt>
      <trkpt lat="46.07607" lon="4.49612">
        <ele>401.6</ele>
        <time>2014-10-02T11:42:38Z</time>
      </trkpt>
      <trkpt lat="46.07616" lon="4.49619">
        <ele>401.6</ele>
        <time>2014-10-02T11:42:40Z</time>
      </trkpt>
      <trkpt lat="46.07624" lon="4.49626">
        <ele>401.6</ele>
        <time>2014-10-02T11:42:42Z</time>
      </trkpt>
      <trkpt lat="46.07634" lon="4.49631">
        <ele>401.6</ele>
        <time>2014-10-02T11:42:44Z</time>
      </trkpt>
      <trkpt lat="46.07642" lon="4.49636">
        <ele>401.6</ele>
        <time>2014-10-02T11:42:46Z</time>
      </trkpt>
      <trkpt lat="46.07652" lon="4.49643">
        <ele>401.6</ele>
        <time>2014-10-02T11:42:48Z</time>
      </trkpt>
      <trkpt lat="46.07662" lon="4.49646">
        <ele>401.6</ele>
        <time>2014-10-02T11:42:50Z</time>
      </trkpt>
      <trkpt lat="46.07671" lon="4.4965">
        <ele>402.2</ele>
        <time>2014-10-02T11:42:52Z</time>
      </trkpt>
      <trkpt lat="46.0768" lon="4.49655">
        <ele>402.7</ele>
        <time>2014-10-02T11:42:54Z</time>
      </trkpt>
      <trkpt lat="46.07689" lon="4.49658">
        <ele>402.6</ele>
        <time>2014-10-02T11:42:56Z</time>
      </trkpt>
      <trkpt lat="46.07698" lon="4.49662">
        <ele>403.2</ele>
        <time>2014-10-02T11:42:58Z</time>
      </trkpt>
      <trkpt lat="46.07707" lon="4.49665">
        <ele>403.7</ele>
        <time>2014-10-02T11:43:00Z</time>
      </trkpt>
      <trkpt lat="46.07716" lon="4.49669">
        <ele>404.3</ele>
        <time>2014-10-02T11:43:02Z</time>
      </trkpt>
      <trkpt lat="46.07725" lon="4.49672">
        <ele>404.8</ele>
        <time>2014-10-02T11:43:04Z</time>
      </trkpt>
      <trkpt lat="46.07733" lon="4.49676">
        <ele>405.4</ele>
        <time>2014-10-02T11:43:06Z</time>
      </trkpt>
      <trkpt lat="46.07742" lon="4.49679">
        <ele>405.9</ele>
        <time>2014-10-02T11:43:08Z</time>
      </trkpt>
      <trkpt lat="46.0775" lon="4.49683">
        <ele>406.5</ele>
        <time>2014-10-02T11:43:10Z</time>
      </trkpt>
      <trkpt lat="46.07758" lon="4.49687">
        <ele>407.7</ele>
        <time>2014-10-02T11:43:13Z</time>
      </trkpt>
      <trkpt lat="46.07767" lon="4.49691">
        <ele>408.5</ele>
        <time>2014-10-02T11:43:14Z</time>
      </trkpt>
      <trkpt lat="46.07775" lon="4.49695">
        <ele>408.5</ele>
        <time>2014-10-02T11:43:16Z</time>
      </trkpt>
      <trkpt lat="46.07787" lon="4.49698">
        <ele>408.5</ele>
        <time>2014-10-02T11:43:19Z</time>
      </trkpt>
      <trkpt lat="46.07795" lon="4.49702">
        <ele>408.5</ele>
        <time>2014-10-02T11:43:21Z</time>
      </trkpt>
      <trkpt lat="46.07804" lon="4.49706">
        <ele>408.5</ele>
        <time>2014-10-02T11:43:23Z</time>
      </trkpt>
      <trkpt lat="46.07812" lon="4.4971">
        <ele>408.5</ele>
        <time>2014-10-02T11:43:25Z</time>
      </trkpt>
      <trkpt lat="46.0782" lon="4.49714">
        <ele>408.5</ele>
        <time>2014-10-02T11:43:27Z</time>
      </trkpt>
      <trkpt lat="46.07827" lon="4.49718">
        <ele>408.5</ele>
        <time>2014-10-02T11:43:29Z</time>
      </trkpt>
      <trkpt lat="46.07839" lon="4.49723">
        <ele>409.4</ele>
        <time>2014-10-02T11:43:32Z</time>
      </trkpt>
      <trkpt lat="46.0785" lon="4.49727">
        <ele>410.3</ele>
        <time>2014-10-02T11:43:35Z</time>
      </trkpt>
      <trkpt lat="46.07861" lon="4.49731">
        <ele>410.5</ele>
        <time>2014-10-02T11:43:38Z</time>
      </trkpt>
      <trkpt lat="46.07872" lon="4.49737">
        <ele>410.6</ele>
        <time>2014-10-02T11:43:41Z</time>
      </trkpt>
      <trkpt lat="46.0788" lon="4.49741">
        <ele>411.5</ele>
        <time>2014-10-02T11:43:43Z</time>
      </trkpt>
      <trkpt lat="46.07888" lon="4.49746">
        <ele>412.5</ele>
        <time>2014-10-02T11:43:45Z</time>
      </trkpt>
      <trkpt lat="46.07896" lon="4.4975">
        <ele>413.4</ele>
        <time>2014-10-02T11:43:47Z</time>
      </trkpt>
      <trkpt lat="46.07903" lon="4.49755">
        <ele>414.3</ele>
        <time>2014-10-02T11:43:49Z</time>
      </trkpt>
      <trkpt lat="46.07911" lon="4.4976">
        <ele>415.2</ele>
        <time>2014-10-02T11:43:51Z</time>
      </trkpt>
      <trkpt lat="46.07922" lon="4.49766">
        <ele>416.1</ele>
        <time>2014-10-02T11:43:54Z</time>
      </trkpt>
      <trkpt lat="46.07929" lon="4.49771">
        <ele>418.1</ele>
        <time>2014-10-02T11:43:56Z</time>
      </trkpt>
      <trkpt lat="46.07937" lon="4.49776">
        <ele>419.2</ele>
        <time>2014-10-02T11:43:58Z</time>
      </trkpt>
      <trkpt lat="46.07945" lon="4.49781">
        <ele>420.3</ele>
        <time>2014-10-02T11:44:00Z</time>
      </trkpt>
      <trkpt lat="46.07953" lon="4.49785">
        <ele>421.4</ele>
        <time>2014-10-02T11:44:02Z</time>
      </trkpt>
      <trkpt lat="46.0796" lon="4.49789">
        <ele>421.1</ele>
        <time>2014-10-02T11:44:04Z</time>
      </trkpt>
      <trkpt lat="46.07969" lon="4.49792">
        <ele>420.8</ele>
        <time>2014-10-02T11:44:06Z</time>
      </trkpt>
      <trkpt lat="46.07977" lon="4.49794">
        <ele>420.5</ele>
        <time>2014-10-02T11:44:08Z</time>
      </trkpt>
      <trkpt lat="46.07989" lon="4.49795">
        <ele>420.3</ele>
        <time>2014-10-02T11:44:11Z</time>
      </trkpt>
      <trkpt lat="46.07997" lon="4.49796">
        <ele>420</ele>
        <time>2014-10-02T11:44:13Z</time>
      </trkpt>
      <trkpt lat="46.08005" lon="4.49796">
        <ele>420.1</ele>
        <time>2014-10-02T11:44:15Z</time>
      </trkpt>
      <trkpt lat="46.08014" lon="4.49796">
        <ele>420.2</ele>
        <time>2014-10-02T11:44:17Z</time>
      </trkpt>
      <trkpt lat="46.08022" lon="4.49797">
        <ele>419.2</ele>
        <time>2014-10-02T11:44:19Z</time>
      </trkpt>
      <trkpt lat="46.08032" lon="4.49802">
        <ele>418.2</ele>
        <time>2014-10-02T11:44:22Z</time>
      </trkpt>
      <trkpt lat="46.08041" lon="4.49806">
        <ele>417.2</ele>
        <time>2014-10-02T11:44:26Z</time>
      </trkpt>
      <trkpt lat="46.08051" lon="4.49808">
        <ele>416.2</ele>
        <time>2014-10-02T11:44:29Z</time>
      </trkpt>
      <trkpt lat="46.0806" lon="4.4981">
        <ele>416.5</ele>
        <time>2014-10-02T11:44:33Z</time>
      </trkpt>
      <trkpt lat="46.0807" lon="4.49812">
        <ele>416.9</ele>
        <time>2014-10-02T11:44:36Z</time>
      </trkpt>
      <trkpt lat="46.08081" lon="4.49813">
        <ele>417</ele>
        <time>2014-10-02T11:44:38Z</time>
      </trkpt>
      <trkpt lat="46.08092" lon="4.49813">
        <ele>418.3</ele>
        <time>2014-10-02T11:44:42Z</time>
      </trkpt>
      <trkpt lat="46.08104" lon="4.49811">
        <ele>419.5</ele>
        <time>2014-10-02T11:44:44Z</time>
      </trkpt>
      <trkpt lat="46.08116" lon="4.49809">
        <ele>420.5</ele>
        <time>2014-10-02T11:44:47Z</time>
      </trkpt>
      <trkpt lat="46.08123" lon="4.49804">
        <ele>421.4</ele>
        <time>2014-10-02T11:44:49Z</time>
      </trkpt>
      <trkpt lat="46.08131" lon="4.49797">
        <ele>422.3</ele>
        <time>2014-10-02T11:44:51Z</time>
      </trkpt>
      <trkpt lat="46.08141" lon="4.49788">
        <ele>423.2</ele>
        <time>2014-10-02T11:44:53Z</time>
      </trkpt>
      <trkpt lat="46.0815" lon="4.49779">
        <ele>424.1</ele>
        <time>2014-10-02T11:44:55Z</time>
      </trkpt>
      <trkpt lat="46.08159" lon="4.49773">
        <ele>425</ele>
        <time>2014-10-02T11:44:57Z</time>
      </trkpt>
      <trkpt lat="46.08167" lon="4.4977">
        <ele>425.9</ele>
        <time>2014-10-02T11:44:59Z</time>
      </trkpt>
      <trkpt lat="46.08179" lon="4.49767">
        <ele>426.8</ele>
        <time>2014-10-02T11:45:03Z</time>
      </trkpt>
      <trkpt lat="46.08188" lon="4.49762">
        <ele>428</ele>
        <time>2014-10-02T11:45:04Z</time>
      </trkpt>
      <trkpt lat="46.08196" lon="4.49759">
        <ele>428</ele>
        <time>2014-10-02T11:45:06Z</time>
      </trkpt>
      <trkpt lat="46.08207" lon="4.49755">
        <ele>428</ele>
        <time>2014-10-02T11:45:09Z</time>
      </trkpt>
      <trkpt lat="46.08216" lon="4.49753">
        <ele>428</ele>
        <time>2014-10-02T11:45:11Z</time>
      </trkpt>
      <trkpt lat="46.08225" lon="4.49751">
        <ele>428</ele>
        <time>2014-10-02T11:45:13Z</time>
      </trkpt>
      <trkpt lat="46.08234" lon="4.49752">
        <ele>428</ele>
        <time>2014-10-02T11:45:15Z</time>
      </trkpt>
      <trkpt lat="46.08243" lon="4.49755">
        <ele>428</ele>
        <time>2014-10-02T11:45:18Z</time>
      </trkpt>
      <trkpt lat="46.08252" lon="4.4976">
        <ele>428</ele>
        <time>2014-10-02T11:45:19Z</time>
      </trkpt>
      <trkpt lat="46.0826" lon="4.49766">
        <ele>428.7</ele>
        <time>2014-10-02T11:45:21Z</time>
      </trkpt>
      <trkpt lat="46.08269" lon="4.4977">
        <ele>429.5</ele>
        <time>2014-10-02T11:45:23Z</time>
      </trkpt>
      <trkpt lat="46.08278" lon="4.49774">
        <ele>429.3</ele>
        <time>2014-10-02T11:45:25Z</time>
      </trkpt>
      <trkpt lat="46.08286" lon="4.49779">
        <ele>429.1</ele>
        <time>2014-10-02T11:45:27Z</time>
      </trkpt>
      <trkpt lat="46.08294" lon="4.49783">
        <ele>428.9</ele>
        <time>2014-10-02T11:45:29Z</time>
      </trkpt>
      <trkpt lat="46.08301" lon="4.49787">
        <ele>428.7</ele>
        <time>2014-10-02T11:45:31Z</time>
      </trkpt>
      <trkpt lat="46.08309" lon="4.49792">
        <ele>428.5</ele>
        <time>2014-10-02T11:45:33Z</time>
      </trkpt>
      <trkpt lat="46.08318" lon="4.49797">
        <ele>428.4</ele>
        <time>2014-10-02T11:45:35Z</time>
      </trkpt>
      <trkpt lat="46.08327" lon="4.49803">
        <ele>428.2</ele>
        <time>2014-10-02T11:45:37Z</time>
      </trkpt>
      <trkpt lat="46.08336" lon="4.49812">
        <ele>428</ele>
        <time>2014-10-02T11:45:39Z</time>
      </trkpt>
      <trkpt lat="46.08343" lon="4.49823">
        <ele>427.8</ele>
        <time>2014-10-02T11:45:41Z</time>
      </trkpt>
      <trkpt lat="46.0835" lon="4.49834">
        <ele>426.9</ele>
        <time>2014-10-02T11:45:43Z</time>
      </trkpt>
      <trkpt lat="46.08357" lon="4.49845">
        <ele>426</ele>
        <time>2014-10-02T11:45:45Z</time>
      </trkpt>
      <trkpt lat="46.08364" lon="4.49855">
        <ele>426</ele>
        <time>2014-10-02T11:45:47Z</time>
      </trkpt>
      <trkpt lat="46.08371" lon="4.49864">
        <ele>426</ele>
        <time>2014-10-02T11:45:49Z</time>
      </trkpt>
      <trkpt lat="46.08378" lon="4.49872">
        <ele>426</ele>
        <time>2014-10-02T11:45:51Z</time>
      </trkpt>
      <trkpt lat="46.08386" lon="4.49878">
        <ele>426</ele>
        <time>2014-10-02T11:45:53Z</time>
      </trkpt>
      <trkpt lat="46.08398" lon="4.49886">
        <ele>426</ele>
        <time>2014-10-02T11:45:56Z</time>
      </trkpt>
      <trkpt lat="46.08407" lon="4.49893">
        <ele>426</ele>
        <time>2014-10-02T11:45:58Z</time>
      </trkpt>
      <trkpt lat="46.08415" lon="4.49898">
        <ele>426</ele>
        <time>2014-10-02T11:46:00Z</time>
      </trkpt>
      <trkpt lat="46.08424" lon="4.49902">
        <ele>426.8</ele>
        <time>2014-10-02T11:46:02Z</time>
      </trkpt>
      <trkpt lat="46.08433" lon="4.49907">
        <ele>427.6</ele>
        <time>2014-10-02T11:46:04Z</time>
      </trkpt>
      <trkpt lat="46.08442" lon="4.49911">
        <ele>428.5</ele>
        <time>2014-10-02T11:46:06Z</time>
      </trkpt>
      <trkpt lat="46.08452" lon="4.49915">
        <ele>429.3</ele>
        <time>2014-10-02T11:46:08Z</time>
      </trkpt>
      <trkpt lat="46.08462" lon="4.49919">
        <ele>430.1</ele>
        <time>2014-10-02T11:46:10Z</time>
      </trkpt>
      <trkpt lat="46.08472" lon="4.49925">
        <ele>429.7</ele>
        <time>2014-10-02T11:46:13Z</time>
      </trkpt>
      <trkpt lat="46.0848" lon="4.4993">
        <ele>429.4</ele>
        <time>2014-10-02T11:46:14Z</time>
      </trkpt>
      <trkpt lat="46.0849" lon="4.49936">
        <ele>429</ele>
        <time>2014-10-02T11:46:16Z</time>
      </trkpt>
      <trkpt lat="46.08499" lon="4.49947">
        <ele>429.4</ele>
        <time>2014-10-02T11:46:18Z</time>
      </trkpt>
      <trkpt lat="46.08509" lon="4.49955">
        <ele>429.7</ele>
        <time>2014-10-02T11:46:21Z</time>
      </trkpt>
      <trkpt lat="46.08519" lon="4.49961">
        <ele>430.1</ele>
        <time>2014-10-02T11:46:23Z</time>
      </trkpt>
      <trkpt lat="46.08529" lon="4.49967">
        <ele>429.6</ele>
        <time>2014-10-02T11:46:25Z</time>
      </trkpt>
      <trkpt lat="46.08539" lon="4.49977">
        <ele>429.2</ele>
        <time>2014-10-02T11:46:26Z</time>
      </trkpt>
      <trkpt lat="46.08548" lon="4.49986">
        <ele>428.2</ele>
        <time>2014-10-02T11:46:28Z</time>
      </trkpt>
      <trkpt lat="46.08555" lon="4.49997">
        <ele>427.2</ele>
        <time>2014-10-02T11:46:30Z</time>
      </trkpt>
      <trkpt lat="46.08562" lon="4.5001">
        <ele>426.2</ele>
        <time>2014-10-02T11:46:32Z</time>
      </trkpt>
      <trkpt lat="46.08569" lon="4.50022">
        <ele>426.4</ele>
        <time>2014-10-02T11:46:34Z</time>
      </trkpt>
      <trkpt lat="46.08575" lon="4.50035">
        <ele>426.5</ele>
        <time>2014-10-02T11:46:36Z</time>
      </trkpt>
      <trkpt lat="46.08583" lon="4.5005">
        <ele>427.1</ele>
        <time>2014-10-02T11:46:38Z</time>
      </trkpt>
      <trkpt lat="46.08589" lon="4.50063">
        <ele>426.9</ele>
        <time>2014-10-02T11:46:40Z</time>
      </trkpt>
      <trkpt lat="46.08597" lon="4.50074">
        <ele>426.7</ele>
        <time>2014-10-02T11:46:42Z</time>
      </trkpt>
      <trkpt lat="46.08607" lon="4.50083">
        <ele>426.5</ele>
        <time>2014-10-02T11:46:45Z</time>
      </trkpt>
      <trkpt lat="46.08618" lon="4.50086">
        <ele>426.4</ele>
        <time>2014-10-02T11:46:46Z</time>
      </trkpt>
      <trkpt lat="46.08631" lon="4.50088">
        <ele>426.2</ele>
        <time>2014-10-02T11:46:48Z</time>
      </trkpt>
      <trkpt lat="46.08642" lon="4.50085">
        <ele>426.5</ele>
        <time>2014-10-02T11:46:50Z</time>
      </trkpt>
      <trkpt lat="46.08653" lon="4.50079">
        <ele>426.8</ele>
        <time>2014-10-02T11:46:52Z</time>
      </trkpt>
      <trkpt lat="46.08664" lon="4.50074">
        <ele>427.1</ele>
        <time>2014-10-02T11:46:54Z</time>
      </trkpt>
      <trkpt lat="46.08675" lon="4.50066">
        <ele>427.4</ele>
        <time>2014-10-02T11:46:56Z</time>
      </trkpt>
      <trkpt lat="46.08686" lon="4.5006">
        <ele>427.6</ele>
        <time>2014-10-02T11:46:58Z</time>
      </trkpt>
      <trkpt lat="46.08699" lon="4.50055">
        <ele>427.5</ele>
        <time>2014-10-02T11:47:00Z</time>
      </trkpt>
      <trkpt lat="46.08711" lon="4.50059">
        <ele>427.5</ele>
        <time>2014-10-02T11:47:02Z</time>
      </trkpt>
      <trkpt lat="46.08721" lon="4.50068">
        <ele>427.4</ele>
        <time>2014-10-02T11:47:04Z</time>
      </trkpt>
      <trkpt lat="46.08729" lon="4.50079">
        <ele>427.3</ele>
        <time>2014-10-02T11:47:06Z</time>
      </trkpt>
      <trkpt lat="46.08731" lon="4.50092">
        <ele>427.2</ele>
        <time>2014-10-02T11:47:08Z</time>
      </trkpt>
      <trkpt lat="46.08738" lon="4.50097">
        <ele>427.1</ele>
        <time>2014-10-02T11:47:10Z</time>
      </trkpt>
      <trkpt lat="46.08747" lon="4.50096">
        <ele>427</ele>
        <time>2014-10-02T11:47:12Z</time>
      </trkpt>
      <trkpt lat="46.08755" lon="4.50094">
        <ele>427.5</ele>
        <time>2014-10-02T11:47:14Z</time>
      </trkpt>
      <trkpt lat="46.08767" lon="4.5009">
        <ele>427.9</ele>
        <time>2014-10-02T11:47:16Z</time>
      </trkpt>
      <trkpt lat="46.08777" lon="4.50086">
        <ele>428.4</ele>
        <time>2014-10-02T11:47:18Z</time>
      </trkpt>
      <trkpt lat="46.08789" lon="4.50089">
        <ele>428.8</ele>
        <time>2014-10-02T11:47:21Z</time>
      </trkpt>
      <trkpt lat="46.08797" lon="4.50091">
        <ele>429.3</ele>
        <time>2014-10-02T11:47:23Z</time>
      </trkpt>
      <trkpt lat="46.08821" lon="4.5009">
        <ele>429.7</ele>
        <time>2014-10-02T11:47:30Z</time>
      </trkpt>
      <trkpt lat="46.0883" lon="4.50089">
        <ele>430.2</ele>
        <time>2014-10-02T11:47:32Z</time>
      </trkpt>
      <trkpt lat="46.08839" lon="4.50089">
        <ele>431.2</ele>
        <time>2014-10-02T11:47:34Z</time>
      </trkpt>
      <trkpt lat="46.08848" lon="4.50091">
        <ele>432.2</ele>
        <time>2014-10-02T11:47:36Z</time>
      </trkpt>
      <trkpt lat="46.08859" lon="4.50092">
        <ele>433.2</ele>
        <time>2014-10-02T11:47:39Z</time>
      </trkpt>
      <trkpt lat="46.08869" lon="4.50092">
        <ele>434.2</ele>
        <time>2014-10-02T11:47:42Z</time>
      </trkpt>
      <trkpt lat="46.0888" lon="4.50094">
        <ele>434.7</ele>
        <time>2014-10-02T11:47:45Z</time>
      </trkpt>
      <trkpt lat="46.08889" lon="4.50093">
        <ele>435.3</ele>
        <time>2014-10-02T11:47:47Z</time>
      </trkpt>
      <trkpt lat="46.08898" lon="4.50091">
        <ele>435.8</ele>
        <time>2014-10-02T11:47:50Z</time>
      </trkpt>
      <trkpt lat="46.08906" lon="4.5009">
        <ele>436.4</ele>
        <time>2014-10-02T11:47:51Z</time>
      </trkpt>
      <trkpt lat="46.08915" lon="4.50088">
        <ele>436.9</ele>
        <time>2014-10-02T11:47:53Z</time>
      </trkpt>
      <trkpt lat="46.08924" lon="4.50086">
        <ele>438.1</ele>
        <time>2014-10-02T11:47:55Z</time>
      </trkpt>
      <trkpt lat="46.08932" lon="4.50084">
        <ele>439.3</ele>
        <time>2014-10-02T11:47:57Z</time>
      </trkpt>
      <trkpt lat="46.0894" lon="4.50082">
        <ele>439.9</ele>
        <time>2014-10-02T11:47:59Z</time>
      </trkpt>
      <trkpt lat="46.08949" lon="4.50078">
        <ele>440.5</ele>
        <time>2014-10-02T11:48:01Z</time>
      </trkpt>
      <trkpt lat="46.08957" lon="4.50074">
        <ele>441.2</ele>
        <time>2014-10-02T11:48:03Z</time>
      </trkpt>
      <trkpt lat="46.08965" lon="4.50069">
        <ele>440.5</ele>
        <time>2014-10-02T11:48:05Z</time>
      </trkpt>
      <trkpt lat="46.08972" lon="4.50063">
        <ele>439.9</ele>
        <time>2014-10-02T11:48:07Z</time>
      </trkpt>
      <trkpt lat="46.0898" lon="4.50057">
        <ele>439.3</ele>
        <time>2014-10-02T11:48:09Z</time>
      </trkpt>
      <trkpt lat="46.08988" lon="4.50051">
        <ele>438.6</ele>
        <time>2014-10-02T11:48:11Z</time>
      </trkpt>
      <trkpt lat="46.09" lon="4.50044">
        <ele>438</ele>
        <time>2014-10-02T11:48:13Z</time>
      </trkpt>
      <trkpt lat="46.09009" lon="4.50036">
        <ele>438.4</ele>
        <time>2014-10-02T11:48:15Z</time>
      </trkpt>
      <trkpt lat="46.09018" lon="4.50028">
        <ele>438.1</ele>
        <time>2014-10-02T11:48:17Z</time>
      </trkpt>
      <trkpt lat="46.09028" lon="4.50021">
        <ele>437.8</ele>
        <time>2014-10-02T11:48:20Z</time>
      </trkpt>
      <trkpt lat="46.09034" lon="4.50013">
        <ele>437.5</ele>
        <time>2014-10-02T11:48:21Z</time>
      </trkpt>
      <trkpt lat="46.09043" lon="4.50007">
        <ele>437.3</ele>
        <time>2014-10-02T11:48:23Z</time>
      </trkpt>
      <trkpt lat="46.09052" lon="4.5">
        <ele>436.3</ele>
        <time>2014-10-02T11:48:25Z</time>
      </trkpt>
      <trkpt lat="46.0906" lon="4.49992">
        <ele>436.5</ele>
        <time>2014-10-02T11:48:27Z</time>
      </trkpt>
      <trkpt lat="46.09068" lon="4.49983">
        <ele>436.8</ele>
        <time>2014-10-02T11:48:29Z</time>
      </trkpt>
      <trkpt lat="46.09076" lon="4.49975">
        <ele>437.1</ele>
        <time>2014-10-02T11:48:31Z</time>
      </trkpt>
      <trkpt lat="46.09085" lon="4.49966">
        <ele>437.4</ele>
        <time>2014-10-02T11:48:33Z</time>
      </trkpt>
      <trkpt lat="46.09092" lon="4.49958">
        <ele>439.4</ele>
        <time>2014-10-02T11:48:35Z</time>
      </trkpt>
      <trkpt lat="46.091" lon="4.49949">
        <ele>440.4</ele>
        <time>2014-10-02T11:48:37Z</time>
      </trkpt>
      <trkpt lat="46.09108" lon="4.4994">
        <ele>441.4</ele>
        <time>2014-10-02T11:48:39Z</time>
      </trkpt>
      <trkpt lat="46.09115" lon="4.49932">
        <ele>442.4</ele>
        <time>2014-10-02T11:48:41Z</time>
      </trkpt>
      <trkpt lat="46.09122" lon="4.49924">
        <ele>443.4</ele>
        <time>2014-10-02T11:48:44Z</time>
      </trkpt>
      <trkpt lat="46.09131" lon="4.49915">
        <ele>443.1</ele>
        <time>2014-10-02T11:48:46Z</time>
      </trkpt>
      <trkpt lat="46.09138" lon="4.49906">
        <ele>443.5</ele>
        <time>2014-10-02T11:48:47Z</time>
      </trkpt>
      <trkpt lat="46.09146" lon="4.49898">
        <ele>444</ele>
        <time>2014-10-02T11:48:49Z</time>
      </trkpt>
      <trkpt lat="46.09153" lon="4.49889">
        <ele>444.5</ele>
        <time>2014-10-02T11:48:51Z</time>
      </trkpt>
      <trkpt lat="46.09162" lon="4.49881">
        <ele>444.9</ele>
        <time>2014-10-02T11:48:54Z</time>
      </trkpt>
      <trkpt lat="46.0917" lon="4.49872">
        <ele>446.5</ele>
        <time>2014-10-02T11:48:56Z</time>
      </trkpt>
      <trkpt lat="46.09178" lon="4.49864">
        <ele>446.5</ele>
        <time>2014-10-02T11:48:58Z</time>
      </trkpt>
      <trkpt lat="46.09185" lon="4.49855">
        <ele>446.4</ele>
        <time>2014-10-02T11:49:00Z</time>
      </trkpt>
      <trkpt lat="46.09193" lon="4.49847">
        <ele>446.3</ele>
        <time>2014-10-02T11:49:02Z</time>
      </trkpt>
      <trkpt lat="46.092" lon="4.49839">
        <ele>446.2</ele>
        <time>2014-10-02T11:49:05Z</time>
      </trkpt>
      <trkpt lat="46.0921" lon="4.49828">
        <ele>444.8</ele>
        <time>2014-10-02T11:49:07Z</time>
      </trkpt>
      <trkpt lat="46.09217" lon="4.49821">
        <ele>444.7</ele>
        <time>2014-10-02T11:49:09Z</time>
      </trkpt>
      <trkpt lat="46.09225" lon="4.49812">
        <ele>444.6</ele>
        <time>2014-10-02T11:49:11Z</time>
      </trkpt>
      <trkpt lat="46.09233" lon="4.49804">
        <ele>444.5</ele>
        <time>2014-10-02T11:49:12Z</time>
      </trkpt>
      <trkpt lat="46.09241" lon="4.49797">
        <ele>444.5</ele>
        <time>2014-10-02T11:49:14Z</time>
      </trkpt>
      <trkpt lat="46.0925" lon="4.49789">
        <ele>444.5</ele>
        <time>2014-10-02T11:49:16Z</time>
      </trkpt>
      <trkpt lat="46.09259" lon="4.49782">
        <ele>443.5</ele>
        <time>2014-10-02T11:49:18Z</time>
      </trkpt>
      <trkpt lat="46.09268" lon="4.49779">
        <ele>442.4</ele>
        <time>2014-10-02T11:49:20Z</time>
      </trkpt>
      <trkpt lat="46.0928" lon="4.49776">
        <ele>441.3</ele>
        <time>2014-10-02T11:49:22Z</time>
      </trkpt>
      <trkpt lat="46.0929" lon="4.49776">
        <ele>441.5</ele>
        <time>2014-10-02T11:49:24Z</time>
      </trkpt>
      <trkpt lat="46.09299" lon="4.49778">
        <ele>441.6</ele>
        <time>2014-10-02T11:49:26Z</time>
      </trkpt>
      <trkpt lat="46.09308" lon="4.49781">
        <ele>443.1</ele>
        <time>2014-10-02T11:49:29Z</time>
      </trkpt>
      <trkpt lat="46.09317" lon="4.49786">
        <ele>444.5</ele>
        <time>2014-10-02T11:49:30Z</time>
      </trkpt>
      <trkpt lat="46.09327" lon="4.49791">
        <ele>446</ele>
        <time>2014-10-02T11:49:32Z</time>
      </trkpt>
      <trkpt lat="46.09336" lon="4.49799">
        <ele>447.5</ele>
        <time>2014-10-02T11:49:34Z</time>
      </trkpt>
      <trkpt lat="46.09343" lon="4.4981">
        <ele>447.8</ele>
        <time>2014-10-02T11:49:36Z</time>
      </trkpt>
      <trkpt lat="46.09351" lon="4.49816">
        <ele>448</ele>
        <time>2014-10-02T11:49:38Z</time>
      </trkpt>
      <trkpt lat="46.09358" lon="4.49824">
        <ele>448.2</ele>
        <time>2014-10-02T11:49:40Z</time>
      </trkpt>
      <trkpt lat="46.09366" lon="4.49832">
        <ele>448.4</ele>
        <time>2014-10-02T11:49:42Z</time>
      </trkpt>
      <trkpt lat="46.09374" lon="4.49842">
        <ele>448.5</ele>
        <time>2014-10-02T11:49:44Z</time>
      </trkpt>
      <trkpt lat="46.09382" lon="4.49851">
        <ele>447.5</ele>
        <time>2014-10-02T11:49:46Z</time>
      </trkpt>
      <trkpt lat="46.09391" lon="4.4986">
        <ele>446.4</ele>
        <time>2014-10-02T11:49:49Z</time>
      </trkpt>
      <trkpt lat="46.094" lon="4.49866">
        <ele>445.3</ele>
        <time>2014-10-02T11:49:51Z</time>
      </trkpt>
      <trkpt lat="46.09411" lon="4.49872">
        <ele>444.8</ele>
        <time>2014-10-02T11:49:53Z</time>
      </trkpt>
      <trkpt lat="46.09422" lon="4.49873">
        <ele>444.4</ele>
        <time>2014-10-02T11:49:54Z</time>
      </trkpt>
      <trkpt lat="46.09433" lon="4.49875">
        <ele>443.9</ele>
        <time>2014-10-02T11:49:56Z</time>
      </trkpt>
      <trkpt lat="46.09445" lon="4.49877">
        <ele>444.5</ele>
        <time>2014-10-02T11:49:58Z</time>
      </trkpt>
      <trkpt lat="46.09455" lon="4.49878">
        <ele>444.6</ele>
        <time>2014-10-02T11:50:00Z</time>
      </trkpt>
      <trkpt lat="46.09466" lon="4.49879">
        <ele>444.7</ele>
        <time>2014-10-02T11:50:02Z</time>
      </trkpt>
      <trkpt lat="46.09476" lon="4.4988">
        <ele>444.8</ele>
        <time>2014-10-02T11:50:04Z</time>
      </trkpt>
      <trkpt lat="46.09486" lon="4.4988">
        <ele>444.9</ele>
        <time>2014-10-02T11:50:06Z</time>
      </trkpt>
      <trkpt lat="46.09497" lon="4.49879">
        <ele>445</ele>
        <time>2014-10-02T11:50:08Z</time>
      </trkpt>
      <trkpt lat="46.09506" lon="4.49876">
        <ele>445.9</ele>
        <time>2014-10-02T11:50:10Z</time>
      </trkpt>
      <trkpt lat="46.09516" lon="4.49873">
        <ele>446.8</ele>
        <time>2014-10-02T11:50:12Z</time>
      </trkpt>
      <trkpt lat="46.09525" lon="4.49867">
        <ele>447.1</ele>
        <time>2014-10-02T11:50:14Z</time>
      </trkpt>
      <trkpt lat="46.09533" lon="4.49861">
        <ele>447.4</ele>
        <time>2014-10-02T11:50:16Z</time>
      </trkpt>
      <trkpt lat="46.09543" lon="4.49853">
        <ele>447.6</ele>
        <time>2014-10-02T11:50:19Z</time>
      </trkpt>
      <trkpt lat="46.0955" lon="4.49847">
        <ele>447.9</ele>
        <time>2014-10-02T11:50:21Z</time>
      </trkpt>
      <trkpt lat="46.09557" lon="4.4984">
        <ele>448.7</ele>
        <time>2014-10-02T11:50:23Z</time>
      </trkpt>
      <trkpt lat="46.09565" lon="4.49833">
        <ele>449.5</ele>
        <time>2014-10-02T11:50:25Z</time>
      </trkpt>
      <trkpt lat="46.09576" lon="4.49825">
        <ele>450.4</ele>
        <time>2014-10-02T11:50:28Z</time>
      </trkpt>
      <trkpt lat="46.09583" lon="4.4982">
        <ele>451.2</ele>
        <time>2014-10-02T11:50:30Z</time>
      </trkpt>
      <trkpt lat="46.09591" lon="4.49816">
        <ele>451.5</ele>
        <time>2014-10-02T11:50:32Z</time>
      </trkpt>
      <trkpt lat="46.09599" lon="4.49812">
        <ele>450.9</ele>
        <time>2014-10-02T11:50:34Z</time>
      </trkpt>
      <trkpt lat="46.09608" lon="4.49808">
        <ele>450.4</ele>
        <time>2014-10-02T11:50:36Z</time>
      </trkpt>
      <trkpt lat="46.09617" lon="4.49804">
        <ele>449.8</ele>
        <time>2014-10-02T11:50:38Z</time>
      </trkpt>
      <trkpt lat="46.09627" lon="4.49799">
        <ele>449.3</ele>
        <time>2014-10-02T11:50:40Z</time>
      </trkpt>
      <trkpt lat="46.09637" lon="4.49793">
        <ele>448.7</ele>
        <time>2014-10-02T11:50:42Z</time>
      </trkpt>
      <trkpt lat="46.09646" lon="4.49784">
        <ele>448.2</ele>
        <time>2014-10-02T11:50:43Z</time>
      </trkpt>
      <trkpt lat="46.09655" lon="4.49781">
        <ele>447.6</ele>
        <time>2014-10-02T11:50:45Z</time>
      </trkpt>
      <trkpt lat="46.09665" lon="4.49778">
        <ele>447.6</ele>
        <time>2014-10-02T11:50:47Z</time>
      </trkpt>
      <trkpt lat="46.09674" lon="4.49774">
        <ele>447.6</ele>
        <time>2014-10-02T11:50:49Z</time>
      </trkpt>
      <trkpt lat="46.09685" lon="4.49765">
        <ele>447.6</ele>
        <time>2014-10-02T11:50:52Z</time>
      </trkpt>
      <trkpt lat="46.09695" lon="4.49761">
        <ele>448.2</ele>
        <time>2014-10-02T11:50:54Z</time>
      </trkpt>
      <trkpt lat="46.09705" lon="4.4976">
        <ele>448.7</ele>
        <time>2014-10-02T11:50:55Z</time>
      </trkpt>
      <trkpt lat="46.09716" lon="4.49755">
        <ele>449.3</ele>
        <time>2014-10-02T11:50:57Z</time>
      </trkpt>
      <trkpt lat="46.09726" lon="4.49754">
        <ele>449.8</ele>
        <time>2014-10-02T11:50:59Z</time>
      </trkpt>
      <trkpt lat="46.09736" lon="4.49752">
        <ele>450.4</ele>
        <time>2014-10-02T11:51:01Z</time>
      </trkpt>
      <trkpt lat="46.09745" lon="4.49749">
        <ele>450.9</ele>
        <time>2014-10-02T11:51:03Z</time>
      </trkpt>
      <trkpt lat="46.09754" lon="4.49748">
        <ele>452.1</ele>
        <time>2014-10-02T11:51:05Z</time>
      </trkpt>
      <trkpt lat="46.09766" lon="4.49748">
        <ele>453.3</ele>
        <time>2014-10-02T11:51:08Z</time>
      </trkpt>
      <trkpt lat="46.09777" lon="4.49744">
        <ele>453.9</ele>
        <time>2014-10-02T11:51:11Z</time>
      </trkpt>
      <trkpt lat="46.09786" lon="4.4974">
        <ele>453.4</ele>
        <time>2014-10-02T11:51:13Z</time>
      </trkpt>
      <trkpt lat="46.09796" lon="4.49737">
        <ele>452.8</ele>
        <time>2014-10-02T11:51:15Z</time>
      </trkpt>
      <trkpt lat="46.09807" lon="4.49732">
        <ele>452.3</ele>
        <time>2014-10-02T11:51:17Z</time>
      </trkpt>
      <trkpt lat="46.09816" lon="4.49724">
        <ele>451.7</ele>
        <time>2014-10-02T11:51:19Z</time>
      </trkpt>
      <trkpt lat="46.09826" lon="4.49719">
        <ele>451.2</ele>
        <time>2014-10-02T11:51:21Z</time>
      </trkpt>
      <trkpt lat="46.09836" lon="4.49713">
        <ele>450.8</ele>
        <time>2014-10-02T11:51:23Z</time>
      </trkpt>
      <trkpt lat="46.09845" lon="4.49707">
        <ele>450.5</ele>
        <time>2014-10-02T11:51:25Z</time>
      </trkpt>
      <trkpt lat="46.09857" lon="4.497">
        <ele>450.1</ele>
        <time>2014-10-02T11:51:27Z</time>
      </trkpt>
      <trkpt lat="46.09867" lon="4.49694">
        <ele>449.1</ele>
        <time>2014-10-02T11:51:29Z</time>
      </trkpt>
      <trkpt lat="46.09877" lon="4.49687">
        <ele>448.1</ele>
        <time>2014-10-02T11:51:31Z</time>
      </trkpt>
      <trkpt lat="46.09886" lon="4.49682">
        <ele>447.1</ele>
        <time>2014-10-02T11:51:34Z</time>
      </trkpt>
      <trkpt lat="46.09895" lon="4.49677">
        <ele>447.3</ele>
        <time>2014-10-02T11:51:36Z</time>
      </trkpt>
      <trkpt lat="46.09905" lon="4.49678">
        <ele>447.5</ele>
        <time>2014-10-02T11:51:38Z</time>
      </trkpt>
      <trkpt lat="46.09913" lon="4.49675">
        <ele>447.6</ele>
        <time>2014-10-02T11:51:39Z</time>
      </trkpt>
      <trkpt lat="46.09923" lon="4.49669">
        <ele>448.1</ele>
        <time>2014-10-02T11:51:41Z</time>
      </trkpt>
      <trkpt lat="46.09933" lon="4.49664">
        <ele>448.5</ele>
        <time>2014-10-02T11:51:43Z</time>
      </trkpt>
      <trkpt lat="46.09942" lon="4.4966">
        <ele>448.8</ele>
        <time>2014-10-02T11:51:45Z</time>
      </trkpt>
      <trkpt lat="46.09953" lon="4.49657">
        <ele>449.1</ele>
        <time>2014-10-02T11:51:47Z</time>
      </trkpt>
      <trkpt lat="46.09963" lon="4.49653">
        <ele>449.4</ele>
        <time>2014-10-02T11:51:49Z</time>
      </trkpt>
      <trkpt lat="46.09971" lon="4.49652">
        <ele>449.6</ele>
        <time>2014-10-02T11:51:51Z</time>
      </trkpt>
      <trkpt lat="46.09983" lon="4.4965">
        <ele>449.9</ele>
        <time>2014-10-02T11:51:53Z</time>
      </trkpt>
      <trkpt lat="46.09993" lon="4.49648">
        <ele>450.2</ele>
        <time>2014-10-02T11:51:55Z</time>
      </trkpt>
      <trkpt lat="46.10004" lon="4.49646">
        <ele>450.8</ele>
        <time>2014-10-02T11:51:57Z</time>
      </trkpt>
      <trkpt lat="46.10015" lon="4.49642">
        <ele>451.5</ele>
        <time>2014-10-02T11:52:00Z</time>
      </trkpt>
      <trkpt lat="46.10025" lon="4.4964">
        <ele>452.1</ele>
        <time>2014-10-02T11:52:02Z</time>
      </trkpt>
      <trkpt lat="46.10034" lon="4.49639">
        <ele>452.5</ele>
        <time>2014-10-02T11:52:05Z</time>
      </trkpt>
      <trkpt lat="46.10043" lon="4.49639">
        <ele>452.8</ele>
        <time>2014-10-02T11:52:07Z</time>
      </trkpt>
      <trkpt lat="46.10052" lon="4.49638">
        <ele>452.9</ele>
        <time>2014-10-02T11:52:08Z</time>
      </trkpt>
      <trkpt lat="46.10062" lon="4.49636">
        <ele>453</ele>
        <time>2014-10-02T11:52:10Z</time>
      </trkpt>
      <trkpt lat="46.10071" lon="4.49635">
        <ele>453.9</ele>
        <time>2014-10-02T11:52:12Z</time>
      </trkpt>
      <trkpt lat="46.1008" lon="4.49635">
        <ele>454.8</ele>
        <time>2014-10-02T11:52:15Z</time>
      </trkpt>
      <trkpt lat="46.10089" lon="4.49633">
        <ele>455.7</ele>
        <time>2014-10-02T11:52:17Z</time>
      </trkpt>
      <trkpt lat="46.10097" lon="4.49631">
        <ele>456.6</ele>
        <time>2014-10-02T11:52:19Z</time>
      </trkpt>
      <trkpt lat="46.10107" lon="4.49631">
        <ele>457.2</ele>
        <time>2014-10-02T11:52:21Z</time>
      </trkpt>
      <trkpt lat="46.10128" lon="4.49622">
        <ele>457.7</ele>
        <time>2014-10-02T11:52:27Z</time>
      </trkpt>
      <trkpt lat="46.10139" lon="4.49616">
        <ele>458.3</ele>
        <time>2014-10-02T11:52:30Z</time>
      </trkpt>
      <trkpt lat="46.10149" lon="4.4961">
        <ele>458.8</ele>
        <time>2014-10-02T11:52:33Z</time>
      </trkpt>
      <trkpt lat="46.10159" lon="4.49604">
        <ele>459.4</ele>
        <time>2014-10-02T11:52:36Z</time>
      </trkpt>
      <trkpt lat="46.10169" lon="4.49601">
        <ele>461.1</ele>
        <time>2014-10-02T11:52:39Z</time>
      </trkpt>
      <trkpt lat="46.1018" lon="4.49597">
        <ele>462.8</ele>
        <time>2014-10-02T11:52:42Z</time>
      </trkpt>
      <trkpt lat="46.10188" lon="4.49594">
        <ele>463.7</ele>
        <time>2014-10-02T11:52:44Z</time>
      </trkpt>
      <trkpt lat="46.10197" lon="4.49592">
        <ele>464.6</ele>
        <time>2014-10-02T11:52:46Z</time>
      </trkpt>
      <trkpt lat="46.10205" lon="4.49589">
        <ele>465.5</ele>
        <time>2014-10-02T11:52:48Z</time>
      </trkpt>
      <trkpt lat="46.10216" lon="4.49586">
        <ele>466.5</ele>
        <time>2014-10-02T11:52:51Z</time>
      </trkpt>
      <trkpt lat="46.10227" lon="4.49582">
        <ele>467.4</ele>
        <time>2014-10-02T11:52:54Z</time>
      </trkpt>
      <trkpt lat="46.10238" lon="4.49578">
        <ele>468.3</ele>
        <time>2014-10-02T11:52:57Z</time>
      </trkpt>
      <trkpt lat="46.10249" lon="4.49575">
        <ele>469.2</ele>
        <time>2014-10-02T11:53:00Z</time>
      </trkpt>
      <trkpt lat="46.10257" lon="4.49572">
        <ele>471.3</ele>
        <time>2014-10-02T11:53:02Z</time>
      </trkpt>
      <trkpt lat="46.10266" lon="4.49569">
        <ele>471.4</ele>
        <time>2014-10-02T11:53:04Z</time>
      </trkpt>
      <trkpt lat="46.10274" lon="4.49566">
        <ele>470.5</ele>
        <time>2014-10-02T11:53:06Z</time>
      </trkpt>
      <trkpt lat="46.10282" lon="4.49563">
        <ele>469.7</ele>
        <time>2014-10-02T11:53:08Z</time>
      </trkpt>
      <trkpt lat="46.1029" lon="4.49559">
        <ele>468.9</ele>
        <time>2014-10-02T11:53:10Z</time>
      </trkpt>
      <trkpt lat="46.10301" lon="4.49553">
        <ele>468.1</ele>
        <time>2014-10-02T11:53:13Z</time>
      </trkpt>
      <trkpt lat="46.10312" lon="4.49548">
        <ele>467.3</ele>
        <time>2014-10-02T11:53:16Z</time>
      </trkpt>
      <trkpt lat="46.10323" lon="4.49542">
        <ele>466.5</ele>
        <time>2014-10-02T11:53:20Z</time>
      </trkpt>
      <trkpt lat="46.10334" lon="4.49538">
        <ele>466.1</ele>
        <time>2014-10-02T11:53:22Z</time>
      </trkpt>
      <trkpt lat="46.10346" lon="4.49534">
        <ele>465.7</ele>
        <time>2014-10-02T11:53:25Z</time>
      </trkpt>
      <trkpt lat="46.10357" lon="4.49531">
        <ele>465.4</ele>
        <time>2014-10-02T11:53:28Z</time>
      </trkpt>
      <trkpt lat="46.10369" lon="4.49527">
        <ele>463.8</ele>
        <time>2014-10-02T11:53:31Z</time>
      </trkpt>
      <trkpt lat="46.10378" lon="4.49525">
        <ele>464.3</ele>
        <time>2014-10-02T11:53:33Z</time>
      </trkpt>
      <trkpt lat="46.10387" lon="4.49523">
        <ele>464.7</ele>
        <time>2014-10-02T11:53:35Z</time>
      </trkpt>
      <trkpt lat="46.10396" lon="4.4952">
        <ele>465.2</ele>
        <time>2014-10-02T11:53:37Z</time>
      </trkpt>
      <trkpt lat="46.10405" lon="4.49517">
        <ele>465.6</ele>
        <time>2014-10-02T11:53:39Z</time>
      </trkpt>
      <trkpt lat="46.10414" lon="4.49515">
        <ele>466.1</ele>
        <time>2014-10-02T11:53:41Z</time>
      </trkpt>
      <trkpt lat="46.10423" lon="4.49513">
        <ele>466.5</ele>
        <time>2014-10-02T11:53:43Z</time>
      </trkpt>
      <trkpt lat="46.10432" lon="4.49511">
        <ele>467</ele>
        <time>2014-10-02T11:53:45Z</time>
      </trkpt>
      <trkpt lat="46.10442" lon="4.49509">
        <ele>467</ele>
        <time>2014-10-02T11:53:47Z</time>
      </trkpt>
      <trkpt lat="46.10452" lon="4.49508">
        <ele>467</ele>
        <time>2014-10-02T11:53:49Z</time>
      </trkpt>
      <trkpt lat="46.10461" lon="4.49507">
        <ele>467</ele>
        <time>2014-10-02T11:53:51Z</time>
      </trkpt>
      <trkpt lat="46.1047" lon="4.4951">
        <ele>467</ele>
        <time>2014-10-02T11:53:53Z</time>
      </trkpt>
      <trkpt lat="46.1048" lon="4.49512">
        <ele>467</ele>
        <time>2014-10-02T11:53:55Z</time>
      </trkpt>
      <trkpt lat="46.1049" lon="4.49515">
        <ele>468.3</ele>
        <time>2014-10-02T11:53:57Z</time>
      </trkpt>
      <trkpt lat="46.10499" lon="4.4952">
        <ele>469.5</ele>
        <time>2014-10-02T11:54:00Z</time>
      </trkpt>
      <trkpt lat="46.10508" lon="4.49523">
        <ele>469.5</ele>
        <time>2014-10-02T11:54:01Z</time>
      </trkpt>
      <trkpt lat="46.10518" lon="4.49534">
        <ele>469.4</ele>
        <time>2014-10-02T11:54:04Z</time>
      </trkpt>
      <trkpt lat="46.10527" lon="4.49543">
        <ele>469.3</ele>
        <time>2014-10-02T11:54:06Z</time>
      </trkpt>
      <trkpt lat="46.10535" lon="4.4955">
        <ele>469.2</ele>
        <time>2014-10-02T11:54:08Z</time>
      </trkpt>
      <trkpt lat="46.10543" lon="4.49557">
        <ele>469.1</ele>
        <time>2014-10-02T11:54:10Z</time>
      </trkpt>
      <trkpt lat="46.10552" lon="4.49565">
        <ele>469</ele>
        <time>2014-10-02T11:54:12Z</time>
      </trkpt>
      <trkpt lat="46.10559" lon="4.49572">
        <ele>468.9</ele>
        <time>2014-10-02T11:54:14Z</time>
      </trkpt>
      <trkpt lat="46.10568" lon="4.49579">
        <ele>468.8</ele>
        <time>2014-10-02T11:54:16Z</time>
      </trkpt>
      <trkpt lat="46.10576" lon="4.49585">
        <ele>468.7</ele>
        <time>2014-10-02T11:54:18Z</time>
      </trkpt>
      <trkpt lat="46.10584" lon="4.4959">
        <ele>467.4</ele>
        <time>2014-10-02T11:54:20Z</time>
      </trkpt>
      <trkpt lat="46.10593" lon="4.49594">
        <ele>466</ele>
        <time>2014-10-02T11:54:22Z</time>
      </trkpt>
      <trkpt lat="46.10603" lon="4.496">
        <ele>466</ele>
        <time>2014-10-02T11:54:24Z</time>
      </trkpt>
      <trkpt lat="46.10614" lon="4.49603">
        <ele>466</ele>
        <time>2014-10-02T11:54:26Z</time>
      </trkpt>
      <trkpt lat="46.10623" lon="4.49604">
        <ele>466</ele>
        <time>2014-10-02T11:54:28Z</time>
      </trkpt>
      <trkpt lat="46.10633" lon="4.49604">
        <ele>466</ele>
        <time>2014-10-02T11:54:30Z</time>
      </trkpt>
      <trkpt lat="46.10643" lon="4.49603">
        <ele>466</ele>
        <time>2014-10-02T11:54:32Z</time>
      </trkpt>
      <trkpt lat="46.10654" lon="4.496">
        <ele>466</ele>
        <time>2014-10-02T11:54:34Z</time>
      </trkpt>
      <trkpt lat="46.10664" lon="4.49596">
        <ele>466.7</ele>
        <time>2014-10-02T11:54:36Z</time>
      </trkpt>
      <trkpt lat="46.10674" lon="4.49593">
        <ele>467.5</ele>
        <time>2014-10-02T11:54:38Z</time>
      </trkpt>
      <trkpt lat="46.10685" lon="4.49589">
        <ele>468.2</ele>
        <time>2014-10-02T11:54:40Z</time>
      </trkpt>
      <trkpt lat="46.10696" lon="4.49585">
        <ele>468.9</ele>
        <time>2014-10-02T11:54:42Z</time>
      </trkpt>
      <trkpt lat="46.10706" lon="4.49581">
        <ele>469.6</ele>
        <time>2014-10-02T11:54:44Z</time>
      </trkpt>
      <trkpt lat="46.10717" lon="4.49577">
        <ele>470.4</ele>
        <time>2014-10-02T11:54:46Z</time>
      </trkpt>
      <trkpt lat="46.10728" lon="4.49573">
        <ele>470.1</ele>
        <time>2014-10-02T11:54:48Z</time>
      </trkpt>
      <trkpt lat="46.10739" lon="4.49568">
        <ele>469.8</ele>
        <time>2014-10-02T11:54:50Z</time>
      </trkpt>
      <trkpt lat="46.1075" lon="4.49563">
        <ele>470.1</ele>
        <time>2014-10-02T11:54:52Z</time>
      </trkpt>
      <trkpt lat="46.1076" lon="4.49558">
        <ele>470.4</ele>
        <time>2014-10-02T11:54:54Z</time>
      </trkpt>
      <trkpt lat="46.1077" lon="4.49552">
        <ele>470.6</ele>
        <time>2014-10-02T11:54:56Z</time>
      </trkpt>
      <trkpt lat="46.1078" lon="4.49546">
        <ele>470.2</ele>
        <time>2014-10-02T11:54:58Z</time>
      </trkpt>
      <trkpt lat="46.10791" lon="4.49539">
        <ele>469.7</ele>
        <time>2014-10-02T11:55:00Z</time>
      </trkpt>
      <trkpt lat="46.108" lon="4.49532">
        <ele>469.3</ele>
        <time>2014-10-02T11:55:02Z</time>
      </trkpt>
      <trkpt lat="46.1081" lon="4.49524">
        <ele>468.8</ele>
        <time>2014-10-02T11:55:04Z</time>
      </trkpt>
      <trkpt lat="46.10818" lon="4.49518">
        <ele>468.4</ele>
        <time>2014-10-02T11:55:06Z</time>
      </trkpt>
      <trkpt lat="46.10827" lon="4.49512">
        <ele>468.1</ele>
        <time>2014-10-02T11:55:08Z</time>
      </trkpt>
      <trkpt lat="46.10838" lon="4.49506">
        <ele>468.8</ele>
        <time>2014-10-02T11:55:11Z</time>
      </trkpt>
      <trkpt lat="46.10848" lon="4.49503">
        <ele>469.5</ele>
        <time>2014-10-02T11:55:12Z</time>
      </trkpt>
      <trkpt lat="46.10861" lon="4.49497">
        <ele>469.7</ele>
        <time>2014-10-02T11:55:14Z</time>
      </trkpt>
      <trkpt lat="46.10872" lon="4.49494">
        <ele>469.9</ele>
        <time>2014-10-02T11:55:16Z</time>
      </trkpt>
      <trkpt lat="46.10882" lon="4.49492">
        <ele>470.1</ele>
        <time>2014-10-02T11:55:18Z</time>
      </trkpt>
      <trkpt lat="46.10893" lon="4.49491">
        <ele>470.3</ele>
        <time>2014-10-02T11:55:20Z</time>
      </trkpt>
      <trkpt lat="46.10904" lon="4.4949">
        <ele>470.5</ele>
        <time>2014-10-02T11:55:22Z</time>
      </trkpt>
      <trkpt lat="46.10912" lon="4.49489">
        <ele>471.3</ele>
        <time>2014-10-02T11:55:24Z</time>
      </trkpt>
      <trkpt lat="46.10923" lon="4.49488">
        <ele>472.1</ele>
        <time>2014-10-02T11:55:26Z</time>
      </trkpt>
      <trkpt lat="46.10933" lon="4.49488">
        <ele>472.9</ele>
        <time>2014-10-02T11:55:28Z</time>
      </trkpt>
      <trkpt lat="46.10943" lon="4.49487">
        <ele>473.5</ele>
        <time>2014-10-02T11:55:30Z</time>
      </trkpt>
      <trkpt lat="46.10953" lon="4.49486">
        <ele>474.2</ele>
        <time>2014-10-02T11:55:32Z</time>
      </trkpt>
      <trkpt lat="46.10963" lon="4.49484">
        <ele>474.8</ele>
        <time>2014-10-02T11:55:34Z</time>
      </trkpt>
      <trkpt lat="46.10972" lon="4.49484">
        <ele>475.5</ele>
        <time>2014-10-02T11:55:36Z</time>
      </trkpt>
      <trkpt lat="46.10981" lon="4.49482">
        <ele>475.3</ele>
        <time>2014-10-02T11:55:38Z</time>
      </trkpt>
      <trkpt lat="46.1099" lon="4.49479">
        <ele>475.1</ele>
        <time>2014-10-02T11:55:40Z</time>
      </trkpt>
      <trkpt lat="46.10998" lon="4.49474">
        <ele>474.9</ele>
        <time>2014-10-02T11:55:42Z</time>
      </trkpt>
      <trkpt lat="46.11007" lon="4.4947">
        <ele>475.5</ele>
        <time>2014-10-02T11:55:44Z</time>
      </trkpt>
      <trkpt lat="46.11016" lon="4.49468">
        <ele>475.5</ele>
        <time>2014-10-02T11:55:46Z</time>
      </trkpt>
      <trkpt lat="46.11024" lon="4.49464">
        <ele>475.5</ele>
        <time>2014-10-02T11:55:48Z</time>
      </trkpt>
      <trkpt lat="46.11033" lon="4.49459">
        <ele>475.5</ele>
        <time>2014-10-02T11:55:50Z</time>
      </trkpt>
      <trkpt lat="46.11042" lon="4.49454">
        <ele>475.5</ele>
        <time>2014-10-02T11:55:52Z</time>
      </trkpt>
      <trkpt lat="46.11052" lon="4.49449">
        <ele>475.5</ele>
        <time>2014-10-02T11:55:54Z</time>
      </trkpt>
      <trkpt lat="46.11062" lon="4.49446">
        <ele>475.5</ele>
        <time>2014-10-02T11:55:57Z</time>
      </trkpt>
      <trkpt lat="46.11075" lon="4.4944">
        <ele>475.5</ele>
        <time>2014-10-02T11:56:00Z</time>
      </trkpt>
      <trkpt lat="46.11083" lon="4.49437">
        <ele>477.7</ele>
        <time>2014-10-02T11:56:02Z</time>
      </trkpt>
      <trkpt lat="46.11095" lon="4.49431">
        <ele>479.9</ele>
        <time>2014-10-02T11:56:05Z</time>
      </trkpt>
      <trkpt lat="46.11103" lon="4.49427">
        <ele>482.1</ele>
        <time>2014-10-02T11:56:07Z</time>
      </trkpt>
      <trkpt lat="46.11114" lon="4.49421">
        <ele>483.5</ele>
        <time>2014-10-02T11:56:10Z</time>
      </trkpt>
      <trkpt lat="46.11122" lon="4.49418">
        <ele>484.8</ele>
        <time>2014-10-02T11:56:12Z</time>
      </trkpt>
      <trkpt lat="46.11131" lon="4.49412">
        <ele>486.2</ele>
        <time>2014-10-02T11:56:14Z</time>
      </trkpt>
      <trkpt lat="46.11139" lon="4.49407">
        <ele>487.5</ele>
        <time>2014-10-02T11:56:16Z</time>
      </trkpt>
      <trkpt lat="46.11148" lon="4.49403">
        <ele>487.2</ele>
        <time>2014-10-02T11:56:18Z</time>
      </trkpt>
      <trkpt lat="46.11156" lon="4.49398">
        <ele>486.8</ele>
        <time>2014-10-02T11:56:20Z</time>
      </trkpt>
      <trkpt lat="46.11164" lon="4.49394">
        <ele>487.5</ele>
        <time>2014-10-02T11:56:22Z</time>
      </trkpt>
      <trkpt lat="46.11171" lon="4.4939">
        <ele>488.3</ele>
        <time>2014-10-02T11:56:24Z</time>
      </trkpt>
      <trkpt lat="46.11179" lon="4.49386">
        <ele>487.6</ele>
        <time>2014-10-02T11:56:26Z</time>
      </trkpt>
      <trkpt lat="46.11187" lon="4.49382">
        <ele>487</ele>
        <time>2014-10-02T11:56:28Z</time>
      </trkpt>
      <trkpt lat="46.11198" lon="4.49376">
        <ele>486.4</ele>
        <time>2014-10-02T11:56:31Z</time>
      </trkpt>
      <trkpt lat="46.1121" lon="4.4937">
        <ele>485.7</ele>
        <time>2014-10-02T11:56:34Z</time>
      </trkpt>
      <trkpt lat="46.11217" lon="4.49366">
        <ele>485.1</ele>
        <time>2014-10-02T11:56:36Z</time>
      </trkpt>
      <trkpt lat="46.11225" lon="4.49361">
        <ele>484.5</ele>
        <time>2014-10-02T11:56:38Z</time>
      </trkpt>
      <trkpt lat="46.11232" lon="4.49356">
        <ele>483.8</ele>
        <time>2014-10-02T11:56:40Z</time>
      </trkpt>
      <trkpt lat="46.1124" lon="4.49352">
        <ele>484.9</ele>
        <time>2014-10-02T11:56:42Z</time>
      </trkpt>
      <trkpt lat="46.11248" lon="4.49348">
        <ele>486</ele>
        <time>2014-10-02T11:56:45Z</time>
      </trkpt>
      <trkpt lat="46.11256" lon="4.49344">
        <ele>487.4</ele>
        <time>2014-10-02T11:56:46Z</time>
      </trkpt>
      <trkpt lat="46.11264" lon="4.4934">
        <ele>488.7</ele>
        <time>2014-10-02T11:56:48Z</time>
      </trkpt>
      <trkpt lat="46.11275" lon="4.49336">
        <ele>490.1</ele>
        <time>2014-10-02T11:56:51Z</time>
      </trkpt>
      <trkpt lat="46.11284" lon="4.49333">
        <ele>491.5</ele>
        <time>2014-10-02T11:56:54Z</time>
      </trkpt>
      <trkpt lat="46.11292" lon="4.49331">
        <ele>492.8</ele>
        <time>2014-10-02T11:56:56Z</time>
      </trkpt>
      <trkpt lat="46.113" lon="4.49328">
        <ele>494.2</ele>
        <time>2014-10-02T11:56:58Z</time>
      </trkpt>
      <trkpt lat="46.11308" lon="4.49326">
        <ele>495.5</ele>
        <time>2014-10-02T11:57:00Z</time>
      </trkpt>
      <trkpt lat="46.11317" lon="4.49324">
        <ele>496.9</ele>
        <time>2014-10-02T11:57:02Z</time>
      </trkpt>
      <trkpt lat="46.11328" lon="4.4932">
        <ele>498.3</ele>
        <time>2014-10-02T11:57:05Z</time>
      </trkpt>
      <trkpt lat="46.11337" lon="4.49319">
        <ele>499.6</ele>
        <time>2014-10-02T11:57:07Z</time>
      </trkpt>
      <trkpt lat="46.11345" lon="4.49318">
        <ele>501.1</ele>
        <time>2014-10-02T11:57:09Z</time>
      </trkpt>
      <trkpt lat="46.11354" lon="4.49316">
        <ele>501.2</ele>
        <time>2014-10-02T11:57:11Z</time>
      </trkpt>
      <trkpt lat="46.11362" lon="4.49314">
        <ele>499.5</ele>
        <time>2014-10-02T11:57:12Z</time>
      </trkpt>
      <trkpt lat="46.11371" lon="4.49313">
        <ele>497.9</ele>
        <time>2014-10-02T11:57:14Z</time>
      </trkpt>
      <trkpt lat="46.1138" lon="4.49312">
        <ele>496.3</ele>
        <time>2014-10-02T11:57:17Z</time>
      </trkpt>
      <trkpt lat="46.11388" lon="4.49313">
        <ele>494.6</ele>
        <time>2014-10-02T11:57:19Z</time>
      </trkpt>
      <trkpt lat="46.114" lon="4.4931">
        <ele>493</ele>
        <time>2014-10-02T11:57:21Z</time>
      </trkpt>
      <trkpt lat="46.11475" lon="4.49282">
        <ele>493.2</ele>
        <time>2014-10-02T11:57:41Z</time>
      </trkpt>
      <trkpt lat="46.11485" lon="4.49285">
        <ele>493.4</ele>
        <time>2014-10-02T11:57:43Z</time>
      </trkpt>
      <trkpt lat="46.11493" lon="4.49287">
        <ele>493.5</ele>
        <time>2014-10-02T11:57:45Z</time>
      </trkpt>
      <trkpt lat="46.11502" lon="4.49287">
        <ele>493.2</ele>
        <time>2014-10-02T11:57:47Z</time>
      </trkpt>
      <trkpt lat="46.1151" lon="4.49287">
        <ele>492.7</ele>
        <time>2014-10-02T11:57:49Z</time>
      </trkpt>
      <trkpt lat="46.11524" lon="4.49305">
        <ele>492.3</ele>
        <time>2014-10-02T11:57:51Z</time>
      </trkpt>
      <trkpt lat="46.11536" lon="4.49311">
        <ele>493.5</ele>
        <time>2014-10-02T11:57:53Z</time>
      </trkpt>
      <trkpt lat="46.11544" lon="4.49313">
        <ele>494.8</ele>
        <time>2014-10-02T11:57:55Z</time>
      </trkpt>
      <trkpt lat="46.11556" lon="4.49314">
        <ele>496.1</ele>
        <time>2014-10-02T11:57:58Z</time>
      </trkpt>
      <trkpt lat="46.11564" lon="4.49314">
        <ele>497.4</ele>
        <time>2014-10-02T11:58:00Z</time>
      </trkpt>
      <trkpt lat="46.11574" lon="4.49315">
        <ele>498.6</ele>
        <time>2014-10-02T11:58:02Z</time>
      </trkpt>
      <trkpt lat="46.11583" lon="4.49315">
        <ele>497.9</ele>
        <time>2014-10-02T11:58:04Z</time>
      </trkpt>
      <trkpt lat="46.11595" lon="4.49319">
        <ele>497.2</ele>
        <time>2014-10-02T11:58:06Z</time>
      </trkpt>
      <trkpt lat="46.11604" lon="4.49319">
        <ele>496.5</ele>
        <time>2014-10-02T11:58:08Z</time>
      </trkpt>
      <trkpt lat="46.11613" lon="4.49318">
        <ele>496.3</ele>
        <time>2014-10-02T11:58:10Z</time>
      </trkpt>
      <trkpt lat="46.11621" lon="4.49317">
        <ele>496.1</ele>
        <time>2014-10-02T11:58:12Z</time>
      </trkpt>
      <trkpt lat="46.1163" lon="4.49315">
        <ele>495.1</ele>
        <time>2014-10-02T11:58:14Z</time>
      </trkpt>
      <trkpt lat="46.11641" lon="4.49312">
        <ele>494.1</ele>
        <time>2014-10-02T11:58:17Z</time>
      </trkpt>
      <trkpt lat="46.11651" lon="4.49309">
        <ele>493.1</ele>
        <time>2014-10-02T11:58:20Z</time>
      </trkpt>
      <trkpt lat="46.1166" lon="4.49306">
        <ele>492.1</ele>
        <time>2014-10-02T11:58:22Z</time>
      </trkpt>
      <trkpt lat="46.11669" lon="4.49303">
        <ele>491.5</ele>
        <time>2014-10-02T11:58:24Z</time>
      </trkpt>
      <trkpt lat="46.11678" lon="4.493">
        <ele>490.8</ele>
        <time>2014-10-02T11:58:26Z</time>
      </trkpt>
      <trkpt lat="46.11687" lon="4.49295">
        <ele>490.4</ele>
        <time>2014-10-02T11:58:28Z</time>
      </trkpt>
      <trkpt lat="46.11696" lon="4.49292">
        <ele>489.9</ele>
        <time>2014-10-02T11:58:30Z</time>
      </trkpt>
      <trkpt lat="46.11704" lon="4.4929">
        <ele>489.5</ele>
        <time>2014-10-02T11:58:32Z</time>
      </trkpt>
      <trkpt lat="46.11713" lon="4.49287">
        <ele>489</ele>
        <time>2014-10-02T11:58:34Z</time>
      </trkpt>
      <trkpt lat="46.11722" lon="4.49285">
        <ele>488.5</ele>
        <time>2014-10-02T11:58:36Z</time>
      </trkpt>
      <trkpt lat="46.11731" lon="4.49283">
        <ele>488.9</ele>
        <time>2014-10-02T11:58:38Z</time>
      </trkpt>
      <trkpt lat="46.1174" lon="4.49281">
        <ele>489.3</ele>
        <time>2014-10-02T11:58:40Z</time>
      </trkpt>
      <trkpt lat="46.11749" lon="4.49279">
        <ele>489.6</ele>
        <time>2014-10-02T11:58:42Z</time>
      </trkpt>
      <trkpt lat="46.1176" lon="4.49276">
        <ele>490.6</ele>
        <time>2014-10-02T11:58:44Z</time>
      </trkpt>
      <trkpt lat="46.11769" lon="4.49274">
        <ele>491.3</ele>
        <time>2014-10-02T11:58:46Z</time>
      </trkpt>
      <trkpt lat="46.11778" lon="4.49272">
        <ele>491.9</ele>
        <time>2014-10-02T11:58:48Z</time>
      </trkpt>
      <trkpt lat="46.11788" lon="4.49269">
        <ele>492.5</ele>
        <time>2014-10-02T11:58:50Z</time>
      </trkpt>
      <trkpt lat="46.11797" lon="4.49267">
        <ele>493.2</ele>
        <time>2014-10-02T11:58:52Z</time>
      </trkpt>
      <trkpt lat="46.11805" lon="4.49265">
        <ele>493.8</ele>
        <time>2014-10-02T11:58:54Z</time>
      </trkpt>
      <trkpt lat="46.11815" lon="4.49263">
        <ele>494.5</ele>
        <time>2014-10-02T11:58:56Z</time>
      </trkpt>
      <trkpt lat="46.11823" lon="4.49262">
        <ele>495.1</ele>
        <time>2014-10-02T11:58:58Z</time>
      </trkpt>
      <trkpt lat="46.11832" lon="4.49261">
        <ele>495.7</ele>
        <time>2014-10-02T11:59:00Z</time>
      </trkpt>
      <trkpt lat="46.11844" lon="4.4926">
        <ele>497.2</ele>
        <time>2014-10-02T11:59:03Z</time>
      </trkpt>
      <trkpt lat="46.11853" lon="4.49257">
        <ele>498.6</ele>
        <time>2014-10-02T11:59:05Z</time>
      </trkpt>
      <trkpt lat="46.11861" lon="4.49255">
        <ele>499.5</ele>
        <time>2014-10-02T11:59:07Z</time>
      </trkpt>
      <trkpt lat="46.11869" lon="4.49254">
        <ele>500.3</ele>
        <time>2014-10-02T11:59:09Z</time>
      </trkpt>
      <trkpt lat="46.11879" lon="4.49252">
        <ele>501.1</ele>
        <time>2014-10-02T11:59:11Z</time>
      </trkpt>
      <trkpt lat="46.11888" lon="4.49251">
        <ele>501.9</ele>
        <time>2014-10-02T11:59:13Z</time>
      </trkpt>
      <trkpt lat="46.11899" lon="4.4925">
        <ele>502.7</ele>
        <time>2014-10-02T11:59:16Z</time>
      </trkpt>
      <trkpt lat="46.11907" lon="4.49251">
        <ele>503.5</ele>
        <time>2014-10-02T11:59:18Z</time>
      </trkpt>
      <trkpt lat="46.11916" lon="4.49254">
        <ele>504.4</ele>
        <time>2014-10-02T11:59:20Z</time>
      </trkpt>
      <trkpt lat="46.11925" lon="4.49254">
        <ele>505.2</ele>
        <time>2014-10-02T11:59:22Z</time>
      </trkpt>
      <trkpt lat="46.11934" lon="4.49252">
        <ele>506</ele>
        <time>2014-10-02T11:59:24Z</time>
      </trkpt>
      <trkpt lat="46.11945" lon="4.49254">
        <ele>506</ele>
        <time>2014-10-02T11:59:26Z</time>
      </trkpt>
      <trkpt lat="46.11956" lon="4.49252">
        <ele>506</ele>
        <time>2014-10-02T11:59:29Z</time>
      </trkpt>
      <trkpt lat="46.11968" lon="4.49252">
        <ele>506</ele>
        <time>2014-10-02T11:59:32Z</time>
      </trkpt>
      <trkpt lat="46.11977" lon="4.4925">
        <ele>506</ele>
        <time>2014-10-02T11:59:34Z</time>
      </trkpt>
      <trkpt lat="46.11986" lon="4.49251">
        <ele>506</ele>
        <time>2014-10-02T11:59:36Z</time>
      </trkpt>
      <trkpt lat="46.11997" lon="4.49256">
        <ele>506</ele>
        <time>2014-10-02T11:59:39Z</time>
      </trkpt>
      <trkpt lat="46.12007" lon="4.49258">
        <ele>505.8</ele>
        <time>2014-10-02T11:59:40Z</time>
      </trkpt>
      <trkpt lat="46.12016" lon="4.4926">
        <ele>505.6</ele>
        <time>2014-10-02T11:59:42Z</time>
      </trkpt>
      <trkpt lat="46.12025" lon="4.49262">
        <ele>505.5</ele>
        <time>2014-10-02T11:59:44Z</time>
      </trkpt>
      <trkpt lat="46.12035" lon="4.49265">
        <ele>505.3</ele>
        <time>2014-10-02T11:59:46Z</time>
      </trkpt>
      <trkpt lat="46.12044" lon="4.49266">
        <ele>505.1</ele>
        <time>2014-10-02T11:59:48Z</time>
      </trkpt>
      <trkpt lat="46.12053" lon="4.49271">
        <ele>504.9</ele>
        <time>2014-10-02T11:59:50Z</time>
      </trkpt>
      <trkpt lat="46.12062" lon="4.49273">
        <ele>504.7</ele>
        <time>2014-10-02T11:59:52Z</time>
      </trkpt>
      <trkpt lat="46.1207" lon="4.49273">
        <ele>504.5</ele>
        <time>2014-10-02T11:59:54Z</time>
      </trkpt>
      <trkpt lat="46.12079" lon="4.49274">
        <ele>504.4</ele>
        <time>2014-10-02T11:59:56Z</time>
      </trkpt>
      <trkpt lat="46.12088" lon="4.49275">
        <ele>504.6</ele>
        <time>2014-10-02T11:59:58Z</time>
      </trkpt>
      <trkpt lat="46.12097" lon="4.49275">
        <ele>504.9</ele>
        <time>2014-10-02T12:00:00Z</time>
      </trkpt>
      <trkpt lat="46.12105" lon="4.49274">
        <ele>505.4</ele>
        <time>2014-10-02T12:00:02Z</time>
      </trkpt>
      <trkpt lat="46.12116" lon="4.49271">
        <ele>505.8</ele>
        <time>2014-10-02T12:00:05Z</time>
      </trkpt>
      <trkpt lat="46.12126" lon="4.49269">
        <ele>506.3</ele>
        <time>2014-10-02T12:00:08Z</time>
      </trkpt>
      <trkpt lat="46.12135" lon="4.49266">
        <ele>506.7</ele>
        <time>2014-10-02T12:00:11Z</time>
      </trkpt>
      <trkpt lat="46.12145" lon="4.49268">
        <ele>507.2</ele>
        <time>2014-10-02T12:00:15Z</time>
      </trkpt>
      <trkpt lat="46.12154" lon="4.4927">
        <ele>507.6</ele>
        <time>2014-10-02T12:00:18Z</time>
      </trkpt>
      <trkpt lat="46.12164" lon="4.4927">
        <ele>509.7</ele>
        <time>2014-10-02T12:00:21Z</time>
      </trkpt>
      <trkpt lat="46.12176" lon="4.49268">
        <ele>511.8</ele>
        <time>2014-10-02T12:00:24Z</time>
      </trkpt>
      <trkpt lat="46.12187" lon="4.49264">
        <ele>513.9</ele>
        <time>2014-10-02T12:00:27Z</time>
      </trkpt>
      <trkpt lat="46.12199" lon="4.4926">
        <ele>515.5</ele>
        <time>2014-10-02T12:00:30Z</time>
      </trkpt>
      <trkpt lat="46.12207" lon="4.49254">
        <ele>515.9</ele>
        <time>2014-10-02T12:00:32Z</time>
      </trkpt>
      <trkpt lat="46.12214" lon="4.49247">
        <ele>516.3</ele>
        <time>2014-10-02T12:00:34Z</time>
      </trkpt>
      <trkpt lat="46.12222" lon="4.4924">
        <ele>516.6</ele>
        <time>2014-10-02T12:00:36Z</time>
      </trkpt>
      <trkpt lat="46.12229" lon="4.49232">
        <ele>517</ele>
        <time>2014-10-02T12:00:38Z</time>
      </trkpt>
      <trkpt lat="46.12236" lon="4.49222">
        <ele>517.4</ele>
        <time>2014-10-02T12:00:40Z</time>
      </trkpt>
      <trkpt lat="46.12243" lon="4.49212">
        <ele>517.7</ele>
        <time>2014-10-02T12:00:42Z</time>
      </trkpt>
      <trkpt lat="46.12249" lon="4.49202">
        <ele>518.1</ele>
        <time>2014-10-02T12:00:44Z</time>
      </trkpt>
      <trkpt lat="46.12256" lon="4.49192">
        <ele>516.8</ele>
        <time>2014-10-02T12:00:46Z</time>
      </trkpt>
      <trkpt lat="46.12263" lon="4.49182">
        <ele>517</ele>
        <time>2014-10-02T12:00:48Z</time>
      </trkpt>
      <trkpt lat="46.12271" lon="4.49172">
        <ele>515.6</ele>
        <time>2014-10-02T12:00:50Z</time>
      </trkpt>
      <trkpt lat="46.12279" lon="4.49163">
        <ele>514.3</ele>
        <time>2014-10-02T12:00:52Z</time>
      </trkpt>
      <trkpt lat="46.12286" lon="4.49155">
        <ele>514.2</ele>
        <time>2014-10-02T12:00:54Z</time>
      </trkpt>
      <trkpt lat="46.12293" lon="4.49147">
        <ele>514.1</ele>
        <time>2014-10-02T12:00:56Z</time>
      </trkpt>
      <trkpt lat="46.123" lon="4.4914">
        <ele>514</ele>
        <time>2014-10-02T12:00:58Z</time>
      </trkpt>
      <trkpt lat="46.12308" lon="4.49132">
        <ele>513.9</ele>
        <time>2014-10-02T12:01:00Z</time>
      </trkpt>
      <trkpt lat="46.12316" lon="4.49125">
        <ele>513.8</ele>
        <time>2014-10-02T12:01:02Z</time>
      </trkpt>
      <trkpt lat="46.12324" lon="4.49118">
        <ele>513.7</ele>
        <time>2014-10-02T12:01:04Z</time>
      </trkpt>
      <trkpt lat="46.12332" lon="4.49112">
        <ele>513.6</ele>
        <time>2014-10-02T12:01:06Z</time>
      </trkpt>
      <trkpt lat="46.1234" lon="4.49104">
        <ele>513.5</ele>
        <time>2014-10-02T12:01:08Z</time>
      </trkpt>
      <trkpt lat="46.12348" lon="4.49096">
        <ele>513.5</ele>
        <time>2014-10-02T12:01:11Z</time>
      </trkpt>
      <trkpt lat="46.12356" lon="4.49088">
        <ele>515.1</ele>
        <time>2014-10-02T12:01:13Z</time>
      </trkpt>
      <trkpt lat="46.12363" lon="4.49082">
        <ele>516.6</ele>
        <time>2014-10-02T12:01:15Z</time>
      </trkpt>
      <trkpt lat="46.12371" lon="4.49076">
        <ele>518.2</ele>
        <time>2014-10-02T12:01:17Z</time>
      </trkpt>
      <trkpt lat="46.1238" lon="4.49071">
        <ele>518.3</ele>
        <time>2014-10-02T12:01:19Z</time>
      </trkpt>
      <trkpt lat="46.12388" lon="4.49065">
        <ele>518.4</ele>
        <time>2014-10-02T12:01:21Z</time>
      </trkpt>
      <trkpt lat="46.12396" lon="4.49059">
        <ele>518.5</ele>
        <time>2014-10-02T12:01:23Z</time>
      </trkpt>
      <trkpt lat="46.12404" lon="4.49052">
        <ele>518.5</ele>
        <time>2014-10-02T12:01:24Z</time>
      </trkpt>
      <trkpt lat="46.12412" lon="4.49046">
        <ele>518.6</ele>
        <time>2014-10-02T12:01:27Z</time>
      </trkpt>
      <trkpt lat="46.12419" lon="4.4904">
        <ele>519.3</ele>
        <time>2014-10-02T12:01:29Z</time>
      </trkpt>
      <trkpt lat="46.12426" lon="4.49034">
        <ele>519.9</ele>
        <time>2014-10-02T12:01:31Z</time>
      </trkpt>
      <trkpt lat="46.12433" lon="4.49028">
        <ele>519</ele>
        <time>2014-10-02T12:01:33Z</time>
      </trkpt>
      <trkpt lat="46.12444" lon="4.4902">
        <ele>518.1</ele>
        <time>2014-10-02T12:01:36Z</time>
      </trkpt>
      <trkpt lat="46.12453" lon="4.49015">
        <ele>517.2</ele>
        <time>2014-10-02T12:01:39Z</time>
      </trkpt>
      <trkpt lat="46.12463" lon="4.49011">
        <ele>516.3</ele>
        <time>2014-10-02T12:01:41Z</time>
      </trkpt>
      <trkpt lat="46.12475" lon="4.49008">
        <ele>516.8</ele>
        <time>2014-10-02T12:01:44Z</time>
      </trkpt>
      <trkpt lat="46.12483" lon="4.49007">
        <ele>517.4</ele>
        <time>2014-10-02T12:01:46Z</time>
      </trkpt>
      <trkpt lat="46.12492" lon="4.49006">
        <ele>517.9</ele>
        <time>2014-10-02T12:01:49Z</time>
      </trkpt>
      <trkpt lat="46.12501" lon="4.49005">
        <ele>518.5</ele>
        <time>2014-10-02T12:01:50Z</time>
      </trkpt>
      <trkpt lat="46.1251" lon="4.49004">
        <ele>518.8</ele>
        <time>2014-10-02T12:01:52Z</time>
      </trkpt>
      <trkpt lat="46.12519" lon="4.49004">
        <ele>518.6</ele>
        <time>2014-10-02T12:01:55Z</time>
      </trkpt>
      <trkpt lat="46.12528" lon="4.49004">
        <ele>518.5</ele>
        <time>2014-10-02T12:01:57Z</time>
      </trkpt>
      <trkpt lat="46.12536" lon="4.49004">
        <ele>518.3</ele>
        <time>2014-10-02T12:01:59Z</time>
      </trkpt>
      <trkpt lat="46.12545" lon="4.49004">
        <ele>518.1</ele>
        <time>2014-10-02T12:02:01Z</time>
      </trkpt>
      <trkpt lat="46.12553" lon="4.49006">
        <ele>517.9</ele>
        <time>2014-10-02T12:02:03Z</time>
      </trkpt>
      <trkpt lat="46.12562" lon="4.49007">
        <ele>517.7</ele>
        <time>2014-10-02T12:02:05Z</time>
      </trkpt>
      <trkpt lat="46.12571" lon="4.49009">
        <ele>517.5</ele>
        <time>2014-10-02T12:02:07Z</time>
      </trkpt>
      <trkpt lat="46.12579" lon="4.49012">
        <ele>517.4</ele>
        <time>2014-10-02T12:02:08Z</time>
      </trkpt>
      <trkpt lat="46.12588" lon="4.49015">
        <ele>517.2</ele>
        <time>2014-10-02T12:02:11Z</time>
      </trkpt>
      <trkpt lat="46.12596" lon="4.49019">
        <ele>518.1</ele>
        <time>2014-10-02T12:02:13Z</time>
      </trkpt>
      <trkpt lat="46.12604" lon="4.49024">
        <ele>519.2</ele>
        <time>2014-10-02T12:02:15Z</time>
      </trkpt>
      <trkpt lat="46.12612" lon="4.49029">
        <ele>520.3</ele>
        <time>2014-10-02T12:02:17Z</time>
      </trkpt>
      <trkpt lat="46.1262" lon="4.49034">
        <ele>521.4</ele>
        <time>2014-10-02T12:02:18Z</time>
      </trkpt>
      <trkpt lat="46.12627" lon="4.4904">
        <ele>522.5</ele>
        <time>2014-10-02T12:02:20Z</time>
      </trkpt>
      <trkpt lat="46.12637" lon="4.49049">
        <ele>523.5</ele>
        <time>2014-10-02T12:02:23Z</time>
      </trkpt>
      <trkpt lat="46.12644" lon="4.49056">
        <ele>524.6</ele>
        <time>2014-10-02T12:02:25Z</time>
      </trkpt>
      <trkpt lat="46.12651" lon="4.49062">
        <ele>525.7</ele>
        <time>2014-10-02T12:02:27Z</time>
      </trkpt>
      <trkpt lat="46.12659" lon="4.49068">
        <ele>526.8</ele>
        <time>2014-10-02T12:02:29Z</time>
      </trkpt>
      <trkpt lat="46.12667" lon="4.49074">
        <ele>528.1</ele>
        <time>2014-10-02T12:02:31Z</time>
      </trkpt>
      <trkpt lat="46.12676" lon="4.49078">
        <ele>529.4</ele>
        <time>2014-10-02T12:02:33Z</time>
      </trkpt>
      <trkpt lat="46.12685" lon="4.49079">
        <ele>529.5</ele>
        <time>2014-10-02T12:02:35Z</time>
      </trkpt>
      <trkpt lat="46.12694" lon="4.49078">
        <ele>529.7</ele>
        <time>2014-10-02T12:02:37Z</time>
      </trkpt>
      <trkpt lat="46.12702" lon="4.49077">
        <ele>529.9</ele>
        <time>2014-10-02T12:02:39Z</time>
      </trkpt>
      <trkpt lat="46.1271" lon="4.49074">
        <ele>530.1</ele>
        <time>2014-10-02T12:02:41Z</time>
      </trkpt>
      <trkpt lat="46.1272" lon="4.49069">
        <ele>530.3</ele>
        <time>2014-10-02T12:02:44Z</time>
      </trkpt>
      <trkpt lat="46.12729" lon="4.49065">
        <ele>530.5</ele>
        <time>2014-10-02T12:02:47Z</time>
      </trkpt>
      <trkpt lat="46.12738" lon="4.4906">
        <ele>530.6</ele>
        <time>2014-10-02T12:02:50Z</time>
      </trkpt>
      <trkpt lat="46.12747" lon="4.49057">
        <ele>530.8</ele>
        <time>2014-10-02T12:02:53Z</time>
      </trkpt>
      <trkpt lat="46.12756" lon="4.49054">
        <ele>529.9</ele>
        <time>2014-10-02T12:02:56Z</time>
      </trkpt>
      <trkpt lat="46.12765" lon="4.4905">
        <ele>528.8</ele>
        <time>2014-10-02T12:02:59Z</time>
      </trkpt>
      <trkpt lat="46.12775" lon="4.49048">
        <ele>527.7</ele>
        <time>2014-10-02T12:03:03Z</time>
      </trkpt>
      <trkpt lat="46.12785" lon="4.49046">
        <ele>526.6</ele>
        <time>2014-10-02T12:03:06Z</time>
      </trkpt>
      <trkpt lat="46.12796" lon="4.49045">
        <ele>525.5</ele>
        <time>2014-10-02T12:03:09Z</time>
      </trkpt>
      <trkpt lat="46.12807" lon="4.49042">
        <ele>524.5</ele>
        <time>2014-10-02T12:03:12Z</time>
      </trkpt>
      <trkpt lat="46.12817" lon="4.49041">
        <ele>523.4</ele>
        <time>2014-10-02T12:03:15Z</time>
      </trkpt>
      <trkpt lat="46.12826" lon="4.4904">
        <ele>522.3</ele>
        <time>2014-10-02T12:03:18Z</time>
      </trkpt>
      <trkpt lat="46.12836" lon="4.49039">
        <ele>521.9</ele>
        <time>2014-10-02T12:03:21Z</time>
      </trkpt>
      <trkpt lat="46.12845" lon="4.49037">
        <ele>521.5</ele>
        <time>2014-10-02T12:03:24Z</time>
      </trkpt>
      <trkpt lat="46.12854" lon="4.49037">
        <ele>521.2</ele>
        <time>2014-10-02T12:03:28Z</time>
      </trkpt>
      <trkpt lat="46.12864" lon="4.49037">
        <ele>521.9</ele>
        <time>2014-10-02T12:03:31Z</time>
      </trkpt>
      <trkpt lat="46.12873" lon="4.49037">
        <ele>522.6</ele>
        <time>2014-10-02T12:03:34Z</time>
      </trkpt>
      <trkpt lat="46.12884" lon="4.49036">
        <ele>523.4</ele>
        <time>2014-10-02T12:03:38Z</time>
      </trkpt>
      <trkpt lat="46.12895" lon="4.49035">
        <ele>524.1</ele>
        <time>2014-10-02T12:03:41Z</time>
      </trkpt>
      <trkpt lat="46.12906" lon="4.49034">
        <ele>524.8</ele>
        <time>2014-10-02T12:03:44Z</time>
      </trkpt>
      <trkpt lat="46.12916" lon="4.4903">
        <ele>526.7</ele>
        <time>2014-10-02T12:03:47Z</time>
      </trkpt>
      <trkpt lat="46.12927" lon="4.49025">
        <ele>528.6</ele>
        <time>2014-10-02T12:03:50Z</time>
      </trkpt>
      <trkpt lat="46.12937" lon="4.49019">
        <ele>530.5</ele>
        <time>2014-10-02T12:03:53Z</time>
      </trkpt>
      <trkpt lat="46.12946" lon="4.49012">
        <ele>531.7</ele>
        <time>2014-10-02T12:03:56Z</time>
      </trkpt>
      <trkpt lat="46.12955" lon="4.49004">
        <ele>532.9</ele>
        <time>2014-10-02T12:03:59Z</time>
      </trkpt>
      <trkpt lat="46.12963" lon="4.48995">
        <ele>532.8</ele>
        <time>2014-10-02T12:04:02Z</time>
      </trkpt>
      <trkpt lat="46.12971" lon="4.48988">
        <ele>532.7</ele>
        <time>2014-10-02T12:04:05Z</time>
      </trkpt>
      <trkpt lat="46.1298" lon="4.4898">
        <ele>532.6</ele>
        <time>2014-10-02T12:04:07Z</time>
      </trkpt>
      <trkpt lat="46.12989" lon="4.48972">
        <ele>532.5</ele>
        <time>2014-10-02T12:04:10Z</time>
      </trkpt>
      <trkpt lat="46.12999" lon="4.48963">
        <ele>532.8</ele>
        <time>2014-10-02T12:04:14Z</time>
      </trkpt>
      <trkpt lat="46.1301" lon="4.48957">
        <ele>533.1</ele>
        <time>2014-10-02T12:04:17Z</time>
      </trkpt>
      <trkpt lat="46.13021" lon="4.48952">
        <ele>532.2</ele>
        <time>2014-10-02T12:04:20Z</time>
      </trkpt>
      <trkpt lat="46.13033" lon="4.48949">
        <ele>531.3</ele>
        <time>2014-10-02T12:04:23Z</time>
      </trkpt>
      <trkpt lat="46.13041" lon="4.48949">
        <ele>530.4</ele>
        <time>2014-10-02T12:04:25Z</time>
      </trkpt>
      <trkpt lat="46.13049" lon="4.4895">
        <ele>529.5</ele>
        <time>2014-10-02T12:04:27Z</time>
      </trkpt>
      <trkpt lat="46.13058" lon="4.48951">
        <ele>530.1</ele>
        <time>2014-10-02T12:04:29Z</time>
      </trkpt>
      <trkpt lat="46.13066" lon="4.48953">
        <ele>532</ele>
        <time>2014-10-02T12:04:31Z</time>
      </trkpt>
      <trkpt lat="46.13078" lon="4.48955">
        <ele>533.7</ele>
        <time>2014-10-02T12:04:34Z</time>
      </trkpt>
      <trkpt lat="46.1309" lon="4.48956">
        <ele>535.5</ele>
        <time>2014-10-02T12:04:37Z</time>
      </trkpt>
      <trkpt lat="46.13101" lon="4.48959">
        <ele>537.2</ele>
        <time>2014-10-02T12:04:40Z</time>
      </trkpt>
      <trkpt lat="46.13113" lon="4.48961">
        <ele>538.5</ele>
        <time>2014-10-02T12:04:42Z</time>
      </trkpt>
      <trkpt lat="46.13124" lon="4.48963">
        <ele>539.9</ele>
        <time>2014-10-02T12:04:45Z</time>
      </trkpt>
      <trkpt lat="46.13134" lon="4.48965">
        <ele>541.3</ele>
        <time>2014-10-02T12:04:48Z</time>
      </trkpt>
      <trkpt lat="46.13145" lon="4.48966">
        <ele>542.6</ele>
        <time>2014-10-02T12:04:52Z</time>
      </trkpt>
      <trkpt lat="46.13154" lon="4.48968">
        <ele>544</ele>
        <time>2014-10-02T12:04:55Z</time>
      </trkpt>
      <trkpt lat="46.13164" lon="4.48971">
        <ele>545.2</ele>
        <time>2014-10-02T12:04:58Z</time>
      </trkpt>
      <trkpt lat="46.13173" lon="4.48971">
        <ele>544.8</ele>
        <time>2014-10-02T12:05:01Z</time>
      </trkpt>
      <trkpt lat="46.13182" lon="4.48971">
        <ele>544.5</ele>
        <time>2014-10-02T12:05:04Z</time>
      </trkpt>
      <trkpt lat="46.13192" lon="4.48976">
        <ele>544.3</ele>
        <time>2014-10-02T12:05:07Z</time>
      </trkpt>
      <trkpt lat="46.13203" lon="4.48983">
        <ele>544.1</ele>
        <time>2014-10-02T12:05:10Z</time>
      </trkpt>
      <trkpt lat="46.1321" lon="4.48986">
        <ele>543.9</ele>
        <time>2014-10-02T12:05:12Z</time>
      </trkpt>
      <trkpt lat="46.13219" lon="4.4899">
        <ele>543.7</ele>
        <time>2014-10-02T12:05:14Z</time>
      </trkpt>
      <trkpt lat="46.13229" lon="4.48993">
        <ele>543.5</ele>
        <time>2014-10-02T12:05:16Z</time>
      </trkpt>
      <trkpt lat="46.13238" lon="4.48995">
        <ele>543.4</ele>
        <time>2014-10-02T12:05:18Z</time>
      </trkpt>
      <trkpt lat="46.13247" lon="4.48995">
        <ele>543.2</ele>
        <time>2014-10-02T12:05:19Z</time>
      </trkpt>
      <trkpt lat="46.13255" lon="4.48994">
        <ele>543.5</ele>
        <time>2014-10-02T12:05:21Z</time>
      </trkpt>
      <trkpt lat="46.13263" lon="4.48993">
        <ele>544.1</ele>
        <time>2014-10-02T12:05:23Z</time>
      </trkpt>
      <trkpt lat="46.13273" lon="4.48992">
        <ele>544.6</ele>
        <time>2014-10-02T12:05:25Z</time>
      </trkpt>
      <trkpt lat="46.13281" lon="4.48991">
        <ele>545.2</ele>
        <time>2014-10-02T12:05:28Z</time>
      </trkpt>
      <trkpt lat="46.13292" lon="4.4899">
        <ele>545.7</ele>
        <time>2014-10-02T12:05:31Z</time>
      </trkpt>
      <trkpt lat="46.13303" lon="4.48989">
        <ele>546.3</ele>
        <time>2014-10-02T12:05:34Z</time>
      </trkpt>
      <trkpt lat="46.13312" lon="4.48988">
        <ele>546.8</ele>
        <time>2014-10-02T12:05:36Z</time>
      </trkpt>
      <trkpt lat="46.13322" lon="4.48987">
        <ele>547.4</ele>
        <time>2014-10-02T12:05:39Z</time>
      </trkpt>
      <trkpt lat="46.13334" lon="4.48986">
        <ele>547.8</ele>
        <time>2014-10-02T12:05:42Z</time>
      </trkpt>
      <trkpt lat="46.13346" lon="4.48983">
        <ele>548.3</ele>
        <time>2014-10-02T12:05:44Z</time>
      </trkpt>
      <trkpt lat="46.13357" lon="4.48981">
        <ele>548.7</ele>
        <time>2014-10-02T12:05:47Z</time>
      </trkpt>
      <trkpt lat="46.13368" lon="4.4898">
        <ele>548.6</ele>
        <time>2014-10-02T12:05:50Z</time>
      </trkpt>
      <trkpt lat="46.13378" lon="4.4898">
        <ele>548.5</ele>
        <time>2014-10-02T12:05:53Z</time>
      </trkpt>
      <trkpt lat="46.13389" lon="4.4898">
        <ele>548.5</ele>
        <time>2014-10-02T12:05:56Z</time>
      </trkpt>
      <trkpt lat="46.134" lon="4.48978">
        <ele>548.4</ele>
        <time>2014-10-02T12:06:00Z</time>
      </trkpt>
      <trkpt lat="46.13409" lon="4.48976">
        <ele>548.3</ele>
        <time>2014-10-02T12:06:01Z</time>
      </trkpt>
      <trkpt lat="46.13418" lon="4.48975">
        <ele>547.8</ele>
        <time>2014-10-02T12:06:04Z</time>
      </trkpt>
      <trkpt lat="46.13426" lon="4.48976">
        <ele>547.4</ele>
        <time>2014-10-02T12:06:06Z</time>
      </trkpt>
      <trkpt lat="46.13438" lon="4.48979">
        <ele>546.9</ele>
        <time>2014-10-02T12:06:09Z</time>
      </trkpt>
      <trkpt lat="46.13446" lon="4.48982">
        <ele>546.5</ele>
        <time>2014-10-02T12:06:11Z</time>
      </trkpt>
      <trkpt lat="46.13455" lon="4.48986">
        <ele>546.2</ele>
        <time>2014-10-02T12:06:13Z</time>
      </trkpt>
      <trkpt lat="46.13463" lon="4.4899">
        <ele>545.8</ele>
        <time>2014-10-02T12:06:15Z</time>
      </trkpt>
      <trkpt lat="46.13471" lon="4.48994">
        <ele>545.5</ele>
        <time>2014-10-02T12:06:17Z</time>
      </trkpt>
      <trkpt lat="46.1348" lon="4.49">
        <ele>545.1</ele>
        <time>2014-10-02T12:06:19Z</time>
      </trkpt>
      <trkpt lat="46.13489" lon="4.49006">
        <ele>544.7</ele>
        <time>2014-10-02T12:06:21Z</time>
      </trkpt>
      <trkpt lat="46.13498" lon="4.49011">
        <ele>544.4</ele>
        <time>2014-10-02T12:06:23Z</time>
      </trkpt>
      <trkpt lat="46.13506" lon="4.49016">
        <ele>543.8</ele>
        <time>2014-10-02T12:06:25Z</time>
      </trkpt>
      <trkpt lat="46.13515" lon="4.4902">
        <ele>543.6</ele>
        <time>2014-10-02T12:06:26Z</time>
      </trkpt>
      <trkpt lat="46.13522" lon="4.49024">
        <ele>544.5</ele>
        <time>2014-10-02T12:06:28Z</time>
      </trkpt>
      <trkpt lat="46.13534" lon="4.49029">
        <ele>545.5</ele>
        <time>2014-10-02T12:06:31Z</time>
      </trkpt>
      <trkpt lat="46.13542" lon="4.49032">
        <ele>546.4</ele>
        <time>2014-10-02T12:06:33Z</time>
      </trkpt>
      <trkpt lat="46.1355" lon="4.49036">
        <ele>547.3</ele>
        <time>2014-10-02T12:06:35Z</time>
      </trkpt>
      <trkpt lat="46.13558" lon="4.49039">
        <ele>548.2</ele>
        <time>2014-10-02T12:06:37Z</time>
      </trkpt>
      <trkpt lat="46.13569" lon="4.49043">
        <ele>549.1</ele>
        <time>2014-10-02T12:06:41Z</time>
      </trkpt>
      <trkpt lat="46.13577" lon="4.49047">
        <ele>550</ele>
        <time>2014-10-02T12:06:43Z</time>
      </trkpt>
      <trkpt lat="46.13585" lon="4.49051">
        <ele>550.7</ele>
        <time>2014-10-02T12:06:45Z</time>
      </trkpt>
      <trkpt lat="46.13596" lon="4.49055">
        <ele>551.5</ele>
        <time>2014-10-02T12:06:48Z</time>
      </trkpt>
      <trkpt lat="46.13607" lon="4.49059">
        <ele>552.4</ele>
        <time>2014-10-02T12:06:51Z</time>
      </trkpt>
      <trkpt lat="46.13617" lon="4.49062">
        <ele>553.3</ele>
        <time>2014-10-02T12:06:54Z</time>
      </trkpt>
      <trkpt lat="46.13627" lon="4.49062">
        <ele>553.1</ele>
        <time>2014-10-02T12:06:57Z</time>
      </trkpt>
      <trkpt lat="46.13636" lon="4.49063">
        <ele>552.9</ele>
        <time>2014-10-02T12:07:00Z</time>
      </trkpt>
      <trkpt lat="46.13646" lon="4.49066">
        <ele>552.7</ele>
        <time>2014-10-02T12:07:02Z</time>
      </trkpt>
      <trkpt lat="46.13656" lon="4.49068">
        <ele>552.5</ele>
        <time>2014-10-02T12:07:05Z</time>
      </trkpt>
      <trkpt lat="46.13667" lon="4.49072">
        <ele>551.9</ele>
        <time>2014-10-02T12:07:08Z</time>
      </trkpt>
      <trkpt lat="46.13677" lon="4.49076">
        <ele>551.3</ele>
        <time>2014-10-02T12:07:11Z</time>
      </trkpt>
      <trkpt lat="46.13687" lon="4.49083">
        <ele>550.6</ele>
        <time>2014-10-02T12:07:14Z</time>
      </trkpt>
      <trkpt lat="46.13698" lon="4.49089">
        <ele>550.2</ele>
        <time>2014-10-02T12:07:17Z</time>
      </trkpt>
      <trkpt lat="46.13706" lon="4.49093">
        <ele>549.7</ele>
        <time>2014-10-02T12:07:19Z</time>
      </trkpt>
      <trkpt lat="46.13717" lon="4.49098">
        <ele>549.3</ele>
        <time>2014-10-02T12:07:22Z</time>
      </trkpt>
      <trkpt lat="46.1373" lon="4.49102">
        <ele>548.8</ele>
        <time>2014-10-02T12:07:25Z</time>
      </trkpt>
      <trkpt lat="46.13738" lon="4.49106">
        <ele>548.4</ele>
        <time>2014-10-02T12:07:27Z</time>
      </trkpt>
      <trkpt lat="46.13746" lon="4.4911">
        <ele>547.9</ele>
        <time>2014-10-02T12:07:29Z</time>
      </trkpt>
      <trkpt lat="46.13754" lon="4.49115">
        <ele>547.6</ele>
        <time>2014-10-02T12:07:31Z</time>
      </trkpt>
      <trkpt lat="46.13762" lon="4.49119">
        <ele>547.4</ele>
        <time>2014-10-02T12:07:33Z</time>
      </trkpt>
      <trkpt lat="46.1377" lon="4.49122">
        <ele>549.7</ele>
        <time>2014-10-02T12:07:35Z</time>
      </trkpt>
      <trkpt lat="46.1378" lon="4.49126">
        <ele>552.1</ele>
        <time>2014-10-02T12:07:38Z</time>
      </trkpt>
      <trkpt lat="46.13789" lon="4.49129">
        <ele>554.5</ele>
        <time>2014-10-02T12:07:42Z</time>
      </trkpt>
      <trkpt lat="46.13801" lon="4.49131">
        <ele>556.8</ele>
        <time>2014-10-02T12:07:45Z</time>
      </trkpt>
      <trkpt lat="46.13813" lon="4.49136">
        <ele>559.2</ele>
        <time>2014-10-02T12:07:48Z</time>
      </trkpt>
      <trkpt lat="46.13822" lon="4.4914">
        <ele>561.5</ele>
        <time>2014-10-02T12:07:50Z</time>
      </trkpt>
      <trkpt lat="46.13831" lon="4.49144">
        <ele>563.9</ele>
        <time>2014-10-02T12:07:52Z</time>
      </trkpt>
      <trkpt lat="46.13839" lon="4.49147">
        <ele>565.3</ele>
        <time>2014-10-02T12:07:54Z</time>
      </trkpt>
      <trkpt lat="46.13848" lon="4.49149">
        <ele>566.6</ele>
        <time>2014-10-02T12:07:55Z</time>
      </trkpt>
      <trkpt lat="46.13857" lon="4.49153">
        <ele>567.8</ele>
        <time>2014-10-02T12:07:58Z</time>
      </trkpt>
      <trkpt lat="46.13867" lon="4.49157">
        <ele>569</ele>
        <time>2014-10-02T12:08:00Z</time>
      </trkpt>
      <trkpt lat="46.13877" lon="4.49159">
        <ele>568</ele>
        <time>2014-10-02T12:08:01Z</time>
      </trkpt>
      <trkpt lat="46.13887" lon="4.49159">
        <ele>567</ele>
        <time>2014-10-02T12:08:03Z</time>
      </trkpt>
      <trkpt lat="46.13897" lon="4.49159">
        <ele>566</ele>
        <time>2014-10-02T12:08:05Z</time>
      </trkpt>
      <trkpt lat="46.13905" lon="4.49157">
        <ele>564.2</ele>
        <time>2014-10-02T12:08:07Z</time>
      </trkpt>
      <trkpt lat="46.13914" lon="4.49154">
        <ele>562.4</ele>
        <time>2014-10-02T12:08:09Z</time>
      </trkpt>
      <trkpt lat="46.13922" lon="4.49152">
        <ele>560.5</ele>
        <time>2014-10-02T12:08:12Z</time>
      </trkpt>
      <trkpt lat="46.1393" lon="4.49148">
        <ele>559.6</ele>
        <time>2014-10-02T12:08:14Z</time>
      </trkpt>
      <trkpt lat="46.13938" lon="4.49143">
        <ele>559.7</ele>
        <time>2014-10-02T12:08:16Z</time>
      </trkpt>
      <trkpt lat="46.13946" lon="4.49138">
        <ele>559.8</ele>
        <time>2014-10-02T12:08:18Z</time>
      </trkpt>
      <trkpt lat="46.13954" lon="4.49132">
        <ele>559.9</ele>
        <time>2014-10-02T12:08:20Z</time>
      </trkpt>
      <trkpt lat="46.13961" lon="4.49125">
        <ele>560</ele>
        <time>2014-10-02T12:08:22Z</time>
      </trkpt>
      <trkpt lat="46.13968" lon="4.49116">
        <ele>560.1</ele>
        <time>2014-10-02T12:08:24Z</time>
      </trkpt>
      <trkpt lat="46.13975" lon="4.49107">
        <ele>560.2</ele>
        <time>2014-10-02T12:08:26Z</time>
      </trkpt>
      <trkpt lat="46.13981" lon="4.49098">
        <ele>560.3</ele>
        <time>2014-10-02T12:08:28Z</time>
      </trkpt>
      <trkpt lat="46.13987" lon="4.49089">
        <ele>561.2</ele>
        <time>2014-10-02T12:08:30Z</time>
      </trkpt>
      <trkpt lat="46.13994" lon="4.4908">
        <ele>562.1</ele>
        <time>2014-10-02T12:08:32Z</time>
      </trkpt>
      <trkpt lat="46.14" lon="4.49073">
        <ele>562.4</ele>
        <time>2014-10-02T12:08:34Z</time>
      </trkpt>
      <trkpt lat="46.14007" lon="4.49066">
        <ele>561.7</ele>
        <time>2014-10-02T12:08:36Z</time>
      </trkpt>
      <trkpt lat="46.14014" lon="4.49059">
        <ele>562.3</ele>
        <time>2014-10-02T12:08:38Z</time>
      </trkpt>
      <trkpt lat="46.14021" lon="4.49052">
        <ele>562.8</ele>
        <time>2014-10-02T12:08:40Z</time>
      </trkpt>
      <trkpt lat="46.14027" lon="4.49045">
        <ele>563.4</ele>
        <time>2014-10-02T12:08:42Z</time>
      </trkpt>
      <trkpt lat="46.14034" lon="4.49037">
        <ele>563.9</ele>
        <time>2014-10-02T12:08:44Z</time>
      </trkpt>
      <trkpt lat="46.14041" lon="4.4903">
        <ele>564.5</ele>
        <time>2014-10-02T12:08:46Z</time>
      </trkpt>
      <trkpt lat="46.14049" lon="4.49023">
        <ele>565</ele>
        <time>2014-10-02T12:08:48Z</time>
      </trkpt>
      <trkpt lat="46.14057" lon="4.49017">
        <ele>565.5</ele>
        <time>2014-10-02T12:08:50Z</time>
      </trkpt>
      <trkpt lat="46.14065" lon="4.49011">
        <ele>566.1</ele>
        <time>2014-10-02T12:08:52Z</time>
      </trkpt>
      <trkpt lat="46.14072" lon="4.49005">
        <ele>566.6</ele>
        <time>2014-10-02T12:08:54Z</time>
      </trkpt>
      <trkpt lat="46.1408" lon="4.48999">
        <ele>567.8</ele>
        <time>2014-10-02T12:08:55Z</time>
      </trkpt>
      <trkpt lat="46.14088" lon="4.48993">
        <ele>570.5</ele>
        <time>2014-10-02T12:08:57Z</time>
      </trkpt>
      <trkpt lat="46.14097" lon="4.48986">
        <ele>569.9</ele>
        <time>2014-10-02T12:08:59Z</time>
      </trkpt>
      <trkpt lat="46.14105" lon="4.4898">
        <ele>569.4</ele>
        <time>2014-10-02T12:09:02Z</time>
      </trkpt>
      <trkpt lat="46.14114" lon="4.48974">
        <ele>568.8</ele>
        <time>2014-10-02T12:09:04Z</time>
      </trkpt>
      <trkpt lat="46.14123" lon="4.48967">
        <ele>568.3</ele>
        <time>2014-10-02T12:09:06Z</time>
      </trkpt>
      <trkpt lat="46.14132" lon="4.48962">
        <ele>567.7</ele>
        <time>2014-10-02T12:09:08Z</time>
      </trkpt>
      <trkpt lat="46.14141" lon="4.48957">
        <ele>567.2</ele>
        <time>2014-10-02T12:09:10Z</time>
      </trkpt>
      <trkpt lat="46.14149" lon="4.48953">
        <ele>566.6</ele>
        <time>2014-10-02T12:09:12Z</time>
      </trkpt>
      <trkpt lat="46.14157" lon="4.48943">
        <ele>566.1</ele>
        <time>2014-10-02T12:09:14Z</time>
      </trkpt>
      <trkpt lat="46.14167" lon="4.4894">
        <ele>566.1</ele>
        <time>2014-10-02T12:09:17Z</time>
      </trkpt>
      <trkpt lat="46.14176" lon="4.48936">
        <ele>566.1</ele>
        <time>2014-10-02T12:09:19Z</time>
      </trkpt>
      <trkpt lat="46.14185" lon="4.48934">
        <ele>564.6</ele>
        <time>2014-10-02T12:09:21Z</time>
      </trkpt>
      <trkpt lat="46.14197" lon="4.48931">
        <ele>565.2</ele>
        <time>2014-10-02T12:09:24Z</time>
      </trkpt>
      <trkpt lat="46.14206" lon="4.48929">
        <ele>565.7</ele>
        <time>2014-10-02T12:09:26Z</time>
      </trkpt>
      <trkpt lat="46.14214" lon="4.48927">
        <ele>566.3</ele>
        <time>2014-10-02T12:09:28Z</time>
      </trkpt>
      <trkpt lat="46.14224" lon="4.48927">
        <ele>566.8</ele>
        <time>2014-10-02T12:09:29Z</time>
      </trkpt>
      <trkpt lat="46.14233" lon="4.48926">
        <ele>567.4</ele>
        <time>2014-10-02T12:09:31Z</time>
      </trkpt>
      <trkpt lat="46.14241" lon="4.48927">
        <ele>567.9</ele>
        <time>2014-10-02T12:09:33Z</time>
      </trkpt>
      <trkpt lat="46.1425" lon="4.48928">
        <ele>568.5</ele>
        <time>2014-10-02T12:09:35Z</time>
      </trkpt>
      <trkpt lat="46.14259" lon="4.48929">
        <ele>569.1</ele>
        <time>2014-10-02T12:09:37Z</time>
      </trkpt>
      <trkpt lat="46.14267" lon="4.48931">
        <ele>569.2</ele>
        <time>2014-10-02T12:09:39Z</time>
      </trkpt>
      <trkpt lat="46.14275" lon="4.48933">
        <ele>569.3</ele>
        <time>2014-10-02T12:09:41Z</time>
      </trkpt>
      <trkpt lat="46.14287" lon="4.48936">
        <ele>569.4</ele>
        <time>2014-10-02T12:09:44Z</time>
      </trkpt>
      <trkpt lat="46.14295" lon="4.48939">
        <ele>569.5</ele>
        <time>2014-10-02T12:09:46Z</time>
      </trkpt>
      <trkpt lat="46.14306" lon="4.48941">
        <ele>569.5</ele>
        <time>2014-10-02T12:09:49Z</time>
      </trkpt>
      <trkpt lat="46.14317" lon="4.48945">
        <ele>569.6</ele>
        <time>2014-10-02T12:09:52Z</time>
      </trkpt>
      <trkpt lat="46.14328" lon="4.48947">
        <ele>569.7</ele>
        <time>2014-10-02T12:09:55Z</time>
      </trkpt>
      <trkpt lat="46.14336" lon="4.48948">
        <ele>570.3</ele>
        <time>2014-10-02T12:09:58Z</time>
      </trkpt>
      <trkpt lat="46.14345" lon="4.48948">
        <ele>570.8</ele>
        <time>2014-10-02T12:10:01Z</time>
      </trkpt>
      <trkpt lat="46.14355" lon="4.48947">
        <ele>571.4</ele>
        <time>2014-10-02T12:10:05Z</time>
      </trkpt>
      <trkpt lat="46.14364" lon="4.48945">
        <ele>571.8</ele>
        <time>2014-10-02T12:10:08Z</time>
      </trkpt>
      <trkpt lat="46.14374" lon="4.48943">
        <ele>572.3</ele>
        <time>2014-10-02T12:10:11Z</time>
      </trkpt>
      <trkpt lat="46.14384" lon="4.48941">
        <ele>572.7</ele>
        <time>2014-10-02T12:10:14Z</time>
      </trkpt>
      <trkpt lat="46.14394" lon="4.48939">
        <ele>573.2</ele>
        <time>2014-10-02T12:10:17Z</time>
      </trkpt>
      <trkpt lat="46.14405" lon="4.48936">
        <ele>573.6</ele>
        <time>2014-10-02T12:10:20Z</time>
      </trkpt>
      <trkpt lat="46.14415" lon="4.48933">
        <ele>574.6</ele>
        <time>2014-10-02T12:10:23Z</time>
      </trkpt>
      <trkpt lat="46.14425" lon="4.48929">
        <ele>575.6</ele>
        <time>2014-10-02T12:10:26Z</time>
      </trkpt>
      <trkpt lat="46.14435" lon="4.48926">
        <ele>576.6</ele>
        <time>2014-10-02T12:10:29Z</time>
      </trkpt>
      <trkpt lat="46.14444" lon="4.48923">
        <ele>577.3</ele>
        <time>2014-10-02T12:10:32Z</time>
      </trkpt>
      <trkpt lat="46.14454" lon="4.48919">
        <ele>577.9</ele>
        <time>2014-10-02T12:10:35Z</time>
      </trkpt>
      <trkpt lat="46.14463" lon="4.48915">
        <ele>578.5</ele>
        <time>2014-10-02T12:10:38Z</time>
      </trkpt>
      <trkpt lat="46.14472" lon="4.48911">
        <ele>579.2</ele>
        <time>2014-10-02T12:10:41Z</time>
      </trkpt>
      <trkpt lat="46.14481" lon="4.48907">
        <ele>579.8</ele>
        <time>2014-10-02T12:10:44Z</time>
      </trkpt>
      <trkpt lat="46.14578" lon="4.48854">
        <ele>580.5</ele>
        <time>2014-10-02T12:11:17Z</time>
      </trkpt>
      <trkpt lat="46.14587" lon="4.48845">
        <ele>582.4</ele>
        <time>2014-10-02T12:11:20Z</time>
      </trkpt>
      <trkpt lat="46.14597" lon="4.48839">
        <ele>584.3</ele>
        <time>2014-10-02T12:11:23Z</time>
      </trkpt>
      <trkpt lat="46.14606" lon="4.48833">
        <ele>585.6</ele>
        <time>2014-10-02T12:11:26Z</time>
      </trkpt>
      <trkpt lat="46.14615" lon="4.48826">
        <ele>586.4</ele>
        <time>2014-10-02T12:11:29Z</time>
      </trkpt>
      <trkpt lat="46.14624" lon="4.48819">
        <ele>587.1</ele>
        <time>2014-10-02T12:11:31Z</time>
      </trkpt>
      <trkpt lat="46.14632" lon="4.48812">
        <ele>587.7</ele>
        <time>2014-10-02T12:11:34Z</time>
      </trkpt>
      <trkpt lat="46.14641" lon="4.48805">
        <ele>588.4</ele>
        <time>2014-10-02T12:11:38Z</time>
      </trkpt>
      <trkpt lat="46.14649" lon="4.48797">
        <ele>589</ele>
        <time>2014-10-02T12:11:40Z</time>
      </trkpt>
      <trkpt lat="46.14657" lon="4.48788">
        <ele>589.6</ele>
        <time>2014-10-02T12:11:43Z</time>
      </trkpt>
      <trkpt lat="46.14665" lon="4.48778">
        <ele>590.3</ele>
        <time>2014-10-02T12:11:47Z</time>
      </trkpt>
      <trkpt lat="46.14672" lon="4.48767">
        <ele>590.9</ele>
        <time>2014-10-02T12:11:50Z</time>
      </trkpt>
      <trkpt lat="46.14679" lon="4.48757">
        <ele>591.9</ele>
        <time>2014-10-02T12:11:53Z</time>
      </trkpt>
      <trkpt lat="46.14686" lon="4.48748">
        <ele>592</ele>
        <time>2014-10-02T12:11:56Z</time>
      </trkpt>
      <trkpt lat="46.14693" lon="4.48739">
        <ele>592.1</ele>
        <time>2014-10-02T12:11:59Z</time>
      </trkpt>
      <trkpt lat="46.147" lon="4.4873">
        <ele>592.8</ele>
        <time>2014-10-02T12:12:02Z</time>
      </trkpt>
      <trkpt lat="46.14707" lon="4.48722">
        <ele>593.5</ele>
        <time>2014-10-02T12:12:05Z</time>
      </trkpt>
      <trkpt lat="46.14714" lon="4.48716">
        <ele>594.3</ele>
        <time>2014-10-02T12:12:08Z</time>
      </trkpt>
      <trkpt lat="46.14721" lon="4.48706">
        <ele>595</ele>
        <time>2014-10-02T12:12:11Z</time>
      </trkpt>
      <trkpt lat="46.14728" lon="4.48696">
        <ele>595.7</ele>
        <time>2014-10-02T12:12:14Z</time>
      </trkpt>
      <trkpt lat="46.14734" lon="4.48687">
        <ele>596.5</ele>
        <time>2014-10-02T12:12:16Z</time>
      </trkpt>
      <trkpt lat="46.1474" lon="4.48677">
        <ele>596.2</ele>
        <time>2014-10-02T12:12:19Z</time>
      </trkpt>
      <trkpt lat="46.14746" lon="4.4867">
        <ele>595.9</ele>
        <time>2014-10-02T12:12:23Z</time>
      </trkpt>
      <trkpt lat="46.14753" lon="4.48662">
        <ele>594</ele>
        <time>2014-10-02T12:12:26Z</time>
      </trkpt>
      <trkpt lat="46.1476" lon="4.48652">
        <ele>593</ele>
        <time>2014-10-02T12:12:29Z</time>
      </trkpt>
      <trkpt lat="46.14768" lon="4.48641">
        <ele>593.5</ele>
        <time>2014-10-02T12:12:32Z</time>
      </trkpt>
      <trkpt lat="46.14775" lon="4.4863">
        <ele>593.9</ele>
        <time>2014-10-02T12:12:35Z</time>
      </trkpt>
      <trkpt lat="46.14783" lon="4.4862">
        <ele>594.4</ele>
        <time>2014-10-02T12:12:38Z</time>
      </trkpt>
      <trkpt lat="46.14791" lon="4.48609">
        <ele>594.8</ele>
        <time>2014-10-02T12:12:41Z</time>
      </trkpt>
      <trkpt lat="46.14798" lon="4.48597">
        <ele>594.2</ele>
        <time>2014-10-02T12:12:43Z</time>
      </trkpt>
      <trkpt lat="46.14806" lon="4.48586">
        <ele>593.5</ele>
        <time>2014-10-02T12:12:47Z</time>
      </trkpt>
      <trkpt lat="46.14813" lon="4.48575">
        <ele>592.9</ele>
        <time>2014-10-02T12:12:50Z</time>
      </trkpt>
      <trkpt lat="46.14821" lon="4.48563">
        <ele>593.3</ele>
        <time>2014-10-02T12:12:53Z</time>
      </trkpt>
      <trkpt lat="46.14829" lon="4.48552">
        <ele>593.6</ele>
        <time>2014-10-02T12:12:56Z</time>
      </trkpt>
      <trkpt lat="46.14836" lon="4.48542">
        <ele>595.3</ele>
        <time>2014-10-02T12:12:59Z</time>
      </trkpt>
      <trkpt lat="46.14844" lon="4.48532">
        <ele>596.9</ele>
        <time>2014-10-02T12:13:02Z</time>
      </trkpt>
      <trkpt lat="46.14853" lon="4.48523">
        <ele>597.1</ele>
        <time>2014-10-02T12:13:05Z</time>
      </trkpt>
      <trkpt lat="46.14862" lon="4.48515">
        <ele>597.3</ele>
        <time>2014-10-02T12:13:08Z</time>
      </trkpt>
      <trkpt lat="46.14872" lon="4.48509">
        <ele>597.5</ele>
        <time>2014-10-02T12:13:11Z</time>
      </trkpt>
      <trkpt lat="46.14881" lon="4.48503">
        <ele>597.6</ele>
        <time>2014-10-02T12:13:14Z</time>
      </trkpt>
      <trkpt lat="46.14891" lon="4.48498">
        <ele>598.9</ele>
        <time>2014-10-02T12:13:17Z</time>
      </trkpt>
      <trkpt lat="46.14901" lon="4.48492">
        <ele>600.2</ele>
        <time>2014-10-02T12:13:20Z</time>
      </trkpt>
      <trkpt lat="46.14911" lon="4.48486">
        <ele>600.4</ele>
        <time>2014-10-02T12:13:23Z</time>
      </trkpt>
      <trkpt lat="46.14921" lon="4.48481">
        <ele>601.3</ele>
        <time>2014-10-02T12:13:26Z</time>
      </trkpt>
      <trkpt lat="46.14931" lon="4.48476">
        <ele>602.2</ele>
        <time>2014-10-02T12:13:29Z</time>
      </trkpt>
      <trkpt lat="46.14941" lon="4.48471">
        <ele>601.8</ele>
        <time>2014-10-02T12:13:32Z</time>
      </trkpt>
      <trkpt lat="46.14951" lon="4.48467">
        <ele>601.5</ele>
        <time>2014-10-02T12:13:35Z</time>
      </trkpt>
      <trkpt lat="46.14961" lon="4.48463">
        <ele>601.1</ele>
        <time>2014-10-02T12:13:38Z</time>
      </trkpt>
      <trkpt lat="46.14972" lon="4.4846">
        <ele>601.8</ele>
        <time>2014-10-02T12:13:41Z</time>
      </trkpt>
      <trkpt lat="46.14982" lon="4.48457">
        <ele>602.5</ele>
        <time>2014-10-02T12:13:44Z</time>
      </trkpt>
      <trkpt lat="46.14992" lon="4.48456">
        <ele>603.3</ele>
        <time>2014-10-02T12:13:47Z</time>
      </trkpt>
      <trkpt lat="46.15003" lon="4.48457">
        <ele>603.5</ele>
        <time>2014-10-02T12:13:50Z</time>
      </trkpt>
      <trkpt lat="46.15013" lon="4.4846">
        <ele>603.6</ele>
        <time>2014-10-02T12:13:53Z</time>
      </trkpt>
      <trkpt lat="46.15022" lon="4.48467">
        <ele>604.9</ele>
        <time>2014-10-02T12:13:56Z</time>
      </trkpt>
      <trkpt lat="46.1503" lon="4.48477">
        <ele>605.5</ele>
        <time>2014-10-02T12:13:59Z</time>
      </trkpt>
      <trkpt lat="46.15038" lon="4.48486">
        <ele>606</ele>
        <time>2014-10-02T12:14:02Z</time>
      </trkpt>
      <trkpt lat="46.15046" lon="4.48495">
        <ele>606.5</ele>
        <time>2014-10-02T12:14:05Z</time>
      </trkpt>
      <trkpt lat="46.15054" lon="4.48505">
        <ele>607.8</ele>
        <time>2014-10-02T12:14:08Z</time>
      </trkpt>
      <trkpt lat="46.15062" lon="4.48514">
        <ele>609.1</ele>
        <time>2014-10-02T12:14:11Z</time>
      </trkpt>
      <trkpt lat="46.1507" lon="4.48523">
        <ele>609.3</ele>
        <time>2014-10-02T12:14:14Z</time>
      </trkpt>
      <trkpt lat="46.15077" lon="4.48532">
        <ele>609.5</ele>
        <time>2014-10-02T12:14:17Z</time>
      </trkpt>
      <trkpt lat="46.15085" lon="4.48542">
        <ele>609.6</ele>
        <time>2014-10-02T12:14:20Z</time>
      </trkpt>
      <trkpt lat="46.15093" lon="4.48551">
        <ele>609.4</ele>
        <time>2014-10-02T12:14:23Z</time>
      </trkpt>
      <trkpt lat="46.15102" lon="4.48562">
        <ele>609.1</ele>
        <time>2014-10-02T12:14:26Z</time>
      </trkpt>
      <trkpt lat="46.1511" lon="4.48572">
        <ele>608.8</ele>
        <time>2014-10-02T12:14:29Z</time>
      </trkpt>
      <trkpt lat="46.15118" lon="4.48582">
        <ele>609.6</ele>
        <time>2014-10-02T12:14:32Z</time>
      </trkpt>
      <trkpt lat="46.15126" lon="4.48593">
        <ele>610.5</ele>
        <time>2014-10-02T12:14:35Z</time>
      </trkpt>
      <trkpt lat="46.15133" lon="4.48604">
        <ele>611.3</ele>
        <time>2014-10-02T12:14:38Z</time>
      </trkpt>
      <trkpt lat="46.15141" lon="4.48615">
        <ele>611.4</ele>
        <time>2014-10-02T12:14:41Z</time>
      </trkpt>
      <trkpt lat="46.15149" lon="4.48626">
        <ele>611.5</ele>
        <time>2014-10-02T12:14:44Z</time>
      </trkpt>
      <trkpt lat="46.15156" lon="4.48638">
        <ele>611.5</ele>
        <time>2014-10-02T12:14:47Z</time>
      </trkpt>
      <trkpt lat="46.15163" lon="4.48651">
        <ele>612.2</ele>
        <time>2014-10-02T12:14:50Z</time>
      </trkpt>
      <trkpt lat="46.1517" lon="4.48664">
        <ele>612.8</ele>
        <time>2014-10-02T12:14:53Z</time>
      </trkpt>
      <trkpt lat="46.15175" lon="4.48679">
        <ele>614.5</ele>
        <time>2014-10-02T12:14:56Z</time>
      </trkpt>
      <trkpt lat="46.15179" lon="4.48695">
        <ele>616.1</ele>
        <time>2014-10-02T12:14:59Z</time>
      </trkpt>
      <trkpt lat="46.1518" lon="4.48711">
        <ele>617.7</ele>
        <time>2014-10-02T12:15:02Z</time>
      </trkpt>
      <trkpt lat="46.1518" lon="4.48728">
        <ele>618.1</ele>
        <time>2014-10-02T12:15:05Z</time>
      </trkpt>
      <trkpt lat="46.1518" lon="4.48745">
        <ele>618.5</ele>
        <time>2014-10-02T12:15:08Z</time>
      </trkpt>
      <trkpt lat="46.15179" lon="4.48763">
        <ele>618.8</ele>
        <time>2014-10-02T12:15:11Z</time>
      </trkpt>
      <trkpt lat="46.15179" lon="4.48775">
        <ele>619.2</ele>
        <time>2014-10-02T12:15:13Z</time>
      </trkpt>
      <trkpt lat="46.1518" lon="4.48792">
        <ele>619.5</ele>
        <time>2014-10-02T12:15:16Z</time>
      </trkpt>
      <trkpt lat="46.15181" lon="4.48808">
        <ele>619.9</ele>
        <time>2014-10-02T12:15:19Z</time>
      </trkpt>
      <trkpt lat="46.15182" lon="4.48826">
        <ele>619.7</ele>
        <time>2014-10-02T12:15:22Z</time>
      </trkpt>
      <trkpt lat="46.15182" lon="4.48841">
        <ele>619.5</ele>
        <time>2014-10-02T12:15:24Z</time>
      </trkpt>
      <trkpt lat="46.15187" lon="4.48855">
        <ele>619.5</ele>
        <time>2014-10-02T12:15:27Z</time>
      </trkpt>
      <trkpt lat="46.15196" lon="4.48855">
        <ele>619.5</ele>
        <time>2014-10-02T12:15:32Z</time>
      </trkpt>
      <trkpt lat="46.15196" lon="4.48837">
        <ele>619.5</ele>
        <time>2014-10-02T12:15:35Z</time>
      </trkpt>
      <trkpt lat="46.15195" lon="4.48822">
        <ele>617.7</ele>
        <time>2014-10-02T12:15:37Z</time>
      </trkpt>
      <trkpt lat="46.15195" lon="4.48805">
        <ele>617.4</ele>
        <time>2014-10-02T12:15:39Z</time>
      </trkpt>
      <trkpt lat="46.15194" lon="4.48787">
        <ele>615.9</ele>
        <time>2014-10-02T12:15:41Z</time>
      </trkpt>
      <trkpt lat="46.15196" lon="4.48768">
        <ele>614.5</ele>
        <time>2014-10-02T12:15:43Z</time>
      </trkpt>
      <trkpt lat="46.15199" lon="4.48747">
        <ele>613</ele>
        <time>2014-10-02T12:15:45Z</time>
      </trkpt>
      <trkpt lat="46.15211" lon="4.48667">
        <ele>611.5</ele>
        <time>2014-10-02T12:15:53Z</time>
      </trkpt>
      <trkpt lat="46.15207" lon="4.48653">
        <ele>610.1</ele>
        <time>2014-10-02T12:15:54Z</time>
      </trkpt>
      <trkpt lat="46.152" lon="4.4863">
        <ele>608.6</ele>
        <time>2014-10-02T12:15:56Z</time>
      </trkpt>
      <trkpt lat="46.15197" lon="4.48617">
        <ele>607</ele>
        <time>2014-10-02T12:15:57Z</time>
      </trkpt>
      <trkpt lat="46.15192" lon="4.48607">
        <ele>604.9</ele>
        <time>2014-10-02T12:15:58Z</time>
      </trkpt>
      <trkpt lat="46.15187" lon="4.48596">
        <ele>602.8</ele>
        <time>2014-10-02T12:15:59Z</time>
      </trkpt>
      <trkpt lat="46.15182" lon="4.48586">
        <ele>602.7</ele>
        <time>2014-10-02T12:16:00Z</time>
      </trkpt>
      <trkpt lat="46.15176" lon="4.48565">
        <ele>601.2</ele>
        <time>2014-10-02T12:16:02Z</time>
      </trkpt>
      <trkpt lat="46.1517" lon="4.48553">
        <ele>600.7</ele>
        <time>2014-10-02T12:16:03Z</time>
      </trkpt>
      <trkpt lat="46.15165" lon="4.48542">
        <ele>600.3</ele>
        <time>2014-10-02T12:16:04Z</time>
      </trkpt>
      <trkpt lat="46.15162" lon="4.48528">
        <ele>599.8</ele>
        <time>2014-10-02T12:16:05Z</time>
      </trkpt>
      <trkpt lat="46.15156" lon="4.48514">
        <ele>599.1</ele>
        <time>2014-10-02T12:16:06Z</time>
      </trkpt>
      <trkpt lat="46.15152" lon="4.48501">
        <ele>598.4</ele>
        <time>2014-10-02T12:16:07Z</time>
      </trkpt>
      <trkpt lat="46.15149" lon="4.4849">
        <ele>597.8</ele>
        <time>2014-10-02T12:16:08Z</time>
      </trkpt>
      <trkpt lat="46.15145" lon="4.48479">
        <ele>597.3</ele>
        <time>2014-10-02T12:16:09Z</time>
      </trkpt>
      <trkpt lat="46.1514" lon="4.48467">
        <ele>596.8</ele>
        <time>2014-10-02T12:16:10Z</time>
      </trkpt>
      <trkpt lat="46.15137" lon="4.48456">
        <ele>596.4</ele>
        <time>2014-10-02T12:16:11Z</time>
      </trkpt>
      <trkpt lat="46.15129" lon="4.48436">
        <ele>595.9</ele>
        <time>2014-10-02T12:16:13Z</time>
      </trkpt>
      <trkpt lat="46.15119" lon="4.48416">
        <ele>595.5</ele>
        <time>2014-10-02T12:16:15Z</time>
      </trkpt>
      <trkpt lat="46.15111" lon="4.48399">
        <ele>595</ele>
        <time>2014-10-02T12:16:17Z</time>
      </trkpt>
      <trkpt lat="46.15102" lon="4.48384">
        <ele>594.5</ele>
        <time>2014-10-02T12:16:19Z</time>
      </trkpt>
      <trkpt lat="46.15096" lon="4.48375">
        <ele>594.2</ele>
        <time>2014-10-02T12:16:21Z</time>
      </trkpt>
      <trkpt lat="46.15094" lon="4.48361">
        <ele>594.1</ele>
        <time>2014-10-02T12:16:24Z</time>
      </trkpt>
      <trkpt lat="46.15095" lon="4.48349">
        <ele>594</ele>
        <time>2014-10-02T12:16:26Z</time>
      </trkpt>
      <trkpt lat="46.15099" lon="4.48338">
        <ele>593.6</ele>
        <time>2014-10-02T12:16:29Z</time>
      </trkpt>
      <trkpt lat="46.15099" lon="4.48334">
        <ele>593</ele>
        <time>2014-10-02T12:16:40Z</time>
      </trkpt>
      <trkpt lat="46.15089" lon="4.48343">
        <ele>594</ele>
        <time>2014-10-02T12:17:57Z</time>
      </trkpt>
      <trkpt lat="46.15089" lon="4.48343">
        <ele>594.7</ele>
        <time>2014-10-02T12:17:57Z</time>
      </trkpt>
      <trkpt lat="46.1508" lon="4.48334">
        <ele>595.2</ele>
        <time>2014-10-02T12:18:00Z</time>
      </trkpt>
      <trkpt lat="46.15073" lon="4.4832">
        <ele>595.3</ele>
        <time>2014-10-02T12:18:03Z</time>
      </trkpt>
      <trkpt lat="46.15066" lon="4.48306">
        <ele>595.4</ele>
        <time>2014-10-02T12:18:06Z</time>
      </trkpt>
      <trkpt lat="46.1506" lon="4.48292">
        <ele>595.5</ele>
        <time>2014-10-02T12:18:09Z</time>
      </trkpt>
      <trkpt lat="46.15054" lon="4.48278">
        <ele>595.7</ele>
        <time>2014-10-02T12:18:12Z</time>
      </trkpt>
      <trkpt lat="46.15047" lon="4.48265">
        <ele>596</ele>
        <time>2014-10-02T12:18:15Z</time>
      </trkpt>
      <trkpt lat="46.1504" lon="4.48255">
        <ele>597.8</ele>
        <time>2014-10-02T12:18:18Z</time>
      </trkpt>
      <trkpt lat="46.15033" lon="4.48247">
        <ele>599.6</ele>
        <time>2014-10-02T12:18:21Z</time>
      </trkpt>
      <trkpt lat="46.15025" lon="4.48241">
        <ele>601.5</ele>
        <time>2014-10-02T12:18:24Z</time>
      </trkpt>
      <trkpt lat="46.15017" lon="4.48235">
        <ele>602.7</ele>
        <time>2014-10-02T12:18:27Z</time>
      </trkpt>
      <trkpt lat="46.15007" lon="4.48228">
        <ele>604</ele>
        <time>2014-10-02T12:18:30Z</time>
      </trkpt>
      <trkpt lat="46.14997" lon="4.4822">
        <ele>604.9</ele>
        <time>2014-10-02T12:18:33Z</time>
      </trkpt>
      <trkpt lat="46.14989" lon="4.48213">
        <ele>606.1</ele>
        <time>2014-10-02T12:18:36Z</time>
      </trkpt>
      <trkpt lat="46.14979" lon="4.48209">
        <ele>607.3</ele>
        <time>2014-10-02T12:18:39Z</time>
      </trkpt>
      <trkpt lat="46.1497" lon="4.4821">
        <ele>608.5</ele>
        <time>2014-10-02T12:18:42Z</time>
      </trkpt>
      <trkpt lat="46.14964" lon="4.48219">
        <ele>609.6</ele>
        <time>2014-10-02T12:18:49Z</time>
      </trkpt>
      <trkpt lat="46.14957" lon="4.48224">
        <ele>610.8</ele>
        <time>2014-10-02T12:18:57Z</time>
      </trkpt>
      <trkpt lat="46.14949" lon="4.48229">
        <ele>610.5</ele>
        <time>2014-10-02T12:19:01Z</time>
      </trkpt>
      <trkpt lat="46.14939" lon="4.48232">
        <ele>611.6</ele>
        <time>2014-10-02T12:19:06Z</time>
      </trkpt>
      <trkpt lat="46.14929" lon="4.48235">
        <ele>612.8</ele>
        <time>2014-10-02T12:19:10Z</time>
      </trkpt>
      <trkpt lat="46.1492" lon="4.48234">
        <ele>613</ele>
        <time>2014-10-02T12:19:13Z</time>
      </trkpt>
      <trkpt lat="46.14912" lon="4.48232">
        <ele>613.2</ele>
        <time>2014-10-02T12:19:16Z</time>
      </trkpt>
      <trkpt lat="46.14903" lon="4.48227">
        <ele>613.7</ele>
        <time>2014-10-02T12:19:21Z</time>
      </trkpt>
      <trkpt lat="46.14895" lon="4.48218">
        <ele>614.3</ele>
        <time>2014-10-02T12:19:24Z</time>
      </trkpt>
      <trkpt lat="46.14887" lon="4.48209">
        <ele>614.8</ele>
        <time>2014-10-02T12:19:27Z</time>
      </trkpt>
      <trkpt lat="46.14879" lon="4.48199">
        <ele>616.1</ele>
        <time>2014-10-02T12:19:31Z</time>
      </trkpt>
      <trkpt lat="46.14874" lon="4.48189">
        <ele>617.4</ele>
        <time>2014-10-02T12:19:35Z</time>
      </trkpt>
      <trkpt lat="46.14872" lon="4.48175">
        <ele>618.6</ele>
        <time>2014-10-02T12:19:39Z</time>
      </trkpt>
      <trkpt lat="46.14871" lon="4.4816">
        <ele>619.9</ele>
        <time>2014-10-02T12:19:43Z</time>
      </trkpt>
      <trkpt lat="46.14872" lon="4.48148">
        <ele>619.6</ele>
        <time>2014-10-02T12:19:47Z</time>
      </trkpt>
      <trkpt lat="46.14867" lon="4.48135">
        <ele>619.4</ele>
        <time>2014-10-02T12:19:51Z</time>
      </trkpt>
      <trkpt lat="46.14861" lon="4.48123">
        <ele>620.1</ele>
        <time>2014-10-02T12:19:55Z</time>
      </trkpt>
      <trkpt lat="46.14857" lon="4.48111">
        <ele>620.8</ele>
        <time>2014-10-02T12:19:59Z</time>
      </trkpt>
      <trkpt lat="46.14853" lon="4.48098">
        <ele>622.4</ele>
        <time>2014-10-02T12:20:03Z</time>
      </trkpt>
      <trkpt lat="46.14846" lon="4.48088">
        <ele>623.9</ele>
        <time>2014-10-02T12:20:06Z</time>
      </trkpt>
      <trkpt lat="46.14841" lon="4.48076">
        <ele>625.5</ele>
        <time>2014-10-02T12:20:10Z</time>
      </trkpt>
      <trkpt lat="46.14838" lon="4.48063">
        <ele>626.3</ele>
        <time>2014-10-02T12:20:14Z</time>
      </trkpt>
      <trkpt lat="46.14835" lon="4.48052">
        <ele>627.1</ele>
        <time>2014-10-02T12:20:17Z</time>
      </trkpt>
      <trkpt lat="46.14834" lon="4.48039">
        <ele>627.9</ele>
        <time>2014-10-02T12:20:20Z</time>
      </trkpt>
      <trkpt lat="46.14834" lon="4.48025">
        <ele>629.5</ele>
        <time>2014-10-02T12:20:23Z</time>
      </trkpt>
      <trkpt lat="46.14832" lon="4.48012">
        <ele>631</ele>
        <time>2014-10-02T12:20:26Z</time>
      </trkpt>
      <trkpt lat="46.14832" lon="4.47997">
        <ele>632.5</ele>
        <time>2014-10-02T12:20:30Z</time>
      </trkpt>
      <trkpt lat="46.14834" lon="4.47985">
        <ele>634.8</ele>
        <time>2014-10-02T12:20:34Z</time>
      </trkpt>
      <trkpt lat="46.14834" lon="4.47972">
        <ele>637.1</ele>
        <time>2014-10-02T12:20:40Z</time>
      </trkpt>
      <trkpt lat="46.14834" lon="4.47912">
        <ele>638.5</ele>
        <time>2014-10-02T12:21:03Z</time>
      </trkpt>
      <trkpt lat="46.14834" lon="4.479">
        <ele>640</ele>
        <time>2014-10-02T12:21:05Z</time>
      </trkpt>
      <trkpt lat="46.14832" lon="4.47887">
        <ele>641.5</ele>
        <time>2014-10-02T12:21:08Z</time>
      </trkpt>
      <trkpt lat="46.1483" lon="4.47873">
        <ele>642.9</ele>
        <time>2014-10-02T12:21:11Z</time>
      </trkpt>
      <trkpt lat="46.14828" lon="4.47861">
        <ele>644.4</ele>
        <time>2014-10-02T12:21:14Z</time>
      </trkpt>
      <trkpt lat="46.14825" lon="4.47848">
        <ele>645.2</ele>
        <time>2014-10-02T12:21:18Z</time>
      </trkpt>
      <trkpt lat="46.1482" lon="4.47836">
        <ele>645.3</ele>
        <time>2014-10-02T12:21:22Z</time>
      </trkpt>
      <trkpt lat="46.14814" lon="4.47826">
        <ele>646.3</ele>
        <time>2014-10-02T12:21:26Z</time>
      </trkpt>
      <trkpt lat="46.14808" lon="4.47817">
        <ele>646.9</ele>
        <time>2014-10-02T12:21:33Z</time>
      </trkpt>
      <trkpt lat="46.148" lon="4.47812">
        <ele>646.8</ele>
        <time>2014-10-02T12:21:41Z</time>
      </trkpt>
      <trkpt lat="46.14791" lon="4.4781">
        <ele>646.6</ele>
        <time>2014-10-02T12:21:46Z</time>
      </trkpt>
      <trkpt lat="46.14786" lon="4.47799">
        <ele>646.4</ele>
        <time>2014-10-02T12:21:59Z</time>
      </trkpt>
      <trkpt lat="46.14785" lon="4.47792">
        <ele>646.2</ele>
        <time>2014-10-02T12:22:17Z</time>
      </trkpt>
      <trkpt lat="46.14783" lon="4.47788">
        <ele>651</ele>
        <time>2014-10-02T12:22:28Z</time>
      </trkpt>
      <trkpt lat="46.14783" lon="4.47788">
        <ele>651</ele>
        <time>2014-10-02T12:22:28Z</time>
      </trkpt>
      <trkpt lat="46.14775" lon="4.47781">
        <ele>651</ele>
        <time>2014-10-02T12:22:37Z</time>
      </trkpt>
      <trkpt lat="46.14768" lon="4.47775">
        <ele>651</ele>
        <time>2014-10-02T12:22:44Z</time>
      </trkpt>
      <trkpt lat="46.14763" lon="4.47765">
        <ele>651.6</ele>
        <time>2014-10-02T12:22:52Z</time>
      </trkpt>
      <trkpt lat="46.14763" lon="4.47753">
        <ele>652.1</ele>
        <time>2014-10-02T12:23:00Z</time>
      </trkpt>
      <trkpt lat="46.14765" lon="4.47741">
        <ele>652.6</ele>
        <time>2014-10-02T12:23:08Z</time>
      </trkpt>
      <trkpt lat="46.14768" lon="4.4773">
        <ele>653.2</ele>
        <time>2014-10-02T12:23:16Z</time>
      </trkpt>
      <trkpt lat="46.14771" lon="4.47718">
        <ele>653.7</ele>
        <time>2014-10-02T12:23:24Z</time>
      </trkpt>
      <trkpt lat="46.14775" lon="4.47707">
        <ele>654.3</ele>
        <time>2014-10-02T12:23:32Z</time>
      </trkpt>
      <trkpt lat="46.14779" lon="4.47696">
        <ele>654.8</ele>
        <time>2014-10-02T12:23:39Z</time>
      </trkpt>
      <trkpt lat="46.14782" lon="4.47685">
        <ele>655.8</ele>
        <time>2014-10-02T12:23:47Z</time>
      </trkpt>
      <trkpt lat="46.14786" lon="4.47674">
        <ele>656.8</ele>
        <time>2014-10-02T12:23:56Z</time>
      </trkpt>
      <trkpt lat="46.1479" lon="4.47663">
        <ele>657.8</ele>
        <time>2014-10-02T12:24:00Z</time>
      </trkpt>
      <trkpt lat="46.14794" lon="4.4765">
        <ele>658.8</ele>
        <time>2014-10-02T12:24:05Z</time>
      </trkpt>
      <trkpt lat="46.14797" lon="4.47639">
        <ele>659.3</ele>
        <time>2014-10-02T12:24:09Z</time>
      </trkpt>
      <trkpt lat="46.14801" lon="4.47628">
        <ele>659.7</ele>
        <time>2014-10-02T12:24:13Z</time>
      </trkpt>
      <trkpt lat="46.14806" lon="4.47614">
        <ele>660.2</ele>
        <time>2014-10-02T12:24:17Z</time>
      </trkpt>
      <trkpt lat="46.14809" lon="4.47603">
        <ele>660.5</ele>
        <time>2014-10-02T12:24:20Z</time>
      </trkpt>
      <trkpt lat="46.14813" lon="4.47591">
        <ele>660.9</ele>
        <time>2014-10-02T12:24:24Z</time>
      </trkpt>
      <trkpt lat="46.14817" lon="4.47576">
        <ele>661.3</ele>
        <time>2014-10-02T12:24:28Z</time>
      </trkpt>
      <trkpt lat="46.1482" lon="4.47564">
        <ele>661.6</ele>
        <time>2014-10-02T12:24:31Z</time>
      </trkpt>
      <trkpt lat="46.14824" lon="4.47552">
        <ele>661.5</ele>
        <time>2014-10-02T12:24:34Z</time>
      </trkpt>
      <trkpt lat="46.1483" lon="4.47536">
        <ele>661.5</ele>
        <time>2014-10-02T12:24:37Z</time>
      </trkpt>
      <trkpt lat="46.14836" lon="4.47522">
        <ele>661.4</ele>
        <time>2014-10-02T12:24:39Z</time>
      </trkpt>
      <trkpt lat="46.14842" lon="4.47511">
        <ele>661.1</ele>
        <time>2014-10-02T12:24:41Z</time>
      </trkpt>
      <trkpt lat="46.14848" lon="4.475">
        <ele>660.8</ele>
        <time>2014-10-02T12:24:43Z</time>
      </trkpt>
      <trkpt lat="46.14852" lon="4.47489">
        <ele>660.7</ele>
        <time>2014-10-02T12:24:45Z</time>
      </trkpt>
      <trkpt lat="46.14857" lon="4.47479">
        <ele>660.6</ele>
        <time>2014-10-02T12:24:47Z</time>
      </trkpt>
      <trkpt lat="46.14864" lon="4.47468">
        <ele>660.5</ele>
        <time>2014-10-02T12:24:50Z</time>
      </trkpt>
      <trkpt lat="46.14869" lon="4.47458">
        <ele>660.4</ele>
        <time>2014-10-02T12:24:54Z</time>
      </trkpt>
      <trkpt lat="46.1487" lon="4.47456">
        <ele>660.3</ele>
        <time>2014-10-02T12:25:04Z</time>
      </trkpt>
      <trkpt lat="46.14867" lon="4.47446">
        <ele>659</ele>
        <time>2014-10-02T12:25:41Z</time>
      </trkpt>
      <trkpt lat="46.14867" lon="4.47446">
        <ele>659</ele>
        <time>2014-10-02T12:25:41Z</time>
      </trkpt>
      <trkpt lat="46.14868" lon="4.47439">
        <ele>659</ele>
        <time>2014-10-02T12:25:55Z</time>
      </trkpt>
      <trkpt lat="46.14865" lon="4.47434">
        <ele>659</ele>
        <time>2014-10-02T12:26:48Z</time>
      </trkpt>
      <trkpt lat="46.14865" lon="4.47434">
        <ele>659</ele>
        <time>2014-10-02T12:26:48Z</time>
      </trkpt>
      <trkpt lat="46.14865" lon="4.4743">
        <ele>659</ele>
        <time>2014-10-02T12:26:59Z</time>
      </trkpt>
      <trkpt lat="46.14875" lon="4.47422">
        <ele>648.3</ele>
        <time>2014-10-02T12:31:46Z</time>
      </trkpt>
      <trkpt lat="46.14875" lon="4.47422">
        <ele>647</ele>
        <time>2014-10-02T12:31:46Z</time>
      </trkpt>
      <trkpt lat="46.14883" lon="4.47413">
        <ele>646</ele>
        <time>2014-10-02T12:31:47Z</time>
      </trkpt>
      <trkpt lat="46.14892" lon="4.47398">
        <ele>645.2</ele>
        <time>2014-10-02T12:31:49Z</time>
      </trkpt>
      <trkpt lat="46.149" lon="4.47385">
        <ele>644.6</ele>
        <time>2014-10-02T12:31:51Z</time>
      </trkpt>
      <trkpt lat="46.1491" lon="4.47371">
        <ele>644.1</ele>
        <time>2014-10-02T12:31:53Z</time>
      </trkpt>
      <trkpt lat="46.1492" lon="4.47358">
        <ele>641.1</ele>
        <time>2014-10-02T12:31:55Z</time>
      </trkpt>
      <trkpt lat="46.14931" lon="4.47345">
        <ele>638.1</ele>
        <time>2014-10-02T12:31:57Z</time>
      </trkpt>
      <trkpt lat="46.1494" lon="4.47335">
        <ele>636.2</ele>
        <time>2014-10-02T12:31:59Z</time>
      </trkpt>
      <trkpt lat="46.14949" lon="4.47324">
        <ele>634.3</ele>
        <time>2014-10-02T12:32:01Z</time>
      </trkpt>
      <trkpt lat="46.14958" lon="4.47313">
        <ele>633.1</ele>
        <time>2014-10-02T12:32:03Z</time>
      </trkpt>
      <trkpt lat="46.14967" lon="4.47301">
        <ele>631.9</ele>
        <time>2014-10-02T12:32:05Z</time>
      </trkpt>
      <trkpt lat="46.14977" lon="4.4729">
        <ele>629.8</ele>
        <time>2014-10-02T12:32:07Z</time>
      </trkpt>
      <trkpt lat="46.14988" lon="4.4728">
        <ele>627.7</ele>
        <time>2014-10-02T12:32:09Z</time>
      </trkpt>
      <trkpt lat="46.14997" lon="4.4727">
        <ele>625.6</ele>
        <time>2014-10-02T12:32:11Z</time>
      </trkpt>
      <trkpt lat="46.15006" lon="4.47254">
        <ele>623.5</ele>
        <time>2014-10-02T12:32:13Z</time>
      </trkpt>
      <trkpt lat="46.15014" lon="4.47236">
        <ele>621.5</ele>
        <time>2014-10-02T12:32:15Z</time>
      </trkpt>
      <trkpt lat="46.15022" lon="4.47216">
        <ele>620.5</ele>
        <time>2014-10-02T12:32:17Z</time>
      </trkpt>
      <trkpt lat="46.15026" lon="4.47206">
        <ele>620.5</ele>
        <time>2014-10-02T12:32:18Z</time>
      </trkpt>
      <trkpt lat="46.1503" lon="4.47195">
        <ele>620.2</ele>
        <time>2014-10-02T12:32:19Z</time>
      </trkpt>
      <trkpt lat="46.15035" lon="4.47185">
        <ele>619.9</ele>
        <time>2014-10-02T12:32:20Z</time>
      </trkpt>
      <trkpt lat="46.1504" lon="4.47175">
        <ele>619.6</ele>
        <time>2014-10-02T12:32:21Z</time>
      </trkpt>
      <trkpt lat="46.15045" lon="4.47166">
        <ele>619.4</ele>
        <time>2014-10-02T12:32:22Z</time>
      </trkpt>
      <trkpt lat="46.15052" lon="4.47146">
        <ele>620</ele>
        <time>2014-10-02T12:32:24Z</time>
      </trkpt>
      <trkpt lat="46.15056" lon="4.47127">
        <ele>620.2</ele>
        <time>2014-10-02T12:32:26Z</time>
      </trkpt>
      <trkpt lat="46.1506" lon="4.47108">
        <ele>620.4</ele>
        <time>2014-10-02T12:32:28Z</time>
      </trkpt>
      <trkpt lat="46.15064" lon="4.47091">
        <ele>620.5</ele>
        <time>2014-10-02T12:32:30Z</time>
      </trkpt>
      <trkpt lat="46.1507" lon="4.47073">
        <ele>620.7</ele>
        <time>2014-10-02T12:32:32Z</time>
      </trkpt>
      <trkpt lat="46.15076" lon="4.47053">
        <ele>620.3</ele>
        <time>2014-10-02T12:32:34Z</time>
      </trkpt>
      <trkpt lat="46.15081" lon="4.47035">
        <ele>619</ele>
        <time>2014-10-02T12:32:36Z</time>
      </trkpt>
      <trkpt lat="46.15083" lon="4.47014">
        <ele>617.9</ele>
        <time>2014-10-02T12:32:38Z</time>
      </trkpt>
      <trkpt lat="46.15086" lon="4.46995">
        <ele>616.8</ele>
        <time>2014-10-02T12:32:40Z</time>
      </trkpt>
      <trkpt lat="46.15089" lon="4.46977">
        <ele>615.7</ele>
        <time>2014-10-02T12:32:42Z</time>
      </trkpt>
      <trkpt lat="46.15092" lon="4.46959">
        <ele>614.6</ele>
        <time>2014-10-02T12:32:44Z</time>
      </trkpt>
      <trkpt lat="46.15094" lon="4.46942">
        <ele>613</ele>
        <time>2014-10-02T12:32:46Z</time>
      </trkpt>
      <trkpt lat="46.15096" lon="4.46926">
        <ele>612.5</ele>
        <time>2014-10-02T12:32:48Z</time>
      </trkpt>
      <trkpt lat="46.15099" lon="4.46911">
        <ele>612.1</ele>
        <time>2014-10-02T12:32:50Z</time>
      </trkpt>
      <trkpt lat="46.15104" lon="4.46898">
        <ele>611.6</ele>
        <time>2014-10-02T12:32:52Z</time>
      </trkpt>
      <trkpt lat="46.1511" lon="4.46883">
        <ele>611.2</ele>
        <time>2014-10-02T12:32:54Z</time>
      </trkpt>
      <trkpt lat="46.15117" lon="4.46871">
        <ele>611.4</ele>
        <time>2014-10-02T12:32:56Z</time>
      </trkpt>
      <trkpt lat="46.15128" lon="4.46857">
        <ele>611.5</ele>
        <time>2014-10-02T12:32:58Z</time>
      </trkpt>
      <trkpt lat="46.1514" lon="4.46844">
        <ele>611.7</ele>
        <time>2014-10-02T12:33:00Z</time>
      </trkpt>
      <trkpt lat="46.15152" lon="4.46829">
        <ele>610.7</ele>
        <time>2014-10-02T12:33:02Z</time>
      </trkpt>
      <trkpt lat="46.15158" lon="4.46821">
        <ele>609.7</ele>
        <time>2014-10-02T12:33:03Z</time>
      </trkpt>
      <trkpt lat="46.15165" lon="4.46814">
        <ele>608.7</ele>
        <time>2014-10-02T12:33:04Z</time>
      </trkpt>
      <trkpt lat="46.15172" lon="4.46806">
        <ele>608.9</ele>
        <time>2014-10-02T12:33:05Z</time>
      </trkpt>
      <trkpt lat="46.15179" lon="4.46797">
        <ele>608.4</ele>
        <time>2014-10-02T12:33:06Z</time>
      </trkpt>
      <trkpt lat="46.15188" lon="4.46788">
        <ele>607.8</ele>
        <time>2014-10-02T12:33:07Z</time>
      </trkpt>
      <trkpt lat="46.15197" lon="4.46779">
        <ele>607.3</ele>
        <time>2014-10-02T12:33:08Z</time>
      </trkpt>
      <trkpt lat="46.15206" lon="4.46772">
        <ele>606.7</ele>
        <time>2014-10-02T12:33:09Z</time>
      </trkpt>
      <trkpt lat="46.15216" lon="4.46764">
        <ele>606.2</ele>
        <time>2014-10-02T12:33:10Z</time>
      </trkpt>
      <trkpt lat="46.15224" lon="4.46756">
        <ele>605.6</ele>
        <time>2014-10-02T12:33:11Z</time>
      </trkpt>
      <trkpt lat="46.15233" lon="4.46749">
        <ele>603.4</ele>
        <time>2014-10-02T12:33:12Z</time>
      </trkpt>
      <trkpt lat="46.15242" lon="4.46739">
        <ele>602.3</ele>
        <time>2014-10-02T12:33:13Z</time>
      </trkpt>
      <trkpt lat="46.1525" lon="4.4673">
        <ele>601.2</ele>
        <time>2014-10-02T12:33:14Z</time>
      </trkpt>
      <trkpt lat="46.15259" lon="4.46723">
        <ele>600.6</ele>
        <time>2014-10-02T12:33:15Z</time>
      </trkpt>
      <trkpt lat="46.15268" lon="4.46715">
        <ele>599.5</ele>
        <time>2014-10-02T12:33:16Z</time>
      </trkpt>
      <trkpt lat="46.15276" lon="4.46708">
        <ele>598.3</ele>
        <time>2014-10-02T12:33:17Z</time>
      </trkpt>
      <trkpt lat="46.15284" lon="4.46702">
        <ele>597.1</ele>
        <time>2014-10-02T12:33:18Z</time>
      </trkpt>
      <trkpt lat="46.15293" lon="4.46697">
        <ele>595.9</ele>
        <time>2014-10-02T12:33:19Z</time>
      </trkpt>
      <trkpt lat="46.153" lon="4.4669">
        <ele>594.7</ele>
        <time>2014-10-02T12:33:20Z</time>
      </trkpt>
      <trkpt lat="46.15307" lon="4.46684">
        <ele>593.5</ele>
        <time>2014-10-02T12:33:21Z</time>
      </trkpt>
      <trkpt lat="46.15314" lon="4.46677">
        <ele>592.4</ele>
        <time>2014-10-02T12:33:22Z</time>
      </trkpt>
      <trkpt lat="46.15322" lon="4.46671">
        <ele>592.9</ele>
        <time>2014-10-02T12:33:23Z</time>
      </trkpt>
      <trkpt lat="46.15329" lon="4.46664">
        <ele>593.5</ele>
        <time>2014-10-02T12:33:24Z</time>
      </trkpt>
      <trkpt lat="46.1534" lon="4.46659">
        <ele>593.2</ele>
        <time>2014-10-02T12:33:25Z</time>
      </trkpt>
      <trkpt lat="46.15348" lon="4.46653">
        <ele>592.4</ele>
        <time>2014-10-02T12:33:26Z</time>
      </trkpt>
      <trkpt lat="46.15356" lon="4.46648">
        <ele>591.5</ele>
        <time>2014-10-02T12:33:27Z</time>
      </trkpt>
      <trkpt lat="46.15366" lon="4.46642">
        <ele>590.7</ele>
        <time>2014-10-02T12:33:28Z</time>
      </trkpt>
      <trkpt lat="46.15376" lon="4.46637">
        <ele>589.9</ele>
        <time>2014-10-02T12:33:29Z</time>
      </trkpt>
      <trkpt lat="46.15385" lon="4.46629">
        <ele>589.1</ele>
        <time>2014-10-02T12:33:30Z</time>
      </trkpt>
      <trkpt lat="46.15396" lon="4.46622">
        <ele>588.3</ele>
        <time>2014-10-02T12:33:31Z</time>
      </trkpt>
      <trkpt lat="46.15406" lon="4.46615">
        <ele>587.5</ele>
        <time>2014-10-02T12:33:32Z</time>
      </trkpt>
      <trkpt lat="46.15416" lon="4.46609">
        <ele>586.8</ele>
        <time>2014-10-02T12:33:33Z</time>
      </trkpt>
      <trkpt lat="46.15426" lon="4.46605">
        <ele>586.2</ele>
        <time>2014-10-02T12:33:34Z</time>
      </trkpt>
      <trkpt lat="46.15437" lon="4.466">
        <ele>585.5</ele>
        <time>2014-10-02T12:33:35Z</time>
      </trkpt>
      <trkpt lat="46.15446" lon="4.46595">
        <ele>585.7</ele>
        <time>2014-10-02T12:33:36Z</time>
      </trkpt>
      <trkpt lat="46.15455" lon="4.46591">
        <ele>585.9</ele>
        <time>2014-10-02T12:33:37Z</time>
      </trkpt>
      <trkpt lat="46.15463" lon="4.46586">
        <ele>585.8</ele>
        <time>2014-10-02T12:33:38Z</time>
      </trkpt>
      <trkpt lat="46.1547" lon="4.46582">
        <ele>585.7</ele>
        <time>2014-10-02T12:33:39Z</time>
      </trkpt>
      <trkpt lat="46.15484" lon="4.46574">
        <ele>585.6</ele>
        <time>2014-10-02T12:33:41Z</time>
      </trkpt>
      <trkpt lat="46.15492" lon="4.46563">
        <ele>585.5</ele>
        <time>2014-10-02T12:33:43Z</time>
      </trkpt>
      <trkpt lat="46.15493" lon="4.4655">
        <ele>584.7</ele>
        <time>2014-10-02T12:33:45Z</time>
      </trkpt>
      <trkpt lat="46.15488" lon="4.46539">
        <ele>583.9</ele>
        <time>2014-10-02T12:33:47Z</time>
      </trkpt>
      <trkpt lat="46.15482" lon="4.46527">
        <ele>582.9</ele>
        <time>2014-10-02T12:33:49Z</time>
      </trkpt>
      <trkpt lat="46.15475" lon="4.46516">
        <ele>583.3</ele>
        <time>2014-10-02T12:33:51Z</time>
      </trkpt>
      <trkpt lat="46.15467" lon="4.46504">
        <ele>583.6</ele>
        <time>2014-10-02T12:33:53Z</time>
      </trkpt>
      <trkpt lat="46.1546" lon="4.46494">
        <ele>584</ele>
        <time>2014-10-02T12:33:55Z</time>
      </trkpt>
      <trkpt lat="46.1545" lon="4.46485">
        <ele>584.4</ele>
        <time>2014-10-02T12:33:57Z</time>
      </trkpt>
      <trkpt lat="46.15441" lon="4.46476">
        <ele>585</ele>
        <time>2014-10-02T12:33:59Z</time>
      </trkpt>
      <trkpt lat="46.15432" lon="4.46465">
        <ele>585.6</ele>
        <time>2014-10-02T12:34:01Z</time>
      </trkpt>
      <trkpt lat="46.15424" lon="4.46453">
        <ele>584.9</ele>
        <time>2014-10-02T12:34:03Z</time>
      </trkpt>
      <trkpt lat="46.15416" lon="4.4644">
        <ele>584.2</ele>
        <time>2014-10-02T12:34:05Z</time>
      </trkpt>
      <trkpt lat="46.15408" lon="4.46428">
        <ele>585.2</ele>
        <time>2014-10-02T12:34:07Z</time>
      </trkpt>
      <trkpt lat="46.15399" lon="4.46418">
        <ele>586.2</ele>
        <time>2014-10-02T12:34:09Z</time>
      </trkpt>
      <trkpt lat="46.15388" lon="4.46408">
        <ele>587.2</ele>
        <time>2014-10-02T12:34:11Z</time>
      </trkpt>
      <trkpt lat="46.15379" lon="4.46401">
        <ele>586.8</ele>
        <time>2014-10-02T12:34:13Z</time>
      </trkpt>
      <trkpt lat="46.1537" lon="4.46394">
        <ele>586.5</ele>
        <time>2014-10-02T12:34:15Z</time>
      </trkpt>
      <trkpt lat="46.15363" lon="4.46385">
        <ele>586.1</ele>
        <time>2014-10-02T12:34:17Z</time>
      </trkpt>
      <trkpt lat="46.15354" lon="4.46377">
        <ele>585.7</ele>
        <time>2014-10-02T12:34:19Z</time>
      </trkpt>
      <trkpt lat="46.15345" lon="4.46368">
        <ele>584.2</ele>
        <time>2014-10-02T12:34:21Z</time>
      </trkpt>
      <trkpt lat="46.15336" lon="4.46365">
        <ele>582.6</ele>
        <time>2014-10-02T12:34:23Z</time>
      </trkpt>
      <trkpt lat="46.15323" lon="4.46364">
        <ele>582.5</ele>
        <time>2014-10-02T12:34:25Z</time>
      </trkpt>
      <trkpt lat="46.15312" lon="4.46366">
        <ele>581.8</ele>
        <time>2014-10-02T12:34:27Z</time>
      </trkpt>
      <trkpt lat="46.153" lon="4.46371">
        <ele>580.2</ele>
        <time>2014-10-02T12:34:29Z</time>
      </trkpt>
      <trkpt lat="46.15287" lon="4.46373">
        <ele>578.5</ele>
        <time>2014-10-02T12:34:31Z</time>
      </trkpt>
      <trkpt lat="46.15275" lon="4.46375">
        <ele>577.4</ele>
        <time>2014-10-02T12:34:33Z</time>
      </trkpt>
      <trkpt lat="46.15262" lon="4.4638">
        <ele>575.6</ele>
        <time>2014-10-02T12:34:35Z</time>
      </trkpt>
      <trkpt lat="46.15249" lon="4.46385">
        <ele>573.9</ele>
        <time>2014-10-02T12:34:37Z</time>
      </trkpt>
      <trkpt lat="46.15233" lon="4.46387">
        <ele>572.2</ele>
        <time>2014-10-02T12:34:39Z</time>
      </trkpt>
      <trkpt lat="46.15225" lon="4.46385">
        <ele>570.5</ele>
        <time>2014-10-02T12:34:40Z</time>
      </trkpt>
      <trkpt lat="46.15217" lon="4.46383">
        <ele>569.9</ele>
        <time>2014-10-02T12:34:41Z</time>
      </trkpt>
      <trkpt lat="46.15208" lon="4.46383">
        <ele>569.4</ele>
        <time>2014-10-02T12:34:42Z</time>
      </trkpt>
      <trkpt lat="46.15199" lon="4.46382">
        <ele>568.8</ele>
        <time>2014-10-02T12:34:43Z</time>
      </trkpt>
      <trkpt lat="46.15191" lon="4.46381">
        <ele>568.7</ele>
        <time>2014-10-02T12:34:44Z</time>
      </trkpt>
      <trkpt lat="46.15183" lon="4.46379">
        <ele>568.6</ele>
        <time>2014-10-02T12:34:45Z</time>
      </trkpt>
      <trkpt lat="46.15174" lon="4.46375">
        <ele>568.5</ele>
        <time>2014-10-02T12:34:46Z</time>
      </trkpt>
      <trkpt lat="46.15166" lon="4.4637">
        <ele>567.9</ele>
        <time>2014-10-02T12:34:47Z</time>
      </trkpt>
      <trkpt lat="46.15159" lon="4.46363">
        <ele>568.2</ele>
        <time>2014-10-02T12:34:48Z</time>
      </trkpt>
      <trkpt lat="46.15153" lon="4.46355">
        <ele>568.5</ele>
        <time>2014-10-02T12:34:49Z</time>
      </trkpt>
      <trkpt lat="46.15141" lon="4.4634">
        <ele>568.7</ele>
        <time>2014-10-02T12:34:51Z</time>
      </trkpt>
      <trkpt lat="46.15132" lon="4.46326">
        <ele>569</ele>
        <time>2014-10-02T12:34:53Z</time>
      </trkpt>
      <trkpt lat="46.15123" lon="4.46313">
        <ele>569.3</ele>
        <time>2014-10-02T12:34:55Z</time>
      </trkpt>
      <trkpt lat="46.15113" lon="4.46301">
        <ele>569.5</ele>
        <time>2014-10-02T12:34:57Z</time>
      </trkpt>
      <trkpt lat="46.15104" lon="4.4629">
        <ele>569.8</ele>
        <time>2014-10-02T12:34:59Z</time>
      </trkpt>
      <trkpt lat="46.15096" lon="4.46279">
        <ele>570.1</ele>
        <time>2014-10-02T12:35:01Z</time>
      </trkpt>
      <trkpt lat="46.15088" lon="4.46269">
        <ele>570.5</ele>
        <time>2014-10-02T12:35:03Z</time>
      </trkpt>
      <trkpt lat="46.15081" lon="4.46256">
        <ele>571</ele>
        <time>2014-10-02T12:35:05Z</time>
      </trkpt>
      <trkpt lat="46.15077" lon="4.46244">
        <ele>571.5</ele>
        <time>2014-10-02T12:35:07Z</time>
      </trkpt>
      <trkpt lat="46.15072" lon="4.46235">
        <ele>571.3</ele>
        <time>2014-10-02T12:35:09Z</time>
      </trkpt>
      <trkpt lat="46.15064" lon="4.46226">
        <ele>571</ele>
        <time>2014-10-02T12:35:12Z</time>
      </trkpt>
      <trkpt lat="46.15057" lon="4.46217">
        <ele>570.7</ele>
        <time>2014-10-02T12:35:15Z</time>
      </trkpt>
      <trkpt lat="46.15054" lon="4.46206">
        <ele>570</ele>
        <time>2014-10-02T12:35:17Z</time>
      </trkpt>
      <trkpt lat="46.1505" lon="4.46193">
        <ele>569.3</ele>
        <time>2014-10-02T12:35:19Z</time>
      </trkpt>
      <trkpt lat="46.15045" lon="4.46178">
        <ele>568.5</ele>
        <time>2014-10-02T12:35:21Z</time>
      </trkpt>
      <trkpt lat="46.15038" lon="4.46162">
        <ele>567.8</ele>
        <time>2014-10-02T12:35:23Z</time>
      </trkpt>
      <trkpt lat="46.15034" lon="4.46146">
        <ele>567.1</ele>
        <time>2014-10-02T12:35:25Z</time>
      </trkpt>
      <trkpt lat="46.15029" lon="4.46128">
        <ele>566.2</ele>
        <time>2014-10-02T12:35:27Z</time>
      </trkpt>
      <trkpt lat="46.15025" lon="4.46111">
        <ele>565.3</ele>
        <time>2014-10-02T12:35:29Z</time>
      </trkpt>
      <trkpt lat="46.15021" lon="4.46095">
        <ele>564.4</ele>
        <time>2014-10-02T12:35:31Z</time>
      </trkpt>
      <trkpt lat="46.15015" lon="4.46079">
        <ele>563.9</ele>
        <time>2014-10-02T12:35:33Z</time>
      </trkpt>
      <trkpt lat="46.15008" lon="4.46064">
        <ele>563.1</ele>
        <time>2014-10-02T12:35:35Z</time>
      </trkpt>
      <trkpt lat="46.14998" lon="4.46054">
        <ele>562.3</ele>
        <time>2014-10-02T12:35:37Z</time>
      </trkpt>
      <trkpt lat="46.14988" lon="4.46046">
        <ele>561.9</ele>
        <time>2014-10-02T12:35:39Z</time>
      </trkpt>
      <trkpt lat="46.14976" lon="4.46038">
        <ele>561.5</ele>
        <time>2014-10-02T12:35:41Z</time>
      </trkpt>
      <trkpt lat="46.14964" lon="4.46031">
        <ele>561.2</ele>
        <time>2014-10-02T12:35:43Z</time>
      </trkpt>
      <trkpt lat="46.14951" lon="4.4602">
        <ele>560.8</ele>
        <time>2014-10-02T12:35:45Z</time>
      </trkpt>
      <trkpt lat="46.14939" lon="4.46012">
        <ele>560.1</ele>
        <time>2014-10-02T12:35:47Z</time>
      </trkpt>
      <trkpt lat="46.14927" lon="4.46003">
        <ele>559.4</ele>
        <time>2014-10-02T12:35:49Z</time>
      </trkpt>
      <trkpt lat="46.14915" lon="4.45994">
        <ele>559.5</ele>
        <time>2014-10-02T12:35:51Z</time>
      </trkpt>
      <trkpt lat="46.14903" lon="4.45985">
        <ele>559.5</ele>
        <time>2014-10-02T12:35:53Z</time>
      </trkpt>
      <trkpt lat="46.1489" lon="4.45977">
        <ele>559.6</ele>
        <time>2014-10-02T12:35:55Z</time>
      </trkpt>
      <trkpt lat="46.14879" lon="4.45969">
        <ele>560.1</ele>
        <time>2014-10-02T12:35:57Z</time>
      </trkpt>
      <trkpt lat="46.14868" lon="4.45961">
        <ele>560.5</ele>
        <time>2014-10-02T12:35:59Z</time>
      </trkpt>
      <trkpt lat="46.14857" lon="4.45955">
        <ele>561</ele>
        <time>2014-10-02T12:36:01Z</time>
      </trkpt>
      <trkpt lat="46.14848" lon="4.45949">
        <ele>561.5</ele>
        <time>2014-10-02T12:36:03Z</time>
      </trkpt>
      <trkpt lat="46.14841" lon="4.45942">
        <ele>561.9</ele>
        <time>2014-10-02T12:36:05Z</time>
      </trkpt>
      <trkpt lat="46.14835" lon="4.45935">
        <ele>563.1</ele>
        <time>2014-10-02T12:36:07Z</time>
      </trkpt>
      <trkpt lat="46.14827" lon="4.45923">
        <ele>564.6</ele>
        <time>2014-10-02T12:36:10Z</time>
      </trkpt>
      <trkpt lat="46.14821" lon="4.45911">
        <ele>566.2</ele>
        <time>2014-10-02T12:36:13Z</time>
      </trkpt>
      <trkpt lat="46.14814" lon="4.45901">
        <ele>566.9</ele>
        <time>2014-10-02T12:36:16Z</time>
      </trkpt>
      <trkpt lat="46.14808" lon="4.45889">
        <ele>567.6</ele>
        <time>2014-10-02T12:36:19Z</time>
      </trkpt>
      <trkpt lat="46.14806" lon="4.45873">
        <ele>567.6</ele>
        <time>2014-10-02T12:36:22Z</time>
      </trkpt>
      <trkpt lat="46.14805" lon="4.45858">
        <ele>568.2</ele>
        <time>2014-10-02T12:36:25Z</time>
      </trkpt>
      <trkpt lat="46.14803" lon="4.45843">
        <ele>568.7</ele>
        <time>2014-10-02T12:36:28Z</time>
      </trkpt>
      <trkpt lat="46.14801" lon="4.45831">
        <ele>569.3</ele>
        <time>2014-10-02T12:36:31Z</time>
      </trkpt>
      <trkpt lat="46.14799" lon="4.45818">
        <ele>569.8</ele>
        <time>2014-10-02T12:36:35Z</time>
      </trkpt>
      <trkpt lat="46.14798" lon="4.45803">
        <ele>570.4</ele>
        <time>2014-10-02T12:36:39Z</time>
      </trkpt>
      <trkpt lat="46.14798" lon="4.45791">
        <ele>570.2</ele>
        <time>2014-10-02T12:36:42Z</time>
      </trkpt>
      <trkpt lat="46.14796" lon="4.45779">
        <ele>570.2</ele>
        <time>2014-10-02T12:36:45Z</time>
      </trkpt>
      <trkpt lat="46.14794" lon="4.45764">
        <ele>570.2</ele>
        <time>2014-10-02T12:36:49Z</time>
      </trkpt>
      <trkpt lat="46.14795" lon="4.45751">
        <ele>570.2</ele>
        <time>2014-10-02T12:36:52Z</time>
      </trkpt>
      <trkpt lat="46.14796" lon="4.45737">
        <ele>570.2</ele>
        <time>2014-10-02T12:36:55Z</time>
      </trkpt>
      <trkpt lat="46.14796" lon="4.45724">
        <ele>570.9</ele>
        <time>2014-10-02T12:36:58Z</time>
      </trkpt>
      <trkpt lat="46.14796" lon="4.4571">
        <ele>571.1</ele>
        <time>2014-10-02T12:37:02Z</time>
      </trkpt>
      <trkpt lat="46.14796" lon="4.45695">
        <ele>571</ele>
        <time>2014-10-02T12:37:10Z</time>
      </trkpt>
      <trkpt lat="46.14793" lon="4.45681">
        <ele>570.9</ele>
        <time>2014-10-02T12:37:13Z</time>
      </trkpt>
      <trkpt lat="46.14786" lon="4.45665">
        <ele>570.8</ele>
        <time>2014-10-02T12:37:16Z</time>
      </trkpt>
      <trkpt lat="46.14781" lon="4.45651">
        <ele>570.7</ele>
        <time>2014-10-02T12:37:18Z</time>
      </trkpt>
      <trkpt lat="46.14773" lon="4.45638">
        <ele>570.6</ele>
        <time>2014-10-02T12:37:20Z</time>
      </trkpt>
      <trkpt lat="46.14767" lon="4.45625">
        <ele>570.4</ele>
        <time>2014-10-02T12:37:22Z</time>
      </trkpt>
      <trkpt lat="46.14761" lon="4.45613">
        <ele>569.2</ele>
        <time>2014-10-02T12:37:24Z</time>
      </trkpt>
      <trkpt lat="46.14754" lon="4.45596">
        <ele>568</ele>
        <time>2014-10-02T12:37:26Z</time>
      </trkpt>
      <trkpt lat="46.1475" lon="4.4558">
        <ele>566.8</ele>
        <time>2014-10-02T12:37:28Z</time>
      </trkpt>
      <trkpt lat="46.14746" lon="4.45565">
        <ele>565.6</ele>
        <time>2014-10-02T12:37:30Z</time>
      </trkpt>
      <trkpt lat="46.1475" lon="4.45552">
        <ele>564.5</ele>
        <time>2014-10-02T12:37:32Z</time>
      </trkpt>
      <trkpt lat="46.1476" lon="4.45542">
        <ele>563.5</ele>
        <time>2014-10-02T12:37:34Z</time>
      </trkpt>
      <trkpt lat="46.14773" lon="4.4554">
        <ele>562.6</ele>
        <time>2014-10-02T12:37:36Z</time>
      </trkpt>
      <trkpt lat="46.14787" lon="4.45535">
        <ele>561.7</ele>
        <time>2014-10-02T12:37:38Z</time>
      </trkpt>
      <trkpt lat="46.14799" lon="4.45527">
        <ele>560.1</ele>
        <time>2014-10-02T12:37:40Z</time>
      </trkpt>
      <trkpt lat="46.14806" lon="4.45511">
        <ele>558.5</ele>
        <time>2014-10-02T12:37:42Z</time>
      </trkpt>
      <trkpt lat="46.14806" lon="4.45492">
        <ele>556.8</ele>
        <time>2014-10-02T12:37:44Z</time>
      </trkpt>
      <trkpt lat="46.148" lon="4.45477">
        <ele>556.1</ele>
        <time>2014-10-02T12:37:46Z</time>
      </trkpt>
      <trkpt lat="46.14786" lon="4.4547">
        <ele>555.4</ele>
        <time>2014-10-02T12:37:48Z</time>
      </trkpt>
      <trkpt lat="46.1477" lon="4.45466">
        <ele>554.6</ele>
        <time>2014-10-02T12:37:50Z</time>
      </trkpt>
      <trkpt lat="46.14761" lon="4.45465">
        <ele>553.6</ele>
        <time>2014-10-02T12:37:51Z</time>
      </trkpt>
      <trkpt lat="46.14753" lon="4.45464">
        <ele>552.6</ele>
        <time>2014-10-02T12:37:52Z</time>
      </trkpt>
      <trkpt lat="46.14744" lon="4.45464">
        <ele>551.6</ele>
        <time>2014-10-02T12:37:53Z</time>
      </trkpt>
      <trkpt lat="46.14735" lon="4.45463">
        <ele>550.6</ele>
        <time>2014-10-02T12:37:54Z</time>
      </trkpt>
      <trkpt lat="46.1472" lon="4.45462">
        <ele>549.6</ele>
        <time>2014-10-02T12:37:56Z</time>
      </trkpt>
      <trkpt lat="46.14705" lon="4.45459">
        <ele>549.4</ele>
        <time>2014-10-02T12:37:58Z</time>
      </trkpt>
      <trkpt lat="46.14691" lon="4.45451">
        <ele>549.1</ele>
        <time>2014-10-02T12:38:00Z</time>
      </trkpt>
      <trkpt lat="46.14684" lon="4.45444">
        <ele>548.8</ele>
        <time>2014-10-02T12:38:01Z</time>
      </trkpt>
      <trkpt lat="46.14676" lon="4.45436">
        <ele>548.5</ele>
        <time>2014-10-02T12:38:02Z</time>
      </trkpt>
      <trkpt lat="46.14669" lon="4.45428">
        <ele>548.2</ele>
        <time>2014-10-02T12:38:03Z</time>
      </trkpt>
      <trkpt lat="46.14654" lon="4.45414">
        <ele>547.8</ele>
        <time>2014-10-02T12:38:05Z</time>
      </trkpt>
      <trkpt lat="46.14647" lon="4.45408">
        <ele>547.7</ele>
        <time>2014-10-02T12:38:06Z</time>
      </trkpt>
      <trkpt lat="46.14639" lon="4.45403">
        <ele>547.6</ele>
        <time>2014-10-02T12:38:07Z</time>
      </trkpt>
      <trkpt lat="46.1463" lon="4.454">
        <ele>547.5</ele>
        <time>2014-10-02T12:38:08Z</time>
      </trkpt>
      <trkpt lat="46.14622" lon="4.45397">
        <ele>547.5</ele>
        <time>2014-10-02T12:38:09Z</time>
      </trkpt>
      <trkpt lat="46.14613" lon="4.45397">
        <ele>547.4</ele>
        <time>2014-10-02T12:38:10Z</time>
      </trkpt>
      <trkpt lat="46.14603" lon="4.45398">
        <ele>547.3</ele>
        <time>2014-10-02T12:38:11Z</time>
      </trkpt>
      <trkpt lat="46.14595" lon="4.454">
        <ele>547.2</ele>
        <time>2014-10-02T12:38:12Z</time>
      </trkpt>
      <trkpt lat="46.14587" lon="4.45404">
        <ele>547.1</ele>
        <time>2014-10-02T12:38:13Z</time>
      </trkpt>
      <trkpt lat="46.14578" lon="4.45408">
        <ele>546.8</ele>
        <time>2014-10-02T12:38:14Z</time>
      </trkpt>
      <trkpt lat="46.14571" lon="4.45413">
        <ele>546.6</ele>
        <time>2014-10-02T12:38:15Z</time>
      </trkpt>
      <trkpt lat="46.14563" lon="4.4542">
        <ele>546.5</ele>
        <time>2014-10-02T12:38:16Z</time>
      </trkpt>
      <trkpt lat="46.14556" lon="4.45427">
        <ele>546.3</ele>
        <time>2014-10-02T12:38:17Z</time>
      </trkpt>
      <trkpt lat="46.14549" lon="4.45434">
        <ele>546</ele>
        <time>2014-10-02T12:38:18Z</time>
      </trkpt>
      <trkpt lat="46.14542" lon="4.45442">
        <ele>545.7</ele>
        <time>2014-10-02T12:38:19Z</time>
      </trkpt>
      <trkpt lat="46.14535" lon="4.4545">
        <ele>545.5</ele>
        <time>2014-10-02T12:38:20Z</time>
      </trkpt>
      <trkpt lat="46.14527" lon="4.45456">
        <ele>545.2</ele>
        <time>2014-10-02T12:38:21Z</time>
      </trkpt>
      <trkpt lat="46.14519" lon="4.45462">
        <ele>544.9</ele>
        <time>2014-10-02T12:38:22Z</time>
      </trkpt>
      <trkpt lat="46.14511" lon="4.45467">
        <ele>544.6</ele>
        <time>2014-10-02T12:38:23Z</time>
      </trkpt>
      <trkpt lat="46.14503" lon="4.45471">
        <ele>544</ele>
        <time>2014-10-02T12:38:24Z</time>
      </trkpt>
      <trkpt lat="46.14494" lon="4.45473">
        <ele>543.5</ele>
        <time>2014-10-02T12:38:25Z</time>
      </trkpt>
      <trkpt lat="46.14485" lon="4.45474">
        <ele>543.1</ele>
        <time>2014-10-02T12:38:26Z</time>
      </trkpt>
      <trkpt lat="46.14476" lon="4.45474">
        <ele>542.6</ele>
        <time>2014-10-02T12:38:27Z</time>
      </trkpt>
      <trkpt lat="46.14467" lon="4.45473">
        <ele>542.2</ele>
        <time>2014-10-02T12:38:28Z</time>
      </trkpt>
      <trkpt lat="46.14458" lon="4.45472">
        <ele>541.8</ele>
        <time>2014-10-02T12:38:29Z</time>
      </trkpt>
      <trkpt lat="46.1445" lon="4.45472">
        <ele>541.5</ele>
        <time>2014-10-02T12:38:30Z</time>
      </trkpt>
      <trkpt lat="46.14434" lon="4.4548">
        <ele>541.1</ele>
        <time>2014-10-02T12:38:32Z</time>
      </trkpt>
      <trkpt lat="46.14427" lon="4.45487">
        <ele>540.7</ele>
        <time>2014-10-02T12:38:33Z</time>
      </trkpt>
      <trkpt lat="46.14416" lon="4.45501">
        <ele>539.8</ele>
        <time>2014-10-02T12:38:35Z</time>
      </trkpt>
      <trkpt lat="46.14405" lon="4.45518">
        <ele>538.9</ele>
        <time>2014-10-02T12:38:37Z</time>
      </trkpt>
      <trkpt lat="46.144" lon="4.45527">
        <ele>538.4</ele>
        <time>2014-10-02T12:38:38Z</time>
      </trkpt>
      <trkpt lat="46.14394" lon="4.45535">
        <ele>537.8</ele>
        <time>2014-10-02T12:38:39Z</time>
      </trkpt>
      <trkpt lat="46.14388" lon="4.45543">
        <ele>537.3</ele>
        <time>2014-10-02T12:38:40Z</time>
      </trkpt>
      <trkpt lat="46.14375" lon="4.45557">
        <ele>536.7</ele>
        <time>2014-10-02T12:38:42Z</time>
      </trkpt>
      <trkpt lat="46.14367" lon="4.45562">
        <ele>536.2</ele>
        <time>2014-10-02T12:38:43Z</time>
      </trkpt>
      <trkpt lat="46.1436" lon="4.45567">
        <ele>535.6</ele>
        <time>2014-10-02T12:38:44Z</time>
      </trkpt>
      <trkpt lat="46.14351" lon="4.45572">
        <ele>535.1</ele>
        <time>2014-10-02T12:38:45Z</time>
      </trkpt>
      <trkpt lat="46.14343" lon="4.45575">
        <ele>534.5</ele>
        <time>2014-10-02T12:38:46Z</time>
      </trkpt>
      <trkpt lat="46.14334" lon="4.45577">
        <ele>535.5</ele>
        <time>2014-10-02T12:38:47Z</time>
      </trkpt>
      <trkpt lat="46.14326" lon="4.4558">
        <ele>536.9</ele>
        <time>2014-10-02T12:38:48Z</time>
      </trkpt>
      <trkpt lat="46.14317" lon="4.45585">
        <ele>538.4</ele>
        <time>2014-10-02T12:38:49Z</time>
      </trkpt>
      <trkpt lat="46.14309" lon="4.4559">
        <ele>538.5</ele>
        <time>2014-10-02T12:38:50Z</time>
      </trkpt>
      <trkpt lat="46.14301" lon="4.45595">
        <ele>538.5</ele>
        <time>2014-10-02T12:38:51Z</time>
      </trkpt>
      <trkpt lat="46.14294" lon="4.45603">
        <ele>538.6</ele>
        <time>2014-10-02T12:38:52Z</time>
      </trkpt>
      <trkpt lat="46.14286" lon="4.45613">
        <ele>538.7</ele>
        <time>2014-10-02T12:38:53Z</time>
      </trkpt>
      <trkpt lat="46.1428" lon="4.45622">
        <ele>538.8</ele>
        <time>2014-10-02T12:38:54Z</time>
      </trkpt>
      <trkpt lat="46.14273" lon="4.45634">
        <ele>538.9</ele>
        <time>2014-10-02T12:38:55Z</time>
      </trkpt>
      <trkpt lat="46.14267" lon="4.45645">
        <ele>539</ele>
        <time>2014-10-02T12:38:56Z</time>
      </trkpt>
      <trkpt lat="46.14262" lon="4.45657">
        <ele>538.4</ele>
        <time>2014-10-02T12:38:57Z</time>
      </trkpt>
      <trkpt lat="46.14257" lon="4.4567">
        <ele>536.3</ele>
        <time>2014-10-02T12:38:58Z</time>
      </trkpt>
      <trkpt lat="46.14252" lon="4.45684">
        <ele>534.2</ele>
        <time>2014-10-02T12:38:59Z</time>
      </trkpt>
      <trkpt lat="46.14247" lon="4.45697">
        <ele>532.1</ele>
        <time>2014-10-02T12:39:00Z</time>
      </trkpt>
      <trkpt lat="46.14242" lon="4.4571">
        <ele>531.4</ele>
        <time>2014-10-02T12:39:01Z</time>
      </trkpt>
      <trkpt lat="46.14236" lon="4.45724">
        <ele>531.3</ele>
        <time>2014-10-02T12:39:02Z</time>
      </trkpt>
      <trkpt lat="46.14231" lon="4.45737">
        <ele>531.2</ele>
        <time>2014-10-02T12:39:03Z</time>
      </trkpt>
      <trkpt lat="46.14225" lon="4.45751">
        <ele>530.4</ele>
        <time>2014-10-02T12:39:04Z</time>
      </trkpt>
      <trkpt lat="46.14218" lon="4.45763">
        <ele>529.5</ele>
        <time>2014-10-02T12:39:05Z</time>
      </trkpt>
      <trkpt lat="46.1421" lon="4.45773">
        <ele>528.7</ele>
        <time>2014-10-02T12:39:06Z</time>
      </trkpt>
      <trkpt lat="46.14201" lon="4.45783">
        <ele>527.9</ele>
        <time>2014-10-02T12:39:07Z</time>
      </trkpt>
      <trkpt lat="46.1419" lon="4.4579">
        <ele>527.8</ele>
        <time>2014-10-02T12:39:08Z</time>
      </trkpt>
      <trkpt lat="46.1418" lon="4.45797">
        <ele>527.7</ele>
        <time>2014-10-02T12:39:09Z</time>
      </trkpt>
      <trkpt lat="46.1417" lon="4.45803">
        <ele>528.2</ele>
        <time>2014-10-02T12:39:10Z</time>
      </trkpt>
      <trkpt lat="46.1416" lon="4.45809">
        <ele>528.6</ele>
        <time>2014-10-02T12:39:11Z</time>
      </trkpt>
      <trkpt lat="46.1415" lon="4.45816">
        <ele>529.1</ele>
        <time>2014-10-02T12:39:12Z</time>
      </trkpt>
      <trkpt lat="46.1414" lon="4.45822">
        <ele>528.9</ele>
        <time>2014-10-02T12:39:13Z</time>
      </trkpt>
      <trkpt lat="46.1413" lon="4.45829">
        <ele>528.7</ele>
        <time>2014-10-02T12:39:14Z</time>
      </trkpt>
      <trkpt lat="46.1412" lon="4.45835">
        <ele>529.3</ele>
        <time>2014-10-02T12:39:15Z</time>
      </trkpt>
      <trkpt lat="46.1411" lon="4.45841">
        <ele>529.8</ele>
        <time>2014-10-02T12:39:16Z</time>
      </trkpt>
      <trkpt lat="46.14101" lon="4.45848">
        <ele>530.4</ele>
        <time>2014-10-02T12:39:17Z</time>
      </trkpt>
      <trkpt lat="46.14091" lon="4.45854">
        <ele>530.1</ele>
        <time>2014-10-02T12:39:18Z</time>
      </trkpt>
      <trkpt lat="46.14082" lon="4.4586">
        <ele>529.8</ele>
        <time>2014-10-02T12:39:19Z</time>
      </trkpt>
      <trkpt lat="46.14072" lon="4.45866">
        <ele>529.5</ele>
        <time>2014-10-02T12:39:20Z</time>
      </trkpt>
      <trkpt lat="46.14063" lon="4.45872">
        <ele>528.7</ele>
        <time>2014-10-02T12:39:21Z</time>
      </trkpt>
      <trkpt lat="46.14053" lon="4.45878">
        <ele>527.9</ele>
        <time>2014-10-02T12:39:22Z</time>
      </trkpt>
      <trkpt lat="46.14043" lon="4.45883">
        <ele>527.1</ele>
        <time>2014-10-02T12:39:23Z</time>
      </trkpt>
      <trkpt lat="46.14033" lon="4.45888">
        <ele>526.3</ele>
        <time>2014-10-02T12:39:24Z</time>
      </trkpt>
      <trkpt lat="46.14023" lon="4.45892">
        <ele>525.5</ele>
        <time>2014-10-02T12:39:25Z</time>
      </trkpt>
      <trkpt lat="46.14013" lon="4.45896">
        <ele>524.6</ele>
        <time>2014-10-02T12:39:26Z</time>
      </trkpt>
      <trkpt lat="46.14003" lon="4.45899">
        <ele>523.6</ele>
        <time>2014-10-02T12:39:27Z</time>
      </trkpt>
      <trkpt lat="46.13993" lon="4.45902">
        <ele>522.6</ele>
        <time>2014-10-02T12:39:28Z</time>
      </trkpt>
      <trkpt lat="46.13983" lon="4.45907">
        <ele>522.5</ele>
        <time>2014-10-02T12:39:29Z</time>
      </trkpt>
      <trkpt lat="46.13974" lon="4.4591">
        <ele>522.3</ele>
        <time>2014-10-02T12:39:30Z</time>
      </trkpt>
      <trkpt lat="46.13964" lon="4.45913">
        <ele>522.1</ele>
        <time>2014-10-02T12:39:31Z</time>
      </trkpt>
      <trkpt lat="46.13954" lon="4.45917">
        <ele>521.9</ele>
        <time>2014-10-02T12:39:32Z</time>
      </trkpt>
      <trkpt lat="46.13945" lon="4.4592">
        <ele>521.7</ele>
        <time>2014-10-02T12:39:33Z</time>
      </trkpt>
      <trkpt lat="46.13936" lon="4.45924">
        <ele>521.5</ele>
        <time>2014-10-02T12:39:34Z</time>
      </trkpt>
      <trkpt lat="46.13927" lon="4.45928">
        <ele>521.4</ele>
        <time>2014-10-02T12:39:35Z</time>
      </trkpt>
      <trkpt lat="46.13919" lon="4.4593">
        <ele>523.2</ele>
        <time>2014-10-02T12:39:36Z</time>
      </trkpt>
      <trkpt lat="46.1391" lon="4.45934">
        <ele>525</ele>
        <time>2014-10-02T12:39:37Z</time>
      </trkpt>
      <trkpt lat="46.13902" lon="4.45938">
        <ele>527</ele>
        <time>2014-10-02T12:39:38Z</time>
      </trkpt>
      <trkpt lat="46.13893" lon="4.45941">
        <ele>526.8</ele>
        <time>2014-10-02T12:39:39Z</time>
      </trkpt>
      <trkpt lat="46.13886" lon="4.45945">
        <ele>526.6</ele>
        <time>2014-10-02T12:39:40Z</time>
      </trkpt>
      <trkpt lat="46.13878" lon="4.45948">
        <ele>526.5</ele>
        <time>2014-10-02T12:39:41Z</time>
      </trkpt>
      <trkpt lat="46.13862" lon="4.45954">
        <ele>527</ele>
        <time>2014-10-02T12:39:43Z</time>
      </trkpt>
      <trkpt lat="46.13847" lon="4.4596">
        <ele>527.5</ele>
        <time>2014-10-02T12:39:45Z</time>
      </trkpt>
      <trkpt lat="46.13834" lon="4.45967">
        <ele>528.1</ele>
        <time>2014-10-02T12:39:47Z</time>
      </trkpt>
      <trkpt lat="46.1382" lon="4.45973">
        <ele>528.6</ele>
        <time>2014-10-02T12:39:49Z</time>
      </trkpt>
      <trkpt lat="46.13806" lon="4.45979">
        <ele>529.2</ele>
        <time>2014-10-02T12:39:51Z</time>
      </trkpt>
      <trkpt lat="46.13792" lon="4.45985">
        <ele>527.7</ele>
        <time>2014-10-02T12:39:53Z</time>
      </trkpt>
      <trkpt lat="46.13778" lon="4.45991">
        <ele>525.3</ele>
        <time>2014-10-02T12:39:55Z</time>
      </trkpt>
      <trkpt lat="46.13764" lon="4.45995">
        <ele>522.8</ele>
        <time>2014-10-02T12:39:57Z</time>
      </trkpt>
      <trkpt lat="46.13748" lon="4.46">
        <ele>522.5</ele>
        <time>2014-10-02T12:39:59Z</time>
      </trkpt>
      <trkpt lat="46.13733" lon="4.46005">
        <ele>522.3</ele>
        <time>2014-10-02T12:40:01Z</time>
      </trkpt>
      <trkpt lat="46.13718" lon="4.46009">
        <ele>522</ele>
        <time>2014-10-02T12:40:03Z</time>
      </trkpt>
      <trkpt lat="46.13702" lon="4.46011">
        <ele>521</ele>
        <time>2014-10-02T12:40:05Z</time>
      </trkpt>
      <trkpt lat="46.13694" lon="4.46011">
        <ele>520</ele>
        <time>2014-10-02T12:40:06Z</time>
      </trkpt>
      <trkpt lat="46.13685" lon="4.46009">
        <ele>519</ele>
        <time>2014-10-02T12:40:07Z</time>
      </trkpt>
      <trkpt lat="46.13677" lon="4.46006">
        <ele>518</ele>
        <time>2014-10-02T12:40:08Z</time>
      </trkpt>
      <trkpt lat="46.13668" lon="4.46001">
        <ele>516.3</ele>
        <time>2014-10-02T12:40:09Z</time>
      </trkpt>
      <trkpt lat="46.13654" lon="4.45991">
        <ele>514.5</ele>
        <time>2014-10-02T12:40:11Z</time>
      </trkpt>
      <trkpt lat="46.13647" lon="4.45985">
        <ele>513.8</ele>
        <time>2014-10-02T12:40:12Z</time>
      </trkpt>
      <trkpt lat="46.1364" lon="4.4598">
        <ele>514.1</ele>
        <time>2014-10-02T12:40:13Z</time>
      </trkpt>
      <trkpt lat="46.13632" lon="4.45974">
        <ele>514.4</ele>
        <time>2014-10-02T12:40:14Z</time>
      </trkpt>
      <trkpt lat="46.13624" lon="4.45969">
        <ele>514.6</ele>
        <time>2014-10-02T12:40:15Z</time>
      </trkpt>
      <trkpt lat="46.13617" lon="4.45964">
        <ele>514.9</ele>
        <time>2014-10-02T12:40:16Z</time>
      </trkpt>
      <trkpt lat="46.13609" lon="4.45961">
        <ele>515.2</ele>
        <time>2014-10-02T12:40:17Z</time>
      </trkpt>
      <trkpt lat="46.13601" lon="4.45958">
        <ele>517.1</ele>
        <time>2014-10-02T12:40:18Z</time>
      </trkpt>
      <trkpt lat="46.13593" lon="4.45955">
        <ele>517.1</ele>
        <time>2014-10-02T12:40:19Z</time>
      </trkpt>
      <trkpt lat="46.13584" lon="4.45956">
        <ele>517.1</ele>
        <time>2014-10-02T12:40:20Z</time>
      </trkpt>
      <trkpt lat="46.13569" lon="4.45952">
        <ele>517.8</ele>
        <time>2014-10-02T12:40:22Z</time>
      </trkpt>
      <trkpt lat="46.13553" lon="4.45954">
        <ele>518.5</ele>
        <time>2014-10-02T12:40:24Z</time>
      </trkpt>
      <trkpt lat="46.13538" lon="4.45959">
        <ele>519.3</ele>
        <time>2014-10-02T12:40:26Z</time>
      </trkpt>
      <trkpt lat="46.13524" lon="4.45963">
        <ele>521.4</ele>
        <time>2014-10-02T12:40:28Z</time>
      </trkpt>
      <trkpt lat="46.1351" lon="4.4597">
        <ele>523.5</ele>
        <time>2014-10-02T12:40:30Z</time>
      </trkpt>
      <trkpt lat="46.13496" lon="4.45978">
        <ele>524.1</ele>
        <time>2014-10-02T12:40:32Z</time>
      </trkpt>
      <trkpt lat="46.13483" lon="4.45989">
        <ele>524.7</ele>
        <time>2014-10-02T12:40:34Z</time>
      </trkpt>
      <trkpt lat="46.13471" lon="4.46003">
        <ele>525.4</ele>
        <time>2014-10-02T12:40:36Z</time>
      </trkpt>
      <trkpt lat="46.13461" lon="4.46018">
        <ele>524.4</ele>
        <time>2014-10-02T12:40:38Z</time>
      </trkpt>
      <trkpt lat="46.1345" lon="4.46032">
        <ele>525.3</ele>
        <time>2014-10-02T12:40:40Z</time>
      </trkpt>
      <trkpt lat="46.1344" lon="4.46046">
        <ele>526.2</ele>
        <time>2014-10-02T12:40:42Z</time>
      </trkpt>
      <trkpt lat="46.13429" lon="4.46059">
        <ele>529.8</ele>
        <time>2014-10-02T12:40:44Z</time>
      </trkpt>
      <trkpt lat="46.13419" lon="4.46073">
        <ele>531.5</ele>
        <time>2014-10-02T12:40:46Z</time>
      </trkpt>
      <trkpt lat="46.13409" lon="4.46086">
        <ele>533.1</ele>
        <time>2014-10-02T12:40:48Z</time>
      </trkpt>
      <trkpt lat="46.13398" lon="4.46099">
        <ele>532.4</ele>
        <time>2014-10-02T12:40:50Z</time>
      </trkpt>
      <trkpt lat="46.13388" lon="4.46112">
        <ele>531.6</ele>
        <time>2014-10-02T12:40:52Z</time>
      </trkpt>
      <trkpt lat="46.13378" lon="4.46125">
        <ele>532.4</ele>
        <time>2014-10-02T12:40:54Z</time>
      </trkpt>
      <trkpt lat="46.13368" lon="4.4614">
        <ele>533.1</ele>
        <time>2014-10-02T12:40:56Z</time>
      </trkpt>
      <trkpt lat="46.13359" lon="4.46157">
        <ele>532.2</ele>
        <time>2014-10-02T12:40:58Z</time>
      </trkpt>
      <trkpt lat="46.13349" lon="4.46168">
        <ele>531.3</ele>
        <time>2014-10-02T12:41:00Z</time>
      </trkpt>
      <trkpt lat="46.13339" lon="4.46182">
        <ele>530.4</ele>
        <time>2014-10-02T12:41:02Z</time>
      </trkpt>
      <trkpt lat="46.13328" lon="4.46196">
        <ele>531.5</ele>
        <time>2014-10-02T12:41:04Z</time>
      </trkpt>
      <trkpt lat="46.13322" lon="4.46205">
        <ele>529.8</ele>
        <time>2014-10-02T12:41:05Z</time>
      </trkpt>
      <trkpt lat="46.1331" lon="4.46221">
        <ele>530.2</ele>
        <time>2014-10-02T12:41:07Z</time>
      </trkpt>
      <trkpt lat="46.13304" lon="4.46229">
        <ele>530.5</ele>
        <time>2014-10-02T12:41:08Z</time>
      </trkpt>
      <trkpt lat="46.13299" lon="4.46238">
        <ele>530.9</ele>
        <time>2014-10-02T12:41:09Z</time>
      </trkpt>
      <trkpt lat="46.13293" lon="4.46246">
        <ele>531.3</ele>
        <time>2014-10-02T12:41:10Z</time>
      </trkpt>
      <trkpt lat="46.13287" lon="4.46255">
        <ele>529.6</ele>
        <time>2014-10-02T12:41:11Z</time>
      </trkpt>
      <trkpt lat="46.13283" lon="4.46266">
        <ele>528</ele>
        <time>2014-10-02T12:41:12Z</time>
      </trkpt>
      <trkpt lat="46.13277" lon="4.46276">
        <ele>528</ele>
        <time>2014-10-02T12:41:13Z</time>
      </trkpt>
      <trkpt lat="46.13272" lon="4.46286">
        <ele>528</ele>
        <time>2014-10-02T12:41:14Z</time>
      </trkpt>
      <trkpt lat="46.13267" lon="4.46296">
        <ele>528</ele>
        <time>2014-10-02T12:41:15Z</time>
      </trkpt>
      <trkpt lat="46.13261" lon="4.46305">
        <ele>526</ele>
        <time>2014-10-02T12:41:16Z</time>
      </trkpt>
      <trkpt lat="46.13254" lon="4.46313">
        <ele>524</ele>
        <time>2014-10-02T12:41:17Z</time>
      </trkpt>
      <trkpt lat="46.13247" lon="4.4632">
        <ele>522.1</ele>
        <time>2014-10-02T12:41:18Z</time>
      </trkpt>
      <trkpt lat="46.13241" lon="4.46327">
        <ele>520.2</ele>
        <time>2014-10-02T12:41:19Z</time>
      </trkpt>
      <trkpt lat="46.13233" lon="4.46332">
        <ele>518.3</ele>
        <time>2014-10-02T12:41:20Z</time>
      </trkpt>
      <trkpt lat="46.13224" lon="4.46334">
        <ele>516.4</ele>
        <time>2014-10-02T12:41:21Z</time>
      </trkpt>
      <trkpt lat="46.13215" lon="4.46336">
        <ele>516.5</ele>
        <time>2014-10-02T12:41:22Z</time>
      </trkpt>
      <trkpt lat="46.13207" lon="4.46337">
        <ele>516.5</ele>
        <time>2014-10-02T12:41:23Z</time>
      </trkpt>
      <trkpt lat="46.13199" lon="4.46335">
        <ele>516.6</ele>
        <time>2014-10-02T12:41:24Z</time>
      </trkpt>
      <trkpt lat="46.13191" lon="4.46334">
        <ele>516.7</ele>
        <time>2014-10-02T12:41:25Z</time>
      </trkpt>
      <trkpt lat="46.13181" lon="4.46328">
        <ele>516.8</ele>
        <time>2014-10-02T12:41:26Z</time>
      </trkpt>
      <trkpt lat="46.13172" lon="4.46324">
        <ele>518.8</ele>
        <time>2014-10-02T12:41:27Z</time>
      </trkpt>
      <trkpt lat="46.13164" lon="4.46321">
        <ele>520.8</ele>
        <time>2014-10-02T12:41:28Z</time>
      </trkpt>
      <trkpt lat="46.13156" lon="4.46316">
        <ele>522.7</ele>
        <time>2014-10-02T12:41:29Z</time>
      </trkpt>
      <trkpt lat="46.13148" lon="4.46311">
        <ele>524.6</ele>
        <time>2014-10-02T12:41:30Z</time>
      </trkpt>
      <trkpt lat="46.13132" lon="4.46304">
        <ele>526.5</ele>
        <time>2014-10-02T12:41:32Z</time>
      </trkpt>
      <trkpt lat="46.13124" lon="4.463">
        <ele>528.5</ele>
        <time>2014-10-02T12:41:33Z</time>
      </trkpt>
      <trkpt lat="46.13116" lon="4.46297">
        <ele>530.4</ele>
        <time>2014-10-02T12:41:34Z</time>
      </trkpt>
      <trkpt lat="46.13107" lon="4.46296">
        <ele>532.3</ele>
        <time>2014-10-02T12:41:35Z</time>
      </trkpt>
      <trkpt lat="46.13098" lon="4.46295">
        <ele>532.2</ele>
        <time>2014-10-02T12:41:36Z</time>
      </trkpt>
      <trkpt lat="46.13082" lon="4.46292">
        <ele>532.1</ele>
        <time>2014-10-02T12:41:38Z</time>
      </trkpt>
      <trkpt lat="46.13067" lon="4.46295">
        <ele>532</ele>
        <time>2014-10-02T12:41:40Z</time>
      </trkpt>
      <trkpt lat="46.13058" lon="4.46297">
        <ele>530</ele>
        <time>2014-10-02T12:41:41Z</time>
      </trkpt>
      <trkpt lat="46.1305" lon="4.463">
        <ele>528</ele>
        <time>2014-10-02T12:41:42Z</time>
      </trkpt>
      <trkpt lat="46.13042" lon="4.46303">
        <ele>526</ele>
        <time>2014-10-02T12:41:43Z</time>
      </trkpt>
      <trkpt lat="46.13034" lon="4.46307">
        <ele>524</ele>
        <time>2014-10-02T12:41:44Z</time>
      </trkpt>
      <trkpt lat="46.13019" lon="4.46312">
        <ele>522</ele>
        <time>2014-10-02T12:41:46Z</time>
      </trkpt>
      <trkpt lat="46.13011" lon="4.46316">
        <ele>520</ele>
        <time>2014-10-02T12:41:47Z</time>
      </trkpt>
      <trkpt lat="46.13002" lon="4.46319">
        <ele>518.6</ele>
        <time>2014-10-02T12:41:48Z</time>
      </trkpt>
      <trkpt lat="46.12994" lon="4.46323">
        <ele>517.3</ele>
        <time>2014-10-02T12:41:49Z</time>
      </trkpt>
      <trkpt lat="46.12986" lon="4.46325">
        <ele>517.9</ele>
        <time>2014-10-02T12:41:50Z</time>
      </trkpt>
      <trkpt lat="46.12971" lon="4.46333">
        <ele>518.5</ele>
        <time>2014-10-02T12:41:52Z</time>
      </trkpt>
      <trkpt lat="46.12964" lon="4.46337">
        <ele>519.2</ele>
        <time>2014-10-02T12:41:53Z</time>
      </trkpt>
      <trkpt lat="46.12956" lon="4.46341">
        <ele>519.8</ele>
        <time>2014-10-02T12:41:54Z</time>
      </trkpt>
      <trkpt lat="46.12948" lon="4.46346">
        <ele>520.5</ele>
        <time>2014-10-02T12:41:55Z</time>
      </trkpt>
      <trkpt lat="46.1294" lon="4.4635">
        <ele>521.1</ele>
        <time>2014-10-02T12:41:56Z</time>
      </trkpt>
      <trkpt lat="46.12933" lon="4.46355">
        <ele>519.7</ele>
        <time>2014-10-02T12:41:57Z</time>
      </trkpt>
      <trkpt lat="46.12925" lon="4.46361">
        <ele>518.4</ele>
        <time>2014-10-02T12:41:58Z</time>
      </trkpt>
      <trkpt lat="46.12918" lon="4.46367">
        <ele>517</ele>
        <time>2014-10-02T12:41:59Z</time>
      </trkpt>
      <trkpt lat="46.1291" lon="4.46373">
        <ele>516</ele>
        <time>2014-10-02T12:42:00Z</time>
      </trkpt>
      <trkpt lat="46.12903" lon="4.4638">
        <ele>515</ele>
        <time>2014-10-02T12:42:01Z</time>
      </trkpt>
      <trkpt lat="46.12896" lon="4.46389">
        <ele>514</ele>
        <time>2014-10-02T12:42:02Z</time>
      </trkpt>
      <trkpt lat="46.12889" lon="4.46397">
        <ele>513</ele>
        <time>2014-10-02T12:42:03Z</time>
      </trkpt>
      <trkpt lat="46.12883" lon="4.46406">
        <ele>512</ele>
        <time>2014-10-02T12:42:04Z</time>
      </trkpt>
      <trkpt lat="46.12877" lon="4.46416">
        <ele>511</ele>
        <time>2014-10-02T12:42:05Z</time>
      </trkpt>
      <trkpt lat="46.1287" lon="4.46425">
        <ele>508.6</ele>
        <time>2014-10-02T12:42:06Z</time>
      </trkpt>
      <trkpt lat="46.12863" lon="4.46434">
        <ele>506.3</ele>
        <time>2014-10-02T12:42:07Z</time>
      </trkpt>
      <trkpt lat="46.12856" lon="4.46444">
        <ele>505.9</ele>
        <time>2014-10-02T12:42:08Z</time>
      </trkpt>
      <trkpt lat="46.1285" lon="4.46453">
        <ele>505.5</ele>
        <time>2014-10-02T12:42:09Z</time>
      </trkpt>
      <trkpt lat="46.12843" lon="4.46463">
        <ele>505.2</ele>
        <time>2014-10-02T12:42:10Z</time>
      </trkpt>
      <trkpt lat="46.12837" lon="4.46472">
        <ele>503.8</ele>
        <time>2014-10-02T12:42:11Z</time>
      </trkpt>
      <trkpt lat="46.12831" lon="4.46486">
        <ele>502.1</ele>
        <time>2014-10-02T12:42:12Z</time>
      </trkpt>
      <trkpt lat="46.12824" lon="4.46496">
        <ele>500.4</ele>
        <time>2014-10-02T12:42:13Z</time>
      </trkpt>
      <trkpt lat="46.12812" lon="4.46513">
        <ele>498.6</ele>
        <time>2014-10-02T12:42:15Z</time>
      </trkpt>
      <trkpt lat="46.12806" lon="4.46522">
        <ele>496.3</ele>
        <time>2014-10-02T12:42:16Z</time>
      </trkpt>
      <trkpt lat="46.12799" lon="4.46529">
        <ele>493.9</ele>
        <time>2014-10-02T12:42:17Z</time>
      </trkpt>
      <trkpt lat="46.12792" lon="4.46535">
        <ele>492.9</ele>
        <time>2014-10-02T12:42:18Z</time>
      </trkpt>
      <trkpt lat="46.12785" lon="4.46541">
        <ele>491.9</ele>
        <time>2014-10-02T12:42:19Z</time>
      </trkpt>
      <trkpt lat="46.12777" lon="4.46546">
        <ele>490.9</ele>
        <time>2014-10-02T12:42:20Z</time>
      </trkpt>
      <trkpt lat="46.12764" lon="4.46552">
        <ele>489.9</ele>
        <time>2014-10-02T12:42:22Z</time>
      </trkpt>
      <trkpt lat="46.12752" lon="4.46553">
        <ele>488.9</ele>
        <time>2014-10-02T12:42:24Z</time>
      </trkpt>
      <trkpt lat="46.12744" lon="4.46552">
        <ele>487.9</ele>
        <time>2014-10-02T12:42:26Z</time>
      </trkpt>
      <trkpt lat="46.12735" lon="4.46555">
        <ele>488.8</ele>
        <time>2014-10-02T12:42:29Z</time>
      </trkpt>
      <trkpt lat="46.12729" lon="4.46567">
        <ele>489.7</ele>
        <time>2014-10-02T12:42:31Z</time>
      </trkpt>
      <trkpt lat="46.12723" lon="4.46583">
        <ele>490.6</ele>
        <time>2014-10-02T12:42:33Z</time>
      </trkpt>
      <trkpt lat="46.12717" lon="4.466">
        <ele>492.2</ele>
        <time>2014-10-02T12:42:35Z</time>
      </trkpt>
      <trkpt lat="46.1271" lon="4.46618">
        <ele>493.7</ele>
        <time>2014-10-02T12:42:37Z</time>
      </trkpt>
      <trkpt lat="46.12702" lon="4.46636">
        <ele>494.3</ele>
        <time>2014-10-02T12:42:39Z</time>
      </trkpt>
      <trkpt lat="46.12695" lon="4.46654">
        <ele>494.8</ele>
        <time>2014-10-02T12:42:41Z</time>
      </trkpt>
      <trkpt lat="46.12687" lon="4.46671">
        <ele>495.4</ele>
        <time>2014-10-02T12:42:43Z</time>
      </trkpt>
      <trkpt lat="46.12679" lon="4.46689">
        <ele>495.9</ele>
        <time>2014-10-02T12:42:45Z</time>
      </trkpt>
      <trkpt lat="46.12671" lon="4.46706">
        <ele>496.5</ele>
        <time>2014-10-02T12:42:47Z</time>
      </trkpt>
      <trkpt lat="46.12664" lon="4.46723">
        <ele>497.8</ele>
        <time>2014-10-02T12:42:49Z</time>
      </trkpt>
      <trkpt lat="46.12657" lon="4.46739">
        <ele>497.6</ele>
        <time>2014-10-02T12:42:51Z</time>
      </trkpt>
      <trkpt lat="46.1265" lon="4.46754">
        <ele>497.5</ele>
        <time>2014-10-02T12:42:53Z</time>
      </trkpt>
      <trkpt lat="46.12642" lon="4.46771">
        <ele>497.3</ele>
        <time>2014-10-02T12:42:55Z</time>
      </trkpt>
      <trkpt lat="46.12634" lon="4.46787">
        <ele>497.1</ele>
        <time>2014-10-02T12:42:57Z</time>
      </trkpt>
      <trkpt lat="46.12625" lon="4.46803">
        <ele>495.5</ele>
        <time>2014-10-02T12:42:59Z</time>
      </trkpt>
      <trkpt lat="46.12616" lon="4.4682">
        <ele>494.8</ele>
        <time>2014-10-02T12:43:01Z</time>
      </trkpt>
      <trkpt lat="46.12608" lon="4.46836">
        <ele>494.2</ele>
        <time>2014-10-02T12:43:03Z</time>
      </trkpt>
      <trkpt lat="46.126" lon="4.46853">
        <ele>493.5</ele>
        <time>2014-10-02T12:43:05Z</time>
      </trkpt>
      <trkpt lat="46.12591" lon="4.46869">
        <ele>493.1</ele>
        <time>2014-10-02T12:43:07Z</time>
      </trkpt>
      <trkpt lat="46.12581" lon="4.46884">
        <ele>492.6</ele>
        <time>2014-10-02T12:43:09Z</time>
      </trkpt>
      <trkpt lat="46.1257" lon="4.46896">
        <ele>491.4</ele>
        <time>2014-10-02T12:43:11Z</time>
      </trkpt>
      <trkpt lat="46.12558" lon="4.46906">
        <ele>490.1</ele>
        <time>2014-10-02T12:43:13Z</time>
      </trkpt>
      <trkpt lat="46.12546" lon="4.46915">
        <ele>488.8</ele>
        <time>2014-10-02T12:43:15Z</time>
      </trkpt>
      <trkpt lat="46.12533" lon="4.4692">
        <ele>487.5</ele>
        <time>2014-10-02T12:43:17Z</time>
      </trkpt>
      <trkpt lat="46.12519" lon="4.46922">
        <ele>486</ele>
        <time>2014-10-02T12:43:19Z</time>
      </trkpt>
      <trkpt lat="46.12506" lon="4.4692">
        <ele>485.4</ele>
        <time>2014-10-02T12:43:21Z</time>
      </trkpt>
      <trkpt lat="46.12492" lon="4.46916">
        <ele>484.7</ele>
        <time>2014-10-02T12:43:23Z</time>
      </trkpt>
      <trkpt lat="46.12479" lon="4.46908">
        <ele>484.1</ele>
        <time>2014-10-02T12:43:25Z</time>
      </trkpt>
      <trkpt lat="46.12468" lon="4.46896">
        <ele>483.5</ele>
        <time>2014-10-02T12:43:27Z</time>
      </trkpt>
      <trkpt lat="46.12457" lon="4.46882">
        <ele>483.1</ele>
        <time>2014-10-02T12:43:29Z</time>
      </trkpt>
      <trkpt lat="46.12448" lon="4.46867">
        <ele>482.7</ele>
        <time>2014-10-02T12:43:31Z</time>
      </trkpt>
      <trkpt lat="46.12442" lon="4.4685">
        <ele>482.4</ele>
        <time>2014-10-02T12:43:33Z</time>
      </trkpt>
      <trkpt lat="46.12437" lon="4.46832">
        <ele>482</ele>
        <time>2014-10-02T12:43:35Z</time>
      </trkpt>
      <trkpt lat="46.12433" lon="4.46813">
        <ele>481.6</ele>
        <time>2014-10-02T12:43:37Z</time>
      </trkpt>
      <trkpt lat="46.12432" lon="4.46793">
        <ele>482.5</ele>
        <time>2014-10-02T12:43:39Z</time>
      </trkpt>
      <trkpt lat="46.12431" lon="4.46773">
        <ele>483.5</ele>
        <time>2014-10-02T12:43:41Z</time>
      </trkpt>
      <trkpt lat="46.12429" lon="4.46754">
        <ele>485.2</ele>
        <time>2014-10-02T12:43:43Z</time>
      </trkpt>
      <trkpt lat="46.12426" lon="4.46734">
        <ele>486.8</ele>
        <time>2014-10-02T12:43:45Z</time>
      </trkpt>
      <trkpt lat="46.12421" lon="4.46715">
        <ele>486.7</ele>
        <time>2014-10-02T12:43:47Z</time>
      </trkpt>
      <trkpt lat="46.12415" lon="4.46696">
        <ele>488.9</ele>
        <time>2014-10-02T12:43:49Z</time>
      </trkpt>
      <trkpt lat="46.12408" lon="4.4668">
        <ele>490.6</ele>
        <time>2014-10-02T12:43:51Z</time>
      </trkpt>
      <trkpt lat="46.12399" lon="4.46665">
        <ele>492.4</ele>
        <time>2014-10-02T12:43:53Z</time>
      </trkpt>
      <trkpt lat="46.12388" lon="4.46651">
        <ele>494.1</ele>
        <time>2014-10-02T12:43:55Z</time>
      </trkpt>
      <trkpt lat="46.12377" lon="4.46638">
        <ele>495.8</ele>
        <time>2014-10-02T12:43:57Z</time>
      </trkpt>
      <trkpt lat="46.12364" lon="4.46625">
        <ele>497.5</ele>
        <time>2014-10-02T12:43:59Z</time>
      </trkpt>
      <trkpt lat="46.12351" lon="4.46613">
        <ele>497.1</ele>
        <time>2014-10-02T12:44:01Z</time>
      </trkpt>
      <trkpt lat="46.12336" lon="4.46605">
        <ele>496.6</ele>
        <time>2014-10-02T12:44:03Z</time>
      </trkpt>
      <trkpt lat="46.12328" lon="4.46602">
        <ele>496.2</ele>
        <time>2014-10-02T12:44:04Z</time>
      </trkpt>
      <trkpt lat="46.1232" lon="4.466">
        <ele>495.7</ele>
        <time>2014-10-02T12:44:05Z</time>
      </trkpt>
      <trkpt lat="46.12312" lon="4.46595">
        <ele>497</ele>
        <time>2014-10-02T12:44:06Z</time>
      </trkpt>
      <trkpt lat="46.12296" lon="4.46591">
        <ele>496</ele>
        <time>2014-10-02T12:44:08Z</time>
      </trkpt>
      <trkpt lat="46.12288" lon="4.4659">
        <ele>495</ele>
        <time>2014-10-02T12:44:09Z</time>
      </trkpt>
      <trkpt lat="46.12272" lon="4.46589">
        <ele>494</ele>
        <time>2014-10-02T12:44:11Z</time>
      </trkpt>
      <trkpt lat="46.12255" lon="4.46589">
        <ele>493</ele>
        <time>2014-10-02T12:44:13Z</time>
      </trkpt>
      <trkpt lat="46.12246" lon="4.4659">
        <ele>491.5</ele>
        <time>2014-10-02T12:44:14Z</time>
      </trkpt>
      <trkpt lat="46.12238" lon="4.4659">
        <ele>489.9</ele>
        <time>2014-10-02T12:44:15Z</time>
      </trkpt>
      <trkpt lat="46.12229" lon="4.46591">
        <ele>489.4</ele>
        <time>2014-10-02T12:44:16Z</time>
      </trkpt>
      <trkpt lat="46.12221" lon="4.46591">
        <ele>488.8</ele>
        <time>2014-10-02T12:44:17Z</time>
      </trkpt>
      <trkpt lat="46.12212" lon="4.46591">
        <ele>488.3</ele>
        <time>2014-10-02T12:44:18Z</time>
      </trkpt>
      <trkpt lat="46.12203" lon="4.46592">
        <ele>487.7</ele>
        <time>2014-10-02T12:44:19Z</time>
      </trkpt>
      <trkpt lat="46.12194" lon="4.46592">
        <ele>487.2</ele>
        <time>2014-10-02T12:44:20Z</time>
      </trkpt>
      <trkpt lat="46.12185" lon="4.46592">
        <ele>486.6</ele>
        <time>2014-10-02T12:44:21Z</time>
      </trkpt>
      <trkpt lat="46.12176" lon="4.46593">
        <ele>486.1</ele>
        <time>2014-10-02T12:44:22Z</time>
      </trkpt>
      <trkpt lat="46.12167" lon="4.46594">
        <ele>486.9</ele>
        <time>2014-10-02T12:44:23Z</time>
      </trkpt>
      <trkpt lat="46.12159" lon="4.46595">
        <ele>487.7</ele>
        <time>2014-10-02T12:44:24Z</time>
      </trkpt>
      <trkpt lat="46.1215" lon="4.46596">
        <ele>489.1</ele>
        <time>2014-10-02T12:44:25Z</time>
      </trkpt>
      <trkpt lat="46.12141" lon="4.46597">
        <ele>490.5</ele>
        <time>2014-10-02T12:44:26Z</time>
      </trkpt>
      <trkpt lat="46.12132" lon="4.46599">
        <ele>491.8</ele>
        <time>2014-10-02T12:44:27Z</time>
      </trkpt>
      <trkpt lat="46.12124" lon="4.46601">
        <ele>493.2</ele>
        <time>2014-10-02T12:44:28Z</time>
      </trkpt>
      <trkpt lat="46.12115" lon="4.46604">
        <ele>494.5</ele>
        <time>2014-10-02T12:44:29Z</time>
      </trkpt>
      <trkpt lat="46.12107" lon="4.46608">
        <ele>495.9</ele>
        <time>2014-10-02T12:44:30Z</time>
      </trkpt>
      <trkpt lat="46.12099" lon="4.46611">
        <ele>497.3</ele>
        <time>2014-10-02T12:44:31Z</time>
      </trkpt>
      <trkpt lat="46.1209" lon="4.46614">
        <ele>496.5</ele>
        <time>2014-10-02T12:44:32Z</time>
      </trkpt>
      <trkpt lat="46.12082" lon="4.46617">
        <ele>495.5</ele>
        <time>2014-10-02T12:44:33Z</time>
      </trkpt>
      <trkpt lat="46.12073" lon="4.46622">
        <ele>493.2</ele>
        <time>2014-10-02T12:44:34Z</time>
      </trkpt>
      <trkpt lat="46.12065" lon="4.46625">
        <ele>490.8</ele>
        <time>2014-10-02T12:44:35Z</time>
      </trkpt>
      <trkpt lat="46.12056" lon="4.46629">
        <ele>488.5</ele>
        <time>2014-10-02T12:44:36Z</time>
      </trkpt>
      <trkpt lat="46.12048" lon="4.46633">
        <ele>486.1</ele>
        <time>2014-10-02T12:44:37Z</time>
      </trkpt>
      <trkpt lat="46.1204" lon="4.46636">
        <ele>483.7</ele>
        <time>2014-10-02T12:44:38Z</time>
      </trkpt>
      <trkpt lat="46.12031" lon="4.46639">
        <ele>481.4</ele>
        <time>2014-10-02T12:44:39Z</time>
      </trkpt>
      <trkpt lat="46.12022" lon="4.46641">
        <ele>479</ele>
        <time>2014-10-02T12:44:40Z</time>
      </trkpt>
      <trkpt lat="46.12013" lon="4.46643">
        <ele>476.6</ele>
        <time>2014-10-02T12:44:41Z</time>
      </trkpt>
      <trkpt lat="46.12005" lon="4.46644">
        <ele>474.4</ele>
        <time>2014-10-02T12:44:42Z</time>
      </trkpt>
      <trkpt lat="46.11996" lon="4.46645">
        <ele>474.2</ele>
        <time>2014-10-02T12:44:43Z</time>
      </trkpt>
      <trkpt lat="46.11987" lon="4.46644">
        <ele>474.3</ele>
        <time>2014-10-02T12:44:44Z</time>
      </trkpt>
      <trkpt lat="46.11978" lon="4.46644">
        <ele>474.4</ele>
        <time>2014-10-02T12:44:45Z</time>
      </trkpt>
      <trkpt lat="46.11969" lon="4.46644">
        <ele>474.5</ele>
        <time>2014-10-02T12:44:46Z</time>
      </trkpt>
      <trkpt lat="46.1196" lon="4.46644">
        <ele>474.5</ele>
        <time>2014-10-02T12:44:47Z</time>
      </trkpt>
      <trkpt lat="46.11951" lon="4.46644">
        <ele>474.6</ele>
        <time>2014-10-02T12:44:48Z</time>
      </trkpt>
      <trkpt lat="46.11942" lon="4.46643">
        <ele>474.7</ele>
        <time>2014-10-02T12:44:49Z</time>
      </trkpt>
      <trkpt lat="46.11933" lon="4.46642">
        <ele>474.8</ele>
        <time>2014-10-02T12:44:50Z</time>
      </trkpt>
      <trkpt lat="46.11923" lon="4.46641">
        <ele>474.9</ele>
        <time>2014-10-02T12:44:51Z</time>
      </trkpt>
      <trkpt lat="46.11914" lon="4.46641">
        <ele>475</ele>
        <time>2014-10-02T12:44:52Z</time>
      </trkpt>
      <trkpt lat="46.11905" lon="4.46642">
        <ele>475</ele>
        <time>2014-10-02T12:44:53Z</time>
      </trkpt>
      <trkpt lat="46.11896" lon="4.46643">
        <ele>475</ele>
        <time>2014-10-02T12:44:54Z</time>
      </trkpt>
      <trkpt lat="46.11886" lon="4.46643">
        <ele>475</ele>
        <time>2014-10-02T12:44:55Z</time>
      </trkpt>
      <trkpt lat="46.11877" lon="4.46643">
        <ele>475</ele>
        <time>2014-10-02T12:44:56Z</time>
      </trkpt>
      <trkpt lat="46.11868" lon="4.46644">
        <ele>475</ele>
        <time>2014-10-02T12:44:57Z</time>
      </trkpt>
      <trkpt lat="46.11859" lon="4.46645">
        <ele>475</ele>
        <time>2014-10-02T12:44:58Z</time>
      </trkpt>
      <trkpt lat="46.1185" lon="4.46646">
        <ele>475</ele>
        <time>2014-10-02T12:44:59Z</time>
      </trkpt>
      <trkpt lat="46.11841" lon="4.46648">
        <ele>475.3</ele>
        <time>2014-10-02T12:45:00Z</time>
      </trkpt>
      <trkpt lat="46.11832" lon="4.46649">
        <ele>475.5</ele>
        <time>2014-10-02T12:45:01Z</time>
      </trkpt>
      <trkpt lat="46.11816" lon="4.4665">
        <ele>475.8</ele>
        <time>2014-10-02T12:45:03Z</time>
      </trkpt>
      <trkpt lat="46.11807" lon="4.46652">
        <ele>476.1</ele>
        <time>2014-10-02T12:45:04Z</time>
      </trkpt>
      <trkpt lat="46.11799" lon="4.46654">
        <ele>476.4</ele>
        <time>2014-10-02T12:45:05Z</time>
      </trkpt>
      <trkpt lat="46.1179" lon="4.46657">
        <ele>476.6</ele>
        <time>2014-10-02T12:45:06Z</time>
      </trkpt>
      <trkpt lat="46.11781" lon="4.4666">
        <ele>476.9</ele>
        <time>2014-10-02T12:45:07Z</time>
      </trkpt>
      <trkpt lat="46.11773" lon="4.46663">
        <ele>477.2</ele>
        <time>2014-10-02T12:45:08Z</time>
      </trkpt>
      <trkpt lat="46.11764" lon="4.46665">
        <ele>477.5</ele>
        <time>2014-10-02T12:45:09Z</time>
      </trkpt>
      <trkpt lat="46.11756" lon="4.46668">
        <ele>477.7</ele>
        <time>2014-10-02T12:45:10Z</time>
      </trkpt>
      <trkpt lat="46.11747" lon="4.46671">
        <ele>477.8</ele>
        <time>2014-10-02T12:45:11Z</time>
      </trkpt>
      <trkpt lat="46.11738" lon="4.46673">
        <ele>477.6</ele>
        <time>2014-10-02T12:45:12Z</time>
      </trkpt>
      <trkpt lat="46.11729" lon="4.46674">
        <ele>477.5</ele>
        <time>2014-10-02T12:45:13Z</time>
      </trkpt>
      <trkpt lat="46.1172" lon="4.46674">
        <ele>477.3</ele>
        <time>2014-10-02T12:45:14Z</time>
      </trkpt>
      <trkpt lat="46.11711" lon="4.46675">
        <ele>477.1</ele>
        <time>2014-10-02T12:45:15Z</time>
      </trkpt>
      <trkpt lat="46.11702" lon="4.46675">
        <ele>476.9</ele>
        <time>2014-10-02T12:45:16Z</time>
      </trkpt>
      <trkpt lat="46.11693" lon="4.46676">
        <ele>476.7</ele>
        <time>2014-10-02T12:45:17Z</time>
      </trkpt>
      <trkpt lat="46.11685" lon="4.46676">
        <ele>476.5</ele>
        <time>2014-10-02T12:45:18Z</time>
      </trkpt>
      <trkpt lat="46.11676" lon="4.46677">
        <ele>476.4</ele>
        <time>2014-10-02T12:45:19Z</time>
      </trkpt>
      <trkpt lat="46.11666" lon="4.46678">
        <ele>475.7</ele>
        <time>2014-10-02T12:45:20Z</time>
      </trkpt>
      <trkpt lat="46.11658" lon="4.46678">
        <ele>475.1</ele>
        <time>2014-10-02T12:45:21Z</time>
      </trkpt>
      <trkpt lat="46.11649" lon="4.46679">
        <ele>474.6</ele>
        <time>2014-10-02T12:45:22Z</time>
      </trkpt>
      <trkpt lat="46.11639" lon="4.4668">
        <ele>474.2</ele>
        <time>2014-10-02T12:45:23Z</time>
      </trkpt>
      <trkpt lat="46.11631" lon="4.46681">
        <ele>473.7</ele>
        <time>2014-10-02T12:45:24Z</time>
      </trkpt>
      <trkpt lat="46.11622" lon="4.46682">
        <ele>473.3</ele>
        <time>2014-10-02T12:45:25Z</time>
      </trkpt>
      <trkpt lat="46.11613" lon="4.46682">
        <ele>472.8</ele>
        <time>2014-10-02T12:45:26Z</time>
      </trkpt>
      <trkpt lat="46.11604" lon="4.46683">
        <ele>472.4</ele>
        <time>2014-10-02T12:45:27Z</time>
      </trkpt>
      <trkpt lat="46.11595" lon="4.46683">
        <ele>471.9</ele>
        <time>2014-10-02T12:45:28Z</time>
      </trkpt>
      <trkpt lat="46.11586" lon="4.46682">
        <ele>471</ele>
        <time>2014-10-02T12:45:29Z</time>
      </trkpt>
      <trkpt lat="46.11577" lon="4.46681">
        <ele>470.1</ele>
        <time>2014-10-02T12:45:30Z</time>
      </trkpt>
      <trkpt lat="46.11568" lon="4.46678">
        <ele>469.6</ele>
        <time>2014-10-02T12:45:31Z</time>
      </trkpt>
      <trkpt lat="46.11559" lon="4.46675">
        <ele>469.2</ele>
        <time>2014-10-02T12:45:32Z</time>
      </trkpt>
      <trkpt lat="46.11551" lon="4.46672">
        <ele>468.7</ele>
        <time>2014-10-02T12:45:33Z</time>
      </trkpt>
      <trkpt lat="46.11542" lon="4.46667">
        <ele>468.3</ele>
        <time>2014-10-02T12:45:34Z</time>
      </trkpt>
      <trkpt lat="46.11534" lon="4.46663">
        <ele>467.8</ele>
        <time>2014-10-02T12:45:35Z</time>
      </trkpt>
      <trkpt lat="46.11525" lon="4.46658">
        <ele>468.3</ele>
        <time>2014-10-02T12:45:36Z</time>
      </trkpt>
      <trkpt lat="46.11517" lon="4.46652">
        <ele>468.7</ele>
        <time>2014-10-02T12:45:37Z</time>
      </trkpt>
      <trkpt lat="46.11509" lon="4.46647">
        <ele>469.2</ele>
        <time>2014-10-02T12:45:38Z</time>
      </trkpt>
      <trkpt lat="46.11502" lon="4.46641">
        <ele>469.6</ele>
        <time>2014-10-02T12:45:39Z</time>
      </trkpt>
      <trkpt lat="46.11494" lon="4.46634">
        <ele>469.4</ele>
        <time>2014-10-02T12:45:40Z</time>
      </trkpt>
      <trkpt lat="46.11487" lon="4.46628">
        <ele>469.1</ele>
        <time>2014-10-02T12:45:41Z</time>
      </trkpt>
      <trkpt lat="46.11479" lon="4.46621">
        <ele>468.8</ele>
        <time>2014-10-02T12:45:42Z</time>
      </trkpt>
      <trkpt lat="46.11472" lon="4.46613">
        <ele>468.5</ele>
        <time>2014-10-02T12:45:43Z</time>
      </trkpt>
      <trkpt lat="46.11465" lon="4.46606">
        <ele>468.3</ele>
        <time>2014-10-02T12:45:44Z</time>
      </trkpt>
      <trkpt lat="46.11458" lon="4.46598">
        <ele>468</ele>
        <time>2014-10-02T12:45:45Z</time>
      </trkpt>
      <trkpt lat="46.11451" lon="4.4659">
        <ele>467.7</ele>
        <time>2014-10-02T12:45:46Z</time>
      </trkpt>
      <trkpt lat="46.11444" lon="4.46582">
        <ele>466.5</ele>
        <time>2014-10-02T12:45:47Z</time>
      </trkpt>
      <trkpt lat="46.11436" lon="4.46574">
        <ele>466.9</ele>
        <time>2014-10-02T12:45:48Z</time>
      </trkpt>
      <trkpt lat="46.11427" lon="4.46567">
        <ele>467.3</ele>
        <time>2014-10-02T12:45:49Z</time>
      </trkpt>
      <trkpt lat="46.11418" lon="4.4656">
        <ele>466.8</ele>
        <time>2014-10-02T12:45:50Z</time>
      </trkpt>
      <trkpt lat="46.1141" lon="4.46555">
        <ele>467.5</ele>
        <time>2014-10-02T12:45:51Z</time>
      </trkpt>
      <trkpt lat="46.11401" lon="4.4655">
        <ele>468.3</ele>
        <time>2014-10-02T12:45:52Z</time>
      </trkpt>
      <trkpt lat="46.11391" lon="4.46547">
        <ele>469</ele>
        <time>2014-10-02T12:45:53Z</time>
      </trkpt>
      <trkpt lat="46.11381" lon="4.46544">
        <ele>469.7</ele>
        <time>2014-10-02T12:45:54Z</time>
      </trkpt>
      <trkpt lat="46.11371" lon="4.46542">
        <ele>470.5</ele>
        <time>2014-10-02T12:45:55Z</time>
      </trkpt>
      <trkpt lat="46.11361" lon="4.46541">
        <ele>471.2</ele>
        <time>2014-10-02T12:45:56Z</time>
      </trkpt>
      <trkpt lat="46.11351" lon="4.46542">
        <ele>471.9</ele>
        <time>2014-10-02T12:45:57Z</time>
      </trkpt>
      <trkpt lat="46.11341" lon="4.46544">
        <ele>471.6</ele>
        <time>2014-10-02T12:45:58Z</time>
      </trkpt>
      <trkpt lat="46.11332" lon="4.46542">
        <ele>469.8</ele>
        <time>2014-10-02T12:45:59Z</time>
      </trkpt>
      <trkpt lat="46.11322" lon="4.46543">
        <ele>468</ele>
        <time>2014-10-02T12:46:00Z</time>
      </trkpt>
      <trkpt lat="46.11313" lon="4.46546">
        <ele>467</ele>
        <time>2014-10-02T12:46:01Z</time>
      </trkpt>
      <trkpt lat="46.11303" lon="4.46549">
        <ele>466</ele>
        <time>2014-10-02T12:46:02Z</time>
      </trkpt>
      <trkpt lat="46.11294" lon="4.46552">
        <ele>465</ele>
        <time>2014-10-02T12:46:03Z</time>
      </trkpt>
      <trkpt lat="46.11284" lon="4.46555">
        <ele>464</ele>
        <time>2014-10-02T12:46:04Z</time>
      </trkpt>
      <trkpt lat="46.11275" lon="4.46558">
        <ele>463</ele>
        <time>2014-10-02T12:46:05Z</time>
      </trkpt>
      <trkpt lat="46.11266" lon="4.46563">
        <ele>462</ele>
        <time>2014-10-02T12:46:06Z</time>
      </trkpt>
      <trkpt lat="46.11257" lon="4.46567">
        <ele>461</ele>
        <time>2014-10-02T12:46:07Z</time>
      </trkpt>
      <trkpt lat="46.11248" lon="4.46572">
        <ele>461.8</ele>
        <time>2014-10-02T12:46:08Z</time>
      </trkpt>
      <trkpt lat="46.11239" lon="4.46577">
        <ele>463.6</ele>
        <time>2014-10-02T12:46:09Z</time>
      </trkpt>
      <trkpt lat="46.1123" lon="4.46582">
        <ele>465.5</ele>
        <time>2014-10-02T12:46:10Z</time>
      </trkpt>
      <trkpt lat="46.11222" lon="4.46586">
        <ele>467.3</ele>
        <time>2014-10-02T12:46:11Z</time>
      </trkpt>
      <trkpt lat="46.11213" lon="4.46591">
        <ele>469.1</ele>
        <time>2014-10-02T12:46:12Z</time>
      </trkpt>
      <trkpt lat="46.11205" lon="4.46595">
        <ele>470.9</ele>
        <time>2014-10-02T12:46:13Z</time>
      </trkpt>
      <trkpt lat="46.11197" lon="4.466">
        <ele>472.7</ele>
        <time>2014-10-02T12:46:14Z</time>
      </trkpt>
      <trkpt lat="46.11189" lon="4.46604">
        <ele>474.5</ele>
        <time>2014-10-02T12:46:15Z</time>
      </trkpt>
      <trkpt lat="46.1118" lon="4.46609">
        <ele>476.4</ele>
        <time>2014-10-02T12:46:16Z</time>
      </trkpt>
      <trkpt lat="46.11172" lon="4.46613">
        <ele>476.6</ele>
        <time>2014-10-02T12:46:17Z</time>
      </trkpt>
      <trkpt lat="46.11164" lon="4.46617">
        <ele>476.7</ele>
        <time>2014-10-02T12:46:18Z</time>
      </trkpt>
      <trkpt lat="46.11156" lon="4.46622">
        <ele>475</ele>
        <time>2014-10-02T12:46:19Z</time>
      </trkpt>
      <trkpt lat="46.11148" lon="4.46626">
        <ele>473.3</ele>
        <time>2014-10-02T12:46:20Z</time>
      </trkpt>
      <trkpt lat="46.1114" lon="4.46631">
        <ele>471.5</ele>
        <time>2014-10-02T12:46:21Z</time>
      </trkpt>
      <trkpt lat="46.11133" lon="4.46635">
        <ele>469.8</ele>
        <time>2014-10-02T12:46:22Z</time>
      </trkpt>
      <trkpt lat="46.11125" lon="4.4664">
        <ele>468.1</ele>
        <time>2014-10-02T12:46:23Z</time>
      </trkpt>
      <trkpt lat="46.11117" lon="4.46646">
        <ele>466.4</ele>
        <time>2014-10-02T12:46:24Z</time>
      </trkpt>
      <trkpt lat="46.11109" lon="4.46648">
        <ele>464.6</ele>
        <time>2014-10-02T12:46:25Z</time>
      </trkpt>
      <trkpt lat="46.111" lon="4.46653">
        <ele>462.9</ele>
        <time>2014-10-02T12:46:26Z</time>
      </trkpt>
      <trkpt lat="46.11092" lon="4.46657">
        <ele>461.2</ele>
        <time>2014-10-02T12:46:27Z</time>
      </trkpt>
      <trkpt lat="46.11084" lon="4.46663">
        <ele>461.7</ele>
        <time>2014-10-02T12:46:28Z</time>
      </trkpt>
      <trkpt lat="46.11076" lon="4.46668">
        <ele>462.5</ele>
        <time>2014-10-02T12:46:29Z</time>
      </trkpt>
      <trkpt lat="46.11067" lon="4.46672">
        <ele>463.2</ele>
        <time>2014-10-02T12:46:30Z</time>
      </trkpt>
      <trkpt lat="46.11059" lon="4.46674">
        <ele>463.9</ele>
        <time>2014-10-02T12:46:31Z</time>
      </trkpt>
      <trkpt lat="46.1105" lon="4.46677">
        <ele>464.6</ele>
        <time>2014-10-02T12:46:32Z</time>
      </trkpt>
      <trkpt lat="46.11042" lon="4.46679">
        <ele>465.4</ele>
        <time>2014-10-02T12:46:33Z</time>
      </trkpt>
      <trkpt lat="46.11033" lon="4.46682">
        <ele>466.1</ele>
        <time>2014-10-02T12:46:34Z</time>
      </trkpt>
      <trkpt lat="46.11025" lon="4.46684">
        <ele>466.8</ele>
        <time>2014-10-02T12:46:35Z</time>
      </trkpt>
      <trkpt lat="46.11016" lon="4.46685">
        <ele>467.5</ele>
        <time>2014-10-02T12:46:36Z</time>
      </trkpt>
      <trkpt lat="46.11008" lon="4.46687">
        <ele>468.3</ele>
        <time>2014-10-02T12:46:37Z</time>
      </trkpt>
      <trkpt lat="46.10999" lon="4.46689">
        <ele>470</ele>
        <time>2014-10-02T12:46:38Z</time>
      </trkpt>
      <trkpt lat="46.10991" lon="4.46691">
        <ele>471</ele>
        <time>2014-10-02T12:46:39Z</time>
      </trkpt>
      <trkpt lat="46.10983" lon="4.46693">
        <ele>470</ele>
        <time>2014-10-02T12:46:40Z</time>
      </trkpt>
      <trkpt lat="46.10974" lon="4.46695">
        <ele>469</ele>
        <time>2014-10-02T12:46:41Z</time>
      </trkpt>
      <trkpt lat="46.10966" lon="4.46698">
        <ele>468</ele>
        <time>2014-10-02T12:46:42Z</time>
      </trkpt>
      <trkpt lat="46.10958" lon="4.46702">
        <ele>467</ele>
        <time>2014-10-02T12:46:43Z</time>
      </trkpt>
      <trkpt lat="46.10943" lon="4.4671">
        <ele>466</ele>
        <time>2014-10-02T12:46:45Z</time>
      </trkpt>
      <trkpt lat="46.10935" lon="4.46715">
        <ele>465</ele>
        <time>2014-10-02T12:46:46Z</time>
      </trkpt>
      <trkpt lat="46.10921" lon="4.46726">
        <ele>464.5</ele>
        <time>2014-10-02T12:46:48Z</time>
      </trkpt>
      <trkpt lat="46.10907" lon="4.46734">
        <ele>464.1</ele>
        <time>2014-10-02T12:46:50Z</time>
      </trkpt>
      <trkpt lat="46.109" lon="4.4674">
        <ele>463.6</ele>
        <time>2014-10-02T12:46:51Z</time>
      </trkpt>
      <trkpt lat="46.10893" lon="4.46745">
        <ele>462.2</ele>
        <time>2014-10-02T12:46:52Z</time>
      </trkpt>
      <trkpt lat="46.10885" lon="4.4675">
        <ele>460.7</ele>
        <time>2014-10-02T12:46:53Z</time>
      </trkpt>
      <trkpt lat="46.10877" lon="4.46755">
        <ele>461.3</ele>
        <time>2014-10-02T12:46:54Z</time>
      </trkpt>
      <trkpt lat="46.1087" lon="4.46762">
        <ele>460.6</ele>
        <time>2014-10-02T12:46:55Z</time>
      </trkpt>
      <trkpt lat="46.10862" lon="4.46766">
        <ele>460</ele>
        <time>2014-10-02T12:46:56Z</time>
      </trkpt>
      <trkpt lat="46.10854" lon="4.46771">
        <ele>459.4</ele>
        <time>2014-10-02T12:46:57Z</time>
      </trkpt>
      <trkpt lat="46.10839" lon="4.46782">
        <ele>458.9</ele>
        <time>2014-10-02T12:46:59Z</time>
      </trkpt>
      <trkpt lat="46.10826" lon="4.46794">
        <ele>458.5</ele>
        <time>2014-10-02T12:47:01Z</time>
      </trkpt>
      <trkpt lat="46.10818" lon="4.468">
        <ele>457.5</ele>
        <time>2014-10-02T12:47:02Z</time>
      </trkpt>
      <trkpt lat="46.10811" lon="4.46805">
        <ele>456.5</ele>
        <time>2014-10-02T12:47:03Z</time>
      </trkpt>
      <trkpt lat="46.10804" lon="4.46811">
        <ele>455.5</ele>
        <time>2014-10-02T12:47:04Z</time>
      </trkpt>
      <trkpt lat="46.10796" lon="4.46816">
        <ele>454.5</ele>
        <time>2014-10-02T12:47:05Z</time>
      </trkpt>
      <trkpt lat="46.10781" lon="4.46825">
        <ele>453.5</ele>
        <time>2014-10-02T12:47:07Z</time>
      </trkpt>
      <trkpt lat="46.10774" lon="4.46828">
        <ele>452.5</ele>
        <time>2014-10-02T12:47:08Z</time>
      </trkpt>
      <trkpt lat="46.10765" lon="4.46831">
        <ele>452.5</ele>
        <time>2014-10-02T12:47:09Z</time>
      </trkpt>
      <trkpt lat="46.1075" lon="4.46835">
        <ele>452.5</ele>
        <time>2014-10-02T12:47:11Z</time>
      </trkpt>
      <trkpt lat="46.10734" lon="4.46837">
        <ele>452.5</ele>
        <time>2014-10-02T12:47:13Z</time>
      </trkpt>
      <trkpt lat="46.10726" lon="4.46838">
        <ele>452.3</ele>
        <time>2014-10-02T12:47:14Z</time>
      </trkpt>
      <trkpt lat="46.10711" lon="4.46838">
        <ele>452.1</ele>
        <time>2014-10-02T12:47:16Z</time>
      </trkpt>
      <trkpt lat="46.10695" lon="4.46838">
        <ele>451.5</ele>
        <time>2014-10-02T12:47:18Z</time>
      </trkpt>
      <trkpt lat="46.1068" lon="4.46837">
        <ele>450.8</ele>
        <time>2014-10-02T12:47:20Z</time>
      </trkpt>
      <trkpt lat="46.10665" lon="4.46834">
        <ele>450.2</ele>
        <time>2014-10-02T12:47:22Z</time>
      </trkpt>
      <trkpt lat="46.10652" lon="4.46829">
        <ele>449.5</ele>
        <time>2014-10-02T12:47:24Z</time>
      </trkpt>
      <trkpt lat="46.10638" lon="4.46825">
        <ele>448.9</ele>
        <time>2014-10-02T12:47:26Z</time>
      </trkpt>
      <trkpt lat="46.10624" lon="4.46821">
        <ele>448.3</ele>
        <time>2014-10-02T12:47:28Z</time>
      </trkpt>
      <trkpt lat="46.1061" lon="4.46818">
        <ele>447.5</ele>
        <time>2014-10-02T12:47:30Z</time>
      </trkpt>
      <trkpt lat="46.10595" lon="4.46813">
        <ele>446.8</ele>
        <time>2014-10-02T12:47:32Z</time>
      </trkpt>
      <trkpt lat="46.10581" lon="4.46809">
        <ele>447</ele>
        <time>2014-10-02T12:47:34Z</time>
      </trkpt>
      <trkpt lat="46.10566" lon="4.46805">
        <ele>447.2</ele>
        <time>2014-10-02T12:47:36Z</time>
      </trkpt>
      <trkpt lat="46.10552" lon="4.46802">
        <ele>447.4</ele>
        <time>2014-10-02T12:47:38Z</time>
      </trkpt>
      <trkpt lat="46.10539" lon="4.46799">
        <ele>447.1</ele>
        <time>2014-10-02T12:47:40Z</time>
      </trkpt>
      <trkpt lat="46.10525" lon="4.46797">
        <ele>447.5</ele>
        <time>2014-10-02T12:47:42Z</time>
      </trkpt>
      <trkpt lat="46.1051" lon="4.46795">
        <ele>447.8</ele>
        <time>2014-10-02T12:47:44Z</time>
      </trkpt>
      <trkpt lat="46.10495" lon="4.46795">
        <ele>448.2</ele>
        <time>2014-10-02T12:47:46Z</time>
      </trkpt>
      <trkpt lat="46.1048" lon="4.46796">
        <ele>448.5</ele>
        <time>2014-10-02T12:47:48Z</time>
      </trkpt>
      <trkpt lat="46.10465" lon="4.46798">
        <ele>448.9</ele>
        <time>2014-10-02T12:47:50Z</time>
      </trkpt>
      <trkpt lat="46.1045" lon="4.46802">
        <ele>450.1</ele>
        <time>2014-10-02T12:47:52Z</time>
      </trkpt>
      <trkpt lat="46.10435" lon="4.46809">
        <ele>451.3</ele>
        <time>2014-10-02T12:47:54Z</time>
      </trkpt>
      <trkpt lat="46.10421" lon="4.46816">
        <ele>451.5</ele>
        <time>2014-10-02T12:47:56Z</time>
      </trkpt>
      <trkpt lat="46.10406" lon="4.46824">
        <ele>451.8</ele>
        <time>2014-10-02T12:47:58Z</time>
      </trkpt>
      <trkpt lat="46.10391" lon="4.46831">
        <ele>452.1</ele>
        <time>2014-10-02T12:48:00Z</time>
      </trkpt>
      <trkpt lat="46.10377" lon="4.4684">
        <ele>453.3</ele>
        <time>2014-10-02T12:48:02Z</time>
      </trkpt>
      <trkpt lat="46.10363" lon="4.46847">
        <ele>452.5</ele>
        <time>2014-10-02T12:48:04Z</time>
      </trkpt>
      <trkpt lat="46.10348" lon="4.46855">
        <ele>452.4</ele>
        <time>2014-10-02T12:48:06Z</time>
      </trkpt>
      <trkpt lat="46.10341" lon="4.46859">
        <ele>452.3</ele>
        <time>2014-10-02T12:48:07Z</time>
      </trkpt>
      <trkpt lat="46.10333" lon="4.46863">
        <ele>452.2</ele>
        <time>2014-10-02T12:48:08Z</time>
      </trkpt>
      <trkpt lat="46.10318" lon="4.46871">
        <ele>452.1</ele>
        <time>2014-10-02T12:48:10Z</time>
      </trkpt>
      <trkpt lat="46.10304" lon="4.46881">
        <ele>451.5</ele>
        <time>2014-10-02T12:48:12Z</time>
      </trkpt>
      <trkpt lat="46.10289" lon="4.46891">
        <ele>450.8</ele>
        <time>2014-10-02T12:48:14Z</time>
      </trkpt>
      <trkpt lat="46.10275" lon="4.46902">
        <ele>450.2</ele>
        <time>2014-10-02T12:48:16Z</time>
      </trkpt>
      <trkpt lat="46.10268" lon="4.46909">
        <ele>449.5</ele>
        <time>2014-10-02T12:48:17Z</time>
      </trkpt>
      <trkpt lat="46.10261" lon="4.46915">
        <ele>450.4</ele>
        <time>2014-10-02T12:48:18Z</time>
      </trkpt>
      <trkpt lat="46.10253" lon="4.4692">
        <ele>449.5</ele>
        <time>2014-10-02T12:48:19Z</time>
      </trkpt>
      <trkpt lat="46.10246" lon="4.46926">
        <ele>450.1</ele>
        <time>2014-10-02T12:48:20Z</time>
      </trkpt>
      <trkpt lat="46.10232" lon="4.46937">
        <ele>449.9</ele>
        <time>2014-10-02T12:48:22Z</time>
      </trkpt>
      <trkpt lat="46.10219" lon="4.46948">
        <ele>449.7</ele>
        <time>2014-10-02T12:48:24Z</time>
      </trkpt>
      <trkpt lat="46.10205" lon="4.46959">
        <ele>449.5</ele>
        <time>2014-10-02T12:48:26Z</time>
      </trkpt>
      <trkpt lat="46.10191" lon="4.4697">
        <ele>449.4</ele>
        <time>2014-10-02T12:48:28Z</time>
      </trkpt>
      <trkpt lat="46.10184" lon="4.46976">
        <ele>449.2</ele>
        <time>2014-10-02T12:48:29Z</time>
      </trkpt>
      <trkpt lat="46.10177" lon="4.46981">
        <ele>449</ele>
        <time>2014-10-02T12:48:30Z</time>
      </trkpt>
      <trkpt lat="46.10169" lon="4.46987">
        <ele>448.8</ele>
        <time>2014-10-02T12:48:31Z</time>
      </trkpt>
      <trkpt lat="46.10161" lon="4.46992">
        <ele>449.6</ele>
        <time>2014-10-02T12:48:32Z</time>
      </trkpt>
      <trkpt lat="46.10154" lon="4.46998">
        <ele>449</ele>
        <time>2014-10-02T12:48:33Z</time>
      </trkpt>
      <trkpt lat="46.10146" lon="4.47004">
        <ele>450</ele>
        <time>2014-10-02T12:48:34Z</time>
      </trkpt>
      <trkpt lat="46.10139" lon="4.4701">
        <ele>451</ele>
        <time>2014-10-02T12:48:35Z</time>
      </trkpt>
      <trkpt lat="46.10131" lon="4.47015">
        <ele>450.4</ele>
        <time>2014-10-02T12:48:36Z</time>
      </trkpt>
      <trkpt lat="46.10123" lon="4.47022">
        <ele>449.7</ele>
        <time>2014-10-02T12:48:37Z</time>
      </trkpt>
      <trkpt lat="46.10115" lon="4.47028">
        <ele>449.1</ele>
        <time>2014-10-02T12:48:38Z</time>
      </trkpt>
      <trkpt lat="46.10107" lon="4.47034">
        <ele>448.5</ele>
        <time>2014-10-02T12:48:39Z</time>
      </trkpt>
      <trkpt lat="46.10099" lon="4.47041">
        <ele>447.8</ele>
        <time>2014-10-02T12:48:40Z</time>
      </trkpt>
      <trkpt lat="46.10091" lon="4.47046">
        <ele>447.2</ele>
        <time>2014-10-02T12:48:41Z</time>
      </trkpt>
      <trkpt lat="46.10084" lon="4.47053">
        <ele>446.5</ele>
        <time>2014-10-02T12:48:42Z</time>
      </trkpt>
      <trkpt lat="46.10076" lon="4.47059">
        <ele>445.1</ele>
        <time>2014-10-02T12:48:43Z</time>
      </trkpt>
      <trkpt lat="46.10069" lon="4.47065">
        <ele>443.6</ele>
        <time>2014-10-02T12:48:44Z</time>
      </trkpt>
      <trkpt lat="46.10062" lon="4.4707">
        <ele>442.2</ele>
        <time>2014-10-02T12:48:45Z</time>
      </trkpt>
      <trkpt lat="46.10054" lon="4.47077">
        <ele>440.7</ele>
        <time>2014-10-02T12:48:46Z</time>
      </trkpt>
      <trkpt lat="46.10046" lon="4.47082">
        <ele>440.9</ele>
        <time>2014-10-02T12:48:47Z</time>
      </trkpt>
      <trkpt lat="46.10038" lon="4.47088">
        <ele>441.1</ele>
        <time>2014-10-02T12:48:48Z</time>
      </trkpt>
      <trkpt lat="46.1003" lon="4.47093">
        <ele>441.3</ele>
        <time>2014-10-02T12:48:49Z</time>
      </trkpt>
      <trkpt lat="46.10021" lon="4.47099">
        <ele>441.5</ele>
        <time>2014-10-02T12:48:50Z</time>
      </trkpt>
      <trkpt lat="46.10013" lon="4.47104">
        <ele>441.6</ele>
        <time>2014-10-02T12:48:51Z</time>
      </trkpt>
      <trkpt lat="46.10005" lon="4.47108">
        <ele>442.1</ele>
        <time>2014-10-02T12:48:52Z</time>
      </trkpt>
      <trkpt lat="46.09997" lon="4.47113">
        <ele>442.5</ele>
        <time>2014-10-02T12:48:53Z</time>
      </trkpt>
      <trkpt lat="46.09987" lon="4.47117">
        <ele>442.8</ele>
        <time>2014-10-02T12:48:54Z</time>
      </trkpt>
      <trkpt lat="46.09979" lon="4.47121">
        <ele>443.1</ele>
        <time>2014-10-02T12:48:55Z</time>
      </trkpt>
      <trkpt lat="46.0997" lon="4.47125">
        <ele>443.4</ele>
        <time>2014-10-02T12:48:56Z</time>
      </trkpt>
      <trkpt lat="46.09961" lon="4.47128">
        <ele>442.5</ele>
        <time>2014-10-02T12:48:57Z</time>
      </trkpt>
      <trkpt lat="46.09952" lon="4.4713">
        <ele>441.7</ele>
        <time>2014-10-02T12:48:58Z</time>
      </trkpt>
      <trkpt lat="46.09943" lon="4.47132">
        <ele>440.9</ele>
        <time>2014-10-02T12:48:59Z</time>
      </trkpt>
      <trkpt lat="46.09934" lon="4.47135">
        <ele>440.1</ele>
        <time>2014-10-02T12:49:00Z</time>
      </trkpt>
      <trkpt lat="46.09925" lon="4.47137">
        <ele>439.3</ele>
        <time>2014-10-02T12:49:01Z</time>
      </trkpt>
      <trkpt lat="46.09916" lon="4.47139">
        <ele>438.6</ele>
        <time>2014-10-02T12:49:02Z</time>
      </trkpt>
      <trkpt lat="46.09907" lon="4.47142">
        <ele>437.7</ele>
        <time>2014-10-02T12:49:03Z</time>
      </trkpt>
      <trkpt lat="46.09899" lon="4.47144">
        <ele>436.8</ele>
        <time>2014-10-02T12:49:04Z</time>
      </trkpt>
      <trkpt lat="46.0989" lon="4.47146">
        <ele>435.9</ele>
        <time>2014-10-02T12:49:05Z</time>
      </trkpt>
      <trkpt lat="46.09881" lon="4.47147">
        <ele>435</ele>
        <time>2014-10-02T12:49:06Z</time>
      </trkpt>
      <trkpt lat="46.09873" lon="4.47147">
        <ele>434.1</ele>
        <time>2014-10-02T12:49:07Z</time>
      </trkpt>
      <trkpt lat="46.09863" lon="4.47148">
        <ele>434.3</ele>
        <time>2014-10-02T12:49:08Z</time>
      </trkpt>
      <trkpt lat="46.09855" lon="4.47147">
        <ele>436.1</ele>
        <time>2014-10-02T12:49:09Z</time>
      </trkpt>
      <trkpt lat="46.09846" lon="4.47146">
        <ele>437.9</ele>
        <time>2014-10-02T12:49:10Z</time>
      </trkpt>
      <trkpt lat="46.09837" lon="4.47144">
        <ele>439</ele>
        <time>2014-10-02T12:49:11Z</time>
      </trkpt>
      <trkpt lat="46.09829" lon="4.47142">
        <ele>440.1</ele>
        <time>2014-10-02T12:49:12Z</time>
      </trkpt>
      <trkpt lat="46.0982" lon="4.4714">
        <ele>441</ele>
        <time>2014-10-02T12:49:13Z</time>
      </trkpt>
      <trkpt lat="46.09811" lon="4.47138">
        <ele>441.9</ele>
        <time>2014-10-02T12:49:14Z</time>
      </trkpt>
      <trkpt lat="46.09803" lon="4.47135">
        <ele>442.8</ele>
        <time>2014-10-02T12:49:15Z</time>
      </trkpt>
      <trkpt lat="46.09794" lon="4.47133">
        <ele>443.7</ele>
        <time>2014-10-02T12:49:16Z</time>
      </trkpt>
      <trkpt lat="46.09785" lon="4.4713">
        <ele>444.6</ele>
        <time>2014-10-02T12:49:17Z</time>
      </trkpt>
      <trkpt lat="46.09777" lon="4.47127">
        <ele>445.5</ele>
        <time>2014-10-02T12:49:18Z</time>
      </trkpt>
      <trkpt lat="46.09769" lon="4.47125">
        <ele>446.5</ele>
        <time>2014-10-02T12:49:19Z</time>
      </trkpt>
      <trkpt lat="46.0976" lon="4.47122">
        <ele>445.7</ele>
        <time>2014-10-02T12:49:20Z</time>
      </trkpt>
      <trkpt lat="46.09752" lon="4.4712">
        <ele>445</ele>
        <time>2014-10-02T12:49:21Z</time>
      </trkpt>
      <trkpt lat="46.09744" lon="4.47117">
        <ele>444.1</ele>
        <time>2014-10-02T12:49:22Z</time>
      </trkpt>
      <trkpt lat="46.09736" lon="4.47114">
        <ele>443.2</ele>
        <time>2014-10-02T12:49:23Z</time>
      </trkpt>
      <trkpt lat="46.09728" lon="4.47112">
        <ele>442.3</ele>
        <time>2014-10-02T12:49:24Z</time>
      </trkpt>
      <trkpt lat="46.09719" lon="4.47109">
        <ele>441.4</ele>
        <time>2014-10-02T12:49:25Z</time>
      </trkpt>
      <trkpt lat="46.09711" lon="4.47106">
        <ele>440.5</ele>
        <time>2014-10-02T12:49:26Z</time>
      </trkpt>
      <trkpt lat="46.09703" lon="4.47102">
        <ele>439.5</ele>
        <time>2014-10-02T12:49:27Z</time>
      </trkpt>
      <trkpt lat="46.09695" lon="4.471">
        <ele>438.6</ele>
        <time>2014-10-02T12:49:28Z</time>
      </trkpt>
      <trkpt lat="46.09687" lon="4.47096">
        <ele>437.7</ele>
        <time>2014-10-02T12:49:29Z</time>
      </trkpt>
      <trkpt lat="46.09678" lon="4.47094">
        <ele>436.8</ele>
        <time>2014-10-02T12:49:30Z</time>
      </trkpt>
      <trkpt lat="46.09663" lon="4.47088">
        <ele>435.6</ele>
        <time>2014-10-02T12:49:32Z</time>
      </trkpt>
      <trkpt lat="46.09654" lon="4.47084">
        <ele>434.5</ele>
        <time>2014-10-02T12:49:33Z</time>
      </trkpt>
      <trkpt lat="46.09647" lon="4.4708">
        <ele>434.2</ele>
        <time>2014-10-02T12:49:34Z</time>
      </trkpt>
      <trkpt lat="46.09638" lon="4.47077">
        <ele>433.9</ele>
        <time>2014-10-02T12:49:35Z</time>
      </trkpt>
      <trkpt lat="46.09631" lon="4.47072">
        <ele>433.6</ele>
        <time>2014-10-02T12:49:36Z</time>
      </trkpt>
      <trkpt lat="46.09623" lon="4.47069">
        <ele>433.4</ele>
        <time>2014-10-02T12:49:37Z</time>
      </trkpt>
      <trkpt lat="46.09614" lon="4.47067">
        <ele>433.1</ele>
        <time>2014-10-02T12:49:38Z</time>
      </trkpt>
      <trkpt lat="46.09605" lon="4.47065">
        <ele>432.8</ele>
        <time>2014-10-02T12:49:39Z</time>
      </trkpt>
      <trkpt lat="46.09597" lon="4.47064">
        <ele>432.5</ele>
        <time>2014-10-02T12:49:40Z</time>
      </trkpt>
      <trkpt lat="46.09588" lon="4.47063">
        <ele>432.3</ele>
        <time>2014-10-02T12:49:41Z</time>
      </trkpt>
      <trkpt lat="46.09579" lon="4.47063">
        <ele>432.5</ele>
        <time>2014-10-02T12:49:42Z</time>
      </trkpt>
      <trkpt lat="46.09571" lon="4.47064">
        <ele>433.1</ele>
        <time>2014-10-02T12:49:43Z</time>
      </trkpt>
      <trkpt lat="46.09563" lon="4.47066">
        <ele>433.6</ele>
        <time>2014-10-02T12:49:44Z</time>
      </trkpt>
      <trkpt lat="46.09554" lon="4.47068">
        <ele>434.2</ele>
        <time>2014-10-02T12:49:45Z</time>
      </trkpt>
      <trkpt lat="46.09546" lon="4.4707">
        <ele>434.7</ele>
        <time>2014-10-02T12:49:46Z</time>
      </trkpt>
      <trkpt lat="46.09538" lon="4.47073">
        <ele>435.3</ele>
        <time>2014-10-02T12:49:47Z</time>
      </trkpt>
      <trkpt lat="46.09529" lon="4.47076">
        <ele>435.8</ele>
        <time>2014-10-02T12:49:48Z</time>
      </trkpt>
      <trkpt lat="46.09521" lon="4.47079">
        <ele>436.4</ele>
        <time>2014-10-02T12:49:49Z</time>
      </trkpt>
      <trkpt lat="46.09513" lon="4.47083">
        <ele>436.9</ele>
        <time>2014-10-02T12:49:50Z</time>
      </trkpt>
      <trkpt lat="46.09505" lon="4.47087">
        <ele>438.4</ele>
        <time>2014-10-02T12:49:51Z</time>
      </trkpt>
      <trkpt lat="46.09497" lon="4.47091">
        <ele>439.8</ele>
        <time>2014-10-02T12:49:52Z</time>
      </trkpt>
      <trkpt lat="46.09482" lon="4.47096">
        <ele>440.7</ele>
        <time>2014-10-02T12:49:54Z</time>
      </trkpt>
      <trkpt lat="46.09475" lon="4.47101">
        <ele>441.6</ele>
        <time>2014-10-02T12:49:55Z</time>
      </trkpt>
      <trkpt lat="46.09467" lon="4.47106">
        <ele>440.6</ele>
        <time>2014-10-02T12:49:56Z</time>
      </trkpt>
      <trkpt lat="46.0946" lon="4.47112">
        <ele>439.6</ele>
        <time>2014-10-02T12:49:57Z</time>
      </trkpt>
      <trkpt lat="46.09452" lon="4.47118">
        <ele>438.6</ele>
        <time>2014-10-02T12:49:58Z</time>
      </trkpt>
      <trkpt lat="46.09445" lon="4.47124">
        <ele>437.6</ele>
        <time>2014-10-02T12:49:59Z</time>
      </trkpt>
      <trkpt lat="46.09431" lon="4.47137">
        <ele>436.6</ele>
        <time>2014-10-02T12:50:01Z</time>
      </trkpt>
      <trkpt lat="46.09418" lon="4.47149">
        <ele>435.6</ele>
        <time>2014-10-02T12:50:03Z</time>
      </trkpt>
      <trkpt lat="46.09411" lon="4.47155">
        <ele>436</ele>
        <time>2014-10-02T12:50:04Z</time>
      </trkpt>
      <trkpt lat="46.09404" lon="4.47162">
        <ele>435.5</ele>
        <time>2014-10-02T12:50:05Z</time>
      </trkpt>
      <trkpt lat="46.09396" lon="4.47168">
        <ele>434.9</ele>
        <time>2014-10-02T12:50:06Z</time>
      </trkpt>
      <trkpt lat="46.09389" lon="4.47174">
        <ele>434.4</ele>
        <time>2014-10-02T12:50:07Z</time>
      </trkpt>
      <trkpt lat="46.09382" lon="4.4718">
        <ele>432.3</ele>
        <time>2014-10-02T12:50:08Z</time>
      </trkpt>
      <trkpt lat="46.09368" lon="4.47191">
        <ele>432.7</ele>
        <time>2014-10-02T12:50:10Z</time>
      </trkpt>
      <trkpt lat="46.09354" lon="4.472">
        <ele>433.2</ele>
        <time>2014-10-02T12:50:12Z</time>
      </trkpt>
      <trkpt lat="46.0934" lon="4.47211">
        <ele>433.6</ele>
        <time>2014-10-02T12:50:14Z</time>
      </trkpt>
      <trkpt lat="46.09326" lon="4.4722">
        <ele>434.1</ele>
        <time>2014-10-02T12:50:16Z</time>
      </trkpt>
      <trkpt lat="46.09312" lon="4.4723">
        <ele>434.5</ele>
        <time>2014-10-02T12:50:18Z</time>
      </trkpt>
      <trkpt lat="46.09298" lon="4.47239">
        <ele>435</ele>
        <time>2014-10-02T12:50:20Z</time>
      </trkpt>
      <trkpt lat="46.09284" lon="4.47249">
        <ele>433</ele>
        <time>2014-10-02T12:50:22Z</time>
      </trkpt>
      <trkpt lat="46.0927" lon="4.47259">
        <ele>431.5</ele>
        <time>2014-10-02T12:50:24Z</time>
      </trkpt>
      <trkpt lat="46.09256" lon="4.47269">
        <ele>429.9</ele>
        <time>2014-10-02T12:50:26Z</time>
      </trkpt>
      <trkpt lat="46.09243" lon="4.47281">
        <ele>428.4</ele>
        <time>2014-10-02T12:50:28Z</time>
      </trkpt>
      <trkpt lat="46.0923" lon="4.47292">
        <ele>428.4</ele>
        <time>2014-10-02T12:50:30Z</time>
      </trkpt>
      <trkpt lat="46.09216" lon="4.47303">
        <ele>427.7</ele>
        <time>2014-10-02T12:50:32Z</time>
      </trkpt>
      <trkpt lat="46.09203" lon="4.47314">
        <ele>427.1</ele>
        <time>2014-10-02T12:50:34Z</time>
      </trkpt>
      <trkpt lat="46.0919" lon="4.47326">
        <ele>427.1</ele>
        <time>2014-10-02T12:50:36Z</time>
      </trkpt>
      <trkpt lat="46.09177" lon="4.47337">
        <ele>426.5</ele>
        <time>2014-10-02T12:50:38Z</time>
      </trkpt>
      <trkpt lat="46.09164" lon="4.47347">
        <ele>426</ele>
        <time>2014-10-02T12:50:40Z</time>
      </trkpt>
      <trkpt lat="46.09151" lon="4.47358">
        <ele>425.5</ele>
        <time>2014-10-02T12:50:42Z</time>
      </trkpt>
      <trkpt lat="46.09138" lon="4.47369">
        <ele>426</ele>
        <time>2014-10-02T12:50:44Z</time>
      </trkpt>
      <trkpt lat="46.09125" lon="4.4738">
        <ele>426.1</ele>
        <time>2014-10-02T12:50:46Z</time>
      </trkpt>
      <trkpt lat="46.09113" lon="4.47392">
        <ele>426.2</ele>
        <time>2014-10-02T12:50:48Z</time>
      </trkpt>
      <trkpt lat="46.091" lon="4.47405">
        <ele>426.4</ele>
        <time>2014-10-02T12:50:50Z</time>
      </trkpt>
      <trkpt lat="46.09089" lon="4.47418">
        <ele>426.5</ele>
        <time>2014-10-02T12:50:52Z</time>
      </trkpt>
      <trkpt lat="46.09076" lon="4.47432">
        <ele>426.7</ele>
        <time>2014-10-02T12:50:54Z</time>
      </trkpt>
      <trkpt lat="46.09065" lon="4.47446">
        <ele>426.9</ele>
        <time>2014-10-02T12:50:56Z</time>
      </trkpt>
      <trkpt lat="46.09054" lon="4.47461">
        <ele>426.5</ele>
        <time>2014-10-02T12:50:58Z</time>
      </trkpt>
      <trkpt lat="46.09043" lon="4.47477">
        <ele>426</ele>
        <time>2014-10-02T12:51:00Z</time>
      </trkpt>
      <trkpt lat="46.09031" lon="4.47494">
        <ele>425.5</ele>
        <time>2014-10-02T12:51:02Z</time>
      </trkpt>
      <trkpt lat="46.09026" lon="4.47502">
        <ele>425.1</ele>
        <time>2014-10-02T12:51:03Z</time>
      </trkpt>
      <trkpt lat="46.09014" lon="4.47518">
        <ele>425.4</ele>
        <time>2014-10-02T12:51:05Z</time>
      </trkpt>
      <trkpt lat="46.09003" lon="4.47534">
        <ele>425.6</ele>
        <time>2014-10-02T12:51:07Z</time>
      </trkpt>
      <trkpt lat="46.08993" lon="4.47551">
        <ele>425.9</ele>
        <time>2014-10-02T12:51:09Z</time>
      </trkpt>
      <trkpt lat="46.08982" lon="4.47567">
        <ele>425.2</ele>
        <time>2014-10-02T12:51:11Z</time>
      </trkpt>
      <trkpt lat="46.08971" lon="4.47584">
        <ele>424.5</ele>
        <time>2014-10-02T12:51:13Z</time>
      </trkpt>
      <trkpt lat="46.08961" lon="4.47599">
        <ele>423.7</ele>
        <time>2014-10-02T12:51:15Z</time>
      </trkpt>
      <trkpt lat="46.0895" lon="4.47615">
        <ele>423</ele>
        <time>2014-10-02T12:51:17Z</time>
      </trkpt>
      <trkpt lat="46.0894" lon="4.47631">
        <ele>422.3</ele>
        <time>2014-10-02T12:51:19Z</time>
      </trkpt>
      <trkpt lat="46.0893" lon="4.47646">
        <ele>422.8</ele>
        <time>2014-10-02T12:51:21Z</time>
      </trkpt>
      <trkpt lat="46.08919" lon="4.47661">
        <ele>423.4</ele>
        <time>2014-10-02T12:51:23Z</time>
      </trkpt>
      <trkpt lat="46.08909" lon="4.47676">
        <ele>423.9</ele>
        <time>2014-10-02T12:51:25Z</time>
      </trkpt>
      <trkpt lat="46.08898" lon="4.47691">
        <ele>423.7</ele>
        <time>2014-10-02T12:51:27Z</time>
      </trkpt>
      <trkpt lat="46.08888" lon="4.47705">
        <ele>423.5</ele>
        <time>2014-10-02T12:51:29Z</time>
      </trkpt>
      <trkpt lat="46.08878" lon="4.47721">
        <ele>423.4</ele>
        <time>2014-10-02T12:51:31Z</time>
      </trkpt>
      <trkpt lat="46.08867" lon="4.47735">
        <ele>423.1</ele>
        <time>2014-10-02T12:51:33Z</time>
      </trkpt>
      <trkpt lat="46.08856" lon="4.47749">
        <ele>422.8</ele>
        <time>2014-10-02T12:51:35Z</time>
      </trkpt>
      <trkpt lat="46.08846" lon="4.47762">
        <ele>423.9</ele>
        <time>2014-10-02T12:51:37Z</time>
      </trkpt>
      <trkpt lat="46.08836" lon="4.47775">
        <ele>425</ele>
        <time>2014-10-02T12:51:39Z</time>
      </trkpt>
      <trkpt lat="46.08824" lon="4.47787">
        <ele>426.1</ele>
        <time>2014-10-02T12:51:41Z</time>
      </trkpt>
      <trkpt lat="46.08813" lon="4.478">
        <ele>426.5</ele>
        <time>2014-10-02T12:51:43Z</time>
      </trkpt>
      <trkpt lat="46.08802" lon="4.47813">
        <ele>425.7</ele>
        <time>2014-10-02T12:51:45Z</time>
      </trkpt>
      <trkpt lat="46.08791" lon="4.47826">
        <ele>425</ele>
        <time>2014-10-02T12:51:47Z</time>
      </trkpt>
      <trkpt lat="46.0878" lon="4.4784">
        <ele>424.3</ele>
        <time>2014-10-02T12:51:49Z</time>
      </trkpt>
      <trkpt lat="46.08769" lon="4.47854">
        <ele>423.5</ele>
        <time>2014-10-02T12:51:51Z</time>
      </trkpt>
      <trkpt lat="46.08759" lon="4.47868">
        <ele>422.8</ele>
        <time>2014-10-02T12:51:53Z</time>
      </trkpt>
      <trkpt lat="46.0875" lon="4.47884">
        <ele>422.6</ele>
        <time>2014-10-02T12:51:55Z</time>
      </trkpt>
      <trkpt lat="46.08741" lon="4.47902">
        <ele>423.1</ele>
        <time>2014-10-02T12:51:57Z</time>
      </trkpt>
      <trkpt lat="46.08733" lon="4.4792">
        <ele>422.2</ele>
        <time>2014-10-02T12:51:59Z</time>
      </trkpt>
      <trkpt lat="46.08725" lon="4.47938">
        <ele>421.3</ele>
        <time>2014-10-02T12:52:01Z</time>
      </trkpt>
      <trkpt lat="46.08718" lon="4.47956">
        <ele>420.2</ele>
        <time>2014-10-02T12:52:03Z</time>
      </trkpt>
      <trkpt lat="46.08712" lon="4.47974">
        <ele>419.1</ele>
        <time>2014-10-02T12:52:05Z</time>
      </trkpt>
      <trkpt lat="46.08705" lon="4.47992">
        <ele>419.1</ele>
        <time>2014-10-02T12:52:07Z</time>
      </trkpt>
      <trkpt lat="46.087" lon="4.48011">
        <ele>419.1</ele>
        <time>2014-10-02T12:52:09Z</time>
      </trkpt>
      <trkpt lat="46.08693" lon="4.4803">
        <ele>419.1</ele>
        <time>2014-10-02T12:52:11Z</time>
      </trkpt>
      <trkpt lat="46.08685" lon="4.48047">
        <ele>419.1</ele>
        <time>2014-10-02T12:52:13Z</time>
      </trkpt>
      <trkpt lat="46.08676" lon="4.48063">
        <ele>419.3</ele>
        <time>2014-10-02T12:52:15Z</time>
      </trkpt>
      <trkpt lat="46.08666" lon="4.48076">
        <ele>419.9</ele>
        <time>2014-10-02T12:52:17Z</time>
      </trkpt>
      <trkpt lat="46.08655" lon="4.48089">
        <ele>419.5</ele>
        <time>2014-10-02T12:52:19Z</time>
      </trkpt>
      <trkpt lat="46.08644" lon="4.481">
        <ele>419.2</ele>
        <time>2014-10-02T12:52:21Z</time>
      </trkpt>
      <trkpt lat="46.08632" lon="4.48111">
        <ele>418.8</ele>
        <time>2014-10-02T12:52:23Z</time>
      </trkpt>
      <trkpt lat="46.0862" lon="4.48121">
        <ele>418.6</ele>
        <time>2014-10-02T12:52:25Z</time>
      </trkpt>
      <trkpt lat="46.08608" lon="4.48131">
        <ele>418.5</ele>
        <time>2014-10-02T12:52:27Z</time>
      </trkpt>
      <trkpt lat="46.08596" lon="4.48142">
        <ele>418.5</ele>
        <time>2014-10-02T12:52:29Z</time>
      </trkpt>
      <trkpt lat="46.08584" lon="4.48153">
        <ele>418.4</ele>
        <time>2014-10-02T12:52:31Z</time>
      </trkpt>
      <trkpt lat="46.08571" lon="4.48164">
        <ele>417.9</ele>
        <time>2014-10-02T12:52:33Z</time>
      </trkpt>
      <trkpt lat="46.08558" lon="4.48176">
        <ele>417.5</ele>
        <time>2014-10-02T12:52:35Z</time>
      </trkpt>
      <trkpt lat="46.08545" lon="4.48188">
        <ele>416.8</ele>
        <time>2014-10-02T12:52:37Z</time>
      </trkpt>
      <trkpt lat="46.08532" lon="4.48201">
        <ele>416.2</ele>
        <time>2014-10-02T12:52:39Z</time>
      </trkpt>
      <trkpt lat="46.08522" lon="4.48211">
        <ele>415.8</ele>
        <time>2014-10-02T12:52:41Z</time>
      </trkpt>
      <trkpt lat="46.08516" lon="4.48223">
        <ele>415.5</ele>
        <time>2014-10-02T12:52:42Z</time>
      </trkpt>
      <trkpt lat="46.08507" lon="4.48223">
        <ele>415.1</ele>
        <time>2014-10-02T12:52:43Z</time>
      </trkpt>
      <trkpt lat="46.08491" lon="4.48228">
        <ele>414.7</ele>
        <time>2014-10-02T12:52:45Z</time>
      </trkpt>
      <trkpt lat="46.08476" lon="4.48231">
        <ele>414.3</ele>
        <time>2014-10-02T12:52:47Z</time>
      </trkpt>
      <trkpt lat="46.08459" lon="4.48231">
        <ele>413.8</ele>
        <time>2014-10-02T12:52:49Z</time>
      </trkpt>
      <trkpt lat="46.08444" lon="4.48231">
        <ele>413.3</ele>
        <time>2014-10-02T12:52:51Z</time>
      </trkpt>
      <trkpt lat="46.08429" lon="4.48231">
        <ele>413.1</ele>
        <time>2014-10-02T12:52:53Z</time>
      </trkpt>
      <trkpt lat="46.08414" lon="4.48232">
        <ele>412.9</ele>
        <time>2014-10-02T12:52:55Z</time>
      </trkpt>
      <trkpt lat="46.084" lon="4.48233">
        <ele>413.9</ele>
        <time>2014-10-02T12:52:57Z</time>
      </trkpt>
      <trkpt lat="46.08387" lon="4.48235">
        <ele>414.9</ele>
        <time>2014-10-02T12:52:59Z</time>
      </trkpt>
      <trkpt lat="46.08375" lon="4.48236">
        <ele>415.9</ele>
        <time>2014-10-02T12:53:01Z</time>
      </trkpt>
      <trkpt lat="46.08364" lon="4.48236">
        <ele>416.9</ele>
        <time>2014-10-02T12:53:03Z</time>
      </trkpt>
      <trkpt lat="46.08358" lon="4.48226">
        <ele>417.9</ele>
        <time>2014-10-02T12:53:06Z</time>
      </trkpt>
      <trkpt lat="46.08367" lon="4.48219">
        <ele>418.9</ele>
        <time>2014-10-02T12:53:10Z</time>
      </trkpt>
      <trkpt lat="46.08376" lon="4.48217">
        <ele>419.9</ele>
        <time>2014-10-02T12:53:13Z</time>
      </trkpt>
      <trkpt lat="46.08384" lon="4.48215">
        <ele>420.9</ele>
        <time>2014-10-02T12:53:16Z</time>
      </trkpt>
      <trkpt lat="46.08394" lon="4.48213">
        <ele>422</ele>
        <time>2014-10-02T12:53:19Z</time>
      </trkpt>
      <trkpt lat="46.08404" lon="4.48211">
        <ele>423.1</ele>
        <time>2014-10-02T12:53:22Z</time>
      </trkpt>
      <trkpt lat="46.08414" lon="4.48209">
        <ele>423.6</ele>
        <time>2014-10-02T12:53:25Z</time>
      </trkpt>
      <trkpt lat="46.08424" lon="4.48206">
        <ele>423</ele>
        <time>2014-10-02T12:53:28Z</time>
      </trkpt>
      <trkpt lat="46.08434" lon="4.48204">
        <ele>422.4</ele>
        <time>2014-10-02T12:53:31Z</time>
      </trkpt>
      <trkpt lat="46.08444" lon="4.48201">
        <ele>421.8</ele>
        <time>2014-10-02T12:53:34Z</time>
      </trkpt>
      <trkpt lat="46.08454" lon="4.48197">
        <ele>421.3</ele>
        <time>2014-10-02T12:53:37Z</time>
      </trkpt>
      <trkpt lat="46.08463" lon="4.48192">
        <ele>420.7</ele>
        <time>2014-10-02T12:53:40Z</time>
      </trkpt>
      <trkpt lat="46.08472" lon="4.48186">
        <ele>420.8</ele>
        <time>2014-10-02T12:53:43Z</time>
      </trkpt>
      <trkpt lat="46.0848" lon="4.48179">
        <ele>420.9</ele>
        <time>2014-10-02T12:53:46Z</time>
      </trkpt>
      <trkpt lat="46.08487" lon="4.4817">
        <ele>421</ele>
        <time>2014-10-02T12:53:49Z</time>
      </trkpt>
      <trkpt lat="46.08493" lon="4.48159">
        <ele>421.1</ele>
        <time>2014-10-02T12:53:52Z</time>
      </trkpt>
      <trkpt lat="46.08499" lon="4.48147">
        <ele>421.2</ele>
        <time>2014-10-02T12:53:55Z</time>
      </trkpt>
      <trkpt lat="46.08502" lon="4.48135">
        <ele>421.8</ele>
        <time>2014-10-02T12:53:58Z</time>
      </trkpt>
      <trkpt lat="46.08505" lon="4.48121">
        <ele>422.5</ele>
        <time>2014-10-02T12:54:01Z</time>
      </trkpt>
      <trkpt lat="46.08508" lon="4.48108">
        <ele>423.5</ele>
        <time>2014-10-02T12:54:04Z</time>
      </trkpt>
      <trkpt lat="46.08509" lon="4.48094">
        <ele>424.5</ele>
        <time>2014-10-02T12:54:07Z</time>
      </trkpt>
      <trkpt lat="46.08511" lon="4.4808">
        <ele>425.5</ele>
        <time>2014-10-02T12:54:11Z</time>
      </trkpt>
      <trkpt lat="46.08512" lon="4.48066">
        <ele>426.5</ele>
        <time>2014-10-02T12:54:15Z</time>
      </trkpt>
      <trkpt lat="46.08512" lon="4.48051">
        <ele>426.8</ele>
        <time>2014-10-02T12:54:19Z</time>
      </trkpt>
      <trkpt lat="46.08513" lon="4.48037">
        <ele>427.2</ele>
        <time>2014-10-02T12:54:23Z</time>
      </trkpt>
      <trkpt lat="46.08514" lon="4.48022">
        <ele>428.3</ele>
        <time>2014-10-02T12:54:27Z</time>
      </trkpt>
      <trkpt lat="46.08515" lon="4.48008">
        <ele>429.4</ele>
        <time>2014-10-02T12:54:31Z</time>
      </trkpt>
      <trkpt lat="46.08515" lon="4.47994">
        <ele>430.5</ele>
        <time>2014-10-02T12:54:35Z</time>
      </trkpt>
      <trkpt lat="46.08516" lon="4.47979">
        <ele>431.5</ele>
        <time>2014-10-02T12:54:39Z</time>
      </trkpt>
      <trkpt lat="46.08517" lon="4.47965">
        <ele>432.6</ele>
        <time>2014-10-02T12:54:43Z</time>
      </trkpt>
      <trkpt lat="46.08518" lon="4.47953">
        <ele>433.4</ele>
        <time>2014-10-02T12:54:46Z</time>
      </trkpt>
      <trkpt lat="46.08518" lon="4.47941">
        <ele>435.1</ele>
        <time>2014-10-02T12:54:49Z</time>
      </trkpt>
      <trkpt lat="46.08517" lon="4.47926">
        <ele>436.8</ele>
        <time>2014-10-02T12:54:53Z</time>
      </trkpt>
      <trkpt lat="46.08515" lon="4.47911">
        <ele>438.5</ele>
        <time>2014-10-02T12:54:57Z</time>
      </trkpt>
      <trkpt lat="46.08514" lon="4.47896">
        <ele>440.3</ele>
        <time>2014-10-02T12:55:01Z</time>
      </trkpt>
      <trkpt lat="46.08514" lon="4.47884">
        <ele>442</ele>
        <time>2014-10-02T12:55:04Z</time>
      </trkpt>
      <trkpt lat="46.08516" lon="4.47872">
        <ele>443</ele>
        <time>2014-10-02T12:55:07Z</time>
      </trkpt>
      <trkpt lat="46.08517" lon="4.47857">
        <ele>444.4</ele>
        <time>2014-10-02T12:55:11Z</time>
      </trkpt>
      <trkpt lat="46.08518" lon="4.47845">
        <ele>445.7</ele>
        <time>2014-10-02T12:55:14Z</time>
      </trkpt>
      <trkpt lat="46.08519" lon="4.4783">
        <ele>447.1</ele>
        <time>2014-10-02T12:55:18Z</time>
      </trkpt>
      <trkpt lat="46.08521" lon="4.47818">
        <ele>448.5</ele>
        <time>2014-10-02T12:55:21Z</time>
      </trkpt>
      <trkpt lat="46.08524" lon="4.47807">
        <ele>449.8</ele>
        <time>2014-10-02T12:55:24Z</time>
      </trkpt>
      <trkpt lat="46.08526" lon="4.47795">
        <ele>450.2</ele>
        <time>2014-10-02T12:55:27Z</time>
      </trkpt>
      <trkpt lat="46.08527" lon="4.47783">
        <ele>450.5</ele>
        <time>2014-10-02T12:55:30Z</time>
      </trkpt>
      <trkpt lat="46.08529" lon="4.47771">
        <ele>450.8</ele>
        <time>2014-10-02T12:55:33Z</time>
      </trkpt>
      <trkpt lat="46.0853" lon="4.47759">
        <ele>451.1</ele>
        <time>2014-10-02T12:55:36Z</time>
      </trkpt>
      <trkpt lat="46.0853" lon="4.47746">
        <ele>451.4</ele>
        <time>2014-10-02T12:55:39Z</time>
      </trkpt>
      <trkpt lat="46.08529" lon="4.47733">
        <ele>451.6</ele>
        <time>2014-10-02T12:55:42Z</time>
      </trkpt>
      <trkpt lat="46.08529" lon="4.47721">
        <ele>451.5</ele>
        <time>2014-10-02T12:55:45Z</time>
      </trkpt>
      <trkpt lat="46.08528" lon="4.47709">
        <ele>451.5</ele>
        <time>2014-10-02T12:55:48Z</time>
      </trkpt>
      <trkpt lat="46.08527" lon="4.47697">
        <ele>451.4</ele>
        <time>2014-10-02T12:55:51Z</time>
      </trkpt>
      <trkpt lat="46.08525" lon="4.47685">
        <ele>451.4</ele>
        <time>2014-10-02T12:55:54Z</time>
      </trkpt>
      <trkpt lat="46.08523" lon="4.47674">
        <ele>451.4</ele>
        <time>2014-10-02T12:55:57Z</time>
      </trkpt>
      <trkpt lat="46.08522" lon="4.47661">
        <ele>451.4</ele>
        <time>2014-10-02T12:56:00Z</time>
      </trkpt>
      <trkpt lat="46.0852" lon="4.47649">
        <ele>451.4</ele>
        <time>2014-10-02T12:56:03Z</time>
      </trkpt>
      <trkpt lat="46.08518" lon="4.47637">
        <ele>451.5</ele>
        <time>2014-10-02T12:56:06Z</time>
      </trkpt>
      <trkpt lat="46.08517" lon="4.47625">
        <ele>451.5</ele>
        <time>2014-10-02T12:56:09Z</time>
      </trkpt>
      <trkpt lat="46.08516" lon="4.47613">
        <ele>451.7</ele>
        <time>2014-10-02T12:56:12Z</time>
      </trkpt>
      <trkpt lat="46.08514" lon="4.47601">
        <ele>451.9</ele>
        <time>2014-10-02T12:56:15Z</time>
      </trkpt>
      <trkpt lat="46.08512" lon="4.47589">
        <ele>452.1</ele>
        <time>2014-10-02T12:56:18Z</time>
      </trkpt>
      <trkpt lat="46.0851" lon="4.47574">
        <ele>452.3</ele>
        <time>2014-10-02T12:56:22Z</time>
      </trkpt>
      <trkpt lat="46.08508" lon="4.47559">
        <ele>452.5</ele>
        <time>2014-10-02T12:56:26Z</time>
      </trkpt>
      <trkpt lat="46.08507" lon="4.47544">
        <ele>452.5</ele>
        <time>2014-10-02T12:56:30Z</time>
      </trkpt>
      <trkpt lat="46.08505" lon="4.47529">
        <ele>453.4</ele>
        <time>2014-10-02T12:56:34Z</time>
      </trkpt>
      <trkpt lat="46.08504" lon="4.47513">
        <ele>454.2</ele>
        <time>2014-10-02T12:56:38Z</time>
      </trkpt>
      <trkpt lat="46.08504" lon="4.47498">
        <ele>455</ele>
        <time>2014-10-02T12:56:42Z</time>
      </trkpt>
      <trkpt lat="46.08504" lon="4.47485">
        <ele>455.8</ele>
        <time>2014-10-02T12:56:45Z</time>
      </trkpt>
      <trkpt lat="46.08505" lon="4.47473">
        <ele>456.6</ele>
        <time>2014-10-02T12:56:48Z</time>
      </trkpt>
      <trkpt lat="46.08507" lon="4.47461">
        <ele>457.4</ele>
        <time>2014-10-02T12:56:51Z</time>
      </trkpt>
      <trkpt lat="46.08509" lon="4.47449">
        <ele>458.1</ele>
        <time>2014-10-02T12:56:54Z</time>
      </trkpt>
      <trkpt lat="46.08512" lon="4.47438">
        <ele>458.8</ele>
        <time>2014-10-02T12:56:57Z</time>
      </trkpt>
      <trkpt lat="46.08515" lon="4.47427">
        <ele>461.4</ele>
        <time>2014-10-02T12:57:00Z</time>
      </trkpt>
      <trkpt lat="46.08519" lon="4.47417">
        <ele>462.3</ele>
        <time>2014-10-02T12:57:03Z</time>
      </trkpt>
      <trkpt lat="46.08525" lon="4.47407">
        <ele>463.2</ele>
        <time>2014-10-02T12:57:06Z</time>
      </trkpt>
      <trkpt lat="46.08531" lon="4.47398">
        <ele>463.4</ele>
        <time>2014-10-02T12:57:09Z</time>
      </trkpt>
      <trkpt lat="46.08536" lon="4.47388">
        <ele>463.5</ele>
        <time>2014-10-02T12:57:12Z</time>
      </trkpt>
      <trkpt lat="46.08542" lon="4.47378">
        <ele>463.7</ele>
        <time>2014-10-02T12:57:15Z</time>
      </trkpt>
      <trkpt lat="46.08546" lon="4.47368">
        <ele>463.9</ele>
        <time>2014-10-02T12:57:18Z</time>
      </trkpt>
      <trkpt lat="46.08552" lon="4.4736">
        <ele>464.1</ele>
        <time>2014-10-02T12:57:21Z</time>
      </trkpt>
      <trkpt lat="46.08557" lon="4.4735">
        <ele>465.6</ele>
        <time>2014-10-02T12:57:24Z</time>
      </trkpt>
      <trkpt lat="46.08564" lon="4.47338">
        <ele>467.2</ele>
        <time>2014-10-02T12:57:28Z</time>
      </trkpt>
      <trkpt lat="46.08568" lon="4.47328">
        <ele>468.7</ele>
        <time>2014-10-02T12:57:31Z</time>
      </trkpt>
      <trkpt lat="46.08572" lon="4.47317">
        <ele>468.5</ele>
        <time>2014-10-02T12:57:34Z</time>
      </trkpt>
      <trkpt lat="46.08577" lon="4.47307">
        <ele>469.8</ele>
        <time>2014-10-02T12:57:37Z</time>
      </trkpt>
      <trkpt lat="46.08582" lon="4.47296">
        <ele>471.2</ele>
        <time>2014-10-02T12:57:40Z</time>
      </trkpt>
      <trkpt lat="46.08586" lon="4.47285">
        <ele>472.5</ele>
        <time>2014-10-02T12:57:43Z</time>
      </trkpt>
      <trkpt lat="46.0859" lon="4.47273">
        <ele>475.1</ele>
        <time>2014-10-02T12:57:46Z</time>
      </trkpt>
      <trkpt lat="46.08594" lon="4.47262">
        <ele>477.6</ele>
        <time>2014-10-02T12:57:49Z</time>
      </trkpt>
      <trkpt lat="46.08597" lon="4.47251">
        <ele>480.2</ele>
        <time>2014-10-02T12:57:52Z</time>
      </trkpt>
      <trkpt lat="46.08601" lon="4.4724">
        <ele>482.7</ele>
        <time>2014-10-02T12:57:55Z</time>
      </trkpt>
      <trkpt lat="46.08604" lon="4.47229">
        <ele>483.9</ele>
        <time>2014-10-02T12:57:58Z</time>
      </trkpt>
      <trkpt lat="46.08606" lon="4.47217">
        <ele>485.1</ele>
        <time>2014-10-02T12:58:01Z</time>
      </trkpt>
      <trkpt lat="46.08608" lon="4.47206">
        <ele>486.3</ele>
        <time>2014-10-02T12:58:04Z</time>
      </trkpt>
      <trkpt lat="46.0861" lon="4.47194">
        <ele>488.6</ele>
        <time>2014-10-02T12:58:07Z</time>
      </trkpt>
      <trkpt lat="46.08613" lon="4.47182">
        <ele>491</ele>
        <time>2014-10-02T12:58:10Z</time>
      </trkpt>
      <trkpt lat="46.08615" lon="4.47171">
        <ele>493.4</ele>
        <time>2014-10-02T12:58:13Z</time>
      </trkpt>
      <trkpt lat="46.08617" lon="4.47159">
        <ele>492.4</ele>
        <time>2014-10-02T12:58:16Z</time>
      </trkpt>
      <trkpt lat="46.0862" lon="4.47148">
        <ele>490.2</ele>
        <time>2014-10-02T12:58:19Z</time>
      </trkpt>
      <trkpt lat="46.08622" lon="4.47136">
        <ele>488</ele>
        <time>2014-10-02T12:58:22Z</time>
      </trkpt>
      <trkpt lat="46.08625" lon="4.47125">
        <ele>485.8</ele>
        <time>2014-10-02T12:58:25Z</time>
      </trkpt>
      <trkpt lat="46.08627" lon="4.47113">
        <ele>483.6</ele>
        <time>2014-10-02T12:58:28Z</time>
      </trkpt>
      <trkpt lat="46.08629" lon="4.47098">
        <ele>482</ele>
        <time>2014-10-02T12:58:32Z</time>
      </trkpt>
      <trkpt lat="46.08632" lon="4.47083">
        <ele>480.4</ele>
        <time>2014-10-02T12:58:36Z</time>
      </trkpt>
      <trkpt lat="46.08635" lon="4.47072">
        <ele>478.7</ele>
        <time>2014-10-02T12:58:39Z</time>
      </trkpt>
      <trkpt lat="46.08637" lon="4.47057">
        <ele>475.9</ele>
        <time>2014-10-02T12:58:43Z</time>
      </trkpt>
      <trkpt lat="46.08638" lon="4.47046">
        <ele>473.1</ele>
        <time>2014-10-02T12:58:46Z</time>
      </trkpt>
      <trkpt lat="46.0864" lon="4.47034">
        <ele>470.3</ele>
        <time>2014-10-02T12:58:49Z</time>
      </trkpt>
      <trkpt lat="46.08641" lon="4.47022">
        <ele>471.4</ele>
        <time>2014-10-02T12:58:52Z</time>
      </trkpt>
      <trkpt lat="46.08642" lon="4.47009">
        <ele>472.5</ele>
        <time>2014-10-02T12:58:55Z</time>
      </trkpt>
      <trkpt lat="46.08641" lon="4.46996">
        <ele>473.5</ele>
        <time>2014-10-02T12:58:58Z</time>
      </trkpt>
      <trkpt lat="46.08642" lon="4.46983">
        <ele>474.6</ele>
        <time>2014-10-02T12:59:01Z</time>
      </trkpt>
      <trkpt lat="46.08643" lon="4.46971">
        <ele>475.7</ele>
        <time>2014-10-02T12:59:04Z</time>
      </trkpt>
      <trkpt lat="46.08644" lon="4.46958">
        <ele>476.3</ele>
        <time>2014-10-02T12:59:07Z</time>
      </trkpt>
      <trkpt lat="46.08644" lon="4.46945">
        <ele>476.8</ele>
        <time>2014-10-02T12:59:10Z</time>
      </trkpt>
      <trkpt lat="46.08645" lon="4.46932">
        <ele>477.8</ele>
        <time>2014-10-02T12:59:13Z</time>
      </trkpt>
      <trkpt lat="46.08645" lon="4.46919">
        <ele>478.8</ele>
        <time>2014-10-02T12:59:16Z</time>
      </trkpt>
      <trkpt lat="46.08646" lon="4.46906">
        <ele>479.8</ele>
        <time>2014-10-02T12:59:19Z</time>
      </trkpt>
      <trkpt lat="46.08646" lon="4.46893">
        <ele>480.8</ele>
        <time>2014-10-02T12:59:22Z</time>
      </trkpt>
      <trkpt lat="46.08646" lon="4.46881">
        <ele>481.3</ele>
        <time>2014-10-02T12:59:25Z</time>
      </trkpt>
      <trkpt lat="46.08645" lon="4.46869">
        <ele>481.7</ele>
        <time>2014-10-02T12:59:28Z</time>
      </trkpt>
      <trkpt lat="46.08642" lon="4.46857">
        <ele>482.2</ele>
        <time>2014-10-02T12:59:31Z</time>
      </trkpt>
      <trkpt lat="46.08639" lon="4.46845">
        <ele>482.9</ele>
        <time>2014-10-02T12:59:34Z</time>
      </trkpt>
      <trkpt lat="46.08637" lon="4.46832">
        <ele>484.9</ele>
        <time>2014-10-02T12:59:37Z</time>
      </trkpt>
      <trkpt lat="46.08635" lon="4.4682">
        <ele>486.9</ele>
        <time>2014-10-02T12:59:40Z</time>
      </trkpt>
      <trkpt lat="46.08633" lon="4.46808">
        <ele>488.9</ele>
        <time>2014-10-02T12:59:43Z</time>
      </trkpt>
      <trkpt lat="46.08631" lon="4.46796">
        <ele>490.5</ele>
        <time>2014-10-02T12:59:46Z</time>
      </trkpt>
      <trkpt lat="46.08627" lon="4.46785">
        <ele>492</ele>
        <time>2014-10-02T12:59:49Z</time>
      </trkpt>
      <trkpt lat="46.08624" lon="4.46774">
        <ele>493.5</ele>
        <time>2014-10-02T12:59:52Z</time>
      </trkpt>
      <trkpt lat="46.0862" lon="4.46763">
        <ele>495.1</ele>
        <time>2014-10-02T12:59:55Z</time>
      </trkpt>
      <trkpt lat="46.08616" lon="4.46752">
        <ele>495.7</ele>
        <time>2014-10-02T12:59:58Z</time>
      </trkpt>
      <trkpt lat="46.0861" lon="4.46742">
        <ele>496.4</ele>
        <time>2014-10-02T13:00:01Z</time>
      </trkpt>
      <trkpt lat="46.08604" lon="4.46732">
        <ele>497</ele>
        <time>2014-10-02T13:00:04Z</time>
      </trkpt>
      <trkpt lat="46.08598" lon="4.46723">
        <ele>497.4</ele>
        <time>2014-10-02T13:00:07Z</time>
      </trkpt>
      <trkpt lat="46.08591" lon="4.46715">
        <ele>496.5</ele>
        <time>2014-10-02T13:00:10Z</time>
      </trkpt>
      <trkpt lat="46.08584" lon="4.46708">
        <ele>495.5</ele>
        <time>2014-10-02T13:00:13Z</time>
      </trkpt>
      <trkpt lat="46.08577" lon="4.46701">
        <ele>496.9</ele>
        <time>2014-10-02T13:00:16Z</time>
      </trkpt>
      <trkpt lat="46.0857" lon="4.46694">
        <ele>498.3</ele>
        <time>2014-10-02T13:00:19Z</time>
      </trkpt>
      <trkpt lat="46.08563" lon="4.46688">
        <ele>499.6</ele>
        <time>2014-10-02T13:00:22Z</time>
      </trkpt>
      <trkpt lat="46.08556" lon="4.46681">
        <ele>501</ele>
        <time>2014-10-02T13:00:25Z</time>
      </trkpt>
      <trkpt lat="46.0855" lon="4.46673">
        <ele>502.4</ele>
        <time>2014-10-02T13:00:28Z</time>
      </trkpt>
      <trkpt lat="46.08543" lon="4.46664">
        <ele>504.6</ele>
        <time>2014-10-02T13:00:31Z</time>
      </trkpt>
      <trkpt lat="46.08537" lon="4.46655">
        <ele>506.9</ele>
        <time>2014-10-02T13:00:34Z</time>
      </trkpt>
      <trkpt lat="46.0853" lon="4.46646">
        <ele>509.2</ele>
        <time>2014-10-02T13:00:37Z</time>
      </trkpt>
      <trkpt lat="46.08523" lon="4.46637">
        <ele>511.5</ele>
        <time>2014-10-02T13:00:40Z</time>
      </trkpt>
      <trkpt lat="46.08514" lon="4.46643">
        <ele>511.5</ele>
        <time>2014-10-02T13:00:44Z</time>
      </trkpt>
      <trkpt lat="46.08517" lon="4.46658">
        <ele>511.5</ele>
        <time>2014-10-02T13:00:47Z</time>
      </trkpt>
      <trkpt lat="46.08527" lon="4.46668">
        <ele>510.1</ele>
        <time>2014-10-02T13:00:50Z</time>
      </trkpt>
      <trkpt lat="46.08535" lon="4.46677">
        <ele>508.7</ele>
        <time>2014-10-02T13:00:53Z</time>
      </trkpt>
      <trkpt lat="46.08543" lon="4.46687">
        <ele>507.4</ele>
        <time>2014-10-02T13:00:56Z</time>
      </trkpt>
      <trkpt lat="46.08551" lon="4.46696">
        <ele>506</ele>
        <time>2014-10-02T13:00:59Z</time>
      </trkpt>
      <trkpt lat="46.08558" lon="4.46706">
        <ele>504.6</ele>
        <time>2014-10-02T13:01:02Z</time>
      </trkpt>
      <trkpt lat="46.08565" lon="4.46717">
        <ele>503.3</ele>
        <time>2014-10-02T13:01:05Z</time>
      </trkpt>
      <trkpt lat="46.08571" lon="4.46728">
        <ele>501.9</ele>
        <time>2014-10-02T13:01:08Z</time>
      </trkpt>
      <trkpt lat="46.08577" lon="4.46739">
        <ele>501.3</ele>
        <time>2014-10-02T13:01:11Z</time>
      </trkpt>
      <trkpt lat="46.08582" lon="4.46752">
        <ele>500.6</ele>
        <time>2014-10-02T13:01:14Z</time>
      </trkpt>
      <trkpt lat="46.08586" lon="4.46764">
        <ele>502.3</ele>
        <time>2014-10-02T13:01:17Z</time>
      </trkpt>
      <trkpt lat="46.08589" lon="4.46778">
        <ele>503.9</ele>
        <time>2014-10-02T13:01:20Z</time>
      </trkpt>
      <trkpt lat="46.08592" lon="4.46792">
        <ele>504.6</ele>
        <time>2014-10-02T13:01:23Z</time>
      </trkpt>
      <trkpt lat="46.08594" lon="4.46806">
        <ele>505.4</ele>
        <time>2014-10-02T13:01:26Z</time>
      </trkpt>
      <trkpt lat="46.08596" lon="4.4682">
        <ele>506.3</ele>
        <time>2014-10-02T13:01:29Z</time>
      </trkpt>
      <trkpt lat="46.08598" lon="4.46834">
        <ele>507.2</ele>
        <time>2014-10-02T13:01:32Z</time>
      </trkpt>
      <trkpt lat="46.08597" lon="4.46848">
        <ele>508.1</ele>
        <time>2014-10-02T13:01:35Z</time>
      </trkpt>
      <trkpt lat="46.08596" lon="4.46862">
        <ele>509</ele>
        <time>2014-10-02T13:01:38Z</time>
      </trkpt>
      <trkpt lat="46.08595" lon="4.46876">
        <ele>509.9</ele>
        <time>2014-10-02T13:01:41Z</time>
      </trkpt>
      <trkpt lat="46.08593" lon="4.46889">
        <ele>510.1</ele>
        <time>2014-10-02T13:01:44Z</time>
      </trkpt>
      <trkpt lat="46.08591" lon="4.46903">
        <ele>510.4</ele>
        <time>2014-10-02T13:01:47Z</time>
      </trkpt>
      <trkpt lat="46.08589" lon="4.46916">
        <ele>510.6</ele>
        <time>2014-10-02T13:01:50Z</time>
      </trkpt>
      <trkpt lat="46.08586" lon="4.46929">
        <ele>510.9</ele>
        <time>2014-10-02T13:01:53Z</time>
      </trkpt>
      <trkpt lat="46.08583" lon="4.46941">
        <ele>511.2</ele>
        <time>2014-10-02T13:01:56Z</time>
      </trkpt>
      <trkpt lat="46.08581" lon="4.46954">
        <ele>511.5</ele>
        <time>2014-10-02T13:01:59Z</time>
      </trkpt>
      <trkpt lat="46.08578" lon="4.46967">
        <ele>511.5</ele>
        <time>2014-10-02T13:02:02Z</time>
      </trkpt>
      <trkpt lat="46.08575" lon="4.4698">
        <ele>510.9</ele>
        <time>2014-10-02T13:02:05Z</time>
      </trkpt>
      <trkpt lat="46.08573" lon="4.46993">
        <ele>510.3</ele>
        <time>2014-10-02T13:02:08Z</time>
      </trkpt>
      <trkpt lat="46.0857" lon="4.47006">
        <ele>509.6</ele>
        <time>2014-10-02T13:02:11Z</time>
      </trkpt>
      <trkpt lat="46.08567" lon="4.47019">
        <ele>509</ele>
        <time>2014-10-02T13:02:14Z</time>
      </trkpt>
      <trkpt lat="46.08564" lon="4.47032">
        <ele>511.2</ele>
        <time>2014-10-02T13:02:17Z</time>
      </trkpt>
      <trkpt lat="46.08561" lon="4.47044">
        <ele>513.3</ele>
        <time>2014-10-02T13:02:20Z</time>
      </trkpt>
      <trkpt lat="46.08557" lon="4.47057">
        <ele>515.4</ele>
        <time>2014-10-02T13:02:23Z</time>
      </trkpt>
      <trkpt lat="46.08553" lon="4.4707">
        <ele>517.5</ele>
        <time>2014-10-02T13:02:26Z</time>
      </trkpt>
      <trkpt lat="46.08549" lon="4.47082">
        <ele>518.4</ele>
        <time>2014-10-02T13:02:29Z</time>
      </trkpt>
      <trkpt lat="46.08545" lon="4.47094">
        <ele>519.3</ele>
        <time>2014-10-02T13:02:32Z</time>
      </trkpt>
      <trkpt lat="46.08541" lon="4.47107">
        <ele>520.2</ele>
        <time>2014-10-02T13:02:35Z</time>
      </trkpt>
      <trkpt lat="46.08536" lon="4.47119">
        <ele>521.8</ele>
        <time>2014-10-02T13:02:38Z</time>
      </trkpt>
      <trkpt lat="46.08532" lon="4.47131">
        <ele>523.5</ele>
        <time>2014-10-02T13:02:41Z</time>
      </trkpt>
      <trkpt lat="46.08528" lon="4.47143">
        <ele>525.1</ele>
        <time>2014-10-02T13:02:44Z</time>
      </trkpt>
      <trkpt lat="46.08524" lon="4.47156">
        <ele>526.7</ele>
        <time>2014-10-02T13:02:47Z</time>
      </trkpt>
      <trkpt lat="46.08519" lon="4.47167">
        <ele>525.5</ele>
        <time>2014-10-02T13:02:50Z</time>
      </trkpt>
      <trkpt lat="46.08513" lon="4.47179">
        <ele>522.7</ele>
        <time>2014-10-02T13:02:53Z</time>
      </trkpt>
      <trkpt lat="46.08506" lon="4.47189">
        <ele>519.9</ele>
        <time>2014-10-02T13:02:56Z</time>
      </trkpt>
      <trkpt lat="46.08499" lon="4.47198">
        <ele>517.6</ele>
        <time>2014-10-02T13:02:59Z</time>
      </trkpt>
      <trkpt lat="46.08491" lon="4.47207">
        <ele>516.5</ele>
        <time>2014-10-02T13:03:02Z</time>
      </trkpt>
      <trkpt lat="46.08482" lon="4.47215">
        <ele>517.7</ele>
        <time>2014-10-02T13:03:05Z</time>
      </trkpt>
      <trkpt lat="46.08473" lon="4.47221">
        <ele>518.9</ele>
        <time>2014-10-02T13:03:08Z</time>
      </trkpt>
      <trkpt lat="46.08463" lon="4.47226">
        <ele>520.1</ele>
        <time>2014-10-02T13:03:11Z</time>
      </trkpt>
      <trkpt lat="46.08453" lon="4.47226">
        <ele>521.3</ele>
        <time>2014-10-02T13:03:14Z</time>
      </trkpt>
      <trkpt lat="46.08443" lon="4.47223">
        <ele>522.5</ele>
        <time>2014-10-02T13:03:17Z</time>
      </trkpt>
      <trkpt lat="46.08434" lon="4.47218">
        <ele>523.6</ele>
        <time>2014-10-02T13:03:20Z</time>
      </trkpt>
      <trkpt lat="46.08425" lon="4.47214">
        <ele>526.7</ele>
        <time>2014-10-02T13:03:23Z</time>
      </trkpt>
      <trkpt lat="46.08415" lon="4.4721">
        <ele>531.5</ele>
        <time>2014-10-02T13:03:26Z</time>
      </trkpt>
      <trkpt lat="46.08405" lon="4.47208">
        <ele>536.2</ele>
        <time>2014-10-02T13:03:29Z</time>
      </trkpt>
      <trkpt lat="46.08395" lon="4.4721">
        <ele>540.4</ele>
        <time>2014-10-02T13:03:32Z</time>
      </trkpt>
      <trkpt lat="46.08386" lon="4.47211">
        <ele>541.4</ele>
        <time>2014-10-02T13:03:35Z</time>
      </trkpt>
      <trkpt lat="46.08376" lon="4.47213">
        <ele>540.1</ele>
        <time>2014-10-02T13:03:38Z</time>
      </trkpt>
      <trkpt lat="46.08366" lon="4.47214">
        <ele>538.8</ele>
        <time>2014-10-02T13:03:41Z</time>
      </trkpt>
      <trkpt lat="46.08356" lon="4.47216">
        <ele>537.5</ele>
        <time>2014-10-02T13:03:44Z</time>
      </trkpt>
      <trkpt lat="46.08348" lon="4.4722">
        <ele>536.3</ele>
        <time>2014-10-02T13:03:47Z</time>
      </trkpt>
      <trkpt lat="46.08339" lon="4.47224">
        <ele>535</ele>
        <time>2014-10-02T13:03:50Z</time>
      </trkpt>
      <trkpt lat="46.0833" lon="4.4723">
        <ele>535.6</ele>
        <time>2014-10-02T13:03:53Z</time>
      </trkpt>
      <trkpt lat="46.08322" lon="4.47235">
        <ele>534.4</ele>
        <time>2014-10-02T13:03:56Z</time>
      </trkpt>
      <trkpt lat="46.08314" lon="4.47243">
        <ele>533.1</ele>
        <time>2014-10-02T13:03:59Z</time>
      </trkpt>
      <trkpt lat="46.08307" lon="4.47251">
        <ele>531.8</ele>
        <time>2014-10-02T13:04:02Z</time>
      </trkpt>
      <trkpt lat="46.083" lon="4.47261">
        <ele>528.9</ele>
        <time>2014-10-02T13:04:05Z</time>
      </trkpt>
      <trkpt lat="46.08293" lon="4.47271">
        <ele>529.2</ele>
        <time>2014-10-02T13:04:08Z</time>
      </trkpt>
      <trkpt lat="46.08286" lon="4.47281">
        <ele>529.5</ele>
        <time>2014-10-02T13:04:11Z</time>
      </trkpt>
      <trkpt lat="46.08279" lon="4.47291">
        <ele>529.7</ele>
        <time>2014-10-02T13:04:14Z</time>
      </trkpt>
      <trkpt lat="46.08271" lon="4.47301">
        <ele>530</ele>
        <time>2014-10-02T13:04:17Z</time>
      </trkpt>
      <trkpt lat="46.08263" lon="4.47309">
        <ele>530.3</ele>
        <time>2014-10-02T13:04:20Z</time>
      </trkpt>
      <trkpt lat="46.08254" lon="4.47315">
        <ele>530.5</ele>
        <time>2014-10-02T13:04:23Z</time>
      </trkpt>
      <trkpt lat="46.08245" lon="4.47321">
        <ele>528.9</ele>
        <time>2014-10-02T13:04:26Z</time>
      </trkpt>
      <trkpt lat="46.08235" lon="4.47323">
        <ele>528.6</ele>
        <time>2014-10-02T13:04:29Z</time>
      </trkpt>
      <trkpt lat="46.08225" lon="4.47324">
        <ele>528.4</ele>
        <time>2014-10-02T13:04:32Z</time>
      </trkpt>
      <trkpt lat="46.08215" lon="4.47322">
        <ele>528.1</ele>
        <time>2014-10-02T13:04:35Z</time>
      </trkpt>
      <trkpt lat="46.08206" lon="4.47318">
        <ele>529.5</ele>
        <time>2014-10-02T13:04:38Z</time>
      </trkpt>
      <trkpt lat="46.08198" lon="4.47309">
        <ele>530.8</ele>
        <time>2014-10-02T13:04:41Z</time>
      </trkpt>
      <trkpt lat="46.08191" lon="4.473">
        <ele>532.2</ele>
        <time>2014-10-02T13:04:44Z</time>
      </trkpt>
      <trkpt lat="46.08186" lon="4.47288">
        <ele>533.5</ele>
        <time>2014-10-02T13:04:47Z</time>
      </trkpt>
      <trkpt lat="46.08181" lon="4.47276">
        <ele>534.9</ele>
        <time>2014-10-02T13:04:50Z</time>
      </trkpt>
      <trkpt lat="46.08177" lon="4.47264">
        <ele>538.5</ele>
        <time>2014-10-02T13:04:53Z</time>
      </trkpt>
      <trkpt lat="46.08172" lon="4.47251">
        <ele>542</ele>
        <time>2014-10-02T13:04:56Z</time>
      </trkpt>
      <trkpt lat="46.08167" lon="4.4724">
        <ele>545.5</ele>
        <time>2014-10-02T13:04:59Z</time>
      </trkpt>
      <trkpt lat="46.08161" lon="4.4723">
        <ele>545.7</ele>
        <time>2014-10-02T13:05:02Z</time>
      </trkpt>
      <trkpt lat="46.08154" lon="4.47221">
        <ele>545.9</ele>
        <time>2014-10-02T13:05:05Z</time>
      </trkpt>
      <trkpt lat="46.08147" lon="4.47214">
        <ele>546.1</ele>
        <time>2014-10-02T13:05:08Z</time>
      </trkpt>
      <trkpt lat="46.08139" lon="4.47207">
        <ele>546.3</ele>
        <time>2014-10-02T13:05:11Z</time>
      </trkpt>
      <trkpt lat="46.0813" lon="4.472">
        <ele>546.5</ele>
        <time>2014-10-02T13:05:14Z</time>
      </trkpt>
      <trkpt lat="46.08122" lon="4.47193">
        <ele>546.6</ele>
        <time>2014-10-02T13:05:17Z</time>
      </trkpt>
      <trkpt lat="46.08113" lon="4.47187">
        <ele>546.8</ele>
        <time>2014-10-02T13:05:20Z</time>
      </trkpt>
      <trkpt lat="46.08104" lon="4.47181">
        <ele>547</ele>
        <time>2014-10-02T13:05:23Z</time>
      </trkpt>
      <trkpt lat="46.08096" lon="4.47174">
        <ele>546.1</ele>
        <time>2014-10-02T13:05:26Z</time>
      </trkpt>
      <trkpt lat="46.08088" lon="4.47167">
        <ele>545.2</ele>
        <time>2014-10-02T13:05:29Z</time>
      </trkpt>
      <trkpt lat="46.0808" lon="4.4716">
        <ele>544.3</ele>
        <time>2014-10-02T13:05:32Z</time>
      </trkpt>
      <trkpt lat="46.08074" lon="4.4715">
        <ele>545.4</ele>
        <time>2014-10-02T13:05:35Z</time>
      </trkpt>
      <trkpt lat="46.08068" lon="4.47139">
        <ele>546.5</ele>
        <time>2014-10-02T13:05:38Z</time>
      </trkpt>
      <trkpt lat="46.08063" lon="4.47128">
        <ele>547.5</ele>
        <time>2014-10-02T13:05:41Z</time>
      </trkpt>
      <trkpt lat="46.08059" lon="4.47115">
        <ele>548.6</ele>
        <time>2014-10-02T13:05:44Z</time>
      </trkpt>
      <trkpt lat="46.08057" lon="4.47102">
        <ele>549.9</ele>
        <time>2014-10-02T13:05:47Z</time>
      </trkpt>
      <trkpt lat="46.08056" lon="4.47088">
        <ele>551.2</ele>
        <time>2014-10-02T13:05:50Z</time>
      </trkpt>
      <trkpt lat="46.08055" lon="4.47074">
        <ele>552.5</ele>
        <time>2014-10-02T13:05:53Z</time>
      </trkpt>
      <trkpt lat="46.08055" lon="4.47058">
        <ele>553.7</ele>
        <time>2014-10-02T13:05:56Z</time>
      </trkpt>
      <trkpt lat="46.08056" lon="4.47044">
        <ele>553.9</ele>
        <time>2014-10-02T13:05:59Z</time>
      </trkpt>
      <trkpt lat="46.08057" lon="4.47031">
        <ele>554.1</ele>
        <time>2014-10-02T13:06:02Z</time>
      </trkpt>
      <trkpt lat="46.08058" lon="4.47017">
        <ele>554.5</ele>
        <time>2014-10-02T13:06:05Z</time>
      </trkpt>
      <trkpt lat="46.0806" lon="4.47003">
        <ele>554.8</ele>
        <time>2014-10-02T13:06:08Z</time>
      </trkpt>
      <trkpt lat="46.08062" lon="4.46989">
        <ele>555.2</ele>
        <time>2014-10-02T13:06:11Z</time>
      </trkpt>
      <trkpt lat="46.08064" lon="4.46975">
        <ele>555.5</ele>
        <time>2014-10-02T13:06:14Z</time>
      </trkpt>
      <trkpt lat="46.08066" lon="4.46961">
        <ele>555.9</ele>
        <time>2014-10-02T13:06:17Z</time>
      </trkpt>
      <trkpt lat="46.08066" lon="4.46947">
        <ele>556.4</ele>
        <time>2014-10-02T13:06:20Z</time>
      </trkpt>
      <trkpt lat="46.08067" lon="4.46932">
        <ele>556.8</ele>
        <time>2014-10-02T13:06:23Z</time>
      </trkpt>
      <trkpt lat="46.08067" lon="4.46917">
        <ele>557.3</ele>
        <time>2014-10-02T13:06:26Z</time>
      </trkpt>
      <trkpt lat="46.08067" lon="4.46901">
        <ele>557.7</ele>
        <time>2014-10-02T13:06:29Z</time>
      </trkpt>
      <trkpt lat="46.08066" lon="4.46886">
        <ele>558.2</ele>
        <time>2014-10-02T13:06:32Z</time>
      </trkpt>
      <trkpt lat="46.08065" lon="4.4687">
        <ele>559.4</ele>
        <time>2014-10-02T13:06:35Z</time>
      </trkpt>
      <trkpt lat="46.08064" lon="4.46854">
        <ele>560.4</ele>
        <time>2014-10-02T13:06:38Z</time>
      </trkpt>
      <trkpt lat="46.08063" lon="4.46838">
        <ele>560.3</ele>
        <time>2014-10-02T13:06:41Z</time>
      </trkpt>
      <trkpt lat="46.08061" lon="4.46822">
        <ele>560.2</ele>
        <time>2014-10-02T13:06:44Z</time>
      </trkpt>
      <trkpt lat="46.0806" lon="4.46807">
        <ele>560.1</ele>
        <time>2014-10-02T13:06:47Z</time>
      </trkpt>
      <trkpt lat="46.08056" lon="4.46792">
        <ele>560</ele>
        <time>2014-10-02T13:06:50Z</time>
      </trkpt>
      <trkpt lat="46.0805" lon="4.46779">
        <ele>559.6</ele>
        <time>2014-10-02T13:06:53Z</time>
      </trkpt>
      <trkpt lat="46.08043" lon="4.46766">
        <ele>559.3</ele>
        <time>2014-10-02T13:06:56Z</time>
      </trkpt>
      <trkpt lat="46.08034" lon="4.46757">
        <ele>558.9</ele>
        <time>2014-10-02T13:06:59Z</time>
      </trkpt>
      <trkpt lat="46.08024" lon="4.46751">
        <ele>558.5</ele>
        <time>2014-10-02T13:07:02Z</time>
      </trkpt>
      <trkpt lat="46.08014" lon="4.46747">
        <ele>558.7</ele>
        <time>2014-10-02T13:07:05Z</time>
      </trkpt>
      <trkpt lat="46.08003" lon="4.46742">
        <ele>558.2</ele>
        <time>2014-10-02T13:07:08Z</time>
      </trkpt>
      <trkpt lat="46.07992" lon="4.46735">
        <ele>557.6</ele>
        <time>2014-10-02T13:07:11Z</time>
      </trkpt>
      <trkpt lat="46.07982" lon="4.46728">
        <ele>558.2</ele>
        <time>2014-10-02T13:07:14Z</time>
      </trkpt>
      <trkpt lat="46.07971" lon="4.4672">
        <ele>558.7</ele>
        <time>2014-10-02T13:07:17Z</time>
      </trkpt>
      <trkpt lat="46.07962" lon="4.46712">
        <ele>559.3</ele>
        <time>2014-10-02T13:07:20Z</time>
      </trkpt>
      <trkpt lat="46.07952" lon="4.46705">
        <ele>559.8</ele>
        <time>2014-10-02T13:07:23Z</time>
      </trkpt>
      <trkpt lat="46.07942" lon="4.46697">
        <ele>560.4</ele>
        <time>2014-10-02T13:07:26Z</time>
      </trkpt>
      <trkpt lat="46.07933" lon="4.46688">
        <ele>560.9</ele>
        <time>2014-10-02T13:07:29Z</time>
      </trkpt>
      <trkpt lat="46.07925" lon="4.46679">
        <ele>563.4</ele>
        <time>2014-10-02T13:07:32Z</time>
      </trkpt>
      <trkpt lat="46.07917" lon="4.46669">
        <ele>564.6</ele>
        <time>2014-10-02T13:07:35Z</time>
      </trkpt>
      <trkpt lat="46.07909" lon="4.46659">
        <ele>565.4</ele>
        <time>2014-10-02T13:07:38Z</time>
      </trkpt>
      <trkpt lat="46.079" lon="4.46649">
        <ele>566.1</ele>
        <time>2014-10-02T13:07:41Z</time>
      </trkpt>
      <trkpt lat="46.07892" lon="4.46638">
        <ele>566.8</ele>
        <time>2014-10-02T13:07:44Z</time>
      </trkpt>
      <trkpt lat="46.07884" lon="4.46628">
        <ele>567.5</ele>
        <time>2014-10-02T13:07:47Z</time>
      </trkpt>
      <trkpt lat="46.07875" lon="4.46618">
        <ele>568.3</ele>
        <time>2014-10-02T13:07:50Z</time>
      </trkpt>
      <trkpt lat="46.07866" lon="4.46608">
        <ele>569</ele>
        <time>2014-10-02T13:07:53Z</time>
      </trkpt>
      <trkpt lat="46.07858" lon="4.46598">
        <ele>569.7</ele>
        <time>2014-10-02T13:07:56Z</time>
      </trkpt>
      <trkpt lat="46.07849" lon="4.46588">
        <ele>570.5</ele>
        <time>2014-10-02T13:07:59Z</time>
      </trkpt>
      <trkpt lat="46.0784" lon="4.46579">
        <ele>572.2</ele>
        <time>2014-10-02T13:08:02Z</time>
      </trkpt>
      <trkpt lat="46.07831" lon="4.4657">
        <ele>572</ele>
        <time>2014-10-02T13:08:05Z</time>
      </trkpt>
      <trkpt lat="46.0782" lon="4.46565">
        <ele>573</ele>
        <time>2014-10-02T13:08:08Z</time>
      </trkpt>
      <trkpt lat="46.07809" lon="4.46569">
        <ele>574</ele>
        <time>2014-10-02T13:08:11Z</time>
      </trkpt>
      <trkpt lat="46.07802" lon="4.46576">
        <ele>574.6</ele>
        <time>2014-10-02T13:08:13Z</time>
      </trkpt>
      <trkpt lat="46.07797" lon="4.46585">
        <ele>575.3</ele>
        <time>2014-10-02T13:08:15Z</time>
      </trkpt>
      <trkpt lat="46.07794" lon="4.46596">
        <ele>575.9</ele>
        <time>2014-10-02T13:08:17Z</time>
      </trkpt>
      <trkpt lat="46.07793" lon="4.46609">
        <ele>576.5</ele>
        <time>2014-10-02T13:08:19Z</time>
      </trkpt>
      <trkpt lat="46.07793" lon="4.46622">
        <ele>577.2</ele>
        <time>2014-10-02T13:08:21Z</time>
      </trkpt>
      <trkpt lat="46.07794" lon="4.46635">
        <ele>577.8</ele>
        <time>2014-10-02T13:08:23Z</time>
      </trkpt>
      <trkpt lat="46.07796" lon="4.46648">
        <ele>578.5</ele>
        <time>2014-10-02T13:08:25Z</time>
      </trkpt>
      <trkpt lat="46.07797" lon="4.46661">
        <ele>578.4</ele>
        <time>2014-10-02T13:08:27Z</time>
      </trkpt>
      <trkpt lat="46.07798" lon="4.46675">
        <ele>578.3</ele>
        <time>2014-10-02T13:08:29Z</time>
      </trkpt>
      <trkpt lat="46.07798" lon="4.46687">
        <ele>578.2</ele>
        <time>2014-10-02T13:08:31Z</time>
      </trkpt>
      <trkpt lat="46.07797" lon="4.467">
        <ele>578.1</ele>
        <time>2014-10-02T13:08:33Z</time>
      </trkpt>
      <trkpt lat="46.07796" lon="4.46713">
        <ele>578.4</ele>
        <time>2014-10-02T13:08:35Z</time>
      </trkpt>
      <trkpt lat="46.07794" lon="4.46726">
        <ele>578.6</ele>
        <time>2014-10-02T13:08:37Z</time>
      </trkpt>
      <trkpt lat="46.07793" lon="4.46739">
        <ele>578.7</ele>
        <time>2014-10-02T13:08:39Z</time>
      </trkpt>
      <trkpt lat="46.07791" lon="4.46751">
        <ele>578.8</ele>
        <time>2014-10-02T13:08:41Z</time>
      </trkpt>
      <trkpt lat="46.07789" lon="4.46764">
        <ele>578.9</ele>
        <time>2014-10-02T13:08:43Z</time>
      </trkpt>
      <trkpt lat="46.07788" lon="4.46777">
        <ele>579</ele>
        <time>2014-10-02T13:08:45Z</time>
      </trkpt>
      <trkpt lat="46.07786" lon="4.4679">
        <ele>579.1</ele>
        <time>2014-10-02T13:08:47Z</time>
      </trkpt>
      <trkpt lat="46.07784" lon="4.46804">
        <ele>578.9</ele>
        <time>2014-10-02T13:08:49Z</time>
      </trkpt>
      <trkpt lat="46.07782" lon="4.46816">
        <ele>578.8</ele>
        <time>2014-10-02T13:08:51Z</time>
      </trkpt>
      <trkpt lat="46.07781" lon="4.46829">
        <ele>578.7</ele>
        <time>2014-10-02T13:08:53Z</time>
      </trkpt>
      <trkpt lat="46.0778" lon="4.46842">
        <ele>578.6</ele>
        <time>2014-10-02T13:08:55Z</time>
      </trkpt>
      <trkpt lat="46.07778" lon="4.46855">
        <ele>578.5</ele>
        <time>2014-10-02T13:08:57Z</time>
      </trkpt>
      <trkpt lat="46.07777" lon="4.46868">
        <ele>578.5</ele>
        <time>2014-10-02T13:08:59Z</time>
      </trkpt>
      <trkpt lat="46.07776" lon="4.46881">
        <ele>578.5</ele>
        <time>2014-10-02T13:09:01Z</time>
      </trkpt>
      <trkpt lat="46.07776" lon="4.46895">
        <ele>578.6</ele>
        <time>2014-10-02T13:09:03Z</time>
      </trkpt>
      <trkpt lat="46.07776" lon="4.4691">
        <ele>578.7</ele>
        <time>2014-10-02T13:09:05Z</time>
      </trkpt>
      <trkpt lat="46.07775" lon="4.46924">
        <ele>578.8</ele>
        <time>2014-10-02T13:09:07Z</time>
      </trkpt>
      <trkpt lat="46.07776" lon="4.46937">
        <ele>578.9</ele>
        <time>2014-10-02T13:09:09Z</time>
      </trkpt>
      <trkpt lat="46.07776" lon="4.46951">
        <ele>579</ele>
        <time>2014-10-02T13:09:11Z</time>
      </trkpt>
      <trkpt lat="46.07777" lon="4.46968">
        <ele>579.3</ele>
        <time>2014-10-02T13:09:13Z</time>
      </trkpt>
      <trkpt lat="46.07778" lon="4.46984">
        <ele>579.5</ele>
        <time>2014-10-02T13:09:15Z</time>
      </trkpt>
      <trkpt lat="46.07779" lon="4.47">
        <ele>579.8</ele>
        <time>2014-10-02T13:09:17Z</time>
      </trkpt>
      <trkpt lat="46.07782" lon="4.47016">
        <ele>580.1</ele>
        <time>2014-10-02T13:09:19Z</time>
      </trkpt>
      <trkpt lat="46.07787" lon="4.47032">
        <ele>580.4</ele>
        <time>2014-10-02T13:09:21Z</time>
      </trkpt>
      <trkpt lat="46.07792" lon="4.47048">
        <ele>580.5</ele>
        <time>2014-10-02T13:09:23Z</time>
      </trkpt>
      <trkpt lat="46.07794" lon="4.47066">
        <ele>580.7</ele>
        <time>2014-10-02T13:09:25Z</time>
      </trkpt>
      <trkpt lat="46.07794" lon="4.47081">
        <ele>580.9</ele>
        <time>2014-10-02T13:09:27Z</time>
      </trkpt>
      <trkpt lat="46.07792" lon="4.47104">
        <ele>581.1</ele>
        <time>2014-10-02T13:09:29Z</time>
      </trkpt>
      <trkpt lat="46.07791" lon="4.47119">
        <ele>581.3</ele>
        <time>2014-10-02T13:09:31Z</time>
      </trkpt>
      <trkpt lat="46.07792" lon="4.4714">
        <ele>580.9</ele>
        <time>2014-10-02T13:09:33Z</time>
      </trkpt>
      <trkpt lat="46.07793" lon="4.47156">
        <ele>580.3</ele>
        <time>2014-10-02T13:09:35Z</time>
      </trkpt>
      <trkpt lat="46.07791" lon="4.47177">
        <ele>579.6</ele>
        <time>2014-10-02T13:09:37Z</time>
      </trkpt>
      <trkpt lat="46.07789" lon="4.47196">
        <ele>579</ele>
        <time>2014-10-02T13:09:39Z</time>
      </trkpt>
      <trkpt lat="46.07786" lon="4.47216">
        <ele>578.4</ele>
        <time>2014-10-02T13:09:41Z</time>
      </trkpt>
      <trkpt lat="46.07782" lon="4.47233">
        <ele>577</ele>
        <time>2014-10-02T13:09:43Z</time>
      </trkpt>
      <trkpt lat="46.07778" lon="4.47251">
        <ele>575.7</ele>
        <time>2014-10-02T13:09:45Z</time>
      </trkpt>
      <trkpt lat="46.07774" lon="4.47268">
        <ele>574.5</ele>
        <time>2014-10-02T13:09:47Z</time>
      </trkpt>
      <trkpt lat="46.07769" lon="4.47285">
        <ele>573.2</ele>
        <time>2014-10-02T13:09:49Z</time>
      </trkpt>
      <trkpt lat="46.07765" lon="4.47301">
        <ele>571.9</ele>
        <time>2014-10-02T13:09:51Z</time>
      </trkpt>
      <trkpt lat="46.07759" lon="4.47314">
        <ele>570.6</ele>
        <time>2014-10-02T13:09:53Z</time>
      </trkpt>
      <trkpt lat="46.07753" lon="4.47327">
        <ele>570</ele>
        <time>2014-10-02T13:09:55Z</time>
      </trkpt>
      <trkpt lat="46.07745" lon="4.47338">
        <ele>569.4</ele>
        <time>2014-10-02T13:09:57Z</time>
      </trkpt>
      <trkpt lat="46.07736" lon="4.47346">
        <ele>568.7</ele>
        <time>2014-10-02T13:09:59Z</time>
      </trkpt>
      <trkpt lat="46.07726" lon="4.47353">
        <ele>568.1</ele>
        <time>2014-10-02T13:10:01Z</time>
      </trkpt>
      <trkpt lat="46.07713" lon="4.47357">
        <ele>567.5</ele>
        <time>2014-10-02T13:10:03Z</time>
      </trkpt>
      <trkpt lat="46.07701" lon="4.47358">
        <ele>567.5</ele>
        <time>2014-10-02T13:10:05Z</time>
      </trkpt>
      <trkpt lat="46.07687" lon="4.47353">
        <ele>568.6</ele>
        <time>2014-10-02T13:10:07Z</time>
      </trkpt>
      <trkpt lat="46.07673" lon="4.47346">
        <ele>569.7</ele>
        <time>2014-10-02T13:10:09Z</time>
      </trkpt>
      <trkpt lat="46.07659" lon="4.47337">
        <ele>570.8</ele>
        <time>2014-10-02T13:10:11Z</time>
      </trkpt>
      <trkpt lat="46.07645" lon="4.47329">
        <ele>571.9</ele>
        <time>2014-10-02T13:10:13Z</time>
      </trkpt>
      <trkpt lat="46.07632" lon="4.47326">
        <ele>573</ele>
        <time>2014-10-02T13:10:15Z</time>
      </trkpt>
      <trkpt lat="46.07617" lon="4.47331">
        <ele>571.9</ele>
        <time>2014-10-02T13:10:17Z</time>
      </trkpt>
      <trkpt lat="46.07604" lon="4.47344">
        <ele>570.8</ele>
        <time>2014-10-02T13:10:19Z</time>
      </trkpt>
      <trkpt lat="46.07594" lon="4.47354">
        <ele>571.9</ele>
        <time>2014-10-02T13:10:21Z</time>
      </trkpt>
      <trkpt lat="46.07584" lon="4.47366">
        <ele>573</ele>
        <time>2014-10-02T13:10:23Z</time>
      </trkpt>
      <trkpt lat="46.07575" lon="4.4738">
        <ele>574.1</ele>
        <time>2014-10-02T13:10:25Z</time>
      </trkpt>
      <trkpt lat="46.07565" lon="4.47394">
        <ele>575.2</ele>
        <time>2014-10-02T13:10:27Z</time>
      </trkpt>
      <trkpt lat="46.07555" lon="4.47408">
        <ele>573.5</ele>
        <time>2014-10-02T13:10:29Z</time>
      </trkpt>
      <trkpt lat="46.07545" lon="4.47421">
        <ele>571.9</ele>
        <time>2014-10-02T13:10:31Z</time>
      </trkpt>
      <trkpt lat="46.07534" lon="4.47435">
        <ele>570.3</ele>
        <time>2014-10-02T13:10:33Z</time>
      </trkpt>
      <trkpt lat="46.07524" lon="4.47449">
        <ele>568.6</ele>
        <time>2014-10-02T13:10:35Z</time>
      </trkpt>
      <trkpt lat="46.07514" lon="4.47464">
        <ele>566</ele>
        <time>2014-10-02T13:10:37Z</time>
      </trkpt>
      <trkpt lat="46.07505" lon="4.4748">
        <ele>565.5</ele>
        <time>2014-10-02T13:10:39Z</time>
      </trkpt>
      <trkpt lat="46.07495" lon="4.47496">
        <ele>566.5</ele>
        <time>2014-10-02T13:10:41Z</time>
      </trkpt>
      <trkpt lat="46.07487" lon="4.47513">
        <ele>565.5</ele>
        <time>2014-10-02T13:10:43Z</time>
      </trkpt>
      <trkpt lat="46.07479" lon="4.47532">
        <ele>564.4</ele>
        <time>2014-10-02T13:10:45Z</time>
      </trkpt>
      <trkpt lat="46.07472" lon="4.47553">
        <ele>562.8</ele>
        <time>2014-10-02T13:10:47Z</time>
      </trkpt>
      <trkpt lat="46.07466" lon="4.47573">
        <ele>561.3</ele>
        <time>2014-10-02T13:10:49Z</time>
      </trkpt>
      <trkpt lat="46.0746" lon="4.47593">
        <ele>561.5</ele>
        <time>2014-10-02T13:10:51Z</time>
      </trkpt>
      <trkpt lat="46.07454" lon="4.47612">
        <ele>561.6</ele>
        <time>2014-10-02T13:10:53Z</time>
      </trkpt>
      <trkpt lat="46.07448" lon="4.4763">
        <ele>561.8</ele>
        <time>2014-10-02T13:10:55Z</time>
      </trkpt>
      <trkpt lat="46.07441" lon="4.47647">
        <ele>562</ele>
        <time>2014-10-02T13:10:57Z</time>
      </trkpt>
      <trkpt lat="46.07433" lon="4.47663">
        <ele>563.2</ele>
        <time>2014-10-02T13:10:59Z</time>
      </trkpt>
      <trkpt lat="46.07422" lon="4.47674">
        <ele>564.4</ele>
        <time>2014-10-02T13:11:01Z</time>
      </trkpt>
      <trkpt lat="46.07411" lon="4.47683">
        <ele>563.9</ele>
        <time>2014-10-02T13:11:03Z</time>
      </trkpt>
      <trkpt lat="46.07398" lon="4.4769">
        <ele>563.5</ele>
        <time>2014-10-02T13:11:05Z</time>
      </trkpt>
      <trkpt lat="46.07384" lon="4.47695">
        <ele>563</ele>
        <time>2014-10-02T13:11:07Z</time>
      </trkpt>
      <trkpt lat="46.07368" lon="4.47697">
        <ele>563</ele>
        <time>2014-10-02T13:11:09Z</time>
      </trkpt>
      <trkpt lat="46.07353" lon="4.477">
        <ele>563</ele>
        <time>2014-10-02T13:11:11Z</time>
      </trkpt>
      <trkpt lat="46.07337" lon="4.47699">
        <ele>562.7</ele>
        <time>2014-10-02T13:11:13Z</time>
      </trkpt>
      <trkpt lat="46.07329" lon="4.47699">
        <ele>562.5</ele>
        <time>2014-10-02T13:11:14Z</time>
      </trkpt>
      <trkpt lat="46.0732" lon="4.47698">
        <ele>562.2</ele>
        <time>2014-10-02T13:11:15Z</time>
      </trkpt>
      <trkpt lat="46.07312" lon="4.47695">
        <ele>561.9</ele>
        <time>2014-10-02T13:11:16Z</time>
      </trkpt>
      <trkpt lat="46.07304" lon="4.47692">
        <ele>561.6</ele>
        <time>2014-10-02T13:11:17Z</time>
      </trkpt>
      <trkpt lat="46.07296" lon="4.47688">
        <ele>561.4</ele>
        <time>2014-10-02T13:11:18Z</time>
      </trkpt>
      <trkpt lat="46.07287" lon="4.47684">
        <ele>561.1</ele>
        <time>2014-10-02T13:11:19Z</time>
      </trkpt>
      <trkpt lat="46.07278" lon="4.4768">
        <ele>560.8</ele>
        <time>2014-10-02T13:11:20Z</time>
      </trkpt>
      <trkpt lat="46.07269" lon="4.47676">
        <ele>560.5</ele>
        <time>2014-10-02T13:11:21Z</time>
      </trkpt>
      <trkpt lat="46.07259" lon="4.47671">
        <ele>560.3</ele>
        <time>2014-10-02T13:11:22Z</time>
      </trkpt>
      <trkpt lat="46.0725" lon="4.47667">
        <ele>559.5</ele>
        <time>2014-10-02T13:11:23Z</time>
      </trkpt>
      <trkpt lat="46.07241" lon="4.47663">
        <ele>558.9</ele>
        <time>2014-10-02T13:11:24Z</time>
      </trkpt>
      <trkpt lat="46.07233" lon="4.47658">
        <ele>558.4</ele>
        <time>2014-10-02T13:11:25Z</time>
      </trkpt>
      <trkpt lat="46.07224" lon="4.47654">
        <ele>557.8</ele>
        <time>2014-10-02T13:11:26Z</time>
      </trkpt>
      <trkpt lat="46.07216" lon="4.4765">
        <ele>557.3</ele>
        <time>2014-10-02T13:11:27Z</time>
      </trkpt>
      <trkpt lat="46.07208" lon="4.47647">
        <ele>558.2</ele>
        <time>2014-10-02T13:11:28Z</time>
      </trkpt>
      <trkpt lat="46.07199" lon="4.47643">
        <ele>559.1</ele>
        <time>2014-10-02T13:11:29Z</time>
      </trkpt>
      <trkpt lat="46.07191" lon="4.4764">
        <ele>560</ele>
        <time>2014-10-02T13:11:30Z</time>
      </trkpt>
      <trkpt lat="46.07183" lon="4.47636">
        <ele>561.8</ele>
        <time>2014-10-02T13:11:31Z</time>
      </trkpt>
      <trkpt lat="46.07175" lon="4.47633">
        <ele>562.6</ele>
        <time>2014-10-02T13:11:32Z</time>
      </trkpt>
      <trkpt lat="46.07167" lon="4.47631">
        <ele>563.5</ele>
        <time>2014-10-02T13:11:33Z</time>
      </trkpt>
      <trkpt lat="46.07152" lon="4.47628">
        <ele>564.8</ele>
        <time>2014-10-02T13:11:35Z</time>
      </trkpt>
      <trkpt lat="46.07138" lon="4.47628">
        <ele>566.2</ele>
        <time>2014-10-02T13:11:37Z</time>
      </trkpt>
      <trkpt lat="46.07125" lon="4.4763">
        <ele>567.5</ele>
        <time>2014-10-02T13:11:39Z</time>
      </trkpt>
      <trkpt lat="46.07114" lon="4.47635">
        <ele>568.9</ele>
        <time>2014-10-02T13:11:41Z</time>
      </trkpt>
      <trkpt lat="46.07104" lon="4.4764">
        <ele>570.3</ele>
        <time>2014-10-02T13:11:43Z</time>
      </trkpt>
      <trkpt lat="46.07097" lon="4.47645">
        <ele>570.2</ele>
        <time>2014-10-02T13:11:45Z</time>
      </trkpt>
      <trkpt lat="46.07089" lon="4.4765">
        <ele>570.1</ele>
        <time>2014-10-02T13:11:47Z</time>
      </trkpt>
      <trkpt lat="46.07081" lon="4.4766">
        <ele>568.9</ele>
        <time>2014-10-02T13:11:50Z</time>
      </trkpt>
      <trkpt lat="46.07073" lon="4.47672">
        <ele>568.9</ele>
        <time>2014-10-02T13:11:53Z</time>
      </trkpt>
      <trkpt lat="46.07067" lon="4.47684">
        <ele>569.9</ele>
        <time>2014-10-02T13:11:56Z</time>
      </trkpt>
      <trkpt lat="46.0706" lon="4.47695">
        <ele>570.9</ele>
        <time>2014-10-02T13:11:59Z</time>
      </trkpt>
      <trkpt lat="46.07053" lon="4.47707">
        <ele>571.9</ele>
        <time>2014-10-02T13:12:02Z</time>
      </trkpt>
      <trkpt lat="46.07047" lon="4.47719">
        <ele>572.9</ele>
        <time>2014-10-02T13:12:05Z</time>
      </trkpt>
      <trkpt lat="46.07041" lon="4.47731">
        <ele>573.9</ele>
        <time>2014-10-02T13:12:08Z</time>
      </trkpt>
      <trkpt lat="46.07035" lon="4.47743">
        <ele>574.9</ele>
        <time>2014-10-02T13:12:11Z</time>
      </trkpt>
      <trkpt lat="46.07028" lon="4.47754">
        <ele>574.6</ele>
        <time>2014-10-02T13:12:14Z</time>
      </trkpt>
      <trkpt lat="46.0702" lon="4.47765">
        <ele>574.4</ele>
        <time>2014-10-02T13:12:17Z</time>
      </trkpt>
      <trkpt lat="46.07011" lon="4.47775">
        <ele>574.1</ele>
        <time>2014-10-02T13:12:20Z</time>
      </trkpt>
      <trkpt lat="46.07004" lon="4.47785">
        <ele>574.8</ele>
        <time>2014-10-02T13:12:23Z</time>
      </trkpt>
      <trkpt lat="46.06996" lon="4.47794">
        <ele>573.5</ele>
        <time>2014-10-02T13:12:26Z</time>
      </trkpt>
      <trkpt lat="46.06988" lon="4.47802">
        <ele>572.1</ele>
        <time>2014-10-02T13:12:29Z</time>
      </trkpt>
      <trkpt lat="46.06979" lon="4.4781">
        <ele>570.7</ele>
        <time>2014-10-02T13:12:32Z</time>
      </trkpt>
      <trkpt lat="46.06969" lon="4.47816">
        <ele>569.4</ele>
        <time>2014-10-02T13:12:35Z</time>
      </trkpt>
      <trkpt lat="46.06958" lon="4.4782">
        <ele>568</ele>
        <time>2014-10-02T13:12:38Z</time>
      </trkpt>
      <trkpt lat="46.06949" lon="4.4782">
        <ele>568.3</ele>
        <time>2014-10-02T13:12:40Z</time>
      </trkpt>
      <trkpt lat="46.06937" lon="4.47817">
        <ele>568.5</ele>
        <time>2014-10-02T13:12:42Z</time>
      </trkpt>
      <trkpt lat="46.06927" lon="4.47813">
        <ele>569</ele>
        <time>2014-10-02T13:12:44Z</time>
      </trkpt>
      <trkpt lat="46.06917" lon="4.47806">
        <ele>569.5</ele>
        <time>2014-10-02T13:12:46Z</time>
      </trkpt>
      <trkpt lat="46.06907" lon="4.478">
        <ele>569.9</ele>
        <time>2014-10-02T13:12:48Z</time>
      </trkpt>
      <trkpt lat="46.06897" lon="4.47792">
        <ele>570.5</ele>
        <time>2014-10-02T13:12:50Z</time>
      </trkpt>
      <trkpt lat="46.06886" lon="4.47784">
        <ele>571</ele>
        <time>2014-10-02T13:12:52Z</time>
      </trkpt>
      <trkpt lat="46.06875" lon="4.47776">
        <ele>571.5</ele>
        <time>2014-10-02T13:12:54Z</time>
      </trkpt>
      <trkpt lat="46.06864" lon="4.47769">
        <ele>572.1</ele>
        <time>2014-10-02T13:12:56Z</time>
      </trkpt>
      <trkpt lat="46.06853" lon="4.47762">
        <ele>572.7</ele>
        <time>2014-10-02T13:12:58Z</time>
      </trkpt>
      <trkpt lat="46.06841" lon="4.47757">
        <ele>573.4</ele>
        <time>2014-10-02T13:13:00Z</time>
      </trkpt>
      <trkpt lat="46.06828" lon="4.47754">
        <ele>572.4</ele>
        <time>2014-10-02T13:13:02Z</time>
      </trkpt>
      <trkpt lat="46.06816" lon="4.47751">
        <ele>571.4</ele>
        <time>2014-10-02T13:13:04Z</time>
      </trkpt>
      <trkpt lat="46.06804" lon="4.47748">
        <ele>571.5</ele>
        <time>2014-10-02T13:13:06Z</time>
      </trkpt>
      <trkpt lat="46.06791" lon="4.47744">
        <ele>571.5</ele>
        <time>2014-10-02T13:13:08Z</time>
      </trkpt>
      <trkpt lat="46.06777" lon="4.47742">
        <ele>571.6</ele>
        <time>2014-10-02T13:13:10Z</time>
      </trkpt>
      <trkpt lat="46.06765" lon="4.47741">
        <ele>572.5</ele>
        <time>2014-10-02T13:13:12Z</time>
      </trkpt>
      <trkpt lat="46.06751" lon="4.47741">
        <ele>573.5</ele>
        <time>2014-10-02T13:13:14Z</time>
      </trkpt>
      <trkpt lat="46.06737" lon="4.47742">
        <ele>574.4</ele>
        <time>2014-10-02T13:13:16Z</time>
      </trkpt>
      <trkpt lat="46.06724" lon="4.47743">
        <ele>575.3</ele>
        <time>2014-10-02T13:13:18Z</time>
      </trkpt>
      <trkpt lat="46.0671" lon="4.47746">
        <ele>576.1</ele>
        <time>2014-10-02T13:13:20Z</time>
      </trkpt>
      <trkpt lat="46.06696" lon="4.4775">
        <ele>575.5</ele>
        <time>2014-10-02T13:13:22Z</time>
      </trkpt>
      <trkpt lat="46.06683" lon="4.47755">
        <ele>574.8</ele>
        <time>2014-10-02T13:13:24Z</time>
      </trkpt>
      <trkpt lat="46.06669" lon="4.47763">
        <ele>575</ele>
        <time>2014-10-02T13:13:26Z</time>
      </trkpt>
      <trkpt lat="46.06657" lon="4.47774">
        <ele>575.2</ele>
        <time>2014-10-02T13:13:28Z</time>
      </trkpt>
      <trkpt lat="46.06646" lon="4.47788">
        <ele>575.4</ele>
        <time>2014-10-02T13:13:30Z</time>
      </trkpt>
      <trkpt lat="46.06637" lon="4.47803">
        <ele>575.5</ele>
        <time>2014-10-02T13:13:32Z</time>
      </trkpt>
      <trkpt lat="46.06628" lon="4.4782">
        <ele>573.6</ele>
        <time>2014-10-02T13:13:34Z</time>
      </trkpt>
      <trkpt lat="46.06619" lon="4.47837">
        <ele>571.7</ele>
        <time>2014-10-02T13:13:36Z</time>
      </trkpt>
      <trkpt lat="46.06609" lon="4.47853">
        <ele>569.8</ele>
        <time>2014-10-02T13:13:38Z</time>
      </trkpt>
      <trkpt lat="46.06596" lon="4.47865">
        <ele>568.1</ele>
        <time>2014-10-02T13:13:40Z</time>
      </trkpt>
      <trkpt lat="46.06582" lon="4.47875">
        <ele>566.4</ele>
        <time>2014-10-02T13:13:42Z</time>
      </trkpt>
      <trkpt lat="46.06574" lon="4.47879">
        <ele>566.1</ele>
        <time>2014-10-02T13:13:43Z</time>
      </trkpt>
      <trkpt lat="46.06566" lon="4.47883">
        <ele>565.8</ele>
        <time>2014-10-02T13:13:44Z</time>
      </trkpt>
      <trkpt lat="46.06559" lon="4.47887">
        <ele>564.7</ele>
        <time>2014-10-02T13:13:45Z</time>
      </trkpt>
      <trkpt lat="46.06543" lon="4.47894">
        <ele>563.6</ele>
        <time>2014-10-02T13:13:47Z</time>
      </trkpt>
      <trkpt lat="46.06535" lon="4.47898">
        <ele>562.5</ele>
        <time>2014-10-02T13:13:48Z</time>
      </trkpt>
      <trkpt lat="46.06528" lon="4.47902">
        <ele>561.5</ele>
        <time>2014-10-02T13:13:49Z</time>
      </trkpt>
      <trkpt lat="46.06519" lon="4.47905">
        <ele>561.6</ele>
        <time>2014-10-02T13:13:50Z</time>
      </trkpt>
      <trkpt lat="46.06511" lon="4.47908">
        <ele>561.8</ele>
        <time>2014-10-02T13:13:51Z</time>
      </trkpt>
      <trkpt lat="46.06503" lon="4.4791">
        <ele>561.4</ele>
        <time>2014-10-02T13:13:52Z</time>
      </trkpt>
      <trkpt lat="46.06495" lon="4.47911">
        <ele>560.7</ele>
        <time>2014-10-02T13:13:53Z</time>
      </trkpt>
      <trkpt lat="46.06486" lon="4.4791">
        <ele>560.1</ele>
        <time>2014-10-02T13:13:54Z</time>
      </trkpt>
      <trkpt lat="46.06477" lon="4.47908">
        <ele>560.5</ele>
        <time>2014-10-02T13:13:55Z</time>
      </trkpt>
      <trkpt lat="46.06469" lon="4.47905">
        <ele>560.8</ele>
        <time>2014-10-02T13:13:56Z</time>
      </trkpt>
      <trkpt lat="46.06462" lon="4.47899">
        <ele>561.2</ele>
        <time>2014-10-02T13:13:57Z</time>
      </trkpt>
      <trkpt lat="46.06455" lon="4.47892">
        <ele>561.5</ele>
        <time>2014-10-02T13:13:58Z</time>
      </trkpt>
      <trkpt lat="46.06448" lon="4.47885">
        <ele>561.9</ele>
        <time>2014-10-02T13:13:59Z</time>
      </trkpt>
      <trkpt lat="46.06441" lon="4.47877">
        <ele>562.3</ele>
        <time>2014-10-02T13:14:00Z</time>
      </trkpt>
      <trkpt lat="46.06434" lon="4.4787">
        <ele>562.6</ele>
        <time>2014-10-02T13:14:01Z</time>
      </trkpt>
      <trkpt lat="46.06427" lon="4.47863">
        <ele>563</ele>
        <time>2014-10-02T13:14:02Z</time>
      </trkpt>
      <trkpt lat="46.0642" lon="4.47856">
        <ele>563.6</ele>
        <time>2014-10-02T13:14:03Z</time>
      </trkpt>
      <trkpt lat="46.06413" lon="4.4785">
        <ele>564.3</ele>
        <time>2014-10-02T13:14:04Z</time>
      </trkpt>
      <trkpt lat="46.06405" lon="4.47845">
        <ele>564.9</ele>
        <time>2014-10-02T13:14:05Z</time>
      </trkpt>
      <trkpt lat="46.06398" lon="4.47839">
        <ele>564.5</ele>
        <time>2014-10-02T13:14:06Z</time>
      </trkpt>
      <trkpt lat="46.06389" lon="4.47835">
        <ele>564.2</ele>
        <time>2014-10-02T13:14:07Z</time>
      </trkpt>
      <trkpt lat="46.0638" lon="4.47834">
        <ele>563.8</ele>
        <time>2014-10-02T13:14:08Z</time>
      </trkpt>
      <trkpt lat="46.06372" lon="4.47832">
        <ele>563.5</ele>
        <time>2014-10-02T13:14:09Z</time>
      </trkpt>
      <trkpt lat="46.06363" lon="4.47831">
        <ele>563.1</ele>
        <time>2014-10-02T13:14:10Z</time>
      </trkpt>
      <trkpt lat="46.06354" lon="4.47831">
        <ele>562.7</ele>
        <time>2014-10-02T13:14:11Z</time>
      </trkpt>
      <trkpt lat="46.06344" lon="4.47832">
        <ele>562.4</ele>
        <time>2014-10-02T13:14:12Z</time>
      </trkpt>
      <trkpt lat="46.06335" lon="4.47832">
        <ele>561.9</ele>
        <time>2014-10-02T13:14:13Z</time>
      </trkpt>
      <trkpt lat="46.06327" lon="4.47833">
        <ele>561.8</ele>
        <time>2014-10-02T13:14:14Z</time>
      </trkpt>
      <trkpt lat="46.06318" lon="4.47833">
        <ele>561.7</ele>
        <time>2014-10-02T13:14:15Z</time>
      </trkpt>
      <trkpt lat="46.06309" lon="4.47834">
        <ele>561.6</ele>
        <time>2014-10-02T13:14:16Z</time>
      </trkpt>
      <trkpt lat="46.063" lon="4.47835">
        <ele>561.5</ele>
        <time>2014-10-02T13:14:17Z</time>
      </trkpt>
      <trkpt lat="46.06291" lon="4.47835">
        <ele>561.5</ele>
        <time>2014-10-02T13:14:18Z</time>
      </trkpt>
      <trkpt lat="46.06282" lon="4.47835">
        <ele>561.4</ele>
        <time>2014-10-02T13:14:19Z</time>
      </trkpt>
      <trkpt lat="46.06273" lon="4.47836">
        <ele>561.3</ele>
        <time>2014-10-02T13:14:20Z</time>
      </trkpt>
      <trkpt lat="46.06264" lon="4.47837">
        <ele>561.2</ele>
        <time>2014-10-02T13:14:21Z</time>
      </trkpt>
      <trkpt lat="46.06256" lon="4.47838">
        <ele>561.1</ele>
        <time>2014-10-02T13:14:22Z</time>
      </trkpt>
      <trkpt lat="46.06247" lon="4.47837">
        <ele>560.5</ele>
        <time>2014-10-02T13:14:23Z</time>
      </trkpt>
      <trkpt lat="46.06238" lon="4.47836">
        <ele>559.9</ele>
        <time>2014-10-02T13:14:24Z</time>
      </trkpt>
      <trkpt lat="46.06229" lon="4.47834">
        <ele>559.4</ele>
        <time>2014-10-02T13:14:25Z</time>
      </trkpt>
      <trkpt lat="46.0622" lon="4.47833">
        <ele>558.8</ele>
        <time>2014-10-02T13:14:26Z</time>
      </trkpt>
      <trkpt lat="46.06211" lon="4.47831">
        <ele>558.3</ele>
        <time>2014-10-02T13:14:27Z</time>
      </trkpt>
      <trkpt lat="46.06202" lon="4.47828">
        <ele>557.7</ele>
        <time>2014-10-02T13:14:28Z</time>
      </trkpt>
      <trkpt lat="46.06193" lon="4.47825">
        <ele>557.7</ele>
        <time>2014-10-02T13:14:29Z</time>
      </trkpt>
      <trkpt lat="46.06185" lon="4.47821">
        <ele>557.7</ele>
        <time>2014-10-02T13:14:30Z</time>
      </trkpt>
      <trkpt lat="46.06177" lon="4.47816">
        <ele>557.7</ele>
        <time>2014-10-02T13:14:31Z</time>
      </trkpt>
      <trkpt lat="46.06169" lon="4.47809">
        <ele>557.7</ele>
        <time>2014-10-02T13:14:32Z</time>
      </trkpt>
      <trkpt lat="46.06162" lon="4.47801">
        <ele>557.7</ele>
        <time>2014-10-02T13:14:33Z</time>
      </trkpt>
      <trkpt lat="46.06156" lon="4.47792">
        <ele>558.3</ele>
        <time>2014-10-02T13:14:34Z</time>
      </trkpt>
      <trkpt lat="46.0615" lon="4.47783">
        <ele>557.1</ele>
        <time>2014-10-02T13:14:35Z</time>
      </trkpt>
      <trkpt lat="46.06145" lon="4.47773">
        <ele>555.9</ele>
        <time>2014-10-02T13:14:36Z</time>
      </trkpt>
      <trkpt lat="46.06139" lon="4.47761">
        <ele>555</ele>
        <time>2014-10-02T13:14:37Z</time>
      </trkpt>
      <trkpt lat="46.06133" lon="4.4775">
        <ele>554.1</ele>
        <time>2014-10-02T13:14:38Z</time>
      </trkpt>
      <trkpt lat="46.06127" lon="4.47739">
        <ele>553.2</ele>
        <time>2014-10-02T13:14:39Z</time>
      </trkpt>
      <trkpt lat="46.06122" lon="4.47728">
        <ele>551.7</ele>
        <time>2014-10-02T13:14:40Z</time>
      </trkpt>
      <trkpt lat="46.06116" lon="4.47717">
        <ele>550.3</ele>
        <time>2014-10-02T13:14:41Z</time>
      </trkpt>
      <trkpt lat="46.06111" lon="4.47707">
        <ele>548.8</ele>
        <time>2014-10-02T13:14:42Z</time>
      </trkpt>
      <trkpt lat="46.06105" lon="4.47686">
        <ele>547</ele>
        <time>2014-10-02T13:14:44Z</time>
      </trkpt>
      <trkpt lat="46.06104" lon="4.47674">
        <ele>545.2</ele>
        <time>2014-10-02T13:14:45Z</time>
      </trkpt>
      <trkpt lat="46.06105" lon="4.47662">
        <ele>544.8</ele>
        <time>2014-10-02T13:14:46Z</time>
      </trkpt>
      <trkpt lat="46.06109" lon="4.4765">
        <ele>546.2</ele>
        <time>2014-10-02T13:14:47Z</time>
      </trkpt>
      <trkpt lat="46.06113" lon="4.4764">
        <ele>547.5</ele>
        <time>2014-10-02T13:14:48Z</time>
      </trkpt>
      <trkpt lat="46.06118" lon="4.47631">
        <ele>548.6</ele>
        <time>2014-10-02T13:14:49Z</time>
      </trkpt>
      <trkpt lat="46.06123" lon="4.47621">
        <ele>549.7</ele>
        <time>2014-10-02T13:14:50Z</time>
      </trkpt>
      <trkpt lat="46.06128" lon="4.4761">
        <ele>550.8</ele>
        <time>2014-10-02T13:14:51Z</time>
      </trkpt>
      <trkpt lat="46.06133" lon="4.476">
        <ele>551.5</ele>
        <time>2014-10-02T13:14:52Z</time>
      </trkpt>
      <trkpt lat="46.06139" lon="4.47591">
        <ele>552.1</ele>
        <time>2014-10-02T13:14:53Z</time>
      </trkpt>
      <trkpt lat="46.06144" lon="4.47579">
        <ele>552.7</ele>
        <time>2014-10-02T13:14:54Z</time>
      </trkpt>
      <trkpt lat="46.06149" lon="4.47568">
        <ele>553.7</ele>
        <time>2014-10-02T13:14:55Z</time>
      </trkpt>
      <trkpt lat="46.06152" lon="4.47557">
        <ele>554.7</ele>
        <time>2014-10-02T13:14:56Z</time>
      </trkpt>
      <trkpt lat="46.06156" lon="4.47545">
        <ele>554.3</ele>
        <time>2014-10-02T13:14:57Z</time>
      </trkpt>
      <trkpt lat="46.06159" lon="4.47532">
        <ele>553.8</ele>
        <time>2014-10-02T13:14:58Z</time>
      </trkpt>
      <trkpt lat="46.06162" lon="4.47519">
        <ele>552.4</ele>
        <time>2014-10-02T13:14:59Z</time>
      </trkpt>
      <trkpt lat="46.06165" lon="4.47506">
        <ele>550.9</ele>
        <time>2014-10-02T13:15:00Z</time>
      </trkpt>
      <trkpt lat="46.06167" lon="4.47494">
        <ele>549.5</ele>
        <time>2014-10-02T13:15:01Z</time>
      </trkpt>
      <trkpt lat="46.06169" lon="4.47481">
        <ele>548</ele>
        <time>2014-10-02T13:15:02Z</time>
      </trkpt>
      <trkpt lat="46.06172" lon="4.47468">
        <ele>547</ele>
        <time>2014-10-02T13:15:03Z</time>
      </trkpt>
      <trkpt lat="46.06175" lon="4.47454">
        <ele>546</ele>
        <time>2014-10-02T13:15:04Z</time>
      </trkpt>
      <trkpt lat="46.06178" lon="4.4744">
        <ele>544.2</ele>
        <time>2014-10-02T13:15:05Z</time>
      </trkpt>
      <trkpt lat="46.06181" lon="4.47426">
        <ele>542.4</ele>
        <time>2014-10-02T13:15:06Z</time>
      </trkpt>
      <trkpt lat="46.06184" lon="4.47413">
        <ele>540.5</ele>
        <time>2014-10-02T13:15:07Z</time>
      </trkpt>
      <trkpt lat="46.06187" lon="4.47399">
        <ele>538.7</ele>
        <time>2014-10-02T13:15:08Z</time>
      </trkpt>
      <trkpt lat="46.0619" lon="4.47385">
        <ele>536.9</ele>
        <time>2014-10-02T13:15:09Z</time>
      </trkpt>
      <trkpt lat="46.06193" lon="4.47371">
        <ele>535.7</ele>
        <time>2014-10-02T13:15:10Z</time>
      </trkpt>
      <trkpt lat="46.06196" lon="4.47358">
        <ele>536.5</ele>
        <time>2014-10-02T13:15:11Z</time>
      </trkpt>
      <trkpt lat="46.06199" lon="4.47344">
        <ele>537.4</ele>
        <time>2014-10-02T13:15:12Z</time>
      </trkpt>
      <trkpt lat="46.06202" lon="4.47329">
        <ele>538.2</ele>
        <time>2014-10-02T13:15:13Z</time>
      </trkpt>
      <trkpt lat="46.06204" lon="4.47315">
        <ele>539</ele>
        <time>2014-10-02T13:15:14Z</time>
      </trkpt>
      <trkpt lat="46.06207" lon="4.47302">
        <ele>539.8</ele>
        <time>2014-10-02T13:15:15Z</time>
      </trkpt>
      <trkpt lat="46.0621" lon="4.47288">
        <ele>541</ele>
        <time>2014-10-02T13:15:16Z</time>
      </trkpt>
      <trkpt lat="46.06213" lon="4.47274">
        <ele>542.2</ele>
        <time>2014-10-02T13:15:17Z</time>
      </trkpt>
      <trkpt lat="46.06216" lon="4.47259">
        <ele>543.4</ele>
        <time>2014-10-02T13:15:18Z</time>
      </trkpt>
      <trkpt lat="46.06218" lon="4.47246">
        <ele>544.5</ele>
        <time>2014-10-02T13:15:19Z</time>
      </trkpt>
      <trkpt lat="46.06221" lon="4.47232">
        <ele>545.7</ele>
        <time>2014-10-02T13:15:20Z</time>
      </trkpt>
      <trkpt lat="46.06222" lon="4.47218">
        <ele>547.3</ele>
        <time>2014-10-02T13:15:21Z</time>
      </trkpt>
      <trkpt lat="46.06223" lon="4.47204">
        <ele>546.7</ele>
        <time>2014-10-02T13:15:22Z</time>
      </trkpt>
      <trkpt lat="46.06223" lon="4.47191">
        <ele>546.2</ele>
        <time>2014-10-02T13:15:23Z</time>
      </trkpt>
      <trkpt lat="46.06223" lon="4.47177">
        <ele>545.6</ele>
        <time>2014-10-02T13:15:24Z</time>
      </trkpt>
      <trkpt lat="46.06223" lon="4.47162">
        <ele>545.1</ele>
        <time>2014-10-02T13:15:25Z</time>
      </trkpt>
      <trkpt lat="46.06223" lon="4.47148">
        <ele>544.5</ele>
        <time>2014-10-02T13:15:26Z</time>
      </trkpt>
      <trkpt lat="46.06223" lon="4.47135">
        <ele>543.5</ele>
        <time>2014-10-02T13:15:27Z</time>
      </trkpt>
      <trkpt lat="46.06222" lon="4.47122">
        <ele>542.5</ele>
        <time>2014-10-02T13:15:28Z</time>
      </trkpt>
      <trkpt lat="46.06219" lon="4.47111">
        <ele>541.5</ele>
        <time>2014-10-02T13:15:29Z</time>
      </trkpt>
      <trkpt lat="46.06217" lon="4.47099">
        <ele>540.5</ele>
        <time>2014-10-02T13:15:30Z</time>
      </trkpt>
      <trkpt lat="46.06212" lon="4.47089">
        <ele>539.5</ele>
        <time>2014-10-02T13:15:31Z</time>
      </trkpt>
      <trkpt lat="46.06206" lon="4.47081">
        <ele>538.5</ele>
        <time>2014-10-02T13:15:32Z</time>
      </trkpt>
      <trkpt lat="46.06199" lon="4.47075">
        <ele>537.6</ele>
        <time>2014-10-02T13:15:33Z</time>
      </trkpt>
      <trkpt lat="46.06192" lon="4.47069">
        <ele>536.7</ele>
        <time>2014-10-02T13:15:34Z</time>
      </trkpt>
      <trkpt lat="46.06182" lon="4.47069">
        <ele>535.8</ele>
        <time>2014-10-02T13:15:35Z</time>
      </trkpt>
      <trkpt lat="46.06173" lon="4.4707">
        <ele>536.3</ele>
        <time>2014-10-02T13:15:36Z</time>
      </trkpt>
      <trkpt lat="46.06165" lon="4.4707">
        <ele>536.7</ele>
        <time>2014-10-02T13:15:37Z</time>
      </trkpt>
      <trkpt lat="46.06155" lon="4.47072">
        <ele>538.1</ele>
        <time>2014-10-02T13:15:38Z</time>
      </trkpt>
      <trkpt lat="46.06146" lon="4.47074">
        <ele>539.5</ele>
        <time>2014-10-02T13:15:39Z</time>
      </trkpt>
      <trkpt lat="46.06136" lon="4.47076">
        <ele>540.8</ele>
        <time>2014-10-02T13:15:40Z</time>
      </trkpt>
      <trkpt lat="46.06127" lon="4.47079">
        <ele>542.2</ele>
        <time>2014-10-02T13:15:41Z</time>
      </trkpt>
      <trkpt lat="46.06118" lon="4.47082">
        <ele>543.5</ele>
        <time>2014-10-02T13:15:42Z</time>
      </trkpt>
      <trkpt lat="46.06108" lon="4.47087">
        <ele>544.9</ele>
        <time>2014-10-02T13:15:43Z</time>
      </trkpt>
      <trkpt lat="46.06099" lon="4.47091">
        <ele>546.3</ele>
        <time>2014-10-02T13:15:44Z</time>
      </trkpt>
      <trkpt lat="46.0609" lon="4.47098">
        <ele>545.5</ele>
        <time>2014-10-02T13:15:45Z</time>
      </trkpt>
      <trkpt lat="46.06081" lon="4.47106">
        <ele>544.9</ele>
        <time>2014-10-02T13:15:46Z</time>
      </trkpt>
      <trkpt lat="46.06073" lon="4.47113">
        <ele>543</ele>
        <time>2014-10-02T13:15:47Z</time>
      </trkpt>
      <trkpt lat="46.06064" lon="4.47119">
        <ele>541.1</ele>
        <time>2014-10-02T13:15:48Z</time>
      </trkpt>
      <trkpt lat="46.06056" lon="4.47129">
        <ele>539.2</ele>
        <time>2014-10-02T13:15:49Z</time>
      </trkpt>
      <trkpt lat="46.06048" lon="4.47139">
        <ele>537.3</ele>
        <time>2014-10-02T13:15:50Z</time>
      </trkpt>
      <trkpt lat="46.06029" lon="4.47151">
        <ele>535.4</ele>
        <time>2014-10-02T13:15:52Z</time>
      </trkpt>
      <trkpt lat="46.06018" lon="4.47154">
        <ele>535.4</ele>
        <time>2014-10-02T13:15:53Z</time>
      </trkpt>
      <trkpt lat="46.06007" lon="4.47156">
        <ele>532.7</ele>
        <time>2014-10-02T13:15:54Z</time>
      </trkpt>
      <trkpt lat="46.05997" lon="4.47156">
        <ele>530.1</ele>
        <time>2014-10-02T13:15:55Z</time>
      </trkpt>
      <trkpt lat="46.05986" lon="4.47149">
        <ele>527.5</ele>
        <time>2014-10-02T13:15:56Z</time>
      </trkpt>
      <trkpt lat="46.05976" lon="4.47142">
        <ele>527</ele>
        <time>2014-10-02T13:15:57Z</time>
      </trkpt>
      <trkpt lat="46.05967" lon="4.47133">
        <ele>526.3</ele>
        <time>2014-10-02T13:15:58Z</time>
      </trkpt>
      <trkpt lat="46.05959" lon="4.47122">
        <ele>525.5</ele>
        <time>2014-10-02T13:15:59Z</time>
      </trkpt>
      <trkpt lat="46.05951" lon="4.4711">
        <ele>524.8</ele>
        <time>2014-10-02T13:16:00Z</time>
      </trkpt>
      <trkpt lat="46.05943" lon="4.47098">
        <ele>525</ele>
        <time>2014-10-02T13:16:01Z</time>
      </trkpt>
      <trkpt lat="46.05935" lon="4.47086">
        <ele>525.2</ele>
        <time>2014-10-02T13:16:02Z</time>
      </trkpt>
      <trkpt lat="46.05927" lon="4.47074">
        <ele>525.4</ele>
        <time>2014-10-02T13:16:03Z</time>
      </trkpt>
      <trkpt lat="46.05921" lon="4.47063">
        <ele>524.1</ele>
        <time>2014-10-02T13:16:04Z</time>
      </trkpt>
      <trkpt lat="46.05914" lon="4.47053">
        <ele>525.5</ele>
        <time>2014-10-02T13:16:05Z</time>
      </trkpt>
      <trkpt lat="46.05909" lon="4.47041">
        <ele>526.8</ele>
        <time>2014-10-02T13:16:06Z</time>
      </trkpt>
      <trkpt lat="46.05902" lon="4.47016">
        <ele>528.2</ele>
        <time>2014-10-02T13:16:08Z</time>
      </trkpt>
      <trkpt lat="46.059" lon="4.46987">
        <ele>529.5</ele>
        <time>2014-10-02T13:16:10Z</time>
      </trkpt>
      <trkpt lat="46.05899" lon="4.46957">
        <ele>530.9</ele>
        <time>2014-10-02T13:16:12Z</time>
      </trkpt>
      <trkpt lat="46.05899" lon="4.46943">
        <ele>532.4</ele>
        <time>2014-10-02T13:16:13Z</time>
      </trkpt>
      <trkpt lat="46.05899" lon="4.4693">
        <ele>533.8</ele>
        <time>2014-10-02T13:16:14Z</time>
      </trkpt>
      <trkpt lat="46.05899" lon="4.46918">
        <ele>533.6</ele>
        <time>2014-10-02T13:16:15Z</time>
      </trkpt>
      <trkpt lat="46.05898" lon="4.46897">
        <ele>533.5</ele>
        <time>2014-10-02T13:16:17Z</time>
      </trkpt>
      <trkpt lat="46.05891" lon="4.4688">
        <ele>533.3</ele>
        <time>2014-10-02T13:16:19Z</time>
      </trkpt>
      <trkpt lat="46.05878" lon="4.46867">
        <ele>532.6</ele>
        <time>2014-10-02T13:16:21Z</time>
      </trkpt>
      <trkpt lat="46.05864" lon="4.46871">
        <ele>532</ele>
        <time>2014-10-02T13:16:23Z</time>
      </trkpt>
      <trkpt lat="46.05853" lon="4.46883">
        <ele>530.3</ele>
        <time>2014-10-02T13:16:25Z</time>
      </trkpt>
      <trkpt lat="46.05847" lon="4.469">
        <ele>528.5</ele>
        <time>2014-10-02T13:16:27Z</time>
      </trkpt>
      <trkpt lat="46.05842" lon="4.46918">
        <ele>526.8</ele>
        <time>2014-10-02T13:16:29Z</time>
      </trkpt>
      <trkpt lat="46.05837" lon="4.46936">
        <ele>525.1</ele>
        <time>2014-10-02T13:16:31Z</time>
      </trkpt>
      <trkpt lat="46.05832" lon="4.46953">
        <ele>523.3</ele>
        <time>2014-10-02T13:16:33Z</time>
      </trkpt>
      <trkpt lat="46.05827" lon="4.46971">
        <ele>520.5</ele>
        <time>2014-10-02T13:16:35Z</time>
      </trkpt>
      <trkpt lat="46.05822" lon="4.46988">
        <ele>518.4</ele>
        <time>2014-10-02T13:16:37Z</time>
      </trkpt>
      <trkpt lat="46.05818" lon="4.47005">
        <ele>519</ele>
        <time>2014-10-02T13:16:39Z</time>
      </trkpt>
      <trkpt lat="46.05813" lon="4.47021">
        <ele>519.6</ele>
        <time>2014-10-02T13:16:41Z</time>
      </trkpt>
      <trkpt lat="46.05808" lon="4.47037">
        <ele>520.3</ele>
        <time>2014-10-02T13:16:43Z</time>
      </trkpt>
      <trkpt lat="46.05804" lon="4.47052">
        <ele>520.9</ele>
        <time>2014-10-02T13:16:45Z</time>
      </trkpt>
      <trkpt lat="46.05799" lon="4.47066">
        <ele>522.6</ele>
        <time>2014-10-02T13:16:47Z</time>
      </trkpt>
      <trkpt lat="46.05793" lon="4.47081">
        <ele>523</ele>
        <time>2014-10-02T13:16:49Z</time>
      </trkpt>
      <trkpt lat="46.05787" lon="4.47096">
        <ele>523.4</ele>
        <time>2014-10-02T13:16:51Z</time>
      </trkpt>
      <trkpt lat="46.05779" lon="4.47109">
        <ele>523.7</ele>
        <time>2014-10-02T13:16:53Z</time>
      </trkpt>
      <trkpt lat="46.0577" lon="4.47121">
        <ele>524.1</ele>
        <time>2014-10-02T13:16:55Z</time>
      </trkpt>
      <trkpt lat="46.05761" lon="4.47133">
        <ele>525.5</ele>
        <time>2014-10-02T13:16:57Z</time>
      </trkpt>
      <trkpt lat="46.05752" lon="4.47145">
        <ele>526.8</ele>
        <time>2014-10-02T13:16:59Z</time>
      </trkpt>
      <trkpt lat="46.05744" lon="4.47158">
        <ele>527.3</ele>
        <time>2014-10-02T13:17:01Z</time>
      </trkpt>
      <trkpt lat="46.05736" lon="4.47173">
        <ele>527.7</ele>
        <time>2014-10-02T13:17:03Z</time>
      </trkpt>
      <trkpt lat="46.05728" lon="4.47189">
        <ele>528.2</ele>
        <time>2014-10-02T13:17:05Z</time>
      </trkpt>
      <trkpt lat="46.05721" lon="4.47205">
        <ele>528.6</ele>
        <time>2014-10-02T13:17:07Z</time>
      </trkpt>
      <trkpt lat="46.05714" lon="4.47219">
        <ele>529.1</ele>
        <time>2014-10-02T13:17:09Z</time>
      </trkpt>
      <trkpt lat="46.05708" lon="4.47234">
        <ele>529.2</ele>
        <time>2014-10-02T13:17:11Z</time>
      </trkpt>
      <trkpt lat="46.057" lon="4.4725">
        <ele>529.3</ele>
        <time>2014-10-02T13:17:13Z</time>
      </trkpt>
      <trkpt lat="46.05693" lon="4.47266">
        <ele>529.4</ele>
        <time>2014-10-02T13:17:15Z</time>
      </trkpt>
      <trkpt lat="46.05686" lon="4.47282">
        <ele>529.5</ele>
        <time>2014-10-02T13:17:17Z</time>
      </trkpt>
      <trkpt lat="46.0568" lon="4.47298">
        <ele>529.5</ele>
        <time>2014-10-02T13:17:19Z</time>
      </trkpt>
      <trkpt lat="46.05673" lon="4.47314">
        <ele>529.6</ele>
        <time>2014-10-02T13:17:21Z</time>
      </trkpt>
      <trkpt lat="46.05666" lon="4.4733">
        <ele>527.7</ele>
        <time>2014-10-02T13:17:23Z</time>
      </trkpt>
      <trkpt lat="46.0566" lon="4.47345">
        <ele>525.8</ele>
        <time>2014-10-02T13:17:25Z</time>
      </trkpt>
      <trkpt lat="46.05652" lon="4.4736">
        <ele>523.9</ele>
        <time>2014-10-02T13:17:27Z</time>
      </trkpt>
      <trkpt lat="46.05643" lon="4.47373">
        <ele>522</ele>
        <time>2014-10-02T13:17:29Z</time>
      </trkpt>
      <trkpt lat="46.05633" lon="4.47384">
        <ele>520.1</ele>
        <time>2014-10-02T13:17:31Z</time>
      </trkpt>
      <trkpt lat="46.05623" lon="4.47394">
        <ele>519.9</ele>
        <time>2014-10-02T13:17:33Z</time>
      </trkpt>
      <trkpt lat="46.05612" lon="4.47402">
        <ele>519.7</ele>
        <time>2014-10-02T13:17:35Z</time>
      </trkpt>
      <trkpt lat="46.05599" lon="4.47406">
        <ele>519.7</ele>
        <time>2014-10-02T13:17:37Z</time>
      </trkpt>
      <trkpt lat="46.05588" lon="4.47407">
        <ele>519.7</ele>
        <time>2014-10-02T13:17:39Z</time>
      </trkpt>
      <trkpt lat="46.05578" lon="4.47407">
        <ele>519.7</ele>
        <time>2014-10-02T13:17:41Z</time>
      </trkpt>
      <trkpt lat="46.05566" lon="4.47406">
        <ele>519.7</ele>
        <time>2014-10-02T13:17:43Z</time>
      </trkpt>
      <trkpt lat="46.05554" lon="4.47404">
        <ele>519.9</ele>
        <time>2014-10-02T13:17:45Z</time>
      </trkpt>
      <trkpt lat="46.05543" lon="4.47405">
        <ele>520.1</ele>
        <time>2014-10-02T13:17:47Z</time>
      </trkpt>
      <trkpt lat="46.05531" lon="4.47404">
        <ele>520.3</ele>
        <time>2014-10-02T13:17:49Z</time>
      </trkpt>
      <trkpt lat="46.05521" lon="4.47402">
        <ele>520.5</ele>
        <time>2014-10-02T13:17:51Z</time>
      </trkpt>
      <trkpt lat="46.0551" lon="4.47399">
        <ele>522.9</ele>
        <time>2014-10-02T13:17:53Z</time>
      </trkpt>
      <trkpt lat="46.05502" lon="4.47397">
        <ele>523.8</ele>
        <time>2014-10-02T13:17:55Z</time>
      </trkpt>
      <trkpt lat="46.0549" lon="4.47394">
        <ele>524.7</ele>
        <time>2014-10-02T13:17:58Z</time>
      </trkpt>
      <trkpt lat="46.05481" lon="4.47391">
        <ele>525.5</ele>
        <time>2014-10-02T13:18:00Z</time>
      </trkpt>
      <trkpt lat="46.05473" lon="4.47388">
        <ele>526.2</ele>
        <time>2014-10-02T13:18:02Z</time>
      </trkpt>
      <trkpt lat="46.05465" lon="4.47382">
        <ele>526.9</ele>
        <time>2014-10-02T13:18:04Z</time>
      </trkpt>
      <trkpt lat="46.05459" lon="4.47371">
        <ele>527.6</ele>
        <time>2014-10-02T13:18:06Z</time>
      </trkpt>
      <trkpt lat="46.05453" lon="4.4736">
        <ele>528.4</ele>
        <time>2014-10-02T13:18:08Z</time>
      </trkpt>
      <trkpt lat="46.05448" lon="4.4735">
        <ele>529.1</ele>
        <time>2014-10-02T13:18:10Z</time>
      </trkpt>
      <trkpt lat="46.05444" lon="4.47339">
        <ele>529.8</ele>
        <time>2014-10-02T13:18:12Z</time>
      </trkpt>
      <trkpt lat="46.05437" lon="4.47331">
        <ele>530.5</ele>
        <time>2014-10-02T13:18:14Z</time>
      </trkpt>
      <trkpt lat="46.05426" lon="4.47328">
        <ele>529</ele>
        <time>2014-10-02T13:18:17Z</time>
      </trkpt>
      <trkpt lat="46.05415" lon="4.47333">
        <ele>530.1</ele>
        <time>2014-10-02T13:18:20Z</time>
      </trkpt>
      <trkpt lat="46.05405" lon="4.47342">
        <ele>531.2</ele>
        <time>2014-10-02T13:18:23Z</time>
      </trkpt>
      <trkpt lat="46.05396" lon="4.47352">
        <ele>531.1</ele>
        <time>2014-10-02T13:18:26Z</time>
      </trkpt>
      <trkpt lat="46.05389" lon="4.47359">
        <ele>531</ele>
        <time>2014-10-02T13:18:28Z</time>
      </trkpt>
      <trkpt lat="46.05383" lon="4.47367">
        <ele>530.9</ele>
        <time>2014-10-02T13:18:30Z</time>
      </trkpt>
      <trkpt lat="46.05376" lon="4.47374">
        <ele>530.8</ele>
        <time>2014-10-02T13:18:32Z</time>
      </trkpt>
      <trkpt lat="46.0537" lon="4.47381">
        <ele>530.7</ele>
        <time>2014-10-02T13:18:34Z</time>
      </trkpt>
      <trkpt lat="46.0536" lon="4.47392">
        <ele>530.6</ele>
        <time>2014-10-02T13:18:37Z</time>
      </trkpt>
      <trkpt lat="46.05351" lon="4.47402">
        <ele>530.5</ele>
        <time>2014-10-02T13:18:40Z</time>
      </trkpt>
      <trkpt lat="46.05341" lon="4.47413">
        <ele>529.8</ele>
        <time>2014-10-02T13:18:43Z</time>
      </trkpt>
      <trkpt lat="46.05333" lon="4.47426">
        <ele>529.1</ele>
        <time>2014-10-02T13:18:46Z</time>
      </trkpt>
      <trkpt lat="46.05329" lon="4.47436">
        <ele>527.3</ele>
        <time>2014-10-02T13:18:48Z</time>
      </trkpt>
      <trkpt lat="46.05326" lon="4.47447">
        <ele>525.5</ele>
        <time>2014-10-02T13:18:50Z</time>
      </trkpt>
      <trkpt lat="46.05323" lon="4.47458">
        <ele>524.8</ele>
        <time>2014-10-02T13:18:52Z</time>
      </trkpt>
      <trkpt lat="46.0532" lon="4.47469">
        <ele>524.2</ele>
        <time>2014-10-02T13:18:54Z</time>
      </trkpt>
      <trkpt lat="46.05317" lon="4.47486">
        <ele>525.8</ele>
        <time>2014-10-02T13:18:57Z</time>
      </trkpt>
      <trkpt lat="46.05314" lon="4.47503">
        <ele>527.5</ele>
        <time>2014-10-02T13:19:00Z</time>
      </trkpt>
      <trkpt lat="46.05311" lon="4.47519">
        <ele>529.1</ele>
        <time>2014-10-02T13:19:03Z</time>
      </trkpt>
      <trkpt lat="46.05307" lon="4.47535">
        <ele>530.7</ele>
        <time>2014-10-02T13:19:06Z</time>
      </trkpt>
      <trkpt lat="46.05303" lon="4.47546">
        <ele>532.4</ele>
        <time>2014-10-02T13:19:08Z</time>
      </trkpt>
      <trkpt lat="46.05297" lon="4.47561">
        <ele>534.6</ele>
        <time>2014-10-02T13:19:11Z</time>
      </trkpt>
      <trkpt lat="46.0529" lon="4.47573">
        <ele>535.6</ele>
        <time>2014-10-02T13:19:14Z</time>
      </trkpt>
      <trkpt lat="46.05281" lon="4.47586">
        <ele>536.6</ele>
        <time>2014-10-02T13:19:17Z</time>
      </trkpt>
      <trkpt lat="46.05274" lon="4.47598">
        <ele>537.6</ele>
        <time>2014-10-02T13:19:20Z</time>
      </trkpt>
      <trkpt lat="46.05265" lon="4.4761">
        <ele>538.6</ele>
        <time>2014-10-02T13:19:23Z</time>
      </trkpt>
      <trkpt lat="46.05257" lon="4.47623">
        <ele>539.6</ele>
        <time>2014-10-02T13:19:26Z</time>
      </trkpt>
      <trkpt lat="46.05249" lon="4.47635">
        <ele>538.4</ele>
        <time>2014-10-02T13:19:29Z</time>
      </trkpt>
      <trkpt lat="46.05241" lon="4.47647">
        <ele>539</ele>
        <time>2014-10-02T13:19:32Z</time>
      </trkpt>
      <trkpt lat="46.05234" lon="4.47659">
        <ele>538.4</ele>
        <time>2014-10-02T13:19:35Z</time>
      </trkpt>
      <trkpt lat="46.05226" lon="4.4767">
        <ele>537.7</ele>
        <time>2014-10-02T13:19:38Z</time>
      </trkpt>
      <trkpt lat="46.05219" lon="4.47683">
        <ele>537.1</ele>
        <time>2014-10-02T13:19:41Z</time>
      </trkpt>
      <trkpt lat="46.05211" lon="4.47695">
        <ele>536.5</ele>
        <time>2014-10-02T13:19:44Z</time>
      </trkpt>
      <trkpt lat="46.05203" lon="4.47707">
        <ele>537.1</ele>
        <time>2014-10-02T13:19:47Z</time>
      </trkpt>
      <trkpt lat="46.05195" lon="4.47719">
        <ele>537.7</ele>
        <time>2014-10-02T13:19:50Z</time>
      </trkpt>
      <trkpt lat="46.05187" lon="4.4773">
        <ele>538.4</ele>
        <time>2014-10-02T13:19:53Z</time>
      </trkpt>
      <trkpt lat="46.05178" lon="4.47739">
        <ele>539</ele>
        <time>2014-10-02T13:19:56Z</time>
      </trkpt>
      <trkpt lat="46.05167" lon="4.47745">
        <ele>538.5</ele>
        <time>2014-10-02T13:19:59Z</time>
      </trkpt>
      <trkpt lat="46.05155" lon="4.47743">
        <ele>539.3</ele>
        <time>2014-10-02T13:20:02Z</time>
      </trkpt>
      <trkpt lat="46.05148" lon="4.47738">
        <ele>538.1</ele>
        <time>2014-10-02T13:20:04Z</time>
      </trkpt>
      <trkpt lat="46.0514" lon="4.47734">
        <ele>538.2</ele>
        <time>2014-10-02T13:20:06Z</time>
      </trkpt>
      <trkpt lat="46.05131" lon="4.47726">
        <ele>538.3</ele>
        <time>2014-10-02T13:20:08Z</time>
      </trkpt>
      <trkpt lat="46.05123" lon="4.4772">
        <ele>538.4</ele>
        <time>2014-10-02T13:20:10Z</time>
      </trkpt>
      <trkpt lat="46.05115" lon="4.47713">
        <ele>538.5</ele>
        <time>2014-10-02T13:20:12Z</time>
      </trkpt>
      <trkpt lat="46.05106" lon="4.47705">
        <ele>538.5</ele>
        <time>2014-10-02T13:20:14Z</time>
      </trkpt>
      <trkpt lat="46.05098" lon="4.47696">
        <ele>538.6</ele>
        <time>2014-10-02T13:20:16Z</time>
      </trkpt>
      <trkpt lat="46.0509" lon="4.47686">
        <ele>539.4</ele>
        <time>2014-10-02T13:20:18Z</time>
      </trkpt>
      <trkpt lat="46.05083" lon="4.47676">
        <ele>540.1</ele>
        <time>2014-10-02T13:20:20Z</time>
      </trkpt>
      <trkpt lat="46.05077" lon="4.47665">
        <ele>541.9</ele>
        <time>2014-10-02T13:20:22Z</time>
      </trkpt>
      <trkpt lat="46.05071" lon="4.47653">
        <ele>542.5</ele>
        <time>2014-10-02T13:20:24Z</time>
      </trkpt>
      <trkpt lat="46.05068" lon="4.47638">
        <ele>543.2</ele>
        <time>2014-10-02T13:20:26Z</time>
      </trkpt>
      <trkpt lat="46.05064" lon="4.47623">
        <ele>544.4</ele>
        <time>2014-10-02T13:20:28Z</time>
      </trkpt>
      <trkpt lat="46.05062" lon="4.47606">
        <ele>545.5</ele>
        <time>2014-10-02T13:20:30Z</time>
      </trkpt>
      <trkpt lat="46.0506" lon="4.47591">
        <ele>546.7</ele>
        <time>2014-10-02T13:20:32Z</time>
      </trkpt>
      <trkpt lat="46.05059" lon="4.47574">
        <ele>547.9</ele>
        <time>2014-10-02T13:20:34Z</time>
      </trkpt>
      <trkpt lat="46.05058" lon="4.47559">
        <ele>549.1</ele>
        <time>2014-10-02T13:20:36Z</time>
      </trkpt>
      <trkpt lat="46.05057" lon="4.47542">
        <ele>550</ele>
        <time>2014-10-02T13:20:38Z</time>
      </trkpt>
      <trkpt lat="46.05055" lon="4.47525">
        <ele>550.3</ele>
        <time>2014-10-02T13:20:40Z</time>
      </trkpt>
      <trkpt lat="46.05053" lon="4.47507">
        <ele>550.5</ele>
        <time>2014-10-02T13:20:42Z</time>
      </trkpt>
      <trkpt lat="46.05052" lon="4.4749">
        <ele>550.8</ele>
        <time>2014-10-02T13:20:44Z</time>
      </trkpt>
      <trkpt lat="46.0505" lon="4.47472">
        <ele>551.1</ele>
        <time>2014-10-02T13:20:46Z</time>
      </trkpt>
      <trkpt lat="46.05048" lon="4.47454">
        <ele>551.4</ele>
        <time>2014-10-02T13:20:48Z</time>
      </trkpt>
      <trkpt lat="46.05047" lon="4.47436">
        <ele>551.1</ele>
        <time>2014-10-02T13:20:50Z</time>
      </trkpt>
      <trkpt lat="46.05048" lon="4.47418">
        <ele>550.8</ele>
        <time>2014-10-02T13:20:52Z</time>
      </trkpt>
      <trkpt lat="46.05049" lon="4.47399">
        <ele>550.5</ele>
        <time>2014-10-02T13:20:54Z</time>
      </trkpt>
      <trkpt lat="46.0505" lon="4.47382">
        <ele>550.5</ele>
        <time>2014-10-02T13:20:56Z</time>
      </trkpt>
      <trkpt lat="46.05052" lon="4.47365">
        <ele>550.4</ele>
        <time>2014-10-02T13:20:58Z</time>
      </trkpt>
      <trkpt lat="46.05053" lon="4.47347">
        <ele>550.5</ele>
        <time>2014-10-02T13:21:00Z</time>
      </trkpt>
      <trkpt lat="46.05053" lon="4.47327">
        <ele>550.7</ele>
        <time>2014-10-02T13:21:02Z</time>
      </trkpt>
      <trkpt lat="46.05052" lon="4.4731">
        <ele>548.7</ele>
        <time>2014-10-02T13:21:04Z</time>
      </trkpt>
      <trkpt lat="46.05051" lon="4.47291">
        <ele>546.7</ele>
        <time>2014-10-02T13:21:06Z</time>
      </trkpt>
      <trkpt lat="46.05049" lon="4.47273">
        <ele>544.7</ele>
        <time>2014-10-02T13:21:08Z</time>
      </trkpt>
      <trkpt lat="46.05047" lon="4.47254">
        <ele>542.7</ele>
        <time>2014-10-02T13:21:10Z</time>
      </trkpt>
      <trkpt lat="46.05045" lon="4.47237">
        <ele>540.7</ele>
        <time>2014-10-02T13:21:12Z</time>
      </trkpt>
      <trkpt lat="46.05043" lon="4.47218">
        <ele>540.1</ele>
        <time>2014-10-02T13:21:14Z</time>
      </trkpt>
      <trkpt lat="46.05039" lon="4.47198">
        <ele>539.5</ele>
        <time>2014-10-02T13:21:16Z</time>
      </trkpt>
      <trkpt lat="46.05035" lon="4.47181">
        <ele>538.6</ele>
        <time>2014-10-02T13:21:18Z</time>
      </trkpt>
      <trkpt lat="46.0503" lon="4.47164">
        <ele>537.8</ele>
        <time>2014-10-02T13:21:20Z</time>
      </trkpt>
      <trkpt lat="46.05023" lon="4.47147">
        <ele>536.2</ele>
        <time>2014-10-02T13:21:22Z</time>
      </trkpt>
      <trkpt lat="46.05013" lon="4.47132">
        <ele>534.5</ele>
        <time>2014-10-02T13:21:24Z</time>
      </trkpt>
      <trkpt lat="46.05001" lon="4.47122">
        <ele>535.1</ele>
        <time>2014-10-02T13:21:26Z</time>
      </trkpt>
      <trkpt lat="46.04986" lon="4.47119">
        <ele>535.6</ele>
        <time>2014-10-02T13:21:28Z</time>
      </trkpt>
      <trkpt lat="46.04973" lon="4.47114">
        <ele>536.2</ele>
        <time>2014-10-02T13:21:30Z</time>
      </trkpt>
      <trkpt lat="46.04961" lon="4.47108">
        <ele>536.7</ele>
        <time>2014-10-02T13:21:32Z</time>
      </trkpt>
      <trkpt lat="46.04949" lon="4.471">
        <ele>537.3</ele>
        <time>2014-10-02T13:21:34Z</time>
      </trkpt>
      <trkpt lat="46.04937" lon="4.47091">
        <ele>536.4</ele>
        <time>2014-10-02T13:21:36Z</time>
      </trkpt>
      <trkpt lat="46.04926" lon="4.4708">
        <ele>535.5</ele>
        <time>2014-10-02T13:21:38Z</time>
      </trkpt>
      <trkpt lat="46.04917" lon="4.4707">
        <ele>534.5</ele>
        <time>2014-10-02T13:21:40Z</time>
      </trkpt>
      <trkpt lat="46.04905" lon="4.47061">
        <ele>533.6</ele>
        <time>2014-10-02T13:21:42Z</time>
      </trkpt>
      <trkpt lat="46.04891" lon="4.47055">
        <ele>533.5</ele>
        <time>2014-10-02T13:21:44Z</time>
      </trkpt>
      <trkpt lat="46.04879" lon="4.47053">
        <ele>533.5</ele>
        <time>2014-10-02T13:21:46Z</time>
      </trkpt>
      <trkpt lat="46.04864" lon="4.47059">
        <ele>533.4</ele>
        <time>2014-10-02T13:21:48Z</time>
      </trkpt>
      <trkpt lat="46.04852" lon="4.47065">
        <ele>533.9</ele>
        <time>2014-10-02T13:21:50Z</time>
      </trkpt>
      <trkpt lat="46.0484" lon="4.47073">
        <ele>534.5</ele>
        <time>2014-10-02T13:21:52Z</time>
      </trkpt>
      <trkpt lat="46.04828" lon="4.4708">
        <ele>535</ele>
        <time>2014-10-02T13:21:54Z</time>
      </trkpt>
      <trkpt lat="46.04813" lon="4.47086">
        <ele>535.5</ele>
        <time>2014-10-02T13:21:56Z</time>
      </trkpt>
      <trkpt lat="46.04799" lon="4.47091">
        <ele>536.2</ele>
        <time>2014-10-02T13:21:58Z</time>
      </trkpt>
      <trkpt lat="46.04784" lon="4.47093">
        <ele>536.8</ele>
        <time>2014-10-02T13:22:00Z</time>
      </trkpt>
      <trkpt lat="46.04769" lon="4.47096">
        <ele>538.4</ele>
        <time>2014-10-02T13:22:02Z</time>
      </trkpt>
      <trkpt lat="46.04755" lon="4.47099">
        <ele>539.9</ele>
        <time>2014-10-02T13:22:04Z</time>
      </trkpt>
      <trkpt lat="46.04741" lon="4.47102">
        <ele>540.7</ele>
        <time>2014-10-02T13:22:06Z</time>
      </trkpt>
      <trkpt lat="46.04728" lon="4.47105">
        <ele>541.5</ele>
        <time>2014-10-02T13:22:08Z</time>
      </trkpt>
      <trkpt lat="46.04715" lon="4.47111">
        <ele>542.4</ele>
        <time>2014-10-02T13:22:10Z</time>
      </trkpt>
      <trkpt lat="46.04702" lon="4.4712">
        <ele>542.6</ele>
        <time>2014-10-02T13:22:12Z</time>
      </trkpt>
      <trkpt lat="46.04692" lon="4.47135">
        <ele>542.9</ele>
        <time>2014-10-02T13:22:14Z</time>
      </trkpt>
      <trkpt lat="46.04688" lon="4.47156">
        <ele>543.2</ele>
        <time>2014-10-02T13:22:16Z</time>
      </trkpt>
      <trkpt lat="46.04687" lon="4.47178">
        <ele>543.5</ele>
        <time>2014-10-02T13:22:18Z</time>
      </trkpt>
      <trkpt lat="46.04689" lon="4.472">
        <ele>543.7</ele>
        <time>2014-10-02T13:22:20Z</time>
      </trkpt>
      <trkpt lat="46.04691" lon="4.47223">
        <ele>544</ele>
        <time>2014-10-02T13:22:22Z</time>
      </trkpt>
      <trkpt lat="46.04691" lon="4.47245">
        <ele>542.3</ele>
        <time>2014-10-02T13:22:24Z</time>
      </trkpt>
      <trkpt lat="46.04689" lon="4.47268">
        <ele>540.5</ele>
        <time>2014-10-02T13:22:26Z</time>
      </trkpt>
      <trkpt lat="46.04687" lon="4.4728">
        <ele>539.5</ele>
        <time>2014-10-02T13:22:27Z</time>
      </trkpt>
      <trkpt lat="46.04684" lon="4.47291">
        <ele>538.5</ele>
        <time>2014-10-02T13:22:28Z</time>
      </trkpt>
      <trkpt lat="46.04679" lon="4.47302">
        <ele>537.5</ele>
        <time>2014-10-02T13:22:29Z</time>
      </trkpt>
      <trkpt lat="46.04675" lon="4.47312">
        <ele>536.5</ele>
        <time>2014-10-02T13:22:30Z</time>
      </trkpt>
      <trkpt lat="46.04665" lon="4.47331">
        <ele>535.4</ele>
        <time>2014-10-02T13:22:32Z</time>
      </trkpt>
      <trkpt lat="46.0466" lon="4.4734">
        <ele>534.3</ele>
        <time>2014-10-02T13:22:33Z</time>
      </trkpt>
      <trkpt lat="46.04654" lon="4.47349">
        <ele>532.5</ele>
        <time>2014-10-02T13:22:34Z</time>
      </trkpt>
      <trkpt lat="46.04648" lon="4.47359">
        <ele>530.8</ele>
        <time>2014-10-02T13:22:35Z</time>
      </trkpt>
      <trkpt lat="46.04643" lon="4.47368">
        <ele>529.1</ele>
        <time>2014-10-02T13:22:36Z</time>
      </trkpt>
      <trkpt lat="46.04636" lon="4.47376">
        <ele>528.5</ele>
        <time>2014-10-02T13:22:37Z</time>
      </trkpt>
      <trkpt lat="46.04629" lon="4.47383">
        <ele>527.8</ele>
        <time>2014-10-02T13:22:38Z</time>
      </trkpt>
      <trkpt lat="46.04622" lon="4.47389">
        <ele>527.2</ele>
        <time>2014-10-02T13:22:39Z</time>
      </trkpt>
      <trkpt lat="46.04614" lon="4.47394">
        <ele>526.5</ele>
        <time>2014-10-02T13:22:40Z</time>
      </trkpt>
      <trkpt lat="46.04606" lon="4.47397">
        <ele>525.9</ele>
        <time>2014-10-02T13:22:41Z</time>
      </trkpt>
      <trkpt lat="46.04598" lon="4.474">
        <ele>525.3</ele>
        <time>2014-10-02T13:22:42Z</time>
      </trkpt>
      <trkpt lat="46.04589" lon="4.47401">
        <ele>524.6</ele>
        <time>2014-10-02T13:22:43Z</time>
      </trkpt>
      <trkpt lat="46.0458" lon="4.47402">
        <ele>525.2</ele>
        <time>2014-10-02T13:22:44Z</time>
      </trkpt>
      <trkpt lat="46.04571" lon="4.47403">
        <ele>526.4</ele>
        <time>2014-10-02T13:22:45Z</time>
      </trkpt>
      <trkpt lat="46.04563" lon="4.47405">
        <ele>527.5</ele>
        <time>2014-10-02T13:22:46Z</time>
      </trkpt>
      <trkpt lat="46.04554" lon="4.47408">
        <ele>528.7</ele>
        <time>2014-10-02T13:22:47Z</time>
      </trkpt>
      <trkpt lat="46.04546" lon="4.47411">
        <ele>529.9</ele>
        <time>2014-10-02T13:22:48Z</time>
      </trkpt>
      <trkpt lat="46.04538" lon="4.47415">
        <ele>531.1</ele>
        <time>2014-10-02T13:22:49Z</time>
      </trkpt>
      <trkpt lat="46.0453" lon="4.4742">
        <ele>531.5</ele>
        <time>2014-10-02T13:22:50Z</time>
      </trkpt>
      <trkpt lat="46.04523" lon="4.47427">
        <ele>531.8</ele>
        <time>2014-10-02T13:22:51Z</time>
      </trkpt>
      <trkpt lat="46.04516" lon="4.47435">
        <ele>532.2</ele>
        <time>2014-10-02T13:22:52Z</time>
      </trkpt>
      <trkpt lat="46.04511" lon="4.47445">
        <ele>532.5</ele>
        <time>2014-10-02T13:22:53Z</time>
      </trkpt>
      <trkpt lat="46.04507" lon="4.47456">
        <ele>532.9</ele>
        <time>2014-10-02T13:22:54Z</time>
      </trkpt>
      <trkpt lat="46.04504" lon="4.47468">
        <ele>532.1</ele>
        <time>2014-10-02T13:22:55Z</time>
      </trkpt>
      <trkpt lat="46.04501" lon="4.4748">
        <ele>531.3</ele>
        <time>2014-10-02T13:22:56Z</time>
      </trkpt>
      <trkpt lat="46.04499" lon="4.47491">
        <ele>530.3</ele>
        <time>2014-10-02T13:22:57Z</time>
      </trkpt>
      <trkpt lat="46.04497" lon="4.47503">
        <ele>529.3</ele>
        <time>2014-10-02T13:22:58Z</time>
      </trkpt>
      <trkpt lat="46.04495" lon="4.47515">
        <ele>528.3</ele>
        <time>2014-10-02T13:22:59Z</time>
      </trkpt>
      <trkpt lat="46.04493" lon="4.47528">
        <ele>527.3</ele>
        <time>2014-10-02T13:23:00Z</time>
      </trkpt>
      <trkpt lat="46.04491" lon="4.47541">
        <ele>527.1</ele>
        <time>2014-10-02T13:23:01Z</time>
      </trkpt>
      <trkpt lat="46.0449" lon="4.47553">
        <ele>526.9</ele>
        <time>2014-10-02T13:23:02Z</time>
      </trkpt>
      <trkpt lat="46.04488" lon="4.47565">
        <ele>526.7</ele>
        <time>2014-10-02T13:23:03Z</time>
      </trkpt>
      <trkpt lat="46.04486" lon="4.47577">
        <ele>525.6</ele>
        <time>2014-10-02T13:23:04Z</time>
      </trkpt>
      <trkpt lat="46.04484" lon="4.4759">
        <ele>524.5</ele>
        <time>2014-10-02T13:23:05Z</time>
      </trkpt>
      <trkpt lat="46.04482" lon="4.47603">
        <ele>523.5</ele>
        <time>2014-10-02T13:23:06Z</time>
      </trkpt>
      <trkpt lat="46.04481" lon="4.47615">
        <ele>522.4</ele>
        <time>2014-10-02T13:23:07Z</time>
      </trkpt>
      <trkpt lat="46.04479" lon="4.47628">
        <ele>521.5</ele>
        <time>2014-10-02T13:23:08Z</time>
      </trkpt>
      <trkpt lat="46.04478" lon="4.47641">
        <ele>520.5</ele>
        <time>2014-10-02T13:23:09Z</time>
      </trkpt>
      <trkpt lat="46.04476" lon="4.47654">
        <ele>518.5</ele>
        <time>2014-10-02T13:23:10Z</time>
      </trkpt>
      <trkpt lat="46.04475" lon="4.47667">
        <ele>518.5</ele>
        <time>2014-10-02T13:23:11Z</time>
      </trkpt>
      <trkpt lat="46.04473" lon="4.4768">
        <ele>518.4</ele>
        <time>2014-10-02T13:23:12Z</time>
      </trkpt>
      <trkpt lat="46.0447" lon="4.47693">
        <ele>518.3</ele>
        <time>2014-10-02T13:23:13Z</time>
      </trkpt>
      <trkpt lat="46.04468" lon="4.47705">
        <ele>518.2</ele>
        <time>2014-10-02T13:23:14Z</time>
      </trkpt>
      <trkpt lat="46.04465" lon="4.47717">
        <ele>519</ele>
        <time>2014-10-02T13:23:15Z</time>
      </trkpt>
      <trkpt lat="46.04463" lon="4.47729">
        <ele>519.8</ele>
        <time>2014-10-02T13:23:16Z</time>
      </trkpt>
      <trkpt lat="46.0446" lon="4.47741">
        <ele>519.5</ele>
        <time>2014-10-02T13:23:17Z</time>
      </trkpt>
      <trkpt lat="46.04457" lon="4.47753">
        <ele>519.1</ele>
        <time>2014-10-02T13:23:18Z</time>
      </trkpt>
      <trkpt lat="46.04454" lon="4.47764">
        <ele>518.7</ele>
        <time>2014-10-02T13:23:19Z</time>
      </trkpt>
      <trkpt lat="46.04451" lon="4.47776">
        <ele>518.4</ele>
        <time>2014-10-02T13:23:20Z</time>
      </trkpt>
      <trkpt lat="46.04448" lon="4.47787">
        <ele>519.1</ele>
        <time>2014-10-02T13:23:21Z</time>
      </trkpt>
      <trkpt lat="46.04445" lon="4.47798">
        <ele>517.9</ele>
        <time>2014-10-02T13:23:22Z</time>
      </trkpt>
      <trkpt lat="46.04441" lon="4.47808">
        <ele>516.7</ele>
        <time>2014-10-02T13:23:23Z</time>
      </trkpt>
      <trkpt lat="46.04436" lon="4.47818">
        <ele>515.5</ele>
        <time>2014-10-02T13:23:24Z</time>
      </trkpt>
      <trkpt lat="46.04424" lon="4.47833">
        <ele>514.4</ele>
        <time>2014-10-02T13:23:26Z</time>
      </trkpt>
      <trkpt lat="46.04417" lon="4.47839">
        <ele>513.2</ele>
        <time>2014-10-02T13:23:27Z</time>
      </trkpt>
      <trkpt lat="46.04409" lon="4.47844">
        <ele>512</ele>
        <time>2014-10-02T13:23:28Z</time>
      </trkpt>
      <trkpt lat="46.04402" lon="4.47849">
        <ele>512</ele>
        <time>2014-10-02T13:23:29Z</time>
      </trkpt>
      <trkpt lat="46.04393" lon="4.47851">
        <ele>512</ele>
        <time>2014-10-02T13:23:30Z</time>
      </trkpt>
      <trkpt lat="46.04384" lon="4.47853">
        <ele>512</ele>
        <time>2014-10-02T13:23:31Z</time>
      </trkpt>
      <trkpt lat="46.04376" lon="4.47854">
        <ele>512</ele>
        <time>2014-10-02T13:23:32Z</time>
      </trkpt>
      <trkpt lat="46.04367" lon="4.47855">
        <ele>512</ele>
        <time>2014-10-02T13:23:33Z</time>
      </trkpt>
      <trkpt lat="46.04359" lon="4.47856">
        <ele>512</ele>
        <time>2014-10-02T13:23:34Z</time>
      </trkpt>
      <trkpt lat="46.0435" lon="4.47857">
        <ele>512</ele>
        <time>2014-10-02T13:23:35Z</time>
      </trkpt>
      <trkpt lat="46.04341" lon="4.47858">
        <ele>511.4</ele>
        <time>2014-10-02T13:23:36Z</time>
      </trkpt>
      <trkpt lat="46.04333" lon="4.47858">
        <ele>510.7</ele>
        <time>2014-10-02T13:23:37Z</time>
      </trkpt>
      <trkpt lat="46.04325" lon="4.47858">
        <ele>510.1</ele>
        <time>2014-10-02T13:23:38Z</time>
      </trkpt>
      <trkpt lat="46.04316" lon="4.47859">
        <ele>509.5</ele>
        <time>2014-10-02T13:23:39Z</time>
      </trkpt>
      <trkpt lat="46.04308" lon="4.4786">
        <ele>508.8</ele>
        <time>2014-10-02T13:23:40Z</time>
      </trkpt>
      <trkpt lat="46.04293" lon="4.4786">
        <ele>508.2</ele>
        <time>2014-10-02T13:23:42Z</time>
      </trkpt>
      <trkpt lat="46.04279" lon="4.47859">
        <ele>507.5</ele>
        <time>2014-10-02T13:23:44Z</time>
      </trkpt>
      <trkpt lat="46.04266" lon="4.47855">
        <ele>506.8</ele>
        <time>2014-10-02T13:23:46Z</time>
      </trkpt>
      <trkpt lat="46.04257" lon="4.47848">
        <ele>506.1</ele>
        <time>2014-10-02T13:23:48Z</time>
      </trkpt>
      <trkpt lat="46.04249" lon="4.47834">
        <ele>504.5</ele>
        <time>2014-10-02T13:23:50Z</time>
      </trkpt>
      <trkpt lat="46.04239" lon="4.47819">
        <ele>503</ele>
        <time>2014-10-02T13:23:52Z</time>
      </trkpt>
      <trkpt lat="46.0423" lon="4.47803">
        <ele>502.1</ele>
        <time>2014-10-02T13:23:54Z</time>
      </trkpt>
      <trkpt lat="46.04222" lon="4.47789">
        <ele>501.2</ele>
        <time>2014-10-02T13:23:56Z</time>
      </trkpt>
      <trkpt lat="46.04214" lon="4.47772">
        <ele>500.3</ele>
        <time>2014-10-02T13:23:58Z</time>
      </trkpt>
      <trkpt lat="46.04206" lon="4.47757">
        <ele>499.8</ele>
        <time>2014-10-02T13:24:00Z</time>
      </trkpt>
      <trkpt lat="46.04195" lon="4.47744">
        <ele>499.4</ele>
        <time>2014-10-02T13:24:02Z</time>
      </trkpt>
      <trkpt lat="46.04183" lon="4.47733">
        <ele>498.9</ele>
        <time>2014-10-02T13:24:04Z</time>
      </trkpt>
      <trkpt lat="46.04176" lon="4.47726">
        <ele>497.1</ele>
        <time>2014-10-02T13:24:05Z</time>
      </trkpt>
      <trkpt lat="46.04169" lon="4.47718">
        <ele>495.4</ele>
        <time>2014-10-02T13:24:06Z</time>
      </trkpt>
      <trkpt lat="46.04161" lon="4.4771">
        <ele>493.6</ele>
        <time>2014-10-02T13:24:07Z</time>
      </trkpt>
      <trkpt lat="46.04152" lon="4.47702">
        <ele>492.7</ele>
        <time>2014-10-02T13:24:08Z</time>
      </trkpt>
      <trkpt lat="46.04136" lon="4.47684">
        <ele>491.8</ele>
        <time>2014-10-02T13:24:10Z</time>
      </trkpt>
      <trkpt lat="46.04119" lon="4.47667">
        <ele>490.9</ele>
        <time>2014-10-02T13:24:12Z</time>
      </trkpt>
      <trkpt lat="46.0411" lon="4.47659">
        <ele>490</ele>
        <time>2014-10-02T13:24:13Z</time>
      </trkpt>
      <trkpt lat="46.04103" lon="4.47652">
        <ele>489.1</ele>
        <time>2014-10-02T13:24:14Z</time>
      </trkpt>
      <trkpt lat="46.04095" lon="4.47645">
        <ele>487.7</ele>
        <time>2014-10-02T13:24:15Z</time>
      </trkpt>
      <trkpt lat="46.04081" lon="4.47638">
        <ele>486.4</ele>
        <time>2014-10-02T13:24:17Z</time>
      </trkpt>
      <trkpt lat="46.04068" lon="4.47638">
        <ele>484.6</ele>
        <time>2014-10-02T13:24:19Z</time>
      </trkpt>
      <trkpt lat="46.04057" lon="4.47645">
        <ele>484.3</ele>
        <time>2014-10-02T13:24:21Z</time>
      </trkpt>
      <trkpt lat="46.04049" lon="4.47659">
        <ele>483.9</ele>
        <time>2014-10-02T13:24:23Z</time>
      </trkpt>
      <trkpt lat="46.04045" lon="4.47677">
        <ele>483.5</ele>
        <time>2014-10-02T13:24:25Z</time>
      </trkpt>
      <trkpt lat="46.04047" lon="4.47697">
        <ele>482.1</ele>
        <time>2014-10-02T13:24:27Z</time>
      </trkpt>
      <trkpt lat="46.04052" lon="4.47718">
        <ele>480.6</ele>
        <time>2014-10-02T13:24:29Z</time>
      </trkpt>
      <trkpt lat="46.04057" lon="4.47736">
        <ele>479.2</ele>
        <time>2014-10-02T13:24:31Z</time>
      </trkpt>
      <trkpt lat="46.04058" lon="4.47754">
        <ele>477.7</ele>
        <time>2014-10-02T13:24:33Z</time>
      </trkpt>
      <trkpt lat="46.04052" lon="4.47773">
        <ele>476.3</ele>
        <time>2014-10-02T13:24:35Z</time>
      </trkpt>
      <trkpt lat="46.04041" lon="4.47788">
        <ele>474.8</ele>
        <time>2014-10-02T13:24:37Z</time>
      </trkpt>
      <trkpt lat="46.04031" lon="4.47791">
        <ele>473.4</ele>
        <time>2014-10-02T13:24:39Z</time>
      </trkpt>
      <trkpt lat="46.04023" lon="4.47784">
        <ele>472.3</ele>
        <time>2014-10-02T13:24:41Z</time>
      </trkpt>
      <trkpt lat="46.04021" lon="4.4777">
        <ele>471.6</ele>
        <time>2014-10-02T13:24:43Z</time>
      </trkpt>
      <trkpt lat="46.04024" lon="4.47756">
        <ele>471</ele>
        <time>2014-10-02T13:24:45Z</time>
      </trkpt>
      <trkpt lat="46.04025" lon="4.47743">
        <ele>470.4</ele>
        <time>2014-10-02T13:24:47Z</time>
      </trkpt>
      <trkpt lat="46.04025" lon="4.47731">
        <ele>470.8</ele>
        <time>2014-10-02T13:24:49Z</time>
      </trkpt>
      <trkpt lat="46.04024" lon="4.47719">
        <ele>471.3</ele>
        <time>2014-10-02T13:24:51Z</time>
      </trkpt>
      <trkpt lat="46.0402" lon="4.47707">
        <ele>471.7</ele>
        <time>2014-10-02T13:24:53Z</time>
      </trkpt>
      <trkpt lat="46.04016" lon="4.47697">
        <ele>472.2</ele>
        <time>2014-10-02T13:24:55Z</time>
      </trkpt>
      <trkpt lat="46.0401" lon="4.47682">
        <ele>472.6</ele>
        <time>2014-10-02T13:24:58Z</time>
      </trkpt>
      <trkpt lat="46.04003" lon="4.47668">
        <ele>473.1</ele>
        <time>2014-10-02T13:25:01Z</time>
      </trkpt>
      <trkpt lat="46.03995" lon="4.47658">
        <ele>473.5</ele>
        <time>2014-10-02T13:25:04Z</time>
      </trkpt>
      <trkpt lat="46.03986" lon="4.47652">
        <ele>474</ele>
        <time>2014-10-02T13:25:07Z</time>
      </trkpt>
      <trkpt lat="46.03975" lon="4.47651">
        <ele>474</ele>
        <time>2014-10-02T13:25:10Z</time>
      </trkpt>
      <trkpt lat="46.03964" lon="4.47652">
        <ele>474</ele>
        <time>2014-10-02T13:25:13Z</time>
      </trkpt>
      <trkpt lat="46.03954" lon="4.47655">
        <ele>474</ele>
        <time>2014-10-02T13:25:16Z</time>
      </trkpt>
      <trkpt lat="46.03943" lon="4.47659">
        <ele>474</ele>
        <time>2014-10-02T13:25:19Z</time>
      </trkpt>
      <trkpt lat="46.03932" lon="4.47662">
        <ele>474</ele>
        <time>2014-10-02T13:25:22Z</time>
      </trkpt>
      <trkpt lat="46.03921" lon="4.47666">
        <ele>473.8</ele>
        <time>2014-10-02T13:25:25Z</time>
      </trkpt>
      <trkpt lat="46.0391" lon="4.47669">
        <ele>473.6</ele>
        <time>2014-10-02T13:25:28Z</time>
      </trkpt>
      <trkpt lat="46.03899" lon="4.47673">
        <ele>473.5</ele>
        <time>2014-10-02T13:25:31Z</time>
      </trkpt>
      <trkpt lat="46.0389" lon="4.47673">
        <ele>473.3</ele>
        <time>2014-10-02T13:25:36Z</time>
      </trkpt>
      <trkpt lat="46.03881" lon="4.4767">
        <ele>473.1</ele>
        <time>2014-10-02T13:25:39Z</time>
      </trkpt>
      <trkpt lat="46.0387" lon="4.47667">
        <ele>473.6</ele>
        <time>2014-10-02T13:25:42Z</time>
      </trkpt>
      <trkpt lat="46.03861" lon="4.47662">
        <ele>474.2</ele>
        <time>2014-10-02T13:25:44Z</time>
      </trkpt>
      <trkpt lat="46.03854" lon="4.47655">
        <ele>474.7</ele>
        <time>2014-10-02T13:25:46Z</time>
      </trkpt>
      <trkpt lat="46.03846" lon="4.47646">
        <ele>475.3</ele>
        <time>2014-10-02T13:25:48Z</time>
      </trkpt>
      <trkpt lat="46.03836" lon="4.47638">
        <ele>474.7</ele>
        <time>2014-10-02T13:25:50Z</time>
      </trkpt>
      <trkpt lat="46.03827" lon="4.4763">
        <ele>474.2</ele>
        <time>2014-10-02T13:25:52Z</time>
      </trkpt>
      <trkpt lat="46.03817" lon="4.47622">
        <ele>473.8</ele>
        <time>2014-10-02T13:25:54Z</time>
      </trkpt>
      <trkpt lat="46.03806" lon="4.47612">
        <ele>474.1</ele>
        <time>2014-10-02T13:25:56Z</time>
      </trkpt>
      <trkpt lat="46.03797" lon="4.47605">
        <ele>474.4</ele>
        <time>2014-10-02T13:25:58Z</time>
      </trkpt>
      <trkpt lat="46.03789" lon="4.47596">
        <ele>474.6</ele>
        <time>2014-10-02T13:26:00Z</time>
      </trkpt>
      <trkpt lat="46.03783" lon="4.47583">
        <ele>474.9</ele>
        <time>2014-10-02T13:26:02Z</time>
      </trkpt>
      <trkpt lat="46.03787" lon="4.4756">
        <ele>474.5</ele>
        <time>2014-10-02T13:26:04Z</time>
      </trkpt>
      <trkpt lat="46.03792" lon="4.47541">
        <ele>473.5</ele>
        <time>2014-10-02T13:26:06Z</time>
      </trkpt>
      <trkpt lat="46.03797" lon="4.47521">
        <ele>472.6</ele>
        <time>2014-10-02T13:26:08Z</time>
      </trkpt>
      <trkpt lat="46.03803" lon="4.47504">
        <ele>471.7</ele>
        <time>2014-10-02T13:26:10Z</time>
      </trkpt>
      <trkpt lat="46.0381" lon="4.47484">
        <ele>471.9</ele>
        <time>2014-10-02T13:26:12Z</time>
      </trkpt>
      <trkpt lat="46.03813" lon="4.47473">
        <ele>472.1</ele>
        <time>2014-10-02T13:26:13Z</time>
      </trkpt>
      <trkpt lat="46.03819" lon="4.47454">
        <ele>472.5</ele>
        <time>2014-10-02T13:26:15Z</time>
      </trkpt>
      <trkpt lat="46.03819" lon="4.4744">
        <ele>472.4</ele>
        <time>2014-10-02T13:26:16Z</time>
      </trkpt>
      <trkpt lat="46.03819" lon="4.47429">
        <ele>472.2</ele>
        <time>2014-10-02T13:26:17Z</time>
      </trkpt>
      <trkpt lat="46.03818" lon="4.47405">
        <ele>470.4</ele>
        <time>2014-10-02T13:26:19Z</time>
      </trkpt>
      <trkpt lat="46.03814" lon="4.47393">
        <ele>468.5</ele>
        <time>2014-10-02T13:26:20Z</time>
      </trkpt>
      <trkpt lat="46.03811" lon="4.47381">
        <ele>466.7</ele>
        <time>2014-10-02T13:26:21Z</time>
      </trkpt>
      <trkpt lat="46.03802" lon="4.4736">
        <ele>465.4</ele>
        <time>2014-10-02T13:26:23Z</time>
      </trkpt>
      <trkpt lat="46.03796" lon="4.47349">
        <ele>464.5</ele>
        <time>2014-10-02T13:26:24Z</time>
      </trkpt>
      <trkpt lat="46.0379" lon="4.47339">
        <ele>463.7</ele>
        <time>2014-10-02T13:26:25Z</time>
      </trkpt>
      <trkpt lat="46.03784" lon="4.47329">
        <ele>462.9</ele>
        <time>2014-10-02T13:26:26Z</time>
      </trkpt>
      <trkpt lat="46.03777" lon="4.47321">
        <ele>462.1</ele>
        <time>2014-10-02T13:26:27Z</time>
      </trkpt>
      <trkpt lat="46.03771" lon="4.47312">
        <ele>461</ele>
        <time>2014-10-02T13:26:28Z</time>
      </trkpt>
      <trkpt lat="46.03758" lon="4.47297">
        <ele>459.9</ele>
        <time>2014-10-02T13:26:30Z</time>
      </trkpt>
      <trkpt lat="46.03751" lon="4.4729">
        <ele>457.3</ele>
        <time>2014-10-02T13:26:31Z</time>
      </trkpt>
      <trkpt lat="46.03738" lon="4.47276">
        <ele>456.3</ele>
        <time>2014-10-02T13:26:33Z</time>
      </trkpt>
      <trkpt lat="46.03731" lon="4.47268">
        <ele>455.3</ele>
        <time>2014-10-02T13:26:34Z</time>
      </trkpt>
      <trkpt lat="46.03718" lon="4.4725">
        <ele>454.3</ele>
        <time>2014-10-02T13:26:36Z</time>
      </trkpt>
      <trkpt lat="46.03712" lon="4.47241">
        <ele>453.3</ele>
        <time>2014-10-02T13:26:38Z</time>
      </trkpt>
      <trkpt lat="46.03707" lon="4.47232">
        <ele>451.7</ele>
        <time>2014-10-02T13:26:38Z</time>
      </trkpt>
      <trkpt lat="46.03703" lon="4.47221">
        <ele>450.2</ele>
        <time>2014-10-02T13:26:39Z</time>
      </trkpt>
      <trkpt lat="46.03696" lon="4.47201">
        <ele>449.3</ele>
        <time>2014-10-02T13:26:41Z</time>
      </trkpt>
      <trkpt lat="46.03692" lon="4.47183">
        <ele>448.4</ele>
        <time>2014-10-02T13:26:43Z</time>
      </trkpt>
      <trkpt lat="46.03689" lon="4.47166">
        <ele>447.5</ele>
        <time>2014-10-02T13:26:45Z</time>
      </trkpt>
      <trkpt lat="46.03685" lon="4.47152">
        <ele>446.5</ele>
        <time>2014-10-02T13:26:47Z</time>
      </trkpt>
      <trkpt lat="46.03677" lon="4.47141">
        <ele>447.2</ele>
        <time>2014-10-02T13:26:49Z</time>
      </trkpt>
      <trkpt lat="46.03672" lon="4.47128">
        <ele>447.8</ele>
        <time>2014-10-02T13:26:51Z</time>
      </trkpt>
      <trkpt lat="46.03668" lon="4.47113">
        <ele>449</ele>
        <time>2014-10-02T13:26:53Z</time>
      </trkpt>
      <trkpt lat="46.03664" lon="4.47097">
        <ele>450.2</ele>
        <time>2014-10-02T13:26:55Z</time>
      </trkpt>
      <trkpt lat="46.03659" lon="4.4708">
        <ele>451.4</ele>
        <time>2014-10-02T13:26:58Z</time>
      </trkpt>
      <trkpt lat="46.03654" lon="4.47063">
        <ele>452.5</ele>
        <time>2014-10-02T13:26:59Z</time>
      </trkpt>
      <trkpt lat="46.0365" lon="4.47044">
        <ele>451.3</ele>
        <time>2014-10-02T13:27:01Z</time>
      </trkpt>
      <trkpt lat="46.03645" lon="4.47025">
        <ele>449.4</ele>
        <time>2014-10-02T13:27:03Z</time>
      </trkpt>
      <trkpt lat="46.0364" lon="4.47005">
        <ele>447.5</ele>
        <time>2014-10-02T13:27:05Z</time>
      </trkpt>
      <trkpt lat="46.03634" lon="4.46985">
        <ele>445.5</ele>
        <time>2014-10-02T13:27:07Z</time>
      </trkpt>
      <trkpt lat="46.03628" lon="4.46965">
        <ele>444.1</ele>
        <time>2014-10-02T13:27:09Z</time>
      </trkpt>
      <trkpt lat="46.03622" lon="4.46946">
        <ele>442.6</ele>
        <time>2014-10-02T13:27:11Z</time>
      </trkpt>
      <trkpt lat="46.03615" lon="4.46926">
        <ele>441.2</ele>
        <time>2014-10-02T13:27:13Z</time>
      </trkpt>
      <trkpt lat="46.03608" lon="4.46907">
        <ele>439.2</ele>
        <time>2014-10-02T13:27:15Z</time>
      </trkpt>
      <trkpt lat="46.03602" lon="4.46888">
        <ele>437.2</ele>
        <time>2014-10-02T13:27:17Z</time>
      </trkpt>
      <trkpt lat="46.03596" lon="4.46867">
        <ele>434.8</ele>
        <time>2014-10-02T13:27:19Z</time>
      </trkpt>
      <trkpt lat="46.03592" lon="4.46846">
        <ele>432.5</ele>
        <time>2014-10-02T13:27:21Z</time>
      </trkpt>
      <trkpt lat="46.03592" lon="4.46833">
        <ele>432.5</ele>
        <time>2014-10-02T13:27:22Z</time>
      </trkpt>
      <trkpt lat="46.0359" lon="4.46821">
        <ele>432.6</ele>
        <time>2014-10-02T13:27:23Z</time>
      </trkpt>
      <trkpt lat="46.0359" lon="4.46798">
        <ele>432.7</ele>
        <time>2014-10-02T13:27:25Z</time>
      </trkpt>
      <trkpt lat="46.0359" lon="4.46786">
        <ele>432.8</ele>
        <time>2014-10-02T13:27:26Z</time>
      </trkpt>
      <trkpt lat="46.0359" lon="4.46774">
        <ele>431.7</ele>
        <time>2014-10-02T13:27:27Z</time>
      </trkpt>
      <trkpt lat="46.03591" lon="4.46762">
        <ele>430.6</ele>
        <time>2014-10-02T13:27:28Z</time>
      </trkpt>
      <trkpt lat="46.03593" lon="4.4675">
        <ele>429.5</ele>
        <time>2014-10-02T13:27:29Z</time>
      </trkpt>
      <trkpt lat="46.03594" lon="4.46737">
        <ele>428.5</ele>
        <time>2014-10-02T13:27:30Z</time>
      </trkpt>
      <trkpt lat="46.03597" lon="4.46725">
        <ele>427.4</ele>
        <time>2014-10-02T13:27:31Z</time>
      </trkpt>
      <trkpt lat="46.036" lon="4.46714">
        <ele>426.6</ele>
        <time>2014-10-02T13:27:32Z</time>
      </trkpt>
      <trkpt lat="46.03604" lon="4.46701">
        <ele>425.9</ele>
        <time>2014-10-02T13:27:33Z</time>
      </trkpt>
      <trkpt lat="46.03608" lon="4.4669">
        <ele>427.5</ele>
        <time>2014-10-02T13:27:34Z</time>
      </trkpt>
      <trkpt lat="46.03612" lon="4.46679">
        <ele>427.5</ele>
        <time>2014-10-02T13:27:35Z</time>
      </trkpt>
      <trkpt lat="46.03616" lon="4.46667">
        <ele>427.5</ele>
        <time>2014-10-02T13:27:36Z</time>
      </trkpt>
      <trkpt lat="46.03621" lon="4.46655">
        <ele>427.5</ele>
        <time>2014-10-02T13:27:37Z</time>
      </trkpt>
      <trkpt lat="46.03626" lon="4.46644">
        <ele>428.3</ele>
        <time>2014-10-02T13:27:38Z</time>
      </trkpt>
      <trkpt lat="46.0363" lon="4.46633">
        <ele>429</ele>
        <time>2014-10-02T13:27:39Z</time>
      </trkpt>
      <trkpt lat="46.03635" lon="4.46622">
        <ele>429.7</ele>
        <time>2014-10-02T13:27:40Z</time>
      </trkpt>
      <trkpt lat="46.0364" lon="4.4661">
        <ele>430.5</ele>
        <time>2014-10-02T13:27:41Z</time>
      </trkpt>
      <trkpt lat="46.03645" lon="4.46599">
        <ele>431.2</ele>
        <time>2014-10-02T13:27:42Z</time>
      </trkpt>
      <trkpt lat="46.03651" lon="4.46588">
        <ele>430.6</ele>
        <time>2014-10-02T13:27:43Z</time>
      </trkpt>
      <trkpt lat="46.03657" lon="4.46578">
        <ele>430.1</ele>
        <time>2014-10-02T13:27:44Z</time>
      </trkpt>
      <trkpt lat="46.03664" lon="4.46569">
        <ele>427.2</ele>
        <time>2014-10-02T13:27:45Z</time>
      </trkpt>
      <trkpt lat="46.03672" lon="4.4656">
        <ele>426.8</ele>
        <time>2014-10-02T13:27:46Z</time>
      </trkpt>
      <trkpt lat="46.03679" lon="4.46552">
        <ele>426.5</ele>
        <time>2014-10-02T13:27:47Z</time>
      </trkpt>
      <trkpt lat="46.03687" lon="4.46544">
        <ele>426.1</ele>
        <time>2014-10-02T13:27:48Z</time>
      </trkpt>
      <trkpt lat="46.03695" lon="4.46536">
        <ele>425.7</ele>
        <time>2014-10-02T13:27:49Z</time>
      </trkpt>
      <trkpt lat="46.03703" lon="4.46528">
        <ele>425.4</ele>
        <time>2014-10-02T13:27:50Z</time>
      </trkpt>
      <trkpt lat="46.0371" lon="4.4652">
        <ele>425</ele>
        <time>2014-10-02T13:27:51Z</time>
      </trkpt>
      <trkpt lat="46.03717" lon="4.46512">
        <ele>424.8</ele>
        <time>2014-10-02T13:27:52Z</time>
      </trkpt>
      <trkpt lat="46.03724" lon="4.46504">
        <ele>424.6</ele>
        <time>2014-10-02T13:27:53Z</time>
      </trkpt>
      <trkpt lat="46.03729" lon="4.46495">
        <ele>425.7</ele>
        <time>2014-10-02T13:27:54Z</time>
      </trkpt>
      <trkpt lat="46.03734" lon="4.46485">
        <ele>426.8</ele>
        <time>2014-10-02T13:27:55Z</time>
      </trkpt>
      <trkpt lat="46.03737" lon="4.46475">
        <ele>427.9</ele>
        <time>2014-10-02T13:27:56Z</time>
      </trkpt>
      <trkpt lat="46.03738" lon="4.46463">
        <ele>428.1</ele>
        <time>2014-10-02T13:27:57Z</time>
      </trkpt>
      <trkpt lat="46.03737" lon="4.4645">
        <ele>428.3</ele>
        <time>2014-10-02T13:27:58Z</time>
      </trkpt>
      <trkpt lat="46.03735" lon="4.46437">
        <ele>429.6</ele>
        <time>2014-10-02T13:27:59Z</time>
      </trkpt>
      <trkpt lat="46.0373" lon="4.46427">
        <ele>431</ele>
        <time>2014-10-02T13:28:00Z</time>
      </trkpt>
      <trkpt lat="46.03725" lon="4.46416">
        <ele>432.4</ele>
        <time>2014-10-02T13:28:01Z</time>
      </trkpt>
      <trkpt lat="46.0372" lon="4.46404">
        <ele>433.7</ele>
        <time>2014-10-02T13:28:02Z</time>
      </trkpt>
      <trkpt lat="46.03717" lon="4.46393">
        <ele>434.9</ele>
        <time>2014-10-02T13:28:03Z</time>
      </trkpt>
      <trkpt lat="46.03714" lon="4.4638">
        <ele>436.3</ele>
        <time>2014-10-02T13:28:04Z</time>
      </trkpt>
      <trkpt lat="46.03712" lon="4.46368">
        <ele>437.6</ele>
        <time>2014-10-02T13:28:05Z</time>
      </trkpt>
      <trkpt lat="46.03711" lon="4.46356">
        <ele>439</ele>
        <time>2014-10-02T13:28:06Z</time>
      </trkpt>
      <trkpt lat="46.0371" lon="4.46344">
        <ele>440.4</ele>
        <time>2014-10-02T13:28:07Z</time>
      </trkpt>
      <trkpt lat="46.0371" lon="4.46322">
        <ele>439.7</ele>
        <time>2014-10-02T13:28:09Z</time>
      </trkpt>
      <trkpt lat="46.03711" lon="4.46301">
        <ele>439.7</ele>
        <time>2014-10-02T13:28:11Z</time>
      </trkpt>
      <trkpt lat="46.03712" lon="4.46289">
        <ele>438.5</ele>
        <time>2014-10-02T13:28:12Z</time>
      </trkpt>
      <trkpt lat="46.03711" lon="4.46268">
        <ele>437.4</ele>
        <time>2014-10-02T13:28:14Z</time>
      </trkpt>
      <trkpt lat="46.0371" lon="4.46248">
        <ele>436.2</ele>
        <time>2014-10-02T13:28:16Z</time>
      </trkpt>
      <trkpt lat="46.03707" lon="4.46228">
        <ele>435</ele>
        <time>2014-10-02T13:28:18Z</time>
      </trkpt>
      <trkpt lat="46.037" lon="4.46211">
        <ele>434.5</ele>
        <time>2014-10-02T13:28:20Z</time>
      </trkpt>
      <trkpt lat="46.03692" lon="4.46196">
        <ele>433.7</ele>
        <time>2014-10-02T13:28:22Z</time>
      </trkpt>
      <trkpt lat="46.03685" lon="4.46181">
        <ele>433</ele>
        <time>2014-10-02T13:28:24Z</time>
      </trkpt>
      <trkpt lat="46.03678" lon="4.46167">
        <ele>432.3</ele>
        <time>2014-10-02T13:28:26Z</time>
      </trkpt>
      <trkpt lat="46.03673" lon="4.46153">
        <ele>431.5</ele>
        <time>2014-10-02T13:28:28Z</time>
      </trkpt>
      <trkpt lat="46.03667" lon="4.46138">
        <ele>433.9</ele>
        <time>2014-10-02T13:28:30Z</time>
      </trkpt>
      <trkpt lat="46.03663" lon="4.46124">
        <ele>435.6</ele>
        <time>2014-10-02T13:28:32Z</time>
      </trkpt>
      <trkpt lat="46.03655" lon="4.46112">
        <ele>437.4</ele>
        <time>2014-10-02T13:28:34Z</time>
      </trkpt>
      <trkpt lat="46.03646" lon="4.46104">
        <ele>439.1</ele>
        <time>2014-10-02T13:28:36Z</time>
      </trkpt>
      <trkpt lat="46.03635" lon="4.46101">
        <ele>441.5</ele>
        <time>2014-10-02T13:28:38Z</time>
      </trkpt>
      <trkpt lat="46.03623" lon="4.46103">
        <ele>443.8</ele>
        <time>2014-10-02T13:28:40Z</time>
      </trkpt>
      <trkpt lat="46.03615" lon="4.4611">
        <ele>445.5</ele>
        <time>2014-10-02T13:28:42Z</time>
      </trkpt>
      <trkpt lat="46.03609" lon="4.46121">
        <ele>447.3</ele>
        <time>2014-10-02T13:28:44Z</time>
      </trkpt>
      <trkpt lat="46.03605" lon="4.46134">
        <ele>449</ele>
        <time>2014-10-02T13:28:46Z</time>
      </trkpt>
      <trkpt lat="46.03605" lon="4.46152">
        <ele>450.5</ele>
        <time>2014-10-02T13:28:49Z</time>
      </trkpt>
      <trkpt lat="46.03606" lon="4.46167">
        <ele>452.1</ele>
        <time>2014-10-02T13:28:52Z</time>
      </trkpt>
      <trkpt lat="46.03607" lon="4.46182">
        <ele>452.5</ele>
        <time>2014-10-02T13:28:55Z</time>
      </trkpt>
      <trkpt lat="46.03609" lon="4.46198">
        <ele>453</ele>
        <time>2014-10-02T13:28:58Z</time>
      </trkpt>
      <trkpt lat="46.0361" lon="4.46213">
        <ele>453.5</ele>
        <time>2014-10-02T13:29:01Z</time>
      </trkpt>
      <trkpt lat="46.0361" lon="4.46227">
        <ele>453.9</ele>
        <time>2014-10-02T13:29:04Z</time>
      </trkpt>
      <trkpt lat="46.03609" lon="4.46242">
        <ele>453.7</ele>
        <time>2014-10-02T13:29:07Z</time>
      </trkpt>
      <trkpt lat="46.03608" lon="4.46254">
        <ele>453.5</ele>
        <time>2014-10-02T13:29:10Z</time>
      </trkpt>
      <trkpt lat="46.03606" lon="4.46266">
        <ele>453.4</ele>
        <time>2014-10-02T13:29:13Z</time>
      </trkpt>
      <trkpt lat="46.03604" lon="4.46281">
        <ele>453.2</ele>
        <time>2014-10-02T13:29:17Z</time>
      </trkpt>
      <trkpt lat="46.03601" lon="4.46296">
        <ele>453</ele>
        <time>2014-10-02T13:29:21Z</time>
      </trkpt>
      <trkpt lat="46.03599" lon="4.4631">
        <ele>453</ele>
        <time>2014-10-02T13:29:25Z</time>
      </trkpt>
      <trkpt lat="46.03597" lon="4.46325">
        <ele>451.4</ele>
        <time>2014-10-02T13:29:29Z</time>
      </trkpt>
      <trkpt lat="46.03595" lon="4.46337">
        <ele>449.7</ele>
        <time>2014-10-02T13:29:32Z</time>
      </trkpt>
      <trkpt lat="46.03592" lon="4.46348">
        <ele>448.1</ele>
        <time>2014-10-02T13:29:35Z</time>
      </trkpt>
      <trkpt lat="46.0359" lon="4.46359">
        <ele>446.5</ele>
        <time>2014-10-02T13:29:38Z</time>
      </trkpt>
      <trkpt lat="46.03586" lon="4.46374">
        <ele>444.8</ele>
        <time>2014-10-02T13:29:42Z</time>
      </trkpt>
      <trkpt lat="46.03583" lon="4.46388">
        <ele>443.2</ele>
        <time>2014-10-02T13:29:46Z</time>
      </trkpt>
      <trkpt lat="46.03577" lon="4.46401">
        <ele>443.8</ele>
        <time>2014-10-02T13:29:50Z</time>
      </trkpt>
      <trkpt lat="46.0357" lon="4.46413">
        <ele>444.5</ele>
        <time>2014-10-02T13:29:54Z</time>
      </trkpt>
      <trkpt lat="46.03563" lon="4.4642">
        <ele>445.1</ele>
        <time>2014-10-02T13:29:57Z</time>
      </trkpt>
      <trkpt lat="46.03556" lon="4.46426">
        <ele>445.7</ele>
        <time>2014-10-02T13:30:00Z</time>
      </trkpt>
      <trkpt lat="46.03546" lon="4.46431">
        <ele>446.4</ele>
        <time>2014-10-02T13:30:04Z</time>
      </trkpt>
      <trkpt lat="46.03536" lon="4.46433">
        <ele>448.6</ele>
        <time>2014-10-02T13:30:08Z</time>
      </trkpt>
      <trkpt lat="46.03526" lon="4.46434">
        <ele>450.9</ele>
        <time>2014-10-02T13:30:12Z</time>
      </trkpt>
      <trkpt lat="46.03515" lon="4.46433">
        <ele>453.2</ele>
        <time>2014-10-02T13:30:16Z</time>
      </trkpt>
      <trkpt lat="46.03505" lon="4.46434">
        <ele>455.5</ele>
        <time>2014-10-02T13:30:20Z</time>
      </trkpt>
      <trkpt lat="46.03495" lon="4.46435">
        <ele>457.9</ele>
        <time>2014-10-02T13:30:24Z</time>
      </trkpt>
      <trkpt lat="46.03484" lon="4.46436">
        <ele>460.3</ele>
        <time>2014-10-02T13:30:28Z</time>
      </trkpt>
      <trkpt lat="46.03474" lon="4.46437">
        <ele>460.4</ele>
        <time>2014-10-02T13:30:32Z</time>
      </trkpt>
      <trkpt lat="46.03464" lon="4.46438">
        <ele>460.5</ele>
        <time>2014-10-02T13:30:36Z</time>
      </trkpt>
      <trkpt lat="46.03454" lon="4.46439">
        <ele>460.5</ele>
        <time>2014-10-02T13:30:40Z</time>
      </trkpt>
      <trkpt lat="46.03445" lon="4.4644">
        <ele>460.6</ele>
        <time>2014-10-02T13:30:44Z</time>
      </trkpt>
      <trkpt lat="46.03435" lon="4.46441">
        <ele>460.7</ele>
        <time>2014-10-02T13:30:48Z</time>
      </trkpt>
      <trkpt lat="46.03426" lon="4.46442">
        <ele>460.4</ele>
        <time>2014-10-02T13:30:52Z</time>
      </trkpt>
      <trkpt lat="46.03417" lon="4.46443">
        <ele>460</ele>
        <time>2014-10-02T13:30:56Z</time>
      </trkpt>
      <trkpt lat="46.03407" lon="4.46442">
        <ele>459.6</ele>
        <time>2014-10-02T13:31:00Z</time>
      </trkpt>
      <trkpt lat="46.03398" lon="4.46441">
        <ele>459.2</ele>
        <time>2014-10-02T13:31:04Z</time>
      </trkpt>
      <trkpt lat="46.03388" lon="4.46439">
        <ele>458.7</ele>
        <time>2014-10-02T13:31:08Z</time>
      </trkpt>
      <trkpt lat="46.03378" lon="4.46436">
        <ele>458.3</ele>
        <time>2014-10-02T13:31:12Z</time>
      </trkpt>
      <trkpt lat="46.03369" lon="4.46433">
        <ele>457.8</ele>
        <time>2014-10-02T13:31:16Z</time>
      </trkpt>
      <trkpt lat="46.03359" lon="4.46431">
        <ele>457.4</ele>
        <time>2014-10-02T13:31:20Z</time>
      </trkpt>
      <trkpt lat="46.03349" lon="4.46429">
        <ele>456.9</ele>
        <time>2014-10-02T13:31:24Z</time>
      </trkpt>
      <trkpt lat="46.0334" lon="4.46426">
        <ele>456.5</ele>
        <time>2014-10-02T13:31:28Z</time>
      </trkpt>
      <trkpt lat="46.03331" lon="4.46423">
        <ele>455.8</ele>
        <time>2014-10-02T13:31:32Z</time>
      </trkpt>
      <trkpt lat="46.03322" lon="4.4642">
        <ele>455.6</ele>
        <time>2014-10-02T13:31:36Z</time>
      </trkpt>
      <trkpt lat="46.03313" lon="4.46416">
        <ele>455.5</ele>
        <time>2014-10-02T13:31:40Z</time>
      </trkpt>
      <trkpt lat="46.03304" lon="4.46412">
        <ele>457.2</ele>
        <time>2014-10-02T13:31:44Z</time>
      </trkpt>
      <trkpt lat="46.03295" lon="4.46406">
        <ele>458.9</ele>
        <time>2014-10-02T13:31:48Z</time>
      </trkpt>
      <trkpt lat="46.03286" lon="4.464">
        <ele>460.6</ele>
        <time>2014-10-02T13:31:52Z</time>
      </trkpt>
      <trkpt lat="46.03278" lon="4.46393">
        <ele>462.4</ele>
        <time>2014-10-02T13:31:56Z</time>
      </trkpt>
      <trkpt lat="46.0327" lon="4.46386">
        <ele>464.1</ele>
        <time>2014-10-02T13:32:00Z</time>
      </trkpt>
      <trkpt lat="46.03262" lon="4.46377">
        <ele>465.8</ele>
        <time>2014-10-02T13:32:04Z</time>
      </trkpt>
      <trkpt lat="46.03254" lon="4.4637">
        <ele>467.6</ele>
        <time>2014-10-02T13:32:08Z</time>
      </trkpt>
      <trkpt lat="46.03246" lon="4.46363">
        <ele>469.5</ele>
        <time>2014-10-02T13:32:12Z</time>
      </trkpt>
      <trkpt lat="46.03237" lon="4.46358">
        <ele>471.5</ele>
        <time>2014-10-02T13:32:16Z</time>
      </trkpt>
      <trkpt lat="46.03228" lon="4.46353">
        <ele>473.5</ele>
        <time>2014-10-02T13:32:20Z</time>
      </trkpt>
      <trkpt lat="46.03218" lon="4.4635">
        <ele>475.5</ele>
        <time>2014-10-02T13:32:24Z</time>
      </trkpt>
      <trkpt lat="46.03209" lon="4.46349">
        <ele>475.5</ele>
        <time>2014-10-02T13:32:28Z</time>
      </trkpt>
      <trkpt lat="46.03199" lon="4.46348">
        <ele>475.6</ele>
        <time>2014-10-02T13:32:32Z</time>
      </trkpt>
      <trkpt lat="46.0319" lon="4.46349">
        <ele>475.7</ele>
        <time>2014-10-02T13:32:36Z</time>
      </trkpt>
      <trkpt lat="46.0318" lon="4.46349">
        <ele>475.8</ele>
        <time>2014-10-02T13:32:40Z</time>
      </trkpt>
      <trkpt lat="46.03171" lon="4.4635">
        <ele>475.2</ele>
        <time>2014-10-02T13:32:44Z</time>
      </trkpt>
      <trkpt lat="46.03161" lon="4.46351">
        <ele>474.5</ele>
        <time>2014-10-02T13:32:48Z</time>
      </trkpt>
      <trkpt lat="46.03152" lon="4.46354">
        <ele>473.8</ele>
        <time>2014-10-02T13:32:52Z</time>
      </trkpt>
      <trkpt lat="46.03144" lon="4.4636">
        <ele>473.1</ele>
        <time>2014-10-02T13:32:56Z</time>
      </trkpt>
      <trkpt lat="46.03138" lon="4.46372">
        <ele>472.4</ele>
        <time>2014-10-02T13:33:00Z</time>
      </trkpt>
      <trkpt lat="46.03135" lon="4.46386">
        <ele>471.6</ele>
        <time>2014-10-02T13:33:04Z</time>
      </trkpt>
      <trkpt lat="46.03135" lon="4.46401">
        <ele>471.3</ele>
        <time>2014-10-02T13:33:08Z</time>
      </trkpt>
      <trkpt lat="46.03137" lon="4.46416">
        <ele>470.9</ele>
        <time>2014-10-02T13:33:12Z</time>
      </trkpt>
      <trkpt lat="46.03139" lon="4.4643">
        <ele>470.5</ele>
        <time>2014-10-02T13:33:16Z</time>
      </trkpt>
      <trkpt lat="46.03141" lon="4.46445">
        <ele>470.2</ele>
        <time>2014-10-02T13:33:20Z</time>
      </trkpt>
      <trkpt lat="46.03142" lon="4.46459">
        <ele>469.8</ele>
        <time>2014-10-02T13:33:24Z</time>
      </trkpt>
      <trkpt lat="46.03142" lon="4.46474">
        <ele>470.9</ele>
        <time>2014-10-02T13:33:28Z</time>
      </trkpt>
      <trkpt lat="46.03142" lon="4.46489">
        <ele>472</ele>
        <time>2014-10-02T13:33:32Z</time>
      </trkpt>
      <trkpt lat="46.0314" lon="4.46503">
        <ele>473.1</ele>
        <time>2014-10-02T13:33:36Z</time>
      </trkpt>
      <trkpt lat="46.03136" lon="4.46516">
        <ele>474.2</ele>
        <time>2014-10-02T13:33:40Z</time>
      </trkpt>
      <trkpt lat="46.03128" lon="4.46525">
        <ele>475.3</ele>
        <time>2014-10-02T13:33:44Z</time>
      </trkpt>
      <trkpt lat="46.03117" lon="4.46527">
        <ele>476.4</ele>
        <time>2014-10-02T13:33:48Z</time>
      </trkpt>
      <trkpt lat="46.03109" lon="4.46523">
        <ele>477.3</ele>
        <time>2014-10-02T13:33:51Z</time>
      </trkpt>
      <trkpt lat="46.03102" lon="4.46513">
        <ele>478.2</ele>
        <time>2014-10-02T13:33:54Z</time>
      </trkpt>
      <trkpt lat="46.03097" lon="4.46501">
        <ele>479.1</ele>
        <time>2014-10-02T13:33:57Z</time>
      </trkpt>
      <trkpt lat="46.03093" lon="4.46488">
        <ele>480</ele>
        <time>2014-10-02T13:34:00Z</time>
      </trkpt>
      <trkpt lat="46.0309" lon="4.46474">
        <ele>480.9</ele>
        <time>2014-10-02T13:34:03Z</time>
      </trkpt>
      <trkpt lat="46.03086" lon="4.46461">
        <ele>481.1</ele>
        <time>2014-10-02T13:34:06Z</time>
      </trkpt>
      <trkpt lat="46.03083" lon="4.46447">
        <ele>481.5</ele>
        <time>2014-10-02T13:34:09Z</time>
      </trkpt>
      <trkpt lat="46.0308" lon="4.46433">
        <ele>481.8</ele>
        <time>2014-10-02T13:34:12Z</time>
      </trkpt>
      <trkpt lat="46.03077" lon="4.4642">
        <ele>482.2</ele>
        <time>2014-10-02T13:34:15Z</time>
      </trkpt>
      <trkpt lat="46.03074" lon="4.46406">
        <ele>482.5</ele>
        <time>2014-10-02T13:34:18Z</time>
      </trkpt>
      <trkpt lat="46.0307" lon="4.46393">
        <ele>482.9</ele>
        <time>2014-10-02T13:34:21Z</time>
      </trkpt>
      <trkpt lat="46.03067" lon="4.46379">
        <ele>483.1</ele>
        <time>2014-10-02T13:34:24Z</time>
      </trkpt>
      <trkpt lat="46.03064" lon="4.46366">
        <ele>483.2</ele>
        <time>2014-10-02T13:34:27Z</time>
      </trkpt>
      <trkpt lat="46.03061" lon="4.46352">
        <ele>484.3</ele>
        <time>2014-10-02T13:34:30Z</time>
      </trkpt>
      <trkpt lat="46.03057" lon="4.46339">
        <ele>485.4</ele>
        <time>2014-10-02T13:34:33Z</time>
      </trkpt>
      <trkpt lat="46.03053" lon="4.46327">
        <ele>486.5</ele>
        <time>2014-10-02T13:34:36Z</time>
      </trkpt>
      <trkpt lat="46.03049" lon="4.46316">
        <ele>487.5</ele>
        <time>2014-10-02T13:34:39Z</time>
      </trkpt>
      <trkpt lat="46.03045" lon="4.46305">
        <ele>488.5</ele>
        <time>2014-10-02T13:34:42Z</time>
      </trkpt>
      <trkpt lat="46.03039" lon="4.46295">
        <ele>489.4</ele>
        <time>2014-10-02T13:34:45Z</time>
      </trkpt>
      <trkpt lat="46.03032" lon="4.46285">
        <ele>490.3</ele>
        <time>2014-10-02T13:34:48Z</time>
      </trkpt>
      <trkpt lat="46.03025" lon="4.46276">
        <ele>491.2</ele>
        <time>2014-10-02T13:34:51Z</time>
      </trkpt>
      <trkpt lat="46.03017" lon="4.46268">
        <ele>492.1</ele>
        <time>2014-10-02T13:34:54Z</time>
      </trkpt>
      <trkpt lat="46.03008" lon="4.46261">
        <ele>493.5</ele>
        <time>2014-10-02T13:34:57Z</time>
      </trkpt>
      <trkpt lat="46.03" lon="4.46256">
        <ele>494.9</ele>
        <time>2014-10-02T13:35:00Z</time>
      </trkpt>
      <trkpt lat="46.02991" lon="4.46252">
        <ele>495.4</ele>
        <time>2014-10-02T13:35:03Z</time>
      </trkpt>
      <trkpt lat="46.02982" lon="4.46251">
        <ele>495.8</ele>
        <time>2014-10-02T13:35:06Z</time>
      </trkpt>
      <trkpt lat="46.02972" lon="4.46252">
        <ele>496.3</ele>
        <time>2014-10-02T13:35:09Z</time>
      </trkpt>
      <trkpt lat="46.02963" lon="4.46254">
        <ele>496.7</ele>
        <time>2014-10-02T13:35:12Z</time>
      </trkpt>
      <trkpt lat="46.02954" lon="4.46257">
        <ele>497.2</ele>
        <time>2014-10-02T13:35:15Z</time>
      </trkpt>
      <trkpt lat="46.02946" lon="4.46261">
        <ele>497.6</ele>
        <time>2014-10-02T13:35:18Z</time>
      </trkpt>
      <trkpt lat="46.02937" lon="4.46265">
        <ele>498.1</ele>
        <time>2014-10-02T13:35:21Z</time>
      </trkpt>
      <trkpt lat="46.02929" lon="4.46269">
        <ele>498.5</ele>
        <time>2014-10-02T13:35:24Z</time>
      </trkpt>
      <trkpt lat="46.0292" lon="4.4627">
        <ele>499</ele>
        <time>2014-10-02T13:35:27Z</time>
      </trkpt>
      <trkpt lat="46.0291" lon="4.46268">
        <ele>500.3</ele>
        <time>2014-10-02T13:35:30Z</time>
      </trkpt>
      <trkpt lat="46.02902" lon="4.4626">
        <ele>501.5</ele>
        <time>2014-10-02T13:35:33Z</time>
      </trkpt>
      <trkpt lat="46.02898" lon="4.46248">
        <ele>502.8</ele>
        <time>2014-10-02T13:35:36Z</time>
      </trkpt>
      <trkpt lat="46.02897" lon="4.46235">
        <ele>504.1</ele>
        <time>2014-10-02T13:35:39Z</time>
      </trkpt>
      <trkpt lat="46.029" lon="4.46223">
        <ele>505.4</ele>
        <time>2014-10-02T13:35:42Z</time>
      </trkpt>
      <trkpt lat="46.02905" lon="4.46212">
        <ele>506.6</ele>
        <time>2014-10-02T13:35:45Z</time>
      </trkpt>
      <trkpt lat="46.02913" lon="4.46206">
        <ele>507.9</ele>
        <time>2014-10-02T13:35:48Z</time>
      </trkpt>
      <trkpt lat="46.02922" lon="4.46201">
        <ele>508.9</ele>
        <time>2014-10-02T13:35:51Z</time>
      </trkpt>
      <trkpt lat="46.0293" lon="4.46197">
        <ele>509.9</ele>
        <time>2014-10-02T13:35:54Z</time>
      </trkpt>
      <trkpt lat="46.02939" lon="4.46191">
        <ele>510.9</ele>
        <time>2014-10-02T13:35:58Z</time>
      </trkpt>
      <trkpt lat="46.02949" lon="4.46186">
        <ele>511.9</ele>
        <time>2014-10-02T13:36:02Z</time>
      </trkpt>
      <trkpt lat="46.02957" lon="4.46183">
        <ele>511.6</ele>
        <time>2014-10-02T13:36:05Z</time>
      </trkpt>
      <trkpt lat="46.02967" lon="4.46178">
        <ele>511.4</ele>
        <time>2014-10-02T13:36:09Z</time>
      </trkpt>
      <trkpt lat="46.02976" lon="4.46171">
        <ele>511.1</ele>
        <time>2014-10-02T13:36:13Z</time>
      </trkpt>
      <trkpt lat="46.02986" lon="4.46166">
        <ele>510.8</ele>
        <time>2014-10-02T13:36:17Z</time>
      </trkpt>
      <trkpt lat="46.02995" lon="4.46161">
        <ele>510.5</ele>
        <time>2014-10-02T13:36:21Z</time>
      </trkpt>
      <trkpt lat="46.03005" lon="4.46156">
        <ele>511.7</ele>
        <time>2014-10-02T13:36:25Z</time>
      </trkpt>
      <trkpt lat="46.03015" lon="4.46152">
        <ele>512.9</ele>
        <time>2014-10-02T13:36:29Z</time>
      </trkpt>
      <trkpt lat="46.03023" lon="4.46147">
        <ele>514.4</ele>
        <time>2014-10-02T13:36:33Z</time>
      </trkpt>
      <trkpt lat="46.03033" lon="4.46143">
        <ele>515.8</ele>
        <time>2014-10-02T13:36:37Z</time>
      </trkpt>
      <trkpt lat="46.03042" lon="4.46139">
        <ele>517.3</ele>
        <time>2014-10-02T13:36:41Z</time>
      </trkpt>
      <trkpt lat="46.03052" lon="4.46137">
        <ele>518.7</ele>
        <time>2014-10-02T13:36:45Z</time>
      </trkpt>
      <trkpt lat="46.03061" lon="4.46135">
        <ele>520.2</ele>
        <time>2014-10-02T13:36:49Z</time>
      </trkpt>
      <trkpt lat="46.03071" lon="4.46133">
        <ele>521.6</ele>
        <time>2014-10-02T13:36:53Z</time>
      </trkpt>
      <trkpt lat="46.0308" lon="4.46131">
        <ele>523.1</ele>
        <time>2014-10-02T13:36:57Z</time>
      </trkpt>
      <trkpt lat="46.0309" lon="4.4613">
        <ele>524.5</ele>
        <time>2014-10-02T13:37:01Z</time>
      </trkpt>
      <trkpt lat="46.031" lon="4.46128">
        <ele>526</ele>
        <time>2014-10-02T13:37:05Z</time>
      </trkpt>
      <trkpt lat="46.03109" lon="4.46126">
        <ele>526</ele>
        <time>2014-10-02T13:37:09Z</time>
      </trkpt>
      <trkpt lat="46.03116" lon="4.46117">
        <ele>526</ele>
        <time>2014-10-02T13:37:13Z</time>
      </trkpt>
      <trkpt lat="46.03121" lon="4.46106">
        <ele>526</ele>
        <time>2014-10-02T13:37:17Z</time>
      </trkpt>
      <trkpt lat="46.03117" lon="4.46092">
        <ele>526</ele>
        <time>2014-10-02T13:37:21Z</time>
      </trkpt>
      <trkpt lat="46.0311" lon="4.46086">
        <ele>526</ele>
        <time>2014-10-02T13:37:24Z</time>
      </trkpt>
      <trkpt lat="46.03101" lon="4.46085">
        <ele>526</ele>
        <time>2014-10-02T13:37:27Z</time>
      </trkpt>
      <trkpt lat="46.03092" lon="4.46084">
        <ele>526</ele>
        <time>2014-10-02T13:37:30Z</time>
      </trkpt>
      <trkpt lat="46.03083" lon="4.46084">
        <ele>526.4</ele>
        <time>2014-10-02T13:37:33Z</time>
      </trkpt>
      <trkpt lat="46.03075" lon="4.46084">
        <ele>526.7</ele>
        <time>2014-10-02T13:37:36Z</time>
      </trkpt>
      <trkpt lat="46.03066" lon="4.46084">
        <ele>527.1</ele>
        <time>2014-10-02T13:37:40Z</time>
      </trkpt>
      <trkpt lat="46.03057" lon="4.46084">
        <ele>527.5</ele>
        <time>2014-10-02T13:37:42Z</time>
      </trkpt>
      <trkpt lat="46.03049" lon="4.46084">
        <ele>527.8</ele>
        <time>2014-10-02T13:37:45Z</time>
      </trkpt>
      <trkpt lat="46.0304" lon="4.46084">
        <ele>528.2</ele>
        <time>2014-10-02T13:37:48Z</time>
      </trkpt>
      <trkpt lat="46.03031" lon="4.46084">
        <ele>528.5</ele>
        <time>2014-10-02T13:37:51Z</time>
      </trkpt>
      <trkpt lat="46.03023" lon="4.46084">
        <ele>528.9</ele>
        <time>2014-10-02T13:37:54Z</time>
      </trkpt>
      <trkpt lat="46.03015" lon="4.46084">
        <ele>529.3</ele>
        <time>2014-10-02T13:37:57Z</time>
      </trkpt>
      <trkpt lat="46.03007" lon="4.46083">
        <ele>529.8</ele>
        <time>2014-10-02T13:38:01Z</time>
      </trkpt>
      <trkpt lat="46.02996" lon="4.46083">
        <ele>530.4</ele>
        <time>2014-10-02T13:38:05Z</time>
      </trkpt>
      <trkpt lat="46.02985" lon="4.46083">
        <ele>530.5</ele>
        <time>2014-10-02T13:38:08Z</time>
      </trkpt>
      <trkpt lat="46.02975" lon="4.46082">
        <ele>530.7</ele>
        <time>2014-10-02T13:38:12Z</time>
      </trkpt>
      <trkpt lat="46.02964" lon="4.46082">
        <ele>530.9</ele>
        <time>2014-10-02T13:38:16Z</time>
      </trkpt>
      <trkpt lat="46.02954" lon="4.46082">
        <ele>531.1</ele>
        <time>2014-10-02T13:38:20Z</time>
      </trkpt>
      <trkpt lat="46.02943" lon="4.46082">
        <ele>531.3</ele>
        <time>2014-10-02T13:38:24Z</time>
      </trkpt>
      <trkpt lat="46.02932" lon="4.4608">
        <ele>531.5</ele>
        <time>2014-10-02T13:38:28Z</time>
      </trkpt>
      <trkpt lat="46.02922" lon="4.46077">
        <ele>531.5</ele>
        <time>2014-10-02T13:38:32Z</time>
      </trkpt>
      <trkpt lat="46.02912" lon="4.46074">
        <ele>531.5</ele>
        <time>2014-10-02T13:38:36Z</time>
      </trkpt>
      <trkpt lat="46.02901" lon="4.4607">
        <ele>532.8</ele>
        <time>2014-10-02T13:38:40Z</time>
      </trkpt>
      <trkpt lat="46.02892" lon="4.46064">
        <ele>534</ele>
        <time>2014-10-02T13:38:44Z</time>
      </trkpt>
      <trkpt lat="46.02882" lon="4.46058">
        <ele>535.2</ele>
        <time>2014-10-02T13:38:48Z</time>
      </trkpt>
      <trkpt lat="46.02872" lon="4.46051">
        <ele>536.4</ele>
        <time>2014-10-02T13:38:52Z</time>
      </trkpt>
      <trkpt lat="46.02863" lon="4.46043">
        <ele>537.5</ele>
        <time>2014-10-02T13:38:56Z</time>
      </trkpt>
      <trkpt lat="46.02854" lon="4.46035">
        <ele>538.7</ele>
        <time>2014-10-02T13:39:00Z</time>
      </trkpt>
      <trkpt lat="46.02846" lon="4.46027">
        <ele>539.9</ele>
        <time>2014-10-02T13:39:04Z</time>
      </trkpt>
      <trkpt lat="46.02838" lon="4.46018">
        <ele>541.1</ele>
        <time>2014-10-02T13:39:08Z</time>
      </trkpt>
      <trkpt lat="46.0283" lon="4.46008">
        <ele>542.3</ele>
        <time>2014-10-02T13:39:12Z</time>
      </trkpt>
      <trkpt lat="46.02822" lon="4.45999">
        <ele>544.2</ele>
        <time>2014-10-02T13:39:16Z</time>
      </trkpt>
      <trkpt lat="46.02815" lon="4.45991">
        <ele>546.1</ele>
        <time>2014-10-02T13:39:20Z</time>
      </trkpt>
      <trkpt lat="46.02807" lon="4.45982">
        <ele>546.6</ele>
        <time>2014-10-02T13:39:24Z</time>
      </trkpt>
      <trkpt lat="46.02799" lon="4.45973">
        <ele>547.2</ele>
        <time>2014-10-02T13:39:28Z</time>
      </trkpt>
      <trkpt lat="46.02792" lon="4.45964">
        <ele>547.7</ele>
        <time>2014-10-02T13:39:32Z</time>
      </trkpt>
      <trkpt lat="46.02784" lon="4.45956">
        <ele>548.3</ele>
        <time>2014-10-02T13:39:36Z</time>
      </trkpt>
      <trkpt lat="46.02777" lon="4.45948">
        <ele>548.8</ele>
        <time>2014-10-02T13:39:40Z</time>
      </trkpt>
      <trkpt lat="46.02769" lon="4.4594">
        <ele>549.4</ele>
        <time>2014-10-02T13:39:44Z</time>
      </trkpt>
      <trkpt lat="46.0276" lon="4.45933">
        <ele>549.9</ele>
        <time>2014-10-02T13:39:48Z</time>
      </trkpt>
      <trkpt lat="46.02752" lon="4.45927">
        <ele>550.1</ele>
        <time>2014-10-02T13:39:52Z</time>
      </trkpt>
      <trkpt lat="46.02743" lon="4.4592">
        <ele>550.3</ele>
        <time>2014-10-02T13:39:56Z</time>
      </trkpt>
      <trkpt lat="46.02735" lon="4.45914">
        <ele>549.9</ele>
        <time>2014-10-02T13:40:00Z</time>
      </trkpt>
      <trkpt lat="46.02726" lon="4.45909">
        <ele>549.5</ele>
        <time>2014-10-02T13:40:04Z</time>
      </trkpt>
      <trkpt lat="46.02717" lon="4.45903">
        <ele>549.2</ele>
        <time>2014-10-02T13:40:08Z</time>
      </trkpt>
      <trkpt lat="46.02708" lon="4.45899">
        <ele>550.2</ele>
        <time>2014-10-02T13:40:12Z</time>
      </trkpt>
      <trkpt lat="46.027" lon="4.45893">
        <ele>551.2</ele>
        <time>2014-10-02T13:40:16Z</time>
      </trkpt>
      <trkpt lat="46.02692" lon="4.45888">
        <ele>552.2</ele>
        <time>2014-10-02T13:40:20Z</time>
      </trkpt>
      <trkpt lat="46.02683" lon="4.45883">
        <ele>553.2</ele>
        <time>2014-10-02T13:40:24Z</time>
      </trkpt>
      <trkpt lat="46.02675" lon="4.45878">
        <ele>554.2</ele>
        <time>2014-10-02T13:40:28Z</time>
      </trkpt>
      <trkpt lat="46.02667" lon="4.45873">
        <ele>555.1</ele>
        <time>2014-10-02T13:40:32Z</time>
      </trkpt>
      <trkpt lat="46.0266" lon="4.45867">
        <ele>556.4</ele>
        <time>2014-10-02T13:40:36Z</time>
      </trkpt>
      <trkpt lat="46.02651" lon="4.45861">
        <ele>557.6</ele>
        <time>2014-10-02T13:40:41Z</time>
      </trkpt>
      <trkpt lat="46.02643" lon="4.45856">
        <ele>558.9</ele>
        <time>2014-10-02T13:40:45Z</time>
      </trkpt>
      <trkpt lat="46.02635" lon="4.4585">
        <ele>560.2</ele>
        <time>2014-10-02T13:40:49Z</time>
      </trkpt>
      <trkpt lat="46.02626" lon="4.45847">
        <ele>561.5</ele>
        <time>2014-10-02T13:40:53Z</time>
      </trkpt>
      <trkpt lat="46.02616" lon="4.45845">
        <ele>561.4</ele>
        <time>2014-10-02T13:40:57Z</time>
      </trkpt>
      <trkpt lat="46.02607" lon="4.45841">
        <ele>561.3</ele>
        <time>2014-10-02T13:41:01Z</time>
      </trkpt>
      <trkpt lat="46.02598" lon="4.45838">
        <ele>561.2</ele>
        <time>2014-10-02T13:41:05Z</time>
      </trkpt>
      <trkpt lat="46.0259" lon="4.45834">
        <ele>561.1</ele>
        <time>2014-10-02T13:41:09Z</time>
      </trkpt>
      <trkpt lat="46.02582" lon="4.45832">
        <ele>560.7</ele>
        <time>2014-10-02T13:41:13Z</time>
      </trkpt>
      <trkpt lat="46.02573" lon="4.45828">
        <ele>560.5</ele>
        <time>2014-10-02T13:41:17Z</time>
      </trkpt>
      <trkpt lat="46.02564" lon="4.45824">
        <ele>560.2</ele>
        <time>2014-10-02T13:41:21Z</time>
      </trkpt>
      <trkpt lat="46.02556" lon="4.45819">
        <ele>559.9</ele>
        <time>2014-10-02T13:41:25Z</time>
      </trkpt>
      <trkpt lat="46.02547" lon="4.45815">
        <ele>561.4</ele>
        <time>2014-10-02T13:41:29Z</time>
      </trkpt>
      <trkpt lat="46.02538" lon="4.45811">
        <ele>562.8</ele>
        <time>2014-10-02T13:41:33Z</time>
      </trkpt>
      <trkpt lat="46.0253" lon="4.45806">
        <ele>564.3</ele>
        <time>2014-10-02T13:41:37Z</time>
      </trkpt>
      <trkpt lat="46.02522" lon="4.458">
        <ele>565.7</ele>
        <time>2014-10-02T13:41:41Z</time>
      </trkpt>
      <trkpt lat="46.02513" lon="4.45797">
        <ele>567.2</ele>
        <time>2014-10-02T13:41:45Z</time>
      </trkpt>
      <trkpt lat="46.02505" lon="4.45792">
        <ele>568.6</ele>
        <time>2014-10-02T13:41:49Z</time>
      </trkpt>
      <trkpt lat="46.02497" lon="4.45788">
        <ele>570.7</ele>
        <time>2014-10-02T13:41:53Z</time>
      </trkpt>
      <trkpt lat="46.02489" lon="4.45784">
        <ele>573.1</ele>
        <time>2014-10-02T13:41:57Z</time>
      </trkpt>
      <trkpt lat="46.02481" lon="4.45781">
        <ele>575.5</ele>
        <time>2014-10-02T13:42:01Z</time>
      </trkpt>
      <trkpt lat="46.02473" lon="4.45778">
        <ele>577.8</ele>
        <time>2014-10-02T13:42:05Z</time>
      </trkpt>
      <trkpt lat="46.02465" lon="4.45776">
        <ele>580.2</ele>
        <time>2014-10-02T13:42:09Z</time>
      </trkpt>
      <trkpt lat="46.02456" lon="4.45774">
        <ele>580.8</ele>
        <time>2014-10-02T13:42:13Z</time>
      </trkpt>
      <trkpt lat="46.02447" lon="4.45774">
        <ele>579.8</ele>
        <time>2014-10-02T13:42:17Z</time>
      </trkpt>
      <trkpt lat="46.02437" lon="4.45776">
        <ele>578.8</ele>
        <time>2014-10-02T13:42:21Z</time>
      </trkpt>
      <trkpt lat="46.02428" lon="4.45779">
        <ele>577.8</ele>
        <time>2014-10-02T13:42:25Z</time>
      </trkpt>
      <trkpt lat="46.02419" lon="4.45785">
        <ele>577.9</ele>
        <time>2014-10-02T13:42:29Z</time>
      </trkpt>
      <trkpt lat="46.02411" lon="4.45792">
        <ele>578</ele>
        <time>2014-10-02T13:42:33Z</time>
      </trkpt>
      <trkpt lat="46.02403" lon="4.458">
        <ele>577.5</ele>
        <time>2014-10-02T13:42:37Z</time>
      </trkpt>
      <trkpt lat="46.02395" lon="4.45807">
        <ele>576.9</ele>
        <time>2014-10-02T13:42:41Z</time>
      </trkpt>
      <trkpt lat="46.02387" lon="4.45815">
        <ele>576.4</ele>
        <time>2014-10-02T13:42:45Z</time>
      </trkpt>
      <trkpt lat="46.02379" lon="4.45822">
        <ele>575.8</ele>
        <time>2014-10-02T13:42:49Z</time>
      </trkpt>
      <trkpt lat="46.0237" lon="4.45828">
        <ele>575.3</ele>
        <time>2014-10-02T13:42:53Z</time>
      </trkpt>
      <trkpt lat="46.02362" lon="4.45832">
        <ele>574.7</ele>
        <time>2014-10-02T13:42:57Z</time>
      </trkpt>
      <trkpt lat="46.02353" lon="4.45836">
        <ele>575.8</ele>
        <time>2014-10-02T13:43:01Z</time>
      </trkpt>
      <trkpt lat="46.02344" lon="4.45838">
        <ele>576.9</ele>
        <time>2014-10-02T13:43:05Z</time>
      </trkpt>
      <trkpt lat="46.02335" lon="4.45839">
        <ele>578.7</ele>
        <time>2014-10-02T13:43:09Z</time>
      </trkpt>
      <trkpt lat="46.02325" lon="4.45838">
        <ele>579.5</ele>
        <time>2014-10-02T13:43:13Z</time>
      </trkpt>
      <trkpt lat="46.02316" lon="4.45835">
        <ele>580.2</ele>
        <time>2014-10-02T13:43:17Z</time>
      </trkpt>
      <trkpt lat="46.02307" lon="4.4583">
        <ele>582.2</ele>
        <time>2014-10-02T13:43:21Z</time>
      </trkpt>
      <trkpt lat="46.02298" lon="4.45821">
        <ele>584.2</ele>
        <time>2014-10-02T13:43:25Z</time>
      </trkpt>
      <trkpt lat="46.02289" lon="4.45815">
        <ele>586.2</ele>
        <time>2014-10-02T13:43:29Z</time>
      </trkpt>
      <trkpt lat="46.02281" lon="4.45807">
        <ele>586.9</ele>
        <time>2014-10-02T13:43:33Z</time>
      </trkpt>
      <trkpt lat="46.02273" lon="4.458">
        <ele>587.6</ele>
        <time>2014-10-02T13:43:37Z</time>
      </trkpt>
      <trkpt lat="46.02264" lon="4.45794">
        <ele>588.4</ele>
        <time>2014-10-02T13:43:41Z</time>
      </trkpt>
      <trkpt lat="46.02255" lon="4.45791">
        <ele>589.1</ele>
        <time>2014-10-02T13:43:45Z</time>
      </trkpt>
      <trkpt lat="46.02245" lon="4.45794">
        <ele>589.8</ele>
        <time>2014-10-02T13:43:49Z</time>
      </trkpt>
      <trkpt lat="46.02237" lon="4.45803">
        <ele>591.1</ele>
        <time>2014-10-02T13:43:53Z</time>
      </trkpt>
      <trkpt lat="46.02231" lon="4.45814">
        <ele>592.4</ele>
        <time>2014-10-02T13:43:57Z</time>
      </trkpt>
      <trkpt lat="46.02225" lon="4.45826">
        <ele>593.6</ele>
        <time>2014-10-02T13:44:01Z</time>
      </trkpt>
      <trkpt lat="46.02219" lon="4.45838">
        <ele>593.6</ele>
        <time>2014-10-02T13:44:05Z</time>
      </trkpt>
      <trkpt lat="46.02212" lon="4.45848">
        <ele>593.6</ele>
        <time>2014-10-02T13:44:09Z</time>
      </trkpt>
      <trkpt lat="46.02204" lon="4.45856">
        <ele>593.6</ele>
        <time>2014-10-02T13:44:13Z</time>
      </trkpt>
      <trkpt lat="46.02195" lon="4.4586">
        <ele>594.9</ele>
        <time>2014-10-02T13:44:17Z</time>
      </trkpt>
      <trkpt lat="46.02186" lon="4.45863">
        <ele>594.9</ele>
        <time>2014-10-02T13:44:21Z</time>
      </trkpt>
      <trkpt lat="46.02176" lon="4.45867">
        <ele>594.9</ele>
        <time>2014-10-02T13:44:25Z</time>
      </trkpt>
      <trkpt lat="46.02167" lon="4.45869">
        <ele>596.1</ele>
        <time>2014-10-02T13:44:29Z</time>
      </trkpt>
      <trkpt lat="46.02158" lon="4.45873">
        <ele>597.3</ele>
        <time>2014-10-02T13:44:33Z</time>
      </trkpt>
      <trkpt lat="46.02149" lon="4.45876">
        <ele>597.2</ele>
        <time>2014-10-02T13:44:37Z</time>
      </trkpt>
      <trkpt lat="46.0214" lon="4.4588">
        <ele>597.1</ele>
        <time>2014-10-02T13:44:41Z</time>
      </trkpt>
      <trkpt lat="46.02131" lon="4.45883">
        <ele>597</ele>
        <time>2014-10-02T13:44:45Z</time>
      </trkpt>
      <trkpt lat="46.02122" lon="4.45887">
        <ele>596.9</ele>
        <time>2014-10-02T13:44:49Z</time>
      </trkpt>
      <trkpt lat="46.02113" lon="4.4589">
        <ele>596.8</ele>
        <time>2014-10-02T13:44:53Z</time>
      </trkpt>
      <trkpt lat="46.02104" lon="4.45893">
        <ele>597</ele>
        <time>2014-10-02T13:44:57Z</time>
      </trkpt>
      <trkpt lat="46.02095" lon="4.45895">
        <ele>597.2</ele>
        <time>2014-10-02T13:45:01Z</time>
      </trkpt>
      <trkpt lat="46.02085" lon="4.45894">
        <ele>598.6</ele>
        <time>2014-10-02T13:45:05Z</time>
      </trkpt>
      <trkpt lat="46.02076" lon="4.45888">
        <ele>600.1</ele>
        <time>2014-10-02T13:45:09Z</time>
      </trkpt>
      <trkpt lat="46.02069" lon="4.45878">
        <ele>600.4</ele>
        <time>2014-10-02T13:45:13Z</time>
      </trkpt>
      <trkpt lat="46.02065" lon="4.45868">
        <ele>600.6</ele>
        <time>2014-10-02T13:45:16Z</time>
      </trkpt>
      <trkpt lat="46.02061" lon="4.45855">
        <ele>600.2</ele>
        <time>2014-10-02T13:45:19Z</time>
      </trkpt>
      <trkpt lat="46.02057" lon="4.45838">
        <ele>599.7</ele>
        <time>2014-10-02T13:45:22Z</time>
      </trkpt>
      <trkpt lat="46.02055" lon="4.45827">
        <ele>599.3</ele>
        <time>2014-10-02T13:45:24Z</time>
      </trkpt>
      <trkpt lat="46.02052" lon="4.45816">
        <ele>598.8</ele>
        <time>2014-10-02T13:45:26Z</time>
      </trkpt>
      <trkpt lat="46.02047" lon="4.458">
        <ele>598.4</ele>
        <time>2014-10-02T13:45:28Z</time>
      </trkpt>
      <trkpt lat="46.02044" lon="4.45788">
        <ele>597.6</ele>
        <time>2014-10-02T13:45:30Z</time>
      </trkpt>
      <trkpt lat="46.0204" lon="4.45775">
        <ele>597.5</ele>
        <time>2014-10-02T13:45:32Z</time>
      </trkpt>
      <trkpt lat="46.02036" lon="4.45763">
        <ele>597.5</ele>
        <time>2014-10-02T13:45:34Z</time>
      </trkpt>
      <trkpt lat="46.02032" lon="4.4575">
        <ele>597.4</ele>
        <time>2014-10-02T13:45:36Z</time>
      </trkpt>
      <trkpt lat="46.02028" lon="4.45737">
        <ele>597.3</ele>
        <time>2014-10-02T13:45:38Z</time>
      </trkpt>
      <trkpt lat="46.02024" lon="4.45723">
        <ele>597.2</ele>
        <time>2014-10-02T13:45:40Z</time>
      </trkpt>
      <trkpt lat="46.02021" lon="4.45709">
        <ele>597.8</ele>
        <time>2014-10-02T13:45:42Z</time>
      </trkpt>
      <trkpt lat="46.02017" lon="4.45693">
        <ele>598.9</ele>
        <time>2014-10-02T13:45:44Z</time>
      </trkpt>
      <trkpt lat="46.02014" lon="4.45678">
        <ele>600</ele>
        <time>2014-10-02T13:45:46Z</time>
      </trkpt>
      <trkpt lat="46.02012" lon="4.45663">
        <ele>601.1</ele>
        <time>2014-10-02T13:45:48Z</time>
      </trkpt>
      <trkpt lat="46.02009" lon="4.45648">
        <ele>602.2</ele>
        <time>2014-10-02T13:45:50Z</time>
      </trkpt>
      <trkpt lat="46.02006" lon="4.45633">
        <ele>603.3</ele>
        <time>2014-10-02T13:45:52Z</time>
      </trkpt>
      <trkpt lat="46.02004" lon="4.45618">
        <ele>604.6</ele>
        <time>2014-10-02T13:45:54Z</time>
      </trkpt>
      <trkpt lat="46.02001" lon="4.45602">
        <ele>606</ele>
        <time>2014-10-02T13:45:56Z</time>
      </trkpt>
      <trkpt lat="46.01997" lon="4.45588">
        <ele>607.6</ele>
        <time>2014-10-02T13:45:58Z</time>
      </trkpt>
      <trkpt lat="46.01994" lon="4.45574">
        <ele>609.3</ele>
        <time>2014-10-02T13:46:00Z</time>
      </trkpt>
      <trkpt lat="46.0199" lon="4.45559">
        <ele>610.9</ele>
        <time>2014-10-02T13:46:02Z</time>
      </trkpt>
      <trkpt lat="46.01983" lon="4.45547">
        <ele>612.5</ele>
        <time>2014-10-02T13:46:04Z</time>
      </trkpt>
      <trkpt lat="46.01973" lon="4.45539">
        <ele>611.8</ele>
        <time>2014-10-02T13:46:06Z</time>
      </trkpt>
      <trkpt lat="46.01962" lon="4.45535">
        <ele>611.1</ele>
        <time>2014-10-02T13:46:08Z</time>
      </trkpt>
      <trkpt lat="46.0195" lon="4.45537">
        <ele>610.4</ele>
        <time>2014-10-02T13:46:10Z</time>
      </trkpt>
      <trkpt lat="46.01939" lon="4.45542">
        <ele>609.6</ele>
        <time>2014-10-02T13:46:12Z</time>
      </trkpt>
      <trkpt lat="46.01928" lon="4.45547">
        <ele>609.2</ele>
        <time>2014-10-02T13:46:14Z</time>
      </trkpt>
      <trkpt lat="46.01918" lon="4.45555">
        <ele>607.8</ele>
        <time>2014-10-02T13:46:16Z</time>
      </trkpt>
      <trkpt lat="46.01907" lon="4.45562">
        <ele>606.5</ele>
        <time>2014-10-02T13:46:18Z</time>
      </trkpt>
      <trkpt lat="46.01897" lon="4.45569">
        <ele>604.8</ele>
        <time>2014-10-02T13:46:20Z</time>
      </trkpt>
      <trkpt lat="46.01885" lon="4.45575">
        <ele>603.2</ele>
        <time>2014-10-02T13:46:22Z</time>
      </trkpt>
      <trkpt lat="46.01873" lon="4.45581">
        <ele>601.5</ele>
        <time>2014-10-02T13:46:24Z</time>
      </trkpt>
      <trkpt lat="46.01859" lon="4.45583">
        <ele>599.9</ele>
        <time>2014-10-02T13:46:26Z</time>
      </trkpt>
      <trkpt lat="46.01846" lon="4.45584">
        <ele>599.8</ele>
        <time>2014-10-02T13:46:28Z</time>
      </trkpt>
      <trkpt lat="46.01834" lon="4.45585">
        <ele>599.7</ele>
        <time>2014-10-02T13:46:30Z</time>
      </trkpt>
      <trkpt lat="46.01821" lon="4.45586">
        <ele>599.6</ele>
        <time>2014-10-02T13:46:32Z</time>
      </trkpt>
      <trkpt lat="46.01809" lon="4.45588">
        <ele>599.5</ele>
        <time>2014-10-02T13:46:34Z</time>
      </trkpt>
      <trkpt lat="46.01797" lon="4.45588">
        <ele>599.2</ele>
        <time>2014-10-02T13:46:36Z</time>
      </trkpt>
      <trkpt lat="46.01784" lon="4.45589">
        <ele>598.9</ele>
        <time>2014-10-02T13:46:38Z</time>
      </trkpt>
      <trkpt lat="46.0177" lon="4.45589">
        <ele>598.6</ele>
        <time>2014-10-02T13:46:40Z</time>
      </trkpt>
      <trkpt lat="46.01758" lon="4.45584">
        <ele>598.4</ele>
        <time>2014-10-02T13:46:42Z</time>
      </trkpt>
      <trkpt lat="46.01747" lon="4.4557">
        <ele>598.1</ele>
        <time>2014-10-02T13:46:44Z</time>
      </trkpt>
      <trkpt lat="46.01741" lon="4.45551">
        <ele>597.8</ele>
        <time>2014-10-02T13:46:46Z</time>
      </trkpt>
      <trkpt lat="46.01736" lon="4.4553">
        <ele>597.9</ele>
        <time>2014-10-02T13:46:48Z</time>
      </trkpt>
      <trkpt lat="46.01735" lon="4.45519">
        <ele>598.4</ele>
        <time>2014-10-02T13:46:49Z</time>
      </trkpt>
      <trkpt lat="46.01733" lon="4.45507">
        <ele>598.8</ele>
        <time>2014-10-02T13:46:50Z</time>
      </trkpt>
      <trkpt lat="46.0173" lon="4.45484">
        <ele>599.3</ele>
        <time>2014-10-02T13:46:52Z</time>
      </trkpt>
      <trkpt lat="46.01729" lon="4.45471">
        <ele>599.7</ele>
        <time>2014-10-02T13:46:53Z</time>
      </trkpt>
      <trkpt lat="46.01727" lon="4.45459">
        <ele>600.2</ele>
        <time>2014-10-02T13:46:54Z</time>
      </trkpt>
      <trkpt lat="46.01724" lon="4.45446">
        <ele>601.5</ele>
        <time>2014-10-02T13:46:55Z</time>
      </trkpt>
      <trkpt lat="46.01722" lon="4.45434">
        <ele>600.4</ele>
        <time>2014-10-02T13:46:56Z</time>
      </trkpt>
      <trkpt lat="46.0172" lon="4.45421">
        <ele>599.3</ele>
        <time>2014-10-02T13:46:57Z</time>
      </trkpt>
      <trkpt lat="46.01716" lon="4.45408">
        <ele>598.2</ele>
        <time>2014-10-02T13:46:58Z</time>
      </trkpt>
      <trkpt lat="46.01713" lon="4.45395">
        <ele>597.1</ele>
        <time>2014-10-02T13:46:59Z</time>
      </trkpt>
      <trkpt lat="46.0171" lon="4.45383">
        <ele>595.6</ele>
        <time>2014-10-02T13:47:00Z</time>
      </trkpt>
      <trkpt lat="46.01706" lon="4.4537">
        <ele>594.2</ele>
        <time>2014-10-02T13:47:01Z</time>
      </trkpt>
      <trkpt lat="46.01702" lon="4.45359">
        <ele>593.2</ele>
        <time>2014-10-02T13:47:02Z</time>
      </trkpt>
      <trkpt lat="46.01698" lon="4.45346">
        <ele>592.2</ele>
        <time>2014-10-02T13:47:03Z</time>
      </trkpt>
      <trkpt lat="46.01694" lon="4.45334">
        <ele>591.2</ele>
        <time>2014-10-02T13:47:04Z</time>
      </trkpt>
      <trkpt lat="46.0169" lon="4.45322">
        <ele>590.2</ele>
        <time>2014-10-02T13:47:05Z</time>
      </trkpt>
      <trkpt lat="46.01687" lon="4.4531">
        <ele>588.3</ele>
        <time>2014-10-02T13:47:06Z</time>
      </trkpt>
      <trkpt lat="46.01683" lon="4.45297">
        <ele>588.7</ele>
        <time>2014-10-02T13:47:07Z</time>
      </trkpt>
      <trkpt lat="46.01679" lon="4.45284">
        <ele>589.2</ele>
        <time>2014-10-02T13:47:08Z</time>
      </trkpt>
      <trkpt lat="46.01675" lon="4.45271">
        <ele>590.3</ele>
        <time>2014-10-02T13:47:09Z</time>
      </trkpt>
      <trkpt lat="46.0167" lon="4.45259">
        <ele>591.4</ele>
        <time>2014-10-02T13:47:10Z</time>
      </trkpt>
      <trkpt lat="46.01667" lon="4.45246">
        <ele>592.5</ele>
        <time>2014-10-02T13:47:11Z</time>
      </trkpt>
      <trkpt lat="46.01664" lon="4.45234">
        <ele>593.5</ele>
        <time>2014-10-02T13:47:12Z</time>
      </trkpt>
      <trkpt lat="46.0166" lon="4.45222">
        <ele>594.2</ele>
        <time>2014-10-02T13:47:13Z</time>
      </trkpt>
      <trkpt lat="46.01656" lon="4.4521">
        <ele>593.2</ele>
        <time>2014-10-02T13:47:14Z</time>
      </trkpt>
      <trkpt lat="46.01651" lon="4.45199">
        <ele>592.2</ele>
        <time>2014-10-02T13:47:15Z</time>
      </trkpt>
      <trkpt lat="46.01644" lon="4.45189">
        <ele>591.2</ele>
        <time>2014-10-02T13:47:16Z</time>
      </trkpt>
      <trkpt lat="46.01637" lon="4.4518">
        <ele>590.2</ele>
        <time>2014-10-02T13:47:17Z</time>
      </trkpt>
      <trkpt lat="46.01629" lon="4.45174">
        <ele>589.2</ele>
        <time>2014-10-02T13:47:18Z</time>
      </trkpt>
      <trkpt lat="46.01621" lon="4.45169">
        <ele>588.2</ele>
        <time>2014-10-02T13:47:19Z</time>
      </trkpt>
      <trkpt lat="46.01613" lon="4.45165">
        <ele>587.4</ele>
        <time>2014-10-02T13:47:20Z</time>
      </trkpt>
      <trkpt lat="46.01603" lon="4.45161">
        <ele>586.5</ele>
        <time>2014-10-02T13:47:21Z</time>
      </trkpt>
      <trkpt lat="46.01595" lon="4.45155">
        <ele>585.7</ele>
        <time>2014-10-02T13:47:22Z</time>
      </trkpt>
      <trkpt lat="46.01587" lon="4.4515">
        <ele>584.9</ele>
        <time>2014-10-02T13:47:23Z</time>
      </trkpt>
      <trkpt lat="46.01579" lon="4.45142">
        <ele>584.1</ele>
        <time>2014-10-02T13:47:24Z</time>
      </trkpt>
      <trkpt lat="46.01571" lon="4.45134">
        <ele>583.4</ele>
        <time>2014-10-02T13:47:25Z</time>
      </trkpt>
      <trkpt lat="46.01564" lon="4.45124">
        <ele>582.6</ele>
        <time>2014-10-02T13:47:26Z</time>
      </trkpt>
      <trkpt lat="46.01557" lon="4.45115">
        <ele>581.9</ele>
        <time>2014-10-02T13:47:27Z</time>
      </trkpt>
      <trkpt lat="46.01551" lon="4.45105">
        <ele>581.2</ele>
        <time>2014-10-02T13:47:28Z</time>
      </trkpt>
      <trkpt lat="46.01545" lon="4.45094">
        <ele>580.3</ele>
        <time>2014-10-02T13:47:29Z</time>
      </trkpt>
      <trkpt lat="46.0154" lon="4.45082">
        <ele>579.4</ele>
        <time>2014-10-02T13:47:30Z</time>
      </trkpt>
      <trkpt lat="46.01536" lon="4.4507">
        <ele>577.6</ele>
        <time>2014-10-02T13:47:31Z</time>
      </trkpt>
      <trkpt lat="46.01533" lon="4.45058">
        <ele>575.9</ele>
        <time>2014-10-02T13:47:32Z</time>
      </trkpt>
      <trkpt lat="46.01532" lon="4.45044">
        <ele>574.2</ele>
        <time>2014-10-02T13:47:33Z</time>
      </trkpt>
      <trkpt lat="46.01531" lon="4.4503">
        <ele>573.9</ele>
        <time>2014-10-02T13:47:34Z</time>
      </trkpt>
      <trkpt lat="46.01532" lon="4.45018">
        <ele>572.9</ele>
        <time>2014-10-02T13:47:35Z</time>
      </trkpt>
      <trkpt lat="46.01534" lon="4.45004">
        <ele>573.5</ele>
        <time>2014-10-02T13:47:36Z</time>
      </trkpt>
      <trkpt lat="46.01537" lon="4.44993">
        <ele>574</ele>
        <time>2014-10-02T13:47:37Z</time>
      </trkpt>
      <trkpt lat="46.01541" lon="4.44982">
        <ele>574.5</ele>
        <time>2014-10-02T13:47:38Z</time>
      </trkpt>
      <trkpt lat="46.01545" lon="4.44969">
        <ele>575.1</ele>
        <time>2014-10-02T13:47:39Z</time>
      </trkpt>
      <trkpt lat="46.0155" lon="4.44958">
        <ele>575.8</ele>
        <time>2014-10-02T13:47:40Z</time>
      </trkpt>
      <trkpt lat="46.01555" lon="4.44947">
        <ele>576.5</ele>
        <time>2014-10-02T13:47:41Z</time>
      </trkpt>
      <trkpt lat="46.01558" lon="4.44936">
        <ele>577.3</ele>
        <time>2014-10-02T13:47:42Z</time>
      </trkpt>
      <trkpt lat="46.01565" lon="4.44927">
        <ele>577.3</ele>
        <time>2014-10-02T13:47:43Z</time>
      </trkpt>
      <trkpt lat="46.0157" lon="4.44915">
        <ele>577.3</ele>
        <time>2014-10-02T13:47:44Z</time>
      </trkpt>
      <trkpt lat="46.01576" lon="4.44904">
        <ele>575.8</ele>
        <time>2014-10-02T13:47:45Z</time>
      </trkpt>
      <trkpt lat="46.0158" lon="4.44893">
        <ele>575.1</ele>
        <time>2014-10-02T13:47:46Z</time>
      </trkpt>
      <trkpt lat="46.01586" lon="4.44882">
        <ele>574.4</ele>
        <time>2014-10-02T13:47:47Z</time>
      </trkpt>
      <trkpt lat="46.01591" lon="4.44871">
        <ele>573.6</ele>
        <time>2014-10-02T13:47:48Z</time>
      </trkpt>
      <trkpt lat="46.01596" lon="4.4486">
        <ele>572.9</ele>
        <time>2014-10-02T13:47:49Z</time>
      </trkpt>
      <trkpt lat="46.016" lon="4.44848">
        <ele>572.6</ele>
        <time>2014-10-02T13:47:50Z</time>
      </trkpt>
      <trkpt lat="46.01604" lon="4.44836">
        <ele>572.4</ele>
        <time>2014-10-02T13:47:51Z</time>
      </trkpt>
      <trkpt lat="46.01606" lon="4.44825">
        <ele>572.1</ele>
        <time>2014-10-02T13:47:52Z</time>
      </trkpt>
      <trkpt lat="46.01607" lon="4.44813">
        <ele>571.8</ele>
        <time>2014-10-02T13:47:53Z</time>
      </trkpt>
      <trkpt lat="46.01605" lon="4.44801">
        <ele>572.3</ele>
        <time>2014-10-02T13:47:54Z</time>
      </trkpt>
      <trkpt lat="46.01594" lon="4.44784">
        <ele>572.7</ele>
        <time>2014-10-02T13:47:56Z</time>
      </trkpt>
      <trkpt lat="46.01587" lon="4.44776">
        <ele>572.4</ele>
        <time>2014-10-02T13:47:57Z</time>
      </trkpt>
      <trkpt lat="46.01577" lon="4.44773">
        <ele>572</ele>
        <time>2014-10-02T13:47:58Z</time>
      </trkpt>
      <trkpt lat="46.01569" lon="4.44768">
        <ele>571.6</ele>
        <time>2014-10-02T13:47:59Z</time>
      </trkpt>
      <trkpt lat="46.0156" lon="4.44763">
        <ele>571.3</ele>
        <time>2014-10-02T13:48:00Z</time>
      </trkpt>
      <trkpt lat="46.01552" lon="4.44759">
        <ele>570.9</ele>
        <time>2014-10-02T13:48:01Z</time>
      </trkpt>
      <trkpt lat="46.01543" lon="4.44755">
        <ele>570.1</ele>
        <time>2014-10-02T13:48:02Z</time>
      </trkpt>
      <trkpt lat="46.01535" lon="4.44753">
        <ele>569.3</ele>
        <time>2014-10-02T13:48:03Z</time>
      </trkpt>
      <trkpt lat="46.01526" lon="4.4475">
        <ele>568.5</ele>
        <time>2014-10-02T13:48:04Z</time>
      </trkpt>
      <trkpt lat="46.01516" lon="4.4475">
        <ele>567.6</ele>
        <time>2014-10-02T13:48:05Z</time>
      </trkpt>
      <trkpt lat="46.01506" lon="4.44749">
        <ele>566</ele>
        <time>2014-10-02T13:48:06Z</time>
      </trkpt>
      <trkpt lat="46.01496" lon="4.4475">
        <ele>564.4</ele>
        <time>2014-10-02T13:48:07Z</time>
      </trkpt>
      <trkpt lat="46.01487" lon="4.44751">
        <ele>563.5</ele>
        <time>2014-10-02T13:48:08Z</time>
      </trkpt>
      <trkpt lat="46.01478" lon="4.44752">
        <ele>562.7</ele>
        <time>2014-10-02T13:48:09Z</time>
      </trkpt>
      <trkpt lat="46.01468" lon="4.44751">
        <ele>561.9</ele>
        <time>2014-10-02T13:48:10Z</time>
      </trkpt>
      <trkpt lat="46.01459" lon="4.44748">
        <ele>561.6</ele>
        <time>2014-10-02T13:48:11Z</time>
      </trkpt>
      <trkpt lat="46.0145" lon="4.44743">
        <ele>561.4</ele>
        <time>2014-10-02T13:48:12Z</time>
      </trkpt>
      <trkpt lat="46.01443" lon="4.44736">
        <ele>561.1</ele>
        <time>2014-10-02T13:48:13Z</time>
      </trkpt>
      <trkpt lat="46.01436" lon="4.44727">
        <ele>560.8</ele>
        <time>2014-10-02T13:48:14Z</time>
      </trkpt>
      <trkpt lat="46.0143" lon="4.44717">
        <ele>560.5</ele>
        <time>2014-10-02T13:48:15Z</time>
      </trkpt>
      <trkpt lat="46.01424" lon="4.44707">
        <ele>560.3</ele>
        <time>2014-10-02T13:48:16Z</time>
      </trkpt>
      <trkpt lat="46.01419" lon="4.44697">
        <ele>560.8</ele>
        <time>2014-10-02T13:48:17Z</time>
      </trkpt>
      <trkpt lat="46.01414" lon="4.44686">
        <ele>561.6</ele>
        <time>2014-10-02T13:48:18Z</time>
      </trkpt>
      <trkpt lat="46.01411" lon="4.44674">
        <ele>562.5</ele>
        <time>2014-10-02T13:48:19Z</time>
      </trkpt>
      <trkpt lat="46.01405" lon="4.44663">
        <ele>562.6</ele>
        <time>2014-10-02T13:48:20Z</time>
      </trkpt>
      <trkpt lat="46.014" lon="4.44651">
        <ele>562.8</ele>
        <time>2014-10-02T13:48:21Z</time>
      </trkpt>
      <trkpt lat="46.01396" lon="4.44639">
        <ele>562.5</ele>
        <time>2014-10-02T13:48:22Z</time>
      </trkpt>
      <trkpt lat="46.01391" lon="4.44629">
        <ele>562.1</ele>
        <time>2014-10-02T13:48:23Z</time>
      </trkpt>
      <trkpt lat="46.01386" lon="4.44619">
        <ele>561.7</ele>
        <time>2014-10-02T13:48:24Z</time>
      </trkpt>
      <trkpt lat="46.0138" lon="4.44609">
        <ele>561.4</ele>
        <time>2014-10-02T13:48:25Z</time>
      </trkpt>
      <trkpt lat="46.01372" lon="4.44601">
        <ele>561</ele>
        <time>2014-10-02T13:48:26Z</time>
      </trkpt>
      <trkpt lat="46.01364" lon="4.44595">
        <ele>560.6</ele>
        <time>2014-10-02T13:48:27Z</time>
      </trkpt>
      <trkpt lat="46.01349" lon="4.44592">
        <ele>560.3</ele>
        <time>2014-10-02T13:48:29Z</time>
      </trkpt>
      <trkpt lat="46.0134" lon="4.44594">
        <ele>559.6</ele>
        <time>2014-10-02T13:48:30Z</time>
      </trkpt>
      <trkpt lat="46.01333" lon="4.44599">
        <ele>558.4</ele>
        <time>2014-10-02T13:48:31Z</time>
      </trkpt>
      <trkpt lat="46.01325" lon="4.44603">
        <ele>558.6</ele>
        <time>2014-10-02T13:48:32Z</time>
      </trkpt>
      <trkpt lat="46.01318" lon="4.4461">
        <ele>558.9</ele>
        <time>2014-10-02T13:48:33Z</time>
      </trkpt>
      <trkpt lat="46.01311" lon="4.44617">
        <ele>559.2</ele>
        <time>2014-10-02T13:48:34Z</time>
      </trkpt>
      <trkpt lat="46.01305" lon="4.44625">
        <ele>559.5</ele>
        <time>2014-10-02T13:48:35Z</time>
      </trkpt>
      <trkpt lat="46.01294" lon="4.44643">
        <ele>559.7</ele>
        <time>2014-10-02T13:48:37Z</time>
      </trkpt>
      <trkpt lat="46.01289" lon="4.44654">
        <ele>559.5</ele>
        <time>2014-10-02T13:48:38Z</time>
      </trkpt>
      <trkpt lat="46.01281" lon="4.44675">
        <ele>559.2</ele>
        <time>2014-10-02T13:48:40Z</time>
      </trkpt>
      <trkpt lat="46.01277" lon="4.44685">
        <ele>558.9</ele>
        <time>2014-10-02T13:48:41Z</time>
      </trkpt>
      <trkpt lat="46.01272" lon="4.44695">
        <ele>558.6</ele>
        <time>2014-10-02T13:48:42Z</time>
      </trkpt>
      <trkpt lat="46.01268" lon="4.44705">
        <ele>558.4</ele>
        <time>2014-10-02T13:48:43Z</time>
      </trkpt>
      <trkpt lat="46.01263" lon="4.44716">
        <ele>558.7</ele>
        <time>2014-10-02T13:48:44Z</time>
      </trkpt>
      <trkpt lat="46.01259" lon="4.44726">
        <ele>558.2</ele>
        <time>2014-10-02T13:48:45Z</time>
      </trkpt>
      <trkpt lat="46.01255" lon="4.44736">
        <ele>557.1</ele>
        <time>2014-10-02T13:48:46Z</time>
      </trkpt>
      <trkpt lat="46.01251" lon="4.44748">
        <ele>556</ele>
        <time>2014-10-02T13:48:47Z</time>
      </trkpt>
      <trkpt lat="46.0124" lon="4.44764">
        <ele>554.9</ele>
        <time>2014-10-02T13:48:49Z</time>
      </trkpt>
      <trkpt lat="46.01236" lon="4.44775">
        <ele>555.1</ele>
        <time>2014-10-02T13:48:50Z</time>
      </trkpt>
      <trkpt lat="46.01231" lon="4.44785">
        <ele>555.8</ele>
        <time>2014-10-02T13:48:51Z</time>
      </trkpt>
      <trkpt lat="46.01221" lon="4.44802">
        <ele>556.5</ele>
        <time>2014-10-02T13:48:53Z</time>
      </trkpt>
      <trkpt lat="46.01216" lon="4.44812">
        <ele>557.3</ele>
        <time>2014-10-02T13:48:54Z</time>
      </trkpt>
      <trkpt lat="46.0121" lon="4.4482">
        <ele>558</ele>
        <time>2014-10-02T13:48:55Z</time>
      </trkpt>
      <trkpt lat="46.01202" lon="4.44828">
        <ele>558.7</ele>
        <time>2014-10-02T13:48:56Z</time>
      </trkpt>
      <trkpt lat="46.01195" lon="4.44835">
        <ele>559.5</ele>
        <time>2014-10-02T13:48:57Z</time>
      </trkpt>
      <trkpt lat="46.01188" lon="4.44842">
        <ele>560.2</ele>
        <time>2014-10-02T13:48:58Z</time>
      </trkpt>
      <trkpt lat="46.0118" lon="4.44846">
        <ele>561.5</ele>
        <time>2014-10-02T13:48:59Z</time>
      </trkpt>
      <trkpt lat="46.01171" lon="4.4485">
        <ele>563.6</ele>
        <time>2014-10-02T13:49:00Z</time>
      </trkpt>
      <trkpt lat="46.01163" lon="4.44852">
        <ele>565.8</ele>
        <time>2014-10-02T13:49:01Z</time>
      </trkpt>
      <trkpt lat="46.01147" lon="4.44857">
        <ele>564.8</ele>
        <time>2014-10-02T13:49:03Z</time>
      </trkpt>
      <trkpt lat="46.0114" lon="4.4486">
        <ele>563.8</ele>
        <time>2014-10-02T13:49:04Z</time>
      </trkpt>
      <trkpt lat="46.01131" lon="4.44864">
        <ele>562.8</ele>
        <time>2014-10-02T13:49:05Z</time>
      </trkpt>
      <trkpt lat="46.01123" lon="4.44869">
        <ele>561.8</ele>
        <time>2014-10-02T13:49:06Z</time>
      </trkpt>
      <trkpt lat="46.01115" lon="4.44875">
        <ele>560.8</ele>
        <time>2014-10-02T13:49:07Z</time>
      </trkpt>
      <trkpt lat="46.01107" lon="4.44881">
        <ele>559.8</ele>
        <time>2014-10-02T13:49:08Z</time>
      </trkpt>
      <trkpt lat="46.01101" lon="4.44889">
        <ele>558.8</ele>
        <time>2014-10-02T13:49:09Z</time>
      </trkpt>
      <trkpt lat="46.01094" lon="4.44898">
        <ele>557.8</ele>
        <time>2014-10-02T13:49:10Z</time>
      </trkpt>
      <trkpt lat="46.01089" lon="4.44907">
        <ele>555.8</ele>
        <time>2014-10-02T13:49:11Z</time>
      </trkpt>
      <trkpt lat="46.01083" lon="4.44916">
        <ele>552.9</ele>
        <time>2014-10-02T13:49:12Z</time>
      </trkpt>
      <trkpt lat="46.01079" lon="4.44926">
        <ele>550</ele>
        <time>2014-10-02T13:49:13Z</time>
      </trkpt>
      <trkpt lat="46.0107" lon="4.44945">
        <ele>549</ele>
        <time>2014-10-02T13:49:15Z</time>
      </trkpt>
      <trkpt lat="46.01067" lon="4.44957">
        <ele>548.2</ele>
        <time>2014-10-02T13:49:16Z</time>
      </trkpt>
      <trkpt lat="46.01066" lon="4.44969">
        <ele>547.4</ele>
        <time>2014-10-02T13:49:17Z</time>
      </trkpt>
      <trkpt lat="46.01065" lon="4.44991">
        <ele>546.5</ele>
        <time>2014-10-02T13:49:19Z</time>
      </trkpt>
      <trkpt lat="46.01062" lon="4.45013">
        <ele>545.7</ele>
        <time>2014-10-02T13:49:21Z</time>
      </trkpt>
      <trkpt lat="46.01051" lon="4.45029">
        <ele>544.9</ele>
        <time>2014-10-02T13:49:23Z</time>
      </trkpt>
      <trkpt lat="46.01036" lon="4.45032">
        <ele>544.1</ele>
        <time>2014-10-02T13:49:25Z</time>
      </trkpt>
      <trkpt lat="46.01023" lon="4.45022">
        <ele>544.5</ele>
        <time>2014-10-02T13:49:27Z</time>
      </trkpt>
      <trkpt lat="46.01013" lon="4.45006">
        <ele>545.8</ele>
        <time>2014-10-02T13:49:29Z</time>
      </trkpt>
      <trkpt lat="46.01004" lon="4.44988">
        <ele>547.2</ele>
        <time>2014-10-02T13:49:31Z</time>
      </trkpt>
      <trkpt lat="46.00996" lon="4.44971">
        <ele>546.5</ele>
        <time>2014-10-02T13:49:33Z</time>
      </trkpt>
      <trkpt lat="46.0099" lon="4.44962">
        <ele>545.9</ele>
        <time>2014-10-02T13:49:34Z</time>
      </trkpt>
      <trkpt lat="46.00982" lon="4.44945">
        <ele>546.4</ele>
        <time>2014-10-02T13:49:36Z</time>
      </trkpt>
      <trkpt lat="46.00973" lon="4.44929">
        <ele>546.8</ele>
        <time>2014-10-02T13:49:38Z</time>
      </trkpt>
      <trkpt lat="46.00964" lon="4.44912">
        <ele>547.3</ele>
        <time>2014-10-02T13:49:40Z</time>
      </trkpt>
      <trkpt lat="46.00953" lon="4.44896">
        <ele>547.7</ele>
        <time>2014-10-02T13:49:42Z</time>
      </trkpt>
      <trkpt lat="46.00943" lon="4.4488">
        <ele>548.8</ele>
        <time>2014-10-02T13:49:44Z</time>
      </trkpt>
      <trkpt lat="46.00933" lon="4.44867">
        <ele>549.9</ele>
        <time>2014-10-02T13:49:46Z</time>
      </trkpt>
      <trkpt lat="46.00925" lon="4.44849">
        <ele>549.8</ele>
        <time>2014-10-02T13:49:48Z</time>
      </trkpt>
      <trkpt lat="46.00919" lon="4.44831">
        <ele>549.7</ele>
        <time>2014-10-02T13:49:50Z</time>
      </trkpt>
      <trkpt lat="46.00912" lon="4.44813">
        <ele>549.6</ele>
        <time>2014-10-02T13:49:52Z</time>
      </trkpt>
      <trkpt lat="46.00907" lon="4.44795">
        <ele>551.7</ele>
        <time>2014-10-02T13:49:54Z</time>
      </trkpt>
      <trkpt lat="46.00901" lon="4.4478">
        <ele>553.8</ele>
        <time>2014-10-02T13:49:56Z</time>
      </trkpt>
      <trkpt lat="46.00897" lon="4.44763">
        <ele>552</ele>
        <time>2014-10-02T13:49:58Z</time>
      </trkpt>
      <trkpt lat="46.00893" lon="4.44745">
        <ele>550.2</ele>
        <time>2014-10-02T13:50:00Z</time>
      </trkpt>
      <trkpt lat="46.00889" lon="4.44729">
        <ele>548.4</ele>
        <time>2014-10-02T13:50:02Z</time>
      </trkpt>
      <trkpt lat="46.00886" lon="4.44711">
        <ele>546.5</ele>
        <time>2014-10-02T13:50:04Z</time>
      </trkpt>
      <trkpt lat="46.00883" lon="4.44694">
        <ele>543.9</ele>
        <time>2014-10-02T13:50:06Z</time>
      </trkpt>
      <trkpt lat="46.00881" lon="4.44677">
        <ele>541.4</ele>
        <time>2014-10-02T13:50:08Z</time>
      </trkpt>
      <trkpt lat="46.00878" lon="4.44658">
        <ele>538.8</ele>
        <time>2014-10-02T13:50:10Z</time>
      </trkpt>
      <trkpt lat="46.00877" lon="4.44639">
        <ele>536.1</ele>
        <time>2014-10-02T13:50:12Z</time>
      </trkpt>
      <trkpt lat="46.00875" lon="4.4462">
        <ele>533.4</ele>
        <time>2014-10-02T13:50:14Z</time>
      </trkpt>
      <trkpt lat="46.00875" lon="4.44601">
        <ele>532.5</ele>
        <time>2014-10-02T13:50:16Z</time>
      </trkpt>
      <trkpt lat="46.00875" lon="4.44581">
        <ele>531.7</ele>
        <time>2014-10-02T13:50:18Z</time>
      </trkpt>
      <trkpt lat="46.00875" lon="4.44563">
        <ele>533.5</ele>
        <time>2014-10-02T13:50:20Z</time>
      </trkpt>
      <trkpt lat="46.00877" lon="4.44544">
        <ele>534.7</ele>
        <time>2014-10-02T13:50:22Z</time>
      </trkpt>
      <trkpt lat="46.0088" lon="4.44526">
        <ele>535.9</ele>
        <time>2014-10-02T13:50:24Z</time>
      </trkpt>
      <trkpt lat="46.00884" lon="4.44508">
        <ele>537.2</ele>
        <time>2014-10-02T13:50:26Z</time>
      </trkpt>
      <trkpt lat="46.00889" lon="4.44492">
        <ele>538.5</ele>
        <time>2014-10-02T13:50:28Z</time>
      </trkpt>
      <trkpt lat="46.00894" lon="4.44474">
        <ele>539.7</ele>
        <time>2014-10-02T13:50:30Z</time>
      </trkpt>
      <trkpt lat="46.00899" lon="4.44456">
        <ele>541</ele>
        <time>2014-10-02T13:50:32Z</time>
      </trkpt>
      <trkpt lat="46.00905" lon="4.44439">
        <ele>542.5</ele>
        <time>2014-10-02T13:50:34Z</time>
      </trkpt>
      <trkpt lat="46.00911" lon="4.44421">
        <ele>543.9</ele>
        <time>2014-10-02T13:50:36Z</time>
      </trkpt>
      <trkpt lat="46.00916" lon="4.44403">
        <ele>543.3</ele>
        <time>2014-10-02T13:50:38Z</time>
      </trkpt>
      <trkpt lat="46.00922" lon="4.44385">
        <ele>541.6</ele>
        <time>2014-10-02T13:50:40Z</time>
      </trkpt>
      <trkpt lat="46.00922" lon="4.44364">
        <ele>540</ele>
        <time>2014-10-02T13:50:42Z</time>
      </trkpt>
      <trkpt lat="46.00917" lon="4.44345">
        <ele>539</ele>
        <time>2014-10-02T13:50:44Z</time>
      </trkpt>
      <trkpt lat="46.00907" lon="4.4433">
        <ele>538</ele>
        <time>2014-10-02T13:50:46Z</time>
      </trkpt>
      <trkpt lat="46.00893" lon="4.44323">
        <ele>537.6</ele>
        <time>2014-10-02T13:50:48Z</time>
      </trkpt>
      <trkpt lat="46.00878" lon="4.44322">
        <ele>537.3</ele>
        <time>2014-10-02T13:50:50Z</time>
      </trkpt>
      <trkpt lat="46.00863" lon="4.44321">
        <ele>536.9</ele>
        <time>2014-10-02T13:50:52Z</time>
      </trkpt>
      <trkpt lat="46.00849" lon="4.44319">
        <ele>536.5</ele>
        <time>2014-10-02T13:50:54Z</time>
      </trkpt>
      <trkpt lat="46.00834" lon="4.44312">
        <ele>536.2</ele>
        <time>2014-10-02T13:50:56Z</time>
      </trkpt>
      <trkpt lat="46.00822" lon="4.44297">
        <ele>535.8</ele>
        <time>2014-10-02T13:50:58Z</time>
      </trkpt>
      <trkpt lat="46.00818" lon="4.44287">
        <ele>535.5</ele>
        <time>2014-10-02T13:51:00Z</time>
      </trkpt>
      <trkpt lat="46.00815" lon="4.44275">
        <ele>536.1</ele>
        <time>2014-10-02T13:51:00Z</time>
      </trkpt>
      <trkpt lat="46.00813" lon="4.44263">
        <ele>536.7</ele>
        <time>2014-10-02T13:51:01Z</time>
      </trkpt>
      <trkpt lat="46.00813" lon="4.44251">
        <ele>537.4</ele>
        <time>2014-10-02T13:51:02Z</time>
      </trkpt>
      <trkpt lat="46.00814" lon="4.44238">
        <ele>538</ele>
        <time>2014-10-02T13:51:03Z</time>
      </trkpt>
      <trkpt lat="46.00814" lon="4.44225">
        <ele>538</ele>
        <time>2014-10-02T13:51:05Z</time>
      </trkpt>
      <trkpt lat="46.00815" lon="4.44212">
        <ele>538</ele>
        <time>2014-10-02T13:51:05Z</time>
      </trkpt>
      <trkpt lat="46.00817" lon="4.44199">
        <ele>537.6</ele>
        <time>2014-10-02T13:51:07Z</time>
      </trkpt>
      <trkpt lat="46.00817" lon="4.44186">
        <ele>537.3</ele>
        <time>2014-10-02T13:51:07Z</time>
      </trkpt>
      <trkpt lat="46.00818" lon="4.44173">
        <ele>536.9</ele>
        <time>2014-10-02T13:51:08Z</time>
      </trkpt>
      <trkpt lat="46.00819" lon="4.4416">
        <ele>536.5</ele>
        <time>2014-10-02T13:51:09Z</time>
      </trkpt>
      <trkpt lat="46.0082" lon="4.44148">
        <ele>536.2</ele>
        <time>2014-10-02T13:51:10Z</time>
      </trkpt>
      <trkpt lat="46.00821" lon="4.44135">
        <ele>535.8</ele>
        <time>2014-10-02T13:51:12Z</time>
      </trkpt>
      <trkpt lat="46.00822" lon="4.44121">
        <ele>535.5</ele>
        <time>2014-10-02T13:51:12Z</time>
      </trkpt>
      <trkpt lat="46.00823" lon="4.44108">
        <ele>534.7</ele>
        <time>2014-10-02T13:51:13Z</time>
      </trkpt>
      <trkpt lat="46.00824" lon="4.44094">
        <ele>534</ele>
        <time>2014-10-02T13:51:14Z</time>
      </trkpt>
      <trkpt lat="46.00824" lon="4.4408">
        <ele>533.3</ele>
        <time>2014-10-02T13:51:15Z</time>
      </trkpt>
      <trkpt lat="46.00824" lon="4.44066">
        <ele>532.5</ele>
        <time>2014-10-02T13:51:16Z</time>
      </trkpt>
      <trkpt lat="46.00824" lon="4.44053">
        <ele>532.2</ele>
        <time>2014-10-02T13:51:17Z</time>
      </trkpt>
      <trkpt lat="46.00824" lon="4.44039">
        <ele>531.8</ele>
        <time>2014-10-02T13:51:18Z</time>
      </trkpt>
      <trkpt lat="46.00823" lon="4.44025">
        <ele>531.5</ele>
        <time>2014-10-02T13:51:19Z</time>
      </trkpt>
      <trkpt lat="46.00822" lon="4.44012">
        <ele>531.6</ele>
        <time>2014-10-02T13:51:20Z</time>
      </trkpt>
      <trkpt lat="46.00819" lon="4.43999">
        <ele>531.8</ele>
        <time>2014-10-02T13:51:21Z</time>
      </trkpt>
      <trkpt lat="46.00815" lon="4.43987">
        <ele>532</ele>
        <time>2014-10-02T13:51:22Z</time>
      </trkpt>
      <trkpt lat="46.00812" lon="4.43974">
        <ele>530.1</ele>
        <time>2014-10-02T13:51:24Z</time>
      </trkpt>
      <trkpt lat="46.00808" lon="4.43961">
        <ele>528.5</ele>
        <time>2014-10-02T13:51:24Z</time>
      </trkpt>
      <trkpt lat="46.00803" lon="4.43949">
        <ele>527</ele>
        <time>2014-10-02T13:51:25Z</time>
      </trkpt>
      <trkpt lat="46.00799" lon="4.43937">
        <ele>526</ele>
        <time>2014-10-02T13:51:26Z</time>
      </trkpt>
      <trkpt lat="46.00794" lon="4.43924">
        <ele>525</ele>
        <time>2014-10-02T13:51:27Z</time>
      </trkpt>
      <trkpt lat="46.0079" lon="4.43911">
        <ele>524</ele>
        <time>2014-10-02T13:51:28Z</time>
      </trkpt>
      <trkpt lat="46.00786" lon="4.43898">
        <ele>523</ele>
        <time>2014-10-02T13:51:29Z</time>
      </trkpt>
      <trkpt lat="46.00782" lon="4.43885">
        <ele>522</ele>
        <time>2014-10-02T13:51:30Z</time>
      </trkpt>
      <trkpt lat="46.00779" lon="4.43872">
        <ele>520.9</ele>
        <time>2014-10-02T13:51:32Z</time>
      </trkpt>
      <trkpt lat="46.00775" lon="4.43845">
        <ele>519.8</ele>
        <time>2014-10-02T13:51:33Z</time>
      </trkpt>
      <trkpt lat="46.00775" lon="4.43831">
        <ele>518.7</ele>
        <time>2014-10-02T13:51:34Z</time>
      </trkpt>
      <trkpt lat="46.00775" lon="4.43818">
        <ele>519.7</ele>
        <time>2014-10-02T13:51:36Z</time>
      </trkpt>
      <trkpt lat="46.00774" lon="4.43803">
        <ele>520.7</ele>
        <time>2014-10-02T13:51:36Z</time>
      </trkpt>
      <trkpt lat="46.00774" lon="4.43791">
        <ele>521.7</ele>
        <time>2014-10-02T13:51:37Z</time>
      </trkpt>
      <trkpt lat="46.00772" lon="4.43779">
        <ele>522.2</ele>
        <time>2014-10-02T13:51:38Z</time>
      </trkpt>
      <trkpt lat="46.00771" lon="4.43758">
        <ele>522.6</ele>
        <time>2014-10-02T13:51:40Z</time>
      </trkpt>
      <trkpt lat="46.00765" lon="4.43741">
        <ele>523.1</ele>
        <time>2014-10-02T13:51:42Z</time>
      </trkpt>
      <trkpt lat="46.00753" lon="4.43735">
        <ele>525.2</ele>
        <time>2014-10-02T13:51:44Z</time>
      </trkpt>
      <trkpt lat="46.0074" lon="4.43736">
        <ele>526.2</ele>
        <time>2014-10-02T13:51:46Z</time>
      </trkpt>
      <trkpt lat="46.00727" lon="4.43744">
        <ele>526.7</ele>
        <time>2014-10-02T13:51:48Z</time>
      </trkpt>
      <trkpt lat="46.00718" lon="4.43758">
        <ele>527.3</ele>
        <time>2014-10-02T13:51:50Z</time>
      </trkpt>
      <trkpt lat="46.00714" lon="4.43775">
        <ele>527.8</ele>
        <time>2014-10-02T13:51:53Z</time>
      </trkpt>
      <trkpt lat="46.00709" lon="4.43793">
        <ele>528.4</ele>
        <time>2014-10-02T13:51:54Z</time>
      </trkpt>
      <trkpt lat="46.00704" lon="4.43809">
        <ele>527.9</ele>
        <time>2014-10-02T13:51:56Z</time>
      </trkpt>
      <trkpt lat="46.00698" lon="4.43825">
        <ele>527.5</ele>
        <time>2014-10-02T13:51:58Z</time>
      </trkpt>
      <trkpt lat="46.00692" lon="4.4384">
        <ele>527</ele>
        <time>2014-10-02T13:52:00Z</time>
      </trkpt>
      <trkpt lat="46.00686" lon="4.43854">
        <ele>526.5</ele>
        <time>2014-10-02T13:52:02Z</time>
      </trkpt>
      <trkpt lat="46.0068" lon="4.43867">
        <ele>526.1</ele>
        <time>2014-10-02T13:52:05Z</time>
      </trkpt>
      <trkpt lat="46.00674" lon="4.4388">
        <ele>524</ele>
        <time>2014-10-02T13:52:06Z</time>
      </trkpt>
      <trkpt lat="46.00669" lon="4.43892">
        <ele>523</ele>
        <time>2014-10-02T13:52:08Z</time>
      </trkpt>
      <trkpt lat="46.00664" lon="4.43904">
        <ele>523.6</ele>
        <time>2014-10-02T13:52:10Z</time>
      </trkpt>
      <trkpt lat="46.00658" lon="4.43915">
        <ele>523</ele>
        <time>2014-10-02T13:52:12Z</time>
      </trkpt>
      <trkpt lat="46.00653" lon="4.43925">
        <ele>522.4</ele>
        <time>2014-10-02T13:52:14Z</time>
      </trkpt>
      <trkpt lat="46.00645" lon="4.43937">
        <ele>521.7</ele>
        <time>2014-10-02T13:52:17Z</time>
      </trkpt>
      <trkpt lat="46.00636" lon="4.43947">
        <ele>522.1</ele>
        <time>2014-10-02T13:52:20Z</time>
      </trkpt>
      <trkpt lat="46.00627" lon="4.43954">
        <ele>522.5</ele>
        <time>2014-10-02T13:52:24Z</time>
      </trkpt>
      <trkpt lat="46.00618" lon="4.4396">
        <ele>522.8</ele>
        <time>2014-10-02T13:52:26Z</time>
      </trkpt>
      <trkpt lat="46.0061" lon="4.43969">
        <ele>523.2</ele>
        <time>2014-10-02T13:52:29Z</time>
      </trkpt>
      <trkpt lat="46.00602" lon="4.43976">
        <ele>523.5</ele>
        <time>2014-10-02T13:52:32Z</time>
      </trkpt>
      <trkpt lat="46.00593" lon="4.43982">
        <ele>523.9</ele>
        <time>2014-10-02T13:52:35Z</time>
      </trkpt>
      <trkpt lat="46.00586" lon="4.4399">
        <ele>524.3</ele>
        <time>2014-10-02T13:52:38Z</time>
      </trkpt>
      <trkpt lat="46.00579" lon="4.43998">
        <ele>525.1</ele>
        <time>2014-10-02T13:52:41Z</time>
      </trkpt>
      <trkpt lat="46.00572" lon="4.44006">
        <ele>526.2</ele>
        <time>2014-10-02T13:52:44Z</time>
      </trkpt>
      <trkpt lat="46.00565" lon="4.44014">
        <ele>527.3</ele>
        <time>2014-10-02T13:52:47Z</time>
      </trkpt>
      <trkpt lat="46.00558" lon="4.44022">
        <ele>528.4</ele>
        <time>2014-10-02T13:52:50Z</time>
      </trkpt>
      <trkpt lat="46.00551" lon="4.4403">
        <ele>529.5</ele>
        <time>2014-10-02T13:52:53Z</time>
      </trkpt>
      <trkpt lat="46.00544" lon="4.44038">
        <ele>530.5</ele>
        <time>2014-10-02T13:52:56Z</time>
      </trkpt>
      <trkpt lat="46.00537" lon="4.44046">
        <ele>531.6</ele>
        <time>2014-10-02T13:52:59Z</time>
      </trkpt>
      <trkpt lat="46.00531" lon="4.44055">
        <ele>532.7</ele>
        <time>2014-10-02T13:53:02Z</time>
      </trkpt>
      <trkpt lat="46.00525" lon="4.44063">
        <ele>533.8</ele>
        <time>2014-10-02T13:53:05Z</time>
      </trkpt>
      <trkpt lat="46.00519" lon="4.44072">
        <ele>534.9</ele>
        <time>2014-10-02T13:53:08Z</time>
      </trkpt>
      <trkpt lat="46.00514" lon="4.44081">
        <ele>536</ele>
        <time>2014-10-02T13:53:11Z</time>
      </trkpt>
      <trkpt lat="46.00508" lon="4.44091">
        <ele>534.3</ele>
        <time>2014-10-02T13:53:14Z</time>
      </trkpt>
      <trkpt lat="46.00504" lon="4.44101">
        <ele>533.5</ele>
        <time>2014-10-02T13:53:17Z</time>
      </trkpt>
      <trkpt lat="46.005" lon="4.44112">
        <ele>532.8</ele>
        <time>2014-10-02T13:53:20Z</time>
      </trkpt>
      <trkpt lat="46.00496" lon="4.44124">
        <ele>532.1</ele>
        <time>2014-10-02T13:53:23Z</time>
      </trkpt>
      <trkpt lat="46.00495" lon="4.44137">
        <ele>531.4</ele>
        <time>2014-10-02T13:53:26Z</time>
      </trkpt>
      <trkpt lat="46.00492" lon="4.4415">
        <ele>530.6</ele>
        <time>2014-10-02T13:53:29Z</time>
      </trkpt>
      <trkpt lat="46.0049" lon="4.44162">
        <ele>529.5</ele>
        <time>2014-10-02T13:53:32Z</time>
      </trkpt>
      <trkpt lat="46.00487" lon="4.44175">
        <ele>528.5</ele>
        <time>2014-10-02T13:53:35Z</time>
      </trkpt>
      <trkpt lat="46.00484" lon="4.44187">
        <ele>527.4</ele>
        <time>2014-10-02T13:53:38Z</time>
      </trkpt>
      <trkpt lat="46.00482" lon="4.44199">
        <ele>526.3</ele>
        <time>2014-10-02T13:53:41Z</time>
      </trkpt>
      <trkpt lat="46.0048" lon="4.44212">
        <ele>527.8</ele>
        <time>2014-10-02T13:53:44Z</time>
      </trkpt>
      <trkpt lat="46.00477" lon="4.44224">
        <ele>530.1</ele>
        <time>2014-10-02T13:53:47Z</time>
      </trkpt>
      <trkpt lat="46.00473" lon="4.44235">
        <ele>532.4</ele>
        <time>2014-10-02T13:53:50Z</time>
      </trkpt>
      <trkpt lat="46.00469" lon="4.44246">
        <ele>534.6</ele>
        <time>2014-10-02T13:53:53Z</time>
      </trkpt>
      <trkpt lat="46.00465" lon="4.44257">
        <ele>536.1</ele>
        <time>2014-10-02T13:53:56Z</time>
      </trkpt>
      <trkpt lat="46.0046" lon="4.44267">
        <ele>537.5</ele>
        <time>2014-10-02T13:53:59Z</time>
      </trkpt>
      <trkpt lat="46.00455" lon="4.44277">
        <ele>539</ele>
        <time>2014-10-02T13:54:02Z</time>
      </trkpt>
      <trkpt lat="46.00448" lon="4.44285">
        <ele>540.8</ele>
        <time>2014-10-02T13:54:05Z</time>
      </trkpt>
      <trkpt lat="46.00442" lon="4.44294">
        <ele>542.6</ele>
        <time>2014-10-02T13:54:08Z</time>
      </trkpt>
      <trkpt lat="46.00435" lon="4.44303">
        <ele>544.5</ele>
        <time>2014-10-02T13:54:11Z</time>
      </trkpt>
      <trkpt lat="46.00428" lon="4.44312">
        <ele>546.3</ele>
        <time>2014-10-02T13:54:14Z</time>
      </trkpt>
      <trkpt lat="46.00422" lon="4.44321">
        <ele>545.5</ele>
        <time>2014-10-02T13:54:17Z</time>
      </trkpt>
      <trkpt lat="46.00416" lon="4.4433">
        <ele>544.6</ele>
        <time>2014-10-02T13:54:20Z</time>
      </trkpt>
      <trkpt lat="46.00409" lon="4.44338">
        <ele>545.5</ele>
        <time>2014-10-02T13:54:23Z</time>
      </trkpt>
      <trkpt lat="46.00401" lon="4.44346">
        <ele>545.5</ele>
        <time>2014-10-02T13:54:27Z</time>
      </trkpt>
      <trkpt lat="46.00395" lon="4.44355">
        <ele>546.4</ele>
        <time>2014-10-02T13:54:30Z</time>
      </trkpt>
      <trkpt lat="46.00388" lon="4.44364">
        <ele>547.2</ele>
        <time>2014-10-02T13:54:33Z</time>
      </trkpt>
      <trkpt lat="46.00382" lon="4.44372">
        <ele>548</ele>
        <time>2014-10-02T13:54:36Z</time>
      </trkpt>
      <trkpt lat="46.00376" lon="4.44381">
        <ele>548.8</ele>
        <time>2014-10-02T13:54:39Z</time>
      </trkpt>
      <trkpt lat="46.0037" lon="4.44389">
        <ele>549.6</ele>
        <time>2014-10-02T13:54:42Z</time>
      </trkpt>
      <trkpt lat="46.00363" lon="4.44397">
        <ele>550.5</ele>
        <time>2014-10-02T13:54:45Z</time>
      </trkpt>
      <trkpt lat="46.00356" lon="4.44404">
        <ele>551.3</ele>
        <time>2014-10-02T13:54:48Z</time>
      </trkpt>
      <trkpt lat="46.00349" lon="4.4441">
        <ele>552.1</ele>
        <time>2014-10-02T13:54:51Z</time>
      </trkpt>
      <trkpt lat="46.00342" lon="4.44415">
        <ele>552.9</ele>
        <time>2014-10-02T13:54:54Z</time>
      </trkpt>
      <trkpt lat="46.00334" lon="4.4442">
        <ele>552</ele>
        <time>2014-10-02T13:54:57Z</time>
      </trkpt>
      <trkpt lat="46.00326" lon="4.44424">
        <ele>552</ele>
        <time>2014-10-02T13:55:00Z</time>
      </trkpt>
      <trkpt lat="46.00318" lon="4.44429">
        <ele>552.3</ele>
        <time>2014-10-02T13:55:03Z</time>
      </trkpt>
      <trkpt lat="46.00311" lon="4.44434">
        <ele>552.5</ele>
        <time>2014-10-02T13:55:06Z</time>
      </trkpt>
      <trkpt lat="46.00304" lon="4.4444">
        <ele>552.8</ele>
        <time>2014-10-02T13:55:09Z</time>
      </trkpt>
      <trkpt lat="46.00299" lon="4.4445">
        <ele>553.1</ele>
        <time>2014-10-02T13:55:12Z</time>
      </trkpt>
      <trkpt lat="46.00294" lon="4.44459">
        <ele>553.4</ele>
        <time>2014-10-02T13:55:15Z</time>
      </trkpt>
      <trkpt lat="46.0029" lon="4.4447">
        <ele>553.6</ele>
        <time>2014-10-02T13:55:18Z</time>
      </trkpt>
      <trkpt lat="46.00287" lon="4.4448">
        <ele>553.9</ele>
        <time>2014-10-02T13:55:21Z</time>
      </trkpt>
      <trkpt lat="46.00283" lon="4.44491">
        <ele>554.2</ele>
        <time>2014-10-02T13:55:24Z</time>
      </trkpt>
      <trkpt lat="46.00278" lon="4.44502">
        <ele>554.5</ele>
        <time>2014-10-02T13:55:27Z</time>
      </trkpt>
      <trkpt lat="46.00274" lon="4.44513">
        <ele>554.7</ele>
        <time>2014-10-02T13:55:30Z</time>
      </trkpt>
      <trkpt lat="46.00269" lon="4.44522">
        <ele>555</ele>
        <time>2014-10-02T13:55:33Z</time>
      </trkpt>
      <trkpt lat="46.00264" lon="4.44532">
        <ele>555</ele>
        <time>2014-10-02T13:55:36Z</time>
      </trkpt>
      <trkpt lat="46.00257" lon="4.44541">
        <ele>554.8</ele>
        <time>2014-10-02T13:55:39Z</time>
      </trkpt>
      <trkpt lat="46.00249" lon="4.44543">
        <ele>554.6</ele>
        <time>2014-10-02T13:55:42Z</time>
      </trkpt>
      <trkpt lat="46.00242" lon="4.44536">
        <ele>553.7</ele>
        <time>2014-10-02T13:55:45Z</time>
      </trkpt>
      <trkpt lat="46.00237" lon="4.44525">
        <ele>552.8</ele>
        <time>2014-10-02T13:55:50Z</time>
      </trkpt>
      <trkpt lat="46.0023" lon="4.44532">
        <ele>551.9</ele>
        <time>2014-10-02T13:55:56Z</time>
      </trkpt>
      <trkpt lat="46.00219" lon="4.44552">
        <ele>551.5</ele>
        <time>2014-10-02T13:55:59Z</time>
      </trkpt>
      <trkpt lat="46.00212" lon="4.44565">
        <ele>551</ele>
        <time>2014-10-02T13:56:01Z</time>
      </trkpt>
      <trkpt lat="46.00203" lon="4.44581">
        <ele>550.5</ele>
        <time>2014-10-02T13:56:03Z</time>
      </trkpt>
      <trkpt lat="46.00193" lon="4.44598">
        <ele>550.1</ele>
        <time>2014-10-02T13:56:05Z</time>
      </trkpt>
      <trkpt lat="46.00182" lon="4.44615">
        <ele>549.6</ele>
        <time>2014-10-02T13:56:07Z</time>
      </trkpt>
      <trkpt lat="46.0017" lon="4.44632">
        <ele>549.2</ele>
        <time>2014-10-02T13:56:09Z</time>
      </trkpt>
      <trkpt lat="46.00165" lon="4.44641">
        <ele>548.9</ele>
        <time>2014-10-02T13:56:10Z</time>
      </trkpt>
      <trkpt lat="46.00159" lon="4.44652">
        <ele>548.6</ele>
        <time>2014-10-02T13:56:11Z</time>
      </trkpt>
      <trkpt lat="46.00153" lon="4.44661">
        <ele>547.4</ele>
        <time>2014-10-02T13:56:12Z</time>
      </trkpt>
      <trkpt lat="46.00147" lon="4.44671">
        <ele>546.1</ele>
        <time>2014-10-02T13:56:13Z</time>
      </trkpt>
      <trkpt lat="46.00141" lon="4.44682">
        <ele>544.8</ele>
        <time>2014-10-02T13:56:15Z</time>
      </trkpt>
      <trkpt lat="46.00135" lon="4.44692">
        <ele>543.1</ele>
        <time>2014-10-02T13:56:15Z</time>
      </trkpt>
      <trkpt lat="46.0013" lon="4.44703">
        <ele>541.4</ele>
        <time>2014-10-02T13:56:16Z</time>
      </trkpt>
      <trkpt lat="46.00126" lon="4.44714">
        <ele>539.6</ele>
        <time>2014-10-02T13:56:17Z</time>
      </trkpt>
      <trkpt lat="46.00121" lon="4.44726">
        <ele>537.9</ele>
        <time>2014-10-02T13:56:18Z</time>
      </trkpt>
      <trkpt lat="46.00115" lon="4.44737">
        <ele>536.3</ele>
        <time>2014-10-02T13:56:19Z</time>
      </trkpt>
      <trkpt lat="46.00111" lon="4.4475">
        <ele>534.6</ele>
        <time>2014-10-02T13:56:20Z</time>
      </trkpt>
      <trkpt lat="46.00107" lon="4.44762">
        <ele>533</ele>
        <time>2014-10-02T13:56:21Z</time>
      </trkpt>
      <trkpt lat="46.00104" lon="4.44775">
        <ele>531.4</ele>
        <time>2014-10-02T13:56:22Z</time>
      </trkpt>
      <trkpt lat="46.00102" lon="4.44789">
        <ele>531.5</ele>
        <time>2014-10-02T13:56:23Z</time>
      </trkpt>
      <trkpt lat="46.00101" lon="4.44802">
        <ele>531.5</ele>
        <time>2014-10-02T13:56:24Z</time>
      </trkpt>
      <trkpt lat="46.00102" lon="4.44815">
        <ele>530.8</ele>
        <time>2014-10-02T13:56:25Z</time>
      </trkpt>
      <trkpt lat="46.00105" lon="4.44829">
        <ele>532</ele>
        <time>2014-10-02T13:56:26Z</time>
      </trkpt>
      <trkpt lat="46.00109" lon="4.44844">
        <ele>533.2</ele>
        <time>2014-10-02T13:56:27Z</time>
      </trkpt>
      <trkpt lat="46.00113" lon="4.44857">
        <ele>534.4</ele>
        <time>2014-10-02T13:56:28Z</time>
      </trkpt>
      <trkpt lat="46.00118" lon="4.44871">
        <ele>535.5</ele>
        <time>2014-10-02T13:56:29Z</time>
      </trkpt>
      <trkpt lat="46.00125" lon="4.44884">
        <ele>536.1</ele>
        <time>2014-10-02T13:56:30Z</time>
      </trkpt>
      <trkpt lat="46.0013" lon="4.44898">
        <ele>536.6</ele>
        <time>2014-10-02T13:56:31Z</time>
      </trkpt>
      <trkpt lat="46.00133" lon="4.44914">
        <ele>537.2</ele>
        <time>2014-10-02T13:56:32Z</time>
      </trkpt>
      <trkpt lat="46.00134" lon="4.4493">
        <ele>536.2</ele>
        <time>2014-10-02T13:56:33Z</time>
      </trkpt>
      <trkpt lat="46.00135" lon="4.44946">
        <ele>535.2</ele>
        <time>2014-10-02T13:56:34Z</time>
      </trkpt>
      <trkpt lat="46.00134" lon="4.44962">
        <ele>534.2</ele>
        <time>2014-10-02T13:56:35Z</time>
      </trkpt>
      <trkpt lat="46.00131" lon="4.44977">
        <ele>533.5</ele>
        <time>2014-10-02T13:56:36Z</time>
      </trkpt>
      <trkpt lat="46.00128" lon="4.44992">
        <ele>531</ele>
        <time>2014-10-02T13:56:37Z</time>
      </trkpt>
      <trkpt lat="46.00125" lon="4.45007">
        <ele>528.5</ele>
        <time>2014-10-02T13:56:38Z</time>
      </trkpt>
      <trkpt lat="46.00122" lon="4.45023">
        <ele>527.6</ele>
        <time>2014-10-02T13:56:39Z</time>
      </trkpt>
      <trkpt lat="46.00122" lon="4.45039">
        <ele>526.8</ele>
        <time>2014-10-02T13:56:40Z</time>
      </trkpt>
      <trkpt lat="46.00123" lon="4.45055">
        <ele>526.5</ele>
        <time>2014-10-02T13:56:41Z</time>
      </trkpt>
      <trkpt lat="46.00124" lon="4.4507">
        <ele>525.3</ele>
        <time>2014-10-02T13:56:42Z</time>
      </trkpt>
      <trkpt lat="46.00127" lon="4.45086">
        <ele>524</ele>
        <time>2014-10-02T13:56:44Z</time>
      </trkpt>
      <trkpt lat="46.0013" lon="4.45102">
        <ele>524.3</ele>
        <time>2014-10-02T13:56:44Z</time>
      </trkpt>
      <trkpt lat="46.00136" lon="4.45117">
        <ele>524.5</ele>
        <time>2014-10-02T13:56:45Z</time>
      </trkpt>
      <trkpt lat="46.00141" lon="4.45131">
        <ele>524.8</ele>
        <time>2014-10-02T13:56:46Z</time>
      </trkpt>
      <trkpt lat="46.00149" lon="4.45145">
        <ele>525.5</ele>
        <time>2014-10-02T13:56:47Z</time>
      </trkpt>
      <trkpt lat="46.00157" lon="4.45154">
        <ele>526.3</ele>
        <time>2014-10-02T13:56:48Z</time>
      </trkpt>
      <trkpt lat="46.00164" lon="4.45165">
        <ele>525.5</ele>
        <time>2014-10-02T13:56:49Z</time>
      </trkpt>
      <trkpt lat="46.00172" lon="4.45176">
        <ele>523.7</ele>
        <time>2014-10-02T13:56:50Z</time>
      </trkpt>
      <trkpt lat="46.0018" lon="4.45188">
        <ele>522</ele>
        <time>2014-10-02T13:56:51Z</time>
      </trkpt>
      <trkpt lat="46.00188" lon="4.45201">
        <ele>520.3</ele>
        <time>2014-10-02T13:56:52Z</time>
      </trkpt>
      <trkpt lat="46.00195" lon="4.45215">
        <ele>519.5</ele>
        <time>2014-10-02T13:56:53Z</time>
      </trkpt>
      <trkpt lat="46.00203" lon="4.4523">
        <ele>518.2</ele>
        <time>2014-10-02T13:56:54Z</time>
      </trkpt>
      <trkpt lat="46.0021" lon="4.45244">
        <ele>516.8</ele>
        <time>2014-10-02T13:56:55Z</time>
      </trkpt>
      <trkpt lat="46.00216" lon="4.45259">
        <ele>515.5</ele>
        <time>2014-10-02T13:56:56Z</time>
      </trkpt>
      <trkpt lat="46.00223" lon="4.45275">
        <ele>514.1</ele>
        <time>2014-10-02T13:56:57Z</time>
      </trkpt>
      <trkpt lat="46.00228" lon="4.45292">
        <ele>512.7</ele>
        <time>2014-10-02T13:56:58Z</time>
      </trkpt>
      <trkpt lat="46.00233" lon="4.45308">
        <ele>511.4</ele>
        <time>2014-10-02T13:56:59Z</time>
      </trkpt>
      <trkpt lat="46.00238" lon="4.45325">
        <ele>510.4</ele>
        <time>2014-10-02T13:57:00Z</time>
      </trkpt>
      <trkpt lat="46.00241" lon="4.45341">
        <ele>508.5</ele>
        <time>2014-10-02T13:57:01Z</time>
      </trkpt>
      <trkpt lat="46.00245" lon="4.45356">
        <ele>506.7</ele>
        <time>2014-10-02T13:57:02Z</time>
      </trkpt>
      <trkpt lat="46.00249" lon="4.45368">
        <ele>504.9</ele>
        <time>2014-10-02T13:57:03Z</time>
      </trkpt>
      <trkpt lat="46.00253" lon="4.45381">
        <ele>503.1</ele>
        <time>2014-10-02T13:57:04Z</time>
      </trkpt>
      <trkpt lat="46.00257" lon="4.45391">
        <ele>501.9</ele>
        <time>2014-10-02T13:57:05Z</time>
      </trkpt>
      <trkpt lat="46.00271" lon="4.45402">
        <ele>500.7</ele>
        <time>2014-10-02T13:57:07Z</time>
      </trkpt>
      <trkpt lat="46.00285" lon="4.45398">
        <ele>499.5</ele>
        <time>2014-10-02T13:57:09Z</time>
      </trkpt>
      <trkpt lat="46.00292" lon="4.4539">
        <ele>498.4</ele>
        <time>2014-10-02T13:57:10Z</time>
      </trkpt>
      <trkpt lat="46.00298" lon="4.45381">
        <ele>497.2</ele>
        <time>2014-10-02T13:57:11Z</time>
      </trkpt>
      <trkpt lat="46.00303" lon="4.45372">
        <ele>496</ele>
        <time>2014-10-02T13:57:12Z</time>
      </trkpt>
      <trkpt lat="46.00308" lon="4.45361">
        <ele>496.9</ele>
        <time>2014-10-02T13:57:13Z</time>
      </trkpt>
      <trkpt lat="46.00313" lon="4.45349">
        <ele>497.8</ele>
        <time>2014-10-02T13:57:14Z</time>
      </trkpt>
      <trkpt lat="46.00319" lon="4.45337">
        <ele>498.7</ele>
        <time>2014-10-02T13:57:15Z</time>
      </trkpt>
      <trkpt lat="46.00324" lon="4.45324">
        <ele>499.6</ele>
        <time>2014-10-02T13:57:16Z</time>
      </trkpt>
      <trkpt lat="46.0033" lon="4.45311">
        <ele>500.5</ele>
        <time>2014-10-02T13:57:17Z</time>
      </trkpt>
      <trkpt lat="46.00336" lon="4.45299">
        <ele>501.5</ele>
        <time>2014-10-02T13:57:18Z</time>
      </trkpt>
      <trkpt lat="46.00342" lon="4.45286">
        <ele>500</ele>
        <time>2014-10-02T13:57:19Z</time>
      </trkpt>
      <trkpt lat="46.00349" lon="4.45272">
        <ele>499.2</ele>
        <time>2014-10-02T13:57:20Z</time>
      </trkpt>
      <trkpt lat="46.00356" lon="4.45259">
        <ele>498.4</ele>
        <time>2014-10-02T13:57:21Z</time>
      </trkpt>
      <trkpt lat="46.00365" lon="4.45247">
        <ele>497.5</ele>
        <time>2014-10-02T13:57:22Z</time>
      </trkpt>
      <trkpt lat="46.00373" lon="4.45236">
        <ele>496.7</ele>
        <time>2014-10-02T13:57:23Z</time>
      </trkpt>
      <trkpt lat="46.00382" lon="4.45224">
        <ele>495</ele>
        <time>2014-10-02T13:57:24Z</time>
      </trkpt>
      <trkpt lat="46.0039" lon="4.45211">
        <ele>493.3</ele>
        <time>2014-10-02T13:57:25Z</time>
      </trkpt>
      <trkpt lat="46.00398" lon="4.45198">
        <ele>492.1</ele>
        <time>2014-10-02T13:57:26Z</time>
      </trkpt>
      <trkpt lat="46.00406" lon="4.45185">
        <ele>490.9</ele>
        <time>2014-10-02T13:57:27Z</time>
      </trkpt>
      <trkpt lat="46.00413" lon="4.4517">
        <ele>489.7</ele>
        <time>2014-10-02T13:57:28Z</time>
      </trkpt>
      <trkpt lat="46.00421" lon="4.45156">
        <ele>488.5</ele>
        <time>2014-10-02T13:57:29Z</time>
      </trkpt>
      <trkpt lat="46.00428" lon="4.45141">
        <ele>489.7</ele>
        <time>2014-10-02T13:57:30Z</time>
      </trkpt>
      <trkpt lat="46.00435" lon="4.45127">
        <ele>488.1</ele>
        <time>2014-10-02T13:57:31Z</time>
      </trkpt>
      <trkpt lat="46.00443" lon="4.45114">
        <ele>486.8</ele>
        <time>2014-10-02T13:57:32Z</time>
      </trkpt>
      <trkpt lat="46.0045" lon="4.45099">
        <ele>485.5</ele>
        <time>2014-10-02T13:57:33Z</time>
      </trkpt>
      <trkpt lat="46.00456" lon="4.45085">
        <ele>484.3</ele>
        <time>2014-10-02T13:57:34Z</time>
      </trkpt>
      <trkpt lat="46.0046" lon="4.4507">
        <ele>483</ele>
        <time>2014-10-02T13:57:35Z</time>
      </trkpt>
      <trkpt lat="46.00464" lon="4.45054">
        <ele>481.7</ele>
        <time>2014-10-02T13:57:36Z</time>
      </trkpt>
      <trkpt lat="46.00467" lon="4.45039">
        <ele>480</ele>
        <time>2014-10-02T13:57:37Z</time>
      </trkpt>
      <trkpt lat="46.00472" lon="4.45022">
        <ele>478.3</ele>
        <time>2014-10-02T13:57:38Z</time>
      </trkpt>
      <trkpt lat="46.00476" lon="4.45005">
        <ele>476.5</ele>
        <time>2014-10-02T13:57:39Z</time>
      </trkpt>
      <trkpt lat="46.0048" lon="4.44988">
        <ele>474.8</ele>
        <time>2014-10-02T13:57:40Z</time>
      </trkpt>
      <trkpt lat="46.00485" lon="4.44973">
        <ele>473.1</ele>
        <time>2014-10-02T13:57:41Z</time>
      </trkpt>
      <trkpt lat="46.00489" lon="4.44957">
        <ele>473.5</ele>
        <time>2014-10-02T13:57:42Z</time>
      </trkpt>
      <trkpt lat="46.00494" lon="4.44942">
        <ele>473.6</ele>
        <time>2014-10-02T13:57:43Z</time>
      </trkpt>
      <trkpt lat="46.00498" lon="4.44928">
        <ele>474.1</ele>
        <time>2014-10-02T13:57:44Z</time>
      </trkpt>
      <trkpt lat="46.00501" lon="4.44914">
        <ele>474.5</ele>
        <time>2014-10-02T13:57:45Z</time>
      </trkpt>
      <trkpt lat="46.00506" lon="4.44903">
        <ele>475</ele>
        <time>2014-10-02T13:57:46Z</time>
      </trkpt>
      <trkpt lat="46.0051" lon="4.44891">
        <ele>475.5</ele>
        <time>2014-10-02T13:57:47Z</time>
      </trkpt>
      <trkpt lat="46.00515" lon="4.44881">
        <ele>475</ele>
        <time>2014-10-02T13:57:48Z</time>
      </trkpt>
      <trkpt lat="46.0052" lon="4.44872">
        <ele>474.5</ele>
        <time>2014-10-02T13:57:49Z</time>
      </trkpt>
      <trkpt lat="46.00528" lon="4.44864">
        <ele>474.1</ele>
        <time>2014-10-02T13:57:50Z</time>
      </trkpt>
      <trkpt lat="46.00536" lon="4.44861">
        <ele>473.6</ele>
        <time>2014-10-02T13:57:51Z</time>
      </trkpt>
      <trkpt lat="46.00545" lon="4.44858">
        <ele>473.2</ele>
        <time>2014-10-02T13:57:52Z</time>
      </trkpt>
      <trkpt lat="46.00555" lon="4.4486">
        <ele>472.6</ele>
        <time>2014-10-02T13:57:53Z</time>
      </trkpt>
      <trkpt lat="46.00564" lon="4.44863">
        <ele>472.1</ele>
        <time>2014-10-02T13:57:54Z</time>
      </trkpt>
      <trkpt lat="46.00573" lon="4.44866">
        <ele>471.2</ele>
        <time>2014-10-02T13:57:55Z</time>
      </trkpt>
      <trkpt lat="46.00582" lon="4.4487">
        <ele>470.3</ele>
        <time>2014-10-02T13:57:56Z</time>
      </trkpt>
      <trkpt lat="46.0059" lon="4.44876">
        <ele>469.4</ele>
        <time>2014-10-02T13:57:57Z</time>
      </trkpt>
      <trkpt lat="46.00598" lon="4.44885">
        <ele>468.5</ele>
        <time>2014-10-02T13:57:58Z</time>
      </trkpt>
      <trkpt lat="46.00604" lon="4.44895">
        <ele>468.2</ele>
        <time>2014-10-02T13:57:59Z</time>
      </trkpt>
      <trkpt lat="46.00609" lon="4.44906">
        <ele>467.9</ele>
        <time>2014-10-02T13:58:00Z</time>
      </trkpt>
      <trkpt lat="46.00612" lon="4.44919">
        <ele>467.6</ele>
        <time>2014-10-02T13:58:01Z</time>
      </trkpt>
      <trkpt lat="46.00615" lon="4.44932">
        <ele>467.4</ele>
        <time>2014-10-02T13:58:02Z</time>
      </trkpt>
      <trkpt lat="46.00616" lon="4.44947">
        <ele>467.1</ele>
        <time>2014-10-02T13:58:03Z</time>
      </trkpt>
      <trkpt lat="46.00616" lon="4.4496">
        <ele>466.9</ele>
        <time>2014-10-02T13:58:04Z</time>
      </trkpt>
      <trkpt lat="46.00614" lon="4.44974">
        <ele>466.7</ele>
        <time>2014-10-02T13:58:05Z</time>
      </trkpt>
      <trkpt lat="46.00612" lon="4.44989">
        <ele>466.5</ele>
        <time>2014-10-02T13:58:06Z</time>
      </trkpt>
      <trkpt lat="46.00609" lon="4.45002">
        <ele>466.2</ele>
        <time>2014-10-02T13:58:07Z</time>
      </trkpt>
      <trkpt lat="46.00606" lon="4.45016">
        <ele>465.9</ele>
        <time>2014-10-02T13:58:08Z</time>
      </trkpt>
      <trkpt lat="46.00604" lon="4.45028">
        <ele>465.6</ele>
        <time>2014-10-02T13:58:09Z</time>
      </trkpt>
      <trkpt lat="46.00601" lon="4.45042">
        <ele>465.5</ele>
        <time>2014-10-02T13:58:10Z</time>
      </trkpt>
      <trkpt lat="46.00598" lon="4.45055">
        <ele>465.5</ele>
        <time>2014-10-02T13:58:11Z</time>
      </trkpt>
      <trkpt lat="46.00596" lon="4.45068">
        <ele>465.4</ele>
        <time>2014-10-02T13:58:12Z</time>
      </trkpt>
      <trkpt lat="46.00593" lon="4.45082">
        <ele>465.4</ele>
        <time>2014-10-02T13:58:13Z</time>
      </trkpt>
      <trkpt lat="46.00589" lon="4.45094">
        <ele>465.4</ele>
        <time>2014-10-02T13:58:14Z</time>
      </trkpt>
      <trkpt lat="46.00586" lon="4.45107">
        <ele>465.4</ele>
        <time>2014-10-02T13:58:15Z</time>
      </trkpt>
      <trkpt lat="46.00583" lon="4.45119">
        <ele>465.4</ele>
        <time>2014-10-02T13:58:16Z</time>
      </trkpt>
      <trkpt lat="46.00581" lon="4.45131">
        <ele>465.5</ele>
        <time>2014-10-02T13:58:17Z</time>
      </trkpt>
      <trkpt lat="46.00578" lon="4.45143">
        <ele>465.5</ele>
        <time>2014-10-02T13:58:18Z</time>
      </trkpt>
      <trkpt lat="46.00575" lon="4.45156">
        <ele>465.6</ele>
        <time>2014-10-02T13:58:20Z</time>
      </trkpt>
      <trkpt lat="46.00574" lon="4.45168">
        <ele>465.7</ele>
        <time>2014-10-02T13:58:20Z</time>
      </trkpt>
      <trkpt lat="46.00572" lon="4.45181">
        <ele>465.8</ele>
        <time>2014-10-02T13:58:21Z</time>
      </trkpt>
      <trkpt lat="46.00571" lon="4.45194">
        <ele>465.9</ele>
        <time>2014-10-02T13:58:22Z</time>
      </trkpt>
      <trkpt lat="46.0057" lon="4.45207">
        <ele>466</ele>
        <time>2014-10-02T13:58:23Z</time>
      </trkpt>
      <trkpt lat="46.00569" lon="4.45221">
        <ele>466</ele>
        <time>2014-10-02T13:58:24Z</time>
      </trkpt>
      <trkpt lat="46.00569" lon="4.45234">
        <ele>465.9</ele>
        <time>2014-10-02T13:58:25Z</time>
      </trkpt>
      <trkpt lat="46.00569" lon="4.45247">
        <ele>465.8</ele>
        <time>2014-10-02T13:58:26Z</time>
      </trkpt>
      <trkpt lat="46.0057" lon="4.45262">
        <ele>465.7</ele>
        <time>2014-10-02T13:58:27Z</time>
      </trkpt>
      <trkpt lat="46.00572" lon="4.45275">
        <ele>465.6</ele>
        <time>2014-10-02T13:58:28Z</time>
      </trkpt>
      <trkpt lat="46.00575" lon="4.45289">
        <ele>465.5</ele>
        <time>2014-10-02T13:58:29Z</time>
      </trkpt>
      <trkpt lat="46.00577" lon="4.45303">
        <ele>465.5</ele>
        <time>2014-10-02T13:58:30Z</time>
      </trkpt>
      <trkpt lat="46.0058" lon="4.45316">
        <ele>464.7</ele>
        <time>2014-10-02T13:58:31Z</time>
      </trkpt>
      <trkpt lat="46.00583" lon="4.4533">
        <ele>464</ele>
        <time>2014-10-02T13:58:32Z</time>
      </trkpt>
      <trkpt lat="46.00585" lon="4.45345">
        <ele>463.3</ele>
        <time>2014-10-02T13:58:33Z</time>
      </trkpt>
      <trkpt lat="46.00588" lon="4.4536">
        <ele>462.5</ele>
        <time>2014-10-02T13:58:34Z</time>
      </trkpt>
      <trkpt lat="46.0059" lon="4.45375">
        <ele>461.8</ele>
        <time>2014-10-02T13:58:35Z</time>
      </trkpt>
      <trkpt lat="46.00592" lon="4.4539">
        <ele>460.6</ele>
        <time>2014-10-02T13:58:36Z</time>
      </trkpt>
      <trkpt lat="46.00593" lon="4.45405">
        <ele>459.5</ele>
        <time>2014-10-02T13:58:37Z</time>
      </trkpt>
      <trkpt lat="46.00593" lon="4.4542">
        <ele>458.3</ele>
        <time>2014-10-02T13:58:38Z</time>
      </trkpt>
      <trkpt lat="46.00593" lon="4.45436">
        <ele>457.1</ele>
        <time>2014-10-02T13:58:39Z</time>
      </trkpt>
      <trkpt lat="46.00594" lon="4.45451">
        <ele>455.9</ele>
        <time>2014-10-02T13:58:40Z</time>
      </trkpt>
      <trkpt lat="46.00594" lon="4.45468">
        <ele>454.7</ele>
        <time>2014-10-02T13:58:41Z</time>
      </trkpt>
      <trkpt lat="46.00594" lon="4.45483">
        <ele>454.1</ele>
        <time>2014-10-02T13:58:42Z</time>
      </trkpt>
      <trkpt lat="46.00592" lon="4.45498">
        <ele>453.5</ele>
        <time>2014-10-02T13:58:44Z</time>
      </trkpt>
      <trkpt lat="46.0059" lon="4.45514">
        <ele>452.8</ele>
        <time>2014-10-02T13:58:44Z</time>
      </trkpt>
      <trkpt lat="46.00588" lon="4.4553">
        <ele>452.2</ele>
        <time>2014-10-02T13:58:45Z</time>
      </trkpt>
      <trkpt lat="46.00587" lon="4.45545">
        <ele>451.5</ele>
        <time>2014-10-02T13:58:46Z</time>
      </trkpt>
      <trkpt lat="46.00585" lon="4.4556">
        <ele>451.3</ele>
        <time>2014-10-02T13:58:47Z</time>
      </trkpt>
      <trkpt lat="46.00583" lon="4.45575">
        <ele>451</ele>
        <time>2014-10-02T13:58:48Z</time>
      </trkpt>
      <trkpt lat="46.00583" lon="4.45592">
        <ele>450.7</ele>
        <time>2014-10-02T13:58:49Z</time>
      </trkpt>
      <trkpt lat="46.00585" lon="4.45607">
        <ele>450.5</ele>
        <time>2014-10-02T13:58:50Z</time>
      </trkpt>
      <trkpt lat="46.00586" lon="4.45622">
        <ele>450.2</ele>
        <time>2014-10-02T13:58:51Z</time>
      </trkpt>
      <trkpt lat="46.00587" lon="4.4564">
        <ele>450.5</ele>
        <time>2014-10-02T13:58:52Z</time>
      </trkpt>
      <trkpt lat="46.00589" lon="4.45656">
        <ele>451</ele>
        <time>2014-10-02T13:58:53Z</time>
      </trkpt>
      <trkpt lat="46.00589" lon="4.45674">
        <ele>451.5</ele>
        <time>2014-10-02T13:58:54Z</time>
      </trkpt>
      <trkpt lat="46.00589" lon="4.45691">
        <ele>451.9</ele>
        <time>2014-10-02T13:58:55Z</time>
      </trkpt>
      <trkpt lat="46.00587" lon="4.45708">
        <ele>452.4</ele>
        <time>2014-10-02T13:58:56Z</time>
      </trkpt>
      <trkpt lat="46.00582" lon="4.45723">
        <ele>452.8</ele>
        <time>2014-10-02T13:58:57Z</time>
      </trkpt>
      <trkpt lat="46.00576" lon="4.45738">
        <ele>452.4</ele>
        <time>2014-10-02T13:58:58Z</time>
      </trkpt>
      <trkpt lat="46.00569" lon="4.45753">
        <ele>451.9</ele>
        <time>2014-10-02T13:58:59Z</time>
      </trkpt>
      <trkpt lat="46.00564" lon="4.45766">
        <ele>451.5</ele>
        <time>2014-10-02T13:59:00Z</time>
      </trkpt>
      <trkpt lat="46.00555" lon="4.45779">
        <ele>451</ele>
        <time>2014-10-02T13:59:01Z</time>
      </trkpt>
      <trkpt lat="46.00547" lon="4.45791">
        <ele>450.5</ele>
        <time>2014-10-02T13:59:02Z</time>
      </trkpt>
      <trkpt lat="46.00539" lon="4.45804">
        <ele>449.5</ele>
        <time>2014-10-02T13:59:03Z</time>
      </trkpt>
      <trkpt lat="46.00532" lon="4.45817">
        <ele>448.9</ele>
        <time>2014-10-02T13:59:04Z</time>
      </trkpt>
      <trkpt lat="46.00524" lon="4.45831">
        <ele>448.4</ele>
        <time>2014-10-02T13:59:05Z</time>
      </trkpt>
      <trkpt lat="46.00517" lon="4.45844">
        <ele>447.8</ele>
        <time>2014-10-02T13:59:06Z</time>
      </trkpt>
      <trkpt lat="46.0051" lon="4.45856">
        <ele>447.3</ele>
        <time>2014-10-02T13:59:07Z</time>
      </trkpt>
      <trkpt lat="46.00503" lon="4.45869">
        <ele>446.7</ele>
        <time>2014-10-02T13:59:08Z</time>
      </trkpt>
      <trkpt lat="46.00495" lon="4.45883">
        <ele>447.3</ele>
        <time>2014-10-02T13:59:09Z</time>
      </trkpt>
      <trkpt lat="46.00489" lon="4.45898">
        <ele>446.3</ele>
        <time>2014-10-02T13:59:10Z</time>
      </trkpt>
      <trkpt lat="46.00481" lon="4.45911">
        <ele>445.3</ele>
        <time>2014-10-02T13:59:11Z</time>
      </trkpt>
      <trkpt lat="46.00475" lon="4.45924">
        <ele>444.3</ele>
        <time>2014-10-02T13:59:12Z</time>
      </trkpt>
      <trkpt lat="46.00468" lon="4.4594">
        <ele>443.3</ele>
        <time>2014-10-02T13:59:13Z</time>
      </trkpt>
      <trkpt lat="46.00464" lon="4.45955">
        <ele>442.3</ele>
        <time>2014-10-02T13:59:14Z</time>
      </trkpt>
      <trkpt lat="46.0046" lon="4.45972">
        <ele>440.7</ele>
        <time>2014-10-02T13:59:15Z</time>
      </trkpt>
      <trkpt lat="46.00455" lon="4.45989">
        <ele>439.2</ele>
        <time>2014-10-02T13:59:16Z</time>
      </trkpt>
      <trkpt lat="46.00453" lon="4.46006">
        <ele>437.6</ele>
        <time>2014-10-02T13:59:17Z</time>
      </trkpt>
      <trkpt lat="46.00453" lon="4.46022">
        <ele>437.1</ele>
        <time>2014-10-02T13:59:18Z</time>
      </trkpt>
      <trkpt lat="46.00454" lon="4.46039">
        <ele>436.5</ele>
        <time>2014-10-02T13:59:19Z</time>
      </trkpt>
      <trkpt lat="46.00455" lon="4.46055">
        <ele>436</ele>
        <time>2014-10-02T13:59:20Z</time>
      </trkpt>
      <trkpt lat="46.00458" lon="4.46071">
        <ele>436.4</ele>
        <time>2014-10-02T13:59:21Z</time>
      </trkpt>
      <trkpt lat="46.0046" lon="4.46087">
        <ele>436.7</ele>
        <time>2014-10-02T13:59:22Z</time>
      </trkpt>
      <trkpt lat="46.00463" lon="4.46102">
        <ele>437.1</ele>
        <time>2014-10-02T13:59:23Z</time>
      </trkpt>
      <trkpt lat="46.00466" lon="4.46117">
        <ele>437.5</ele>
        <time>2014-10-02T13:59:24Z</time>
      </trkpt>
      <trkpt lat="46.0047" lon="4.46131">
        <ele>437.8</ele>
        <time>2014-10-02T13:59:25Z</time>
      </trkpt>
      <trkpt lat="46.00473" lon="4.46146">
        <ele>437.8</ele>
        <time>2014-10-02T13:59:26Z</time>
      </trkpt>
      <trkpt lat="46.00475" lon="4.46162">
        <ele>437.8</ele>
        <time>2014-10-02T13:59:27Z</time>
      </trkpt>
      <trkpt lat="46.00477" lon="4.46177">
        <ele>437.8</ele>
        <time>2014-10-02T13:59:28Z</time>
      </trkpt>
      <trkpt lat="46.0048" lon="4.46193">
        <ele>436.8</ele>
        <time>2014-10-02T13:59:29Z</time>
      </trkpt>
      <trkpt lat="46.00482" lon="4.46208">
        <ele>435.8</ele>
        <time>2014-10-02T13:59:30Z</time>
      </trkpt>
      <trkpt lat="46.00486" lon="4.46222">
        <ele>434.8</ele>
        <time>2014-10-02T13:59:32Z</time>
      </trkpt>
      <trkpt lat="46.0049" lon="4.46237">
        <ele>434.3</ele>
        <time>2014-10-02T13:59:32Z</time>
      </trkpt>
      <trkpt lat="46.00494" lon="4.46251">
        <ele>433.7</ele>
        <time>2014-10-02T13:59:33Z</time>
      </trkpt>
      <trkpt lat="46.00499" lon="4.46266">
        <ele>433.2</ele>
        <time>2014-10-02T13:59:34Z</time>
      </trkpt>
      <trkpt lat="46.00504" lon="4.46279">
        <ele>432.6</ele>
        <time>2014-10-02T13:59:35Z</time>
      </trkpt>
      <trkpt lat="46.00509" lon="4.46292">
        <ele>432.1</ele>
        <time>2014-10-02T13:59:36Z</time>
      </trkpt>
      <trkpt lat="46.00513" lon="4.46306">
        <ele>431.9</ele>
        <time>2014-10-02T13:59:37Z</time>
      </trkpt>
      <trkpt lat="46.00517" lon="4.46321">
        <ele>431.7</ele>
        <time>2014-10-02T13:59:38Z</time>
      </trkpt>
      <trkpt lat="46.00519" lon="4.46337">
        <ele>431.5</ele>
        <time>2014-10-02T13:59:39Z</time>
      </trkpt>
      <trkpt lat="46.00522" lon="4.46352">
        <ele>431.4</ele>
        <time>2014-10-02T13:59:40Z</time>
      </trkpt>
      <trkpt lat="46.00521" lon="4.46367">
        <ele>431.2</ele>
        <time>2014-10-02T13:59:41Z</time>
      </trkpt>
      <trkpt lat="46.00522" lon="4.4638">
        <ele>431</ele>
        <time>2014-10-02T13:59:42Z</time>
      </trkpt>
      <trkpt lat="46.00522" lon="4.46395">
        <ele>430.7</ele>
        <time>2014-10-02T13:59:43Z</time>
      </trkpt>
      <trkpt lat="46.00522" lon="4.46411">
        <ele>430.5</ele>
        <time>2014-10-02T13:59:44Z</time>
      </trkpt>
      <trkpt lat="46.00522" lon="4.46426">
        <ele>430.2</ele>
        <time>2014-10-02T13:59:45Z</time>
      </trkpt>
      <trkpt lat="46.00525" lon="4.4644">
        <ele>429.9</ele>
        <time>2014-10-02T13:59:46Z</time>
      </trkpt>
      <trkpt lat="46.00526" lon="4.46454">
        <ele>429.6</ele>
        <time>2014-10-02T13:59:47Z</time>
      </trkpt>
      <trkpt lat="46.00527" lon="4.46469">
        <ele>429.4</ele>
        <time>2014-10-02T13:59:48Z</time>
      </trkpt>
      <trkpt lat="46.00527" lon="4.46484">
        <ele>428.6</ele>
        <time>2014-10-02T13:59:49Z</time>
      </trkpt>
      <trkpt lat="46.00527" lon="4.46499">
        <ele>427.9</ele>
        <time>2014-10-02T13:59:50Z</time>
      </trkpt>
      <trkpt lat="46.00528" lon="4.46513">
        <ele>427.2</ele>
        <time>2014-10-02T13:59:51Z</time>
      </trkpt>
      <trkpt lat="46.00528" lon="4.46528">
        <ele>426.5</ele>
        <time>2014-10-02T13:59:52Z</time>
      </trkpt>
      <trkpt lat="46.00527" lon="4.46542">
        <ele>425.7</ele>
        <time>2014-10-02T13:59:53Z</time>
      </trkpt>
      <trkpt lat="46.00526" lon="4.46556">
        <ele>425.1</ele>
        <time>2014-10-02T13:59:55Z</time>
      </trkpt>
      <trkpt lat="46.00525" lon="4.46567">
        <ele>424.5</ele>
        <time>2014-10-02T13:59:55Z</time>
      </trkpt>
      <trkpt lat="46.00523" lon="4.46581">
        <ele>423.8</ele>
        <time>2014-10-02T13:59:56Z</time>
      </trkpt>
      <trkpt lat="46.00517" lon="4.46607">
        <ele>423.2</ele>
        <time>2014-10-02T13:59:58Z</time>
      </trkpt>
      <trkpt lat="46.00514" lon="4.4662">
        <ele>422.5</ele>
        <time>2014-10-02T13:59:59Z</time>
      </trkpt>
      <trkpt lat="46.00508" lon="4.46643">
        <ele>421.9</ele>
        <time>2014-10-02T14:00:01Z</time>
      </trkpt>
      <trkpt lat="46.00506" lon="4.46657">
        <ele>422.2</ele>
        <time>2014-10-02T14:00:02Z</time>
      </trkpt>
      <trkpt lat="46.00503" lon="4.4667">
        <ele>422.5</ele>
        <time>2014-10-02T14:00:03Z</time>
      </trkpt>
      <trkpt lat="46.005" lon="4.46683">
        <ele>422.7</ele>
        <time>2014-10-02T14:00:04Z</time>
      </trkpt>
      <trkpt lat="46.00496" lon="4.46696">
        <ele>423</ele>
        <time>2014-10-02T14:00:05Z</time>
      </trkpt>
      <trkpt lat="46.00493" lon="4.4671">
        <ele>423.3</ele>
        <time>2014-10-02T14:00:06Z</time>
      </trkpt>
      <trkpt lat="46.0049" lon="4.46723">
        <ele>423.7</ele>
        <time>2014-10-02T14:00:07Z</time>
      </trkpt>
      <trkpt lat="46.00487" lon="4.46736">
        <ele>424.4</ele>
        <time>2014-10-02T14:00:08Z</time>
      </trkpt>
      <trkpt lat="46.00483" lon="4.46749">
        <ele>425</ele>
        <time>2014-10-02T14:00:09Z</time>
      </trkpt>
      <trkpt lat="46.0048" lon="4.46762">
        <ele>424.4</ele>
        <time>2014-10-02T14:00:10Z</time>
      </trkpt>
      <trkpt lat="46.00477" lon="4.46776">
        <ele>423.7</ele>
        <time>2014-10-02T14:00:11Z</time>
      </trkpt>
      <trkpt lat="46.00474" lon="4.46789">
        <ele>423.1</ele>
        <time>2014-10-02T14:00:12Z</time>
      </trkpt>
      <trkpt lat="46.0047" lon="4.46803">
        <ele>422</ele>
        <time>2014-10-02T14:00:13Z</time>
      </trkpt>
      <trkpt lat="46.00466" lon="4.46815">
        <ele>420.9</ele>
        <time>2014-10-02T14:00:15Z</time>
      </trkpt>
      <trkpt lat="46.00463" lon="4.46829">
        <ele>419.5</ele>
        <time>2014-10-02T14:00:15Z</time>
      </trkpt>
      <trkpt lat="46.00457" lon="4.46841">
        <ele>418.2</ele>
        <time>2014-10-02T14:00:16Z</time>
      </trkpt>
      <trkpt lat="46.00453" lon="4.46852">
        <ele>416.8</ele>
        <time>2014-10-02T14:00:17Z</time>
      </trkpt>
      <trkpt lat="46.00448" lon="4.46865">
        <ele>415.5</ele>
        <time>2014-10-02T14:00:18Z</time>
      </trkpt>
      <trkpt lat="46.00445" lon="4.46877">
        <ele>413.9</ele>
        <time>2014-10-02T14:00:19Z</time>
      </trkpt>
      <trkpt lat="46.00441" lon="4.46889">
        <ele>412.4</ele>
        <time>2014-10-02T14:00:20Z</time>
      </trkpt>
      <trkpt lat="46.00438" lon="4.46903">
        <ele>412.1</ele>
        <time>2014-10-02T14:00:21Z</time>
      </trkpt>
      <trkpt lat="46.00437" lon="4.46916">
        <ele>411.8</ele>
        <time>2014-10-02T14:00:22Z</time>
      </trkpt>
      <trkpt lat="46.00436" lon="4.4693">
        <ele>411.5</ele>
        <time>2014-10-02T14:00:23Z</time>
      </trkpt>
      <trkpt lat="46.00438" lon="4.46944">
        <ele>411.3</ele>
        <time>2014-10-02T14:00:24Z</time>
      </trkpt>
      <trkpt lat="46.0044" lon="4.46958">
        <ele>411</ele>
        <time>2014-10-02T14:00:25Z</time>
      </trkpt>
      <trkpt lat="46.00441" lon="4.46971">
        <ele>411</ele>
        <time>2014-10-02T14:00:26Z</time>
      </trkpt>
      <trkpt lat="46.00442" lon="4.46984">
        <ele>410.7</ele>
        <time>2014-10-02T14:00:27Z</time>
      </trkpt>
      <trkpt lat="46.00443" lon="4.46998">
        <ele>410.5</ele>
        <time>2014-10-02T14:00:28Z</time>
      </trkpt>
      <trkpt lat="46.00444" lon="4.47012">
        <ele>410.2</ele>
        <time>2014-10-02T14:00:29Z</time>
      </trkpt>
      <trkpt lat="46.00445" lon="4.47026">
        <ele>409.9</ele>
        <time>2014-10-02T14:00:30Z</time>
      </trkpt>
      <trkpt lat="46.00445" lon="4.47039">
        <ele>409.6</ele>
        <time>2014-10-02T14:00:31Z</time>
      </trkpt>
      <trkpt lat="46.00444" lon="4.47054">
        <ele>409.4</ele>
        <time>2014-10-02T14:00:32Z</time>
      </trkpt>
      <trkpt lat="46.00445" lon="4.47067">
        <ele>408.8</ele>
        <time>2014-10-02T14:00:33Z</time>
      </trkpt>
      <trkpt lat="46.00445" lon="4.47081">
        <ele>408.3</ele>
        <time>2014-10-02T14:00:34Z</time>
      </trkpt>
      <trkpt lat="46.00444" lon="4.47095">
        <ele>407.7</ele>
        <time>2014-10-02T14:00:35Z</time>
      </trkpt>
      <trkpt lat="46.00442" lon="4.47109">
        <ele>407.2</ele>
        <time>2014-10-02T14:00:36Z</time>
      </trkpt>
      <trkpt lat="46.0044" lon="4.47123">
        <ele>406.6</ele>
        <time>2014-10-02T14:00:37Z</time>
      </trkpt>
      <trkpt lat="46.0044" lon="4.47139">
        <ele>406.4</ele>
        <time>2014-10-02T14:00:38Z</time>
      </trkpt>
      <trkpt lat="46.00439" lon="4.47153">
        <ele>406.1</ele>
        <time>2014-10-02T14:00:39Z</time>
      </trkpt>
      <trkpt lat="46.00438" lon="4.47168">
        <ele>405.8</ele>
        <time>2014-10-02T14:00:40Z</time>
      </trkpt>
      <trkpt lat="46.00437" lon="4.47183">
        <ele>405.5</ele>
        <time>2014-10-02T14:00:41Z</time>
      </trkpt>
      <trkpt lat="46.00438" lon="4.47199">
        <ele>405.3</ele>
        <time>2014-10-02T14:00:42Z</time>
      </trkpt>
      <trkpt lat="46.00438" lon="4.47214">
        <ele>405</ele>
        <time>2014-10-02T14:00:44Z</time>
      </trkpt>
      <trkpt lat="46.00438" lon="4.4723">
        <ele>405</ele>
        <time>2014-10-02T14:00:44Z</time>
      </trkpt>
      <trkpt lat="46.0044" lon="4.47245">
        <ele>405.4</ele>
        <time>2014-10-02T14:00:45Z</time>
      </trkpt>
      <trkpt lat="46.00439" lon="4.47261">
        <ele>405.7</ele>
        <time>2014-10-02T14:00:46Z</time>
      </trkpt>
      <trkpt lat="46.00438" lon="4.47276">
        <ele>406.1</ele>
        <time>2014-10-02T14:00:47Z</time>
      </trkpt>
      <trkpt lat="46.00436" lon="4.47288">
        <ele>406.5</ele>
        <time>2014-10-02T14:00:48Z</time>
      </trkpt>
      <trkpt lat="46.00433" lon="4.47301">
        <ele>406.8</ele>
        <time>2014-10-02T14:00:49Z</time>
      </trkpt>
      <trkpt lat="46.00431" lon="4.47313">
        <ele>407.2</ele>
        <time>2014-10-02T14:00:50Z</time>
      </trkpt>
      <trkpt lat="46.00428" lon="4.47326">
        <ele>407.6</ele>
        <time>2014-10-02T14:00:51Z</time>
      </trkpt>
      <trkpt lat="46.00425" lon="4.47338">
        <ele>408.1</ele>
        <time>2014-10-02T14:00:52Z</time>
      </trkpt>
      <trkpt lat="46.00422" lon="4.47351">
        <ele>408.5</ele>
        <time>2014-10-02T14:00:53Z</time>
      </trkpt>
      <trkpt lat="46.00419" lon="4.47363">
        <ele>409</ele>
        <time>2014-10-02T14:00:54Z</time>
      </trkpt>
      <trkpt lat="46.00416" lon="4.47376">
        <ele>409.5</ele>
        <time>2014-10-02T14:00:55Z</time>
      </trkpt>
      <trkpt lat="46.00415" lon="4.47389">
        <ele>409.5</ele>
        <time>2014-10-02T14:00:56Z</time>
      </trkpt>
      <trkpt lat="46.00413" lon="4.47401">
        <ele>409.6</ele>
        <time>2014-10-02T14:00:57Z</time>
      </trkpt>
      <trkpt lat="46.00411" lon="4.47413">
        <ele>409.9</ele>
        <time>2014-10-02T14:00:58Z</time>
      </trkpt>
      <trkpt lat="46.00408" lon="4.47425">
        <ele>410.2</ele>
        <time>2014-10-02T14:00:59Z</time>
      </trkpt>
      <trkpt lat="46.00406" lon="4.47437">
        <ele>410.5</ele>
        <time>2014-10-02T14:01:00Z</time>
      </trkpt>
      <trkpt lat="46.00404" lon="4.47449">
        <ele>410.7</ele>
        <time>2014-10-02T14:01:01Z</time>
      </trkpt>
      <trkpt lat="46.004" lon="4.47462">
        <ele>410.9</ele>
        <time>2014-10-02T14:01:02Z</time>
      </trkpt>
      <trkpt lat="46.00397" lon="4.47473">
        <ele>411.1</ele>
        <time>2014-10-02T14:01:03Z</time>
      </trkpt>
      <trkpt lat="46.00394" lon="4.47485">
        <ele>411.3</ele>
        <time>2014-10-02T14:01:04Z</time>
      </trkpt>
      <trkpt lat="46.00392" lon="4.47497">
        <ele>409.9</ele>
        <time>2014-10-02T14:01:05Z</time>
      </trkpt>
      <trkpt lat="46.0039" lon="4.47509">
        <ele>408.5</ele>
        <time>2014-10-02T14:01:06Z</time>
      </trkpt>
      <trkpt lat="46.00387" lon="4.47522">
        <ele>407.2</ele>
        <time>2014-10-02T14:01:07Z</time>
      </trkpt>
      <trkpt lat="46.00385" lon="4.47533">
        <ele>405.8</ele>
        <time>2014-10-02T14:01:08Z</time>
      </trkpt>
      <trkpt lat="46.00382" lon="4.47545">
        <ele>404.3</ele>
        <time>2014-10-02T14:01:09Z</time>
      </trkpt>
      <trkpt lat="46.0038" lon="4.47556">
        <ele>402.7</ele>
        <time>2014-10-02T14:01:10Z</time>
      </trkpt>
      <trkpt lat="46.00377" lon="4.47568">
        <ele>401.2</ele>
        <time>2014-10-02T14:01:11Z</time>
      </trkpt>
      <trkpt lat="46.00374" lon="4.4758">
        <ele>400.5</ele>
        <time>2014-10-02T14:01:12Z</time>
      </trkpt>
      <trkpt lat="46.00371" lon="4.47591">
        <ele>399.9</ele>
        <time>2014-10-02T14:01:13Z</time>
      </trkpt>
      <trkpt lat="46.00369" lon="4.47603">
        <ele>399.3</ele>
        <time>2014-10-02T14:01:14Z</time>
      </trkpt>
      <trkpt lat="46.00366" lon="4.47614">
        <ele>398.6</ele>
        <time>2014-10-02T14:01:15Z</time>
      </trkpt>
      <trkpt lat="46.00363" lon="4.47625">
        <ele>399.5</ele>
        <time>2014-10-02T14:01:16Z</time>
      </trkpt>
      <trkpt lat="46.00356" lon="4.47648">
        <ele>400.5</ele>
        <time>2014-10-02T14:01:18Z</time>
      </trkpt>
      <trkpt lat="46.00352" lon="4.47657">
        <ele>401.4</ele>
        <time>2014-10-02T14:01:19Z</time>
      </trkpt>
      <trkpt lat="46.00346" lon="4.47667">
        <ele>402.3</ele>
        <time>2014-10-02T14:01:20Z</time>
      </trkpt>
      <trkpt lat="46.00339" lon="4.47677">
        <ele>403.2</ele>
        <time>2014-10-02T14:01:21Z</time>
      </trkpt>
      <trkpt lat="46.00333" lon="4.47684">
        <ele>405.1</ele>
        <time>2014-10-02T14:01:22Z</time>
      </trkpt>
      <trkpt lat="46.00326" lon="4.47693">
        <ele>405.4</ele>
        <time>2014-10-02T14:01:23Z</time>
      </trkpt>
      <trkpt lat="46.00318" lon="4.47699">
        <ele>404.7</ele>
        <time>2014-10-02T14:01:24Z</time>
      </trkpt>
      <trkpt lat="46.0031" lon="4.47705">
        <ele>404.1</ele>
        <time>2014-10-02T14:01:25Z</time>
      </trkpt>
      <trkpt lat="46.00302" lon="4.47711">
        <ele>403.5</ele>
        <time>2014-10-02T14:01:26Z</time>
      </trkpt>
      <trkpt lat="46.00294" lon="4.47716">
        <ele>402.8</ele>
        <time>2014-10-02T14:01:27Z</time>
      </trkpt>
      <trkpt lat="46.00285" lon="4.47721">
        <ele>402.2</ele>
        <time>2014-10-02T14:01:28Z</time>
      </trkpt>
      <trkpt lat="46.00277" lon="4.47727">
        <ele>401.5</ele>
        <time>2014-10-02T14:01:29Z</time>
      </trkpt>
      <trkpt lat="46.00269" lon="4.47733">
        <ele>400.9</ele>
        <time>2014-10-02T14:01:30Z</time>
      </trkpt>
      <trkpt lat="46.00262" lon="4.4774">
        <ele>400.3</ele>
        <time>2014-10-02T14:01:31Z</time>
      </trkpt>
      <trkpt lat="46.00254" lon="4.47747">
        <ele>400.9</ele>
        <time>2014-10-02T14:01:32Z</time>
      </trkpt>
      <trkpt lat="46.00247" lon="4.47755">
        <ele>400.5</ele>
        <time>2014-10-02T14:01:33Z</time>
      </trkpt>
      <trkpt lat="46.00239" lon="4.47765">
        <ele>401.8</ele>
        <time>2014-10-02T14:01:34Z</time>
      </trkpt>
      <trkpt lat="46.00234" lon="4.47776">
        <ele>401.5</ele>
        <time>2014-10-02T14:01:35Z</time>
      </trkpt>
      <trkpt lat="46.00229" lon="4.47786">
        <ele>401.1</ele>
        <time>2014-10-02T14:01:36Z</time>
      </trkpt>
      <trkpt lat="46.00223" lon="4.47797">
        <ele>400.7</ele>
        <time>2014-10-02T14:01:37Z</time>
      </trkpt>
      <trkpt lat="46.00218" lon="4.47809">
        <ele>400.4</ele>
        <time>2014-10-02T14:01:38Z</time>
      </trkpt>
      <trkpt lat="46.00212" lon="4.4782">
        <ele>400</ele>
        <time>2014-10-02T14:01:39Z</time>
      </trkpt>
      <trkpt lat="46.00207" lon="4.47831">
        <ele>400.3</ele>
        <time>2014-10-02T14:01:40Z</time>
      </trkpt>
      <trkpt lat="46.00201" lon="4.47842">
        <ele>400.5</ele>
        <time>2014-10-02T14:01:41Z</time>
      </trkpt>
      <trkpt lat="46.00196" lon="4.47853">
        <ele>400.8</ele>
        <time>2014-10-02T14:01:42Z</time>
      </trkpt>
      <trkpt lat="46.00189" lon="4.47863">
        <ele>399.8</ele>
        <time>2014-10-02T14:01:43Z</time>
      </trkpt>
      <trkpt lat="46.00182" lon="4.47872">
        <ele>398.8</ele>
        <time>2014-10-02T14:01:44Z</time>
      </trkpt>
      <trkpt lat="46.00175" lon="4.47881">
        <ele>397.8</ele>
        <time>2014-10-02T14:01:45Z</time>
      </trkpt>
      <trkpt lat="46.00167" lon="4.47889">
        <ele>398.5</ele>
        <time>2014-10-02T14:01:46Z</time>
      </trkpt>
      <trkpt lat="46.0016" lon="4.47897">
        <ele>397.9</ele>
        <time>2014-10-02T14:01:47Z</time>
      </trkpt>
      <trkpt lat="46.00151" lon="4.47905">
        <ele>397.4</ele>
        <time>2014-10-02T14:01:49Z</time>
      </trkpt>
      <trkpt lat="46.00143" lon="4.47912">
        <ele>396.7</ele>
        <time>2014-10-02T14:01:49Z</time>
      </trkpt>
      <trkpt lat="46.00136" lon="4.47921">
        <ele>396.1</ele>
        <time>2014-10-02T14:01:50Z</time>
      </trkpt>
      <trkpt lat="46.0013" lon="4.47931">
        <ele>394.8</ele>
        <time>2014-10-02T14:01:51Z</time>
      </trkpt>
      <trkpt lat="46.00123" lon="4.4794">
        <ele>393.5</ele>
        <time>2014-10-02T14:01:52Z</time>
      </trkpt>
      <trkpt lat="46.00116" lon="4.47951">
        <ele>392.3</ele>
        <time>2014-10-02T14:01:53Z</time>
      </trkpt>
      <trkpt lat="46.00111" lon="4.47965">
        <ele>391</ele>
        <time>2014-10-02T14:01:54Z</time>
      </trkpt>
      <trkpt lat="46.00106" lon="4.47978">
        <ele>389.6</ele>
        <time>2014-10-02T14:01:55Z</time>
      </trkpt>
      <trkpt lat="46.00104" lon="4.47993">
        <ele>388.3</ele>
        <time>2014-10-02T14:01:56Z</time>
      </trkpt>
      <trkpt lat="46.00105" lon="4.48006">
        <ele>386.9</ele>
        <time>2014-10-02T14:01:57Z</time>
      </trkpt>
      <trkpt lat="46.00106" lon="4.48022">
        <ele>386.7</ele>
        <time>2014-10-02T14:01:58Z</time>
      </trkpt>
      <trkpt lat="46.00107" lon="4.48036">
        <ele>386.5</ele>
        <time>2014-10-02T14:01:59Z</time>
      </trkpt>
      <trkpt lat="46.00107" lon="4.4805">
        <ele>386.5</ele>
        <time>2014-10-02T14:02:01Z</time>
      </trkpt>
      <trkpt lat="46.00109" lon="4.48064">
        <ele>386.4</ele>
        <time>2014-10-02T14:02:01Z</time>
      </trkpt>
      <trkpt lat="46.0011" lon="4.48078">
        <ele>386.1</ele>
        <time>2014-10-02T14:02:02Z</time>
      </trkpt>
      <trkpt lat="46.00112" lon="4.48092">
        <ele>385.8</ele>
        <time>2014-10-02T14:02:03Z</time>
      </trkpt>
      <trkpt lat="46.00114" lon="4.48107">
        <ele>385.5</ele>
        <time>2014-10-02T14:02:04Z</time>
      </trkpt>
      <trkpt lat="46.00117" lon="4.48121">
        <ele>385.3</ele>
        <time>2014-10-02T14:02:05Z</time>
      </trkpt>
      <trkpt lat="46.00118" lon="4.48135">
        <ele>387.3</ele>
        <time>2014-10-02T14:02:06Z</time>
      </trkpt>
      <trkpt lat="46.00119" lon="4.4815">
        <ele>389.3</ele>
        <time>2014-10-02T14:02:07Z</time>
      </trkpt>
      <trkpt lat="46.00122" lon="4.48164">
        <ele>391.3</ele>
        <time>2014-10-02T14:02:08Z</time>
      </trkpt>
      <trkpt lat="46.00124" lon="4.48178">
        <ele>393.3</ele>
        <time>2014-10-02T14:02:09Z</time>
      </trkpt>
      <trkpt lat="46.00126" lon="4.48192">
        <ele>395.3</ele>
        <time>2014-10-02T14:02:10Z</time>
      </trkpt>
      <trkpt lat="46.00128" lon="4.48207">
        <ele>394.6</ele>
        <time>2014-10-02T14:02:11Z</time>
      </trkpt>
      <trkpt lat="46.00128" lon="4.48222">
        <ele>394</ele>
        <time>2014-10-02T14:02:12Z</time>
      </trkpt>
      <trkpt lat="46.00128" lon="4.48237">
        <ele>393.3</ele>
        <time>2014-10-02T14:02:13Z</time>
      </trkpt>
      <trkpt lat="46.00128" lon="4.48251">
        <ele>392.5</ele>
        <time>2014-10-02T14:02:14Z</time>
      </trkpt>
      <trkpt lat="46.00128" lon="4.48266">
        <ele>391.8</ele>
        <time>2014-10-02T14:02:15Z</time>
      </trkpt>
      <trkpt lat="46.00127" lon="4.4828">
        <ele>391.1</ele>
        <time>2014-10-02T14:02:16Z</time>
      </trkpt>
      <trkpt lat="46.00126" lon="4.48294">
        <ele>388.2</ele>
        <time>2014-10-02T14:02:17Z</time>
      </trkpt>
      <trkpt lat="46.00126" lon="4.48307">
        <ele>385.3</ele>
        <time>2014-10-02T14:02:18Z</time>
      </trkpt>
      <trkpt lat="46.00124" lon="4.4832">
        <ele>382</ele>
        <time>2014-10-02T14:02:19Z</time>
      </trkpt>
      <trkpt lat="46.00121" lon="4.48333">
        <ele>378.7</ele>
        <time>2014-10-02T14:02:20Z</time>
      </trkpt>
      <trkpt lat="46.00118" lon="4.48346">
        <ele>375.5</ele>
        <time>2014-10-02T14:02:21Z</time>
      </trkpt>
      <trkpt lat="46.00115" lon="4.48358">
        <ele>374.8</ele>
        <time>2014-10-02T14:02:22Z</time>
      </trkpt>
      <trkpt lat="46.00113" lon="4.48371">
        <ele>374.2</ele>
        <time>2014-10-02T14:02:23Z</time>
      </trkpt>
      <trkpt lat="46.0011" lon="4.48385">
        <ele>373.8</ele>
        <time>2014-10-02T14:02:24Z</time>
      </trkpt>
      <trkpt lat="46.00108" lon="4.48399">
        <ele>373.4</ele>
        <time>2014-10-02T14:02:25Z</time>
      </trkpt>
      <trkpt lat="46.00106" lon="4.48413">
        <ele>372.9</ele>
        <time>2014-10-02T14:02:26Z</time>
      </trkpt>
      <trkpt lat="46.00104" lon="4.48426">
        <ele>372.5</ele>
        <time>2014-10-02T14:02:27Z</time>
      </trkpt>
      <trkpt lat="46.00102" lon="4.4844">
        <ele>372</ele>
        <time>2014-10-02T14:02:28Z</time>
      </trkpt>
      <trkpt lat="46.001" lon="4.48454">
        <ele>371.5</ele>
        <time>2014-10-02T14:02:29Z</time>
      </trkpt>
      <trkpt lat="46.00099" lon="4.48467">
        <ele>371.5</ele>
        <time>2014-10-02T14:02:30Z</time>
      </trkpt>
      <trkpt lat="46.00098" lon="4.48481">
        <ele>370.6</ele>
        <time>2014-10-02T14:02:31Z</time>
      </trkpt>
      <trkpt lat="46.00097" lon="4.48495">
        <ele>369.8</ele>
        <time>2014-10-02T14:02:32Z</time>
      </trkpt>
      <trkpt lat="46.00098" lon="4.48509">
        <ele>369</ele>
        <time>2014-10-02T14:02:33Z</time>
      </trkpt>
      <trkpt lat="46.00099" lon="4.48523">
        <ele>368.2</ele>
        <time>2014-10-02T14:02:34Z</time>
      </trkpt>
      <trkpt lat="46.00103" lon="4.48537">
        <ele>370.5</ele>
        <time>2014-10-02T14:02:35Z</time>
      </trkpt>
      <trkpt lat="46.00107" lon="4.48551">
        <ele>373</ele>
        <time>2014-10-02T14:02:36Z</time>
      </trkpt>
      <trkpt lat="46.00112" lon="4.48562">
        <ele>375.5</ele>
        <time>2014-10-02T14:02:37Z</time>
      </trkpt>
      <trkpt lat="46.00118" lon="4.48575">
        <ele>376.5</ele>
        <time>2014-10-02T14:02:38Z</time>
      </trkpt>
      <trkpt lat="46.00124" lon="4.48587">
        <ele>377.5</ele>
        <time>2014-10-02T14:02:39Z</time>
      </trkpt>
      <trkpt lat="46.0013" lon="4.486">
        <ele>378.5</ele>
        <time>2014-10-02T14:02:40Z</time>
      </trkpt>
      <trkpt lat="46.00135" lon="4.48612">
        <ele>379.5</ele>
        <time>2014-10-02T14:02:41Z</time>
      </trkpt>
      <trkpt lat="46.0014" lon="4.48625">
        <ele>381.2</ele>
        <time>2014-10-02T14:02:42Z</time>
      </trkpt>
      <trkpt lat="46.00145" lon="4.48637">
        <ele>382.9</ele>
        <time>2014-10-02T14:02:43Z</time>
      </trkpt>
      <trkpt lat="46.00149" lon="4.4865">
        <ele>383.7</ele>
        <time>2014-10-02T14:02:44Z</time>
      </trkpt>
      <trkpt lat="46.00152" lon="4.48664">
        <ele>384.5</ele>
        <time>2014-10-02T14:02:45Z</time>
      </trkpt>
      <trkpt lat="46.00156" lon="4.48677">
        <ele>382.2</ele>
        <time>2014-10-02T14:02:47Z</time>
      </trkpt>
      <trkpt lat="46.0016" lon="4.4869">
        <ele>379.8</ele>
        <time>2014-10-02T14:02:47Z</time>
      </trkpt>
      <trkpt lat="46.00163" lon="4.48704">
        <ele>377.5</ele>
        <time>2014-10-02T14:02:48Z</time>
      </trkpt>
      <trkpt lat="46.00166" lon="4.48717">
        <ele>376.5</ele>
        <time>2014-10-02T14:02:49Z</time>
      </trkpt>
      <trkpt lat="46.0017" lon="4.48731">
        <ele>375.4</ele>
        <time>2014-10-02T14:02:50Z</time>
      </trkpt>
      <trkpt lat="46.00173" lon="4.48744">
        <ele>374.2</ele>
        <time>2014-10-02T14:02:51Z</time>
      </trkpt>
      <trkpt lat="46.00176" lon="4.48758">
        <ele>373</ele>
        <time>2014-10-02T14:02:52Z</time>
      </trkpt>
      <trkpt lat="46.00179" lon="4.48771">
        <ele>371.8</ele>
        <time>2014-10-02T14:02:53Z</time>
      </trkpt>
      <trkpt lat="46.00182" lon="4.48784">
        <ele>370.6</ele>
        <time>2014-10-02T14:02:54Z</time>
      </trkpt>
      <trkpt lat="46.00183" lon="4.48796">
        <ele>370.4</ele>
        <time>2014-10-02T14:02:55Z</time>
      </trkpt>
      <trkpt lat="46.00181" lon="4.48808">
        <ele>370.1</ele>
        <time>2014-10-02T14:02:56Z</time>
      </trkpt>
      <trkpt lat="46.00177" lon="4.48822">
        <ele>369.8</ele>
        <time>2014-10-02T14:02:57Z</time>
      </trkpt>
      <trkpt lat="46.00173" lon="4.48835">
        <ele>370.1</ele>
        <time>2014-10-02T14:02:58Z</time>
      </trkpt>
      <trkpt lat="46.0017" lon="4.48846">
        <ele>370.4</ele>
        <time>2014-10-02T14:02:59Z</time>
      </trkpt>
      <trkpt lat="46.00164" lon="4.48855">
        <ele>370.6</ele>
        <time>2014-10-02T14:03:00Z</time>
      </trkpt>
      <trkpt lat="46.00158" lon="4.48865">
        <ele>371.2</ele>
        <time>2014-10-02T14:03:01Z</time>
      </trkpt>
      <trkpt lat="46.00152" lon="4.48875">
        <ele>371.7</ele>
        <time>2014-10-02T14:03:02Z</time>
      </trkpt>
      <trkpt lat="46.00147" lon="4.48887">
        <ele>372.3</ele>
        <time>2014-10-02T14:03:03Z</time>
      </trkpt>
      <trkpt lat="46.00143" lon="4.48899">
        <ele>370.8</ele>
        <time>2014-10-02T14:03:04Z</time>
      </trkpt>
      <trkpt lat="46.0014" lon="4.48913">
        <ele>369.4</ele>
        <time>2014-10-02T14:03:05Z</time>
      </trkpt>
      <trkpt lat="46.00137" lon="4.48926">
        <ele>367.9</ele>
        <time>2014-10-02T14:03:06Z</time>
      </trkpt>
      <trkpt lat="46.00133" lon="4.48938">
        <ele>366.5</ele>
        <time>2014-10-02T14:03:07Z</time>
      </trkpt>
      <trkpt lat="46.00129" lon="4.4895">
        <ele>365</ele>
        <time>2014-10-02T14:03:08Z</time>
      </trkpt>
      <trkpt lat="46.00125" lon="4.48963">
        <ele>363</ele>
        <time>2014-10-02T14:03:09Z</time>
      </trkpt>
      <trkpt lat="46.00121" lon="4.48976">
        <ele>361</ele>
        <time>2014-10-02T14:03:10Z</time>
      </trkpt>
      <trkpt lat="46.00117" lon="4.48988">
        <ele>359.5</ele>
        <time>2014-10-02T14:03:11Z</time>
      </trkpt>
      <trkpt lat="46.00113" lon="4.49">
        <ele>357.9</ele>
        <time>2014-10-02T14:03:12Z</time>
      </trkpt>
      <trkpt lat="46.00108" lon="4.49012">
        <ele>356.4</ele>
        <time>2014-10-02T14:03:13Z</time>
      </trkpt>
      <trkpt lat="46.00104" lon="4.49024">
        <ele>354.8</ele>
        <time>2014-10-02T14:03:14Z</time>
      </trkpt>
      <trkpt lat="46.001" lon="4.49035">
        <ele>355.3</ele>
        <time>2014-10-02T14:03:15Z</time>
      </trkpt>
      <trkpt lat="46.00096" lon="4.49048">
        <ele>355.7</ele>
        <time>2014-10-02T14:03:16Z</time>
      </trkpt>
      <trkpt lat="46.00092" lon="4.4906">
        <ele>356.2</ele>
        <time>2014-10-02T14:03:17Z</time>
      </trkpt>
      <trkpt lat="46.00089" lon="4.49073">
        <ele>357</ele>
        <time>2014-10-02T14:03:18Z</time>
      </trkpt>
      <trkpt lat="46.00086" lon="4.49085">
        <ele>357.8</ele>
        <time>2014-10-02T14:03:19Z</time>
      </trkpt>
      <trkpt lat="46.00084" lon="4.49099">
        <ele>358.6</ele>
        <time>2014-10-02T14:03:20Z</time>
      </trkpt>
      <trkpt lat="46.00082" lon="4.49113">
        <ele>359.5</ele>
        <time>2014-10-02T14:03:21Z</time>
      </trkpt>
      <trkpt lat="46.0008" lon="4.49126">
        <ele>359.8</ele>
        <time>2014-10-02T14:03:22Z</time>
      </trkpt>
      <trkpt lat="46.00079" lon="4.4914">
        <ele>360.2</ele>
        <time>2014-10-02T14:03:23Z</time>
      </trkpt>
      <trkpt lat="46.00077" lon="4.49154">
        <ele>360.7</ele>
        <time>2014-10-02T14:03:24Z</time>
      </trkpt>
      <trkpt lat="46.00076" lon="4.49168">
        <ele>361.3</ele>
        <time>2014-10-02T14:03:25Z</time>
      </trkpt>
      <trkpt lat="46.00074" lon="4.49182">
        <ele>361.8</ele>
        <time>2014-10-02T14:03:26Z</time>
      </trkpt>
      <trkpt lat="46.00073" lon="4.49196">
        <ele>362.4</ele>
        <time>2014-10-02T14:03:27Z</time>
      </trkpt>
      <trkpt lat="46.00071" lon="4.4921">
        <ele>362.9</ele>
        <time>2014-10-02T14:03:28Z</time>
      </trkpt>
      <trkpt lat="46.0007" lon="4.49224">
        <ele>363.1</ele>
        <time>2014-10-02T14:03:29Z</time>
      </trkpt>
      <trkpt lat="46.00068" lon="4.49237">
        <ele>363.4</ele>
        <time>2014-10-02T14:03:30Z</time>
      </trkpt>
      <trkpt lat="46.00068" lon="4.49252">
        <ele>363.6</ele>
        <time>2014-10-02T14:03:31Z</time>
      </trkpt>
      <trkpt lat="46.00067" lon="4.49266">
        <ele>363.9</ele>
        <time>2014-10-02T14:03:32Z</time>
      </trkpt>
      <trkpt lat="46.00066" lon="4.49281">
        <ele>364.2</ele>
        <time>2014-10-02T14:03:33Z</time>
      </trkpt>
      <trkpt lat="46.00065" lon="4.49295">
        <ele>364.5</ele>
        <time>2014-10-02T14:03:34Z</time>
      </trkpt>
      <trkpt lat="46.00064" lon="4.49309">
        <ele>364.5</ele>
        <time>2014-10-02T14:03:35Z</time>
      </trkpt>
      <trkpt lat="46.00061" lon="4.49322">
        <ele>364.8</ele>
        <time>2014-10-02T14:03:36Z</time>
      </trkpt>
      <trkpt lat="46.00058" lon="4.49335">
        <ele>365.1</ele>
        <time>2014-10-02T14:03:37Z</time>
      </trkpt>
      <trkpt lat="46.00056" lon="4.49349">
        <ele>365.4</ele>
        <time>2014-10-02T14:03:38Z</time>
      </trkpt>
      <trkpt lat="46.00054" lon="4.49362">
        <ele>365.6</ele>
        <time>2014-10-02T14:03:39Z</time>
      </trkpt>
      <trkpt lat="46.00052" lon="4.49376">
        <ele>365.9</ele>
        <time>2014-10-02T14:03:40Z</time>
      </trkpt>
      <trkpt lat="46.00051" lon="4.4939">
        <ele>366.1</ele>
        <time>2014-10-02T14:03:41Z</time>
      </trkpt>
      <trkpt lat="46.00051" lon="4.49405">
        <ele>365.6</ele>
        <time>2014-10-02T14:03:42Z</time>
      </trkpt>
      <trkpt lat="46.00051" lon="4.49418">
        <ele>365.2</ele>
        <time>2014-10-02T14:03:43Z</time>
      </trkpt>
      <trkpt lat="46.00051" lon="4.49432">
        <ele>364.7</ele>
        <time>2014-10-02T14:03:44Z</time>
      </trkpt>
      <trkpt lat="46.00051" lon="4.49447">
        <ele>364.3</ele>
        <time>2014-10-02T14:03:45Z</time>
      </trkpt>
      <trkpt lat="46.00051" lon="4.49461">
        <ele>363.8</ele>
        <time>2014-10-02T14:03:46Z</time>
      </trkpt>
      <trkpt lat="46.00052" lon="4.49475">
        <ele>363.2</ele>
        <time>2014-10-02T14:03:47Z</time>
      </trkpt>
      <trkpt lat="46.00053" lon="4.49489">
        <ele>361</ele>
        <time>2014-10-02T14:03:48Z</time>
      </trkpt>
      <trkpt lat="46.00054" lon="4.49502">
        <ele>358.8</ele>
        <time>2014-10-02T14:03:49Z</time>
      </trkpt>
      <trkpt lat="46.00056" lon="4.49515">
        <ele>356.6</ele>
        <time>2014-10-02T14:03:50Z</time>
      </trkpt>
      <trkpt lat="46.00058" lon="4.49527">
        <ele>354.5</ele>
        <time>2014-10-02T14:03:51Z</time>
      </trkpt>
      <trkpt lat="46.00063" lon="4.4954">
        <ele>352.3</ele>
        <time>2014-10-02T14:03:52Z</time>
      </trkpt>
      <trkpt lat="46.00068" lon="4.4955">
        <ele>350.7</ele>
        <time>2014-10-02T14:03:53Z</time>
      </trkpt>
      <trkpt lat="46.00073" lon="4.49561">
        <ele>349.2</ele>
        <time>2014-10-02T14:03:54Z</time>
      </trkpt>
      <trkpt lat="46.00079" lon="4.4957">
        <ele>347.6</ele>
        <time>2014-10-02T14:03:55Z</time>
      </trkpt>
      <trkpt lat="46.00085" lon="4.49579">
        <ele>346.5</ele>
        <time>2014-10-02T14:03:56Z</time>
      </trkpt>
      <trkpt lat="46.00098" lon="4.49594">
        <ele>345.3</ele>
        <time>2014-10-02T14:03:58Z</time>
      </trkpt>
      <trkpt lat="46.00107" lon="4.49597">
        <ele>344.1</ele>
        <time>2014-10-02T14:03:59Z</time>
      </trkpt>
      <trkpt lat="46.00115" lon="4.49599">
        <ele>344.5</ele>
        <time>2014-10-02T14:04:00Z</time>
      </trkpt>
      <trkpt lat="46.00123" lon="4.49599">
        <ele>344.8</ele>
        <time>2014-10-02T14:04:01Z</time>
      </trkpt>
      <trkpt lat="46.00139" lon="4.49595">
        <ele>345.2</ele>
        <time>2014-10-02T14:04:03Z</time>
      </trkpt>
      <trkpt lat="46.00147" lon="4.49592">
        <ele>345.5</ele>
        <time>2014-10-02T14:04:04Z</time>
      </trkpt>
      <trkpt lat="46.00155" lon="4.49587">
        <ele>345.9</ele>
        <time>2014-10-02T14:04:06Z</time>
      </trkpt>
      <trkpt lat="46.00163" lon="4.49582">
        <ele>346.3</ele>
        <time>2014-10-02T14:04:06Z</time>
      </trkpt>
      <trkpt lat="46.00171" lon="4.49578">
        <ele>346.4</ele>
        <time>2014-10-02T14:04:07Z</time>
      </trkpt>
      <trkpt lat="46.0018" lon="4.49573">
        <ele>346.5</ele>
        <time>2014-10-02T14:04:08Z</time>
      </trkpt>
      <trkpt lat="46.00188" lon="4.4957">
        <ele>346.2</ele>
        <time>2014-10-02T14:04:09Z</time>
      </trkpt>
      <trkpt lat="46.00198" lon="4.49569">
        <ele>345.9</ele>
        <time>2014-10-02T14:04:10Z</time>
      </trkpt>
      <trkpt lat="46.00206" lon="4.49567">
        <ele>345.6</ele>
        <time>2014-10-02T14:04:11Z</time>
      </trkpt>
      <trkpt lat="46.00215" lon="4.49568">
        <ele>345.4</ele>
        <time>2014-10-02T14:04:13Z</time>
      </trkpt>
      <trkpt lat="46.00225" lon="4.49571">
        <ele>345.1</ele>
        <time>2014-10-02T14:04:13Z</time>
      </trkpt>
      <trkpt lat="46.00234" lon="4.49573">
        <ele>344.8</ele>
        <time>2014-10-02T14:04:14Z</time>
      </trkpt>
      <trkpt lat="46.00243" lon="4.49578">
        <ele>344.5</ele>
        <time>2014-10-02T14:04:15Z</time>
      </trkpt>
      <trkpt lat="46.00252" lon="4.49581">
        <ele>344.9</ele>
        <time>2014-10-02T14:04:16Z</time>
      </trkpt>
      <trkpt lat="46.00261" lon="4.49582">
        <ele>345.3</ele>
        <time>2014-10-02T14:04:17Z</time>
      </trkpt>
      <trkpt lat="46.0027" lon="4.49586">
        <ele>345.9</ele>
        <time>2014-10-02T14:04:19Z</time>
      </trkpt>
      <trkpt lat="46.00278" lon="4.49589">
        <ele>346.5</ele>
        <time>2014-10-02T14:04:19Z</time>
      </trkpt>
      <trkpt lat="46.00287" lon="4.49591">
        <ele>347.2</ele>
        <time>2014-10-02T14:04:20Z</time>
      </trkpt>
      <trkpt lat="46.00295" lon="4.49591">
        <ele>347.8</ele>
        <time>2014-10-02T14:04:21Z</time>
      </trkpt>
      <trkpt lat="46.00303" lon="4.49592">
        <ele>348.5</ele>
        <time>2014-10-02T14:04:22Z</time>
      </trkpt>
      <trkpt lat="46.00319" lon="4.49593">
        <ele>349.1</ele>
        <time>2014-10-02T14:04:24Z</time>
      </trkpt>
      <trkpt lat="46.00336" lon="4.49592">
        <ele>349.7</ele>
        <time>2014-10-02T14:04:26Z</time>
      </trkpt>
      <trkpt lat="46.00351" lon="4.49587">
        <ele>348.5</ele>
        <time>2014-10-02T14:04:28Z</time>
      </trkpt>
      <trkpt lat="46.00364" lon="4.49586">
        <ele>347.2</ele>
        <time>2014-10-02T14:04:30Z</time>
      </trkpt>
      <trkpt lat="46.00373" lon="4.49595">
        <ele>345.3</ele>
        <time>2014-10-02T14:04:32Z</time>
      </trkpt>
      <trkpt lat="46.00377" lon="4.49608">
        <ele>343.4</ele>
        <time>2014-10-02T14:04:34Z</time>
      </trkpt>
      <trkpt lat="46.00376" lon="4.49623">
        <ele>341.5</ele>
        <time>2014-10-02T14:04:36Z</time>
      </trkpt>
      <trkpt lat="46.00375" lon="4.49639">
        <ele>339.5</ele>
        <time>2014-10-02T14:04:38Z</time>
      </trkpt>
      <trkpt lat="46.00376" lon="4.49654">
        <ele>337.6</ele>
        <time>2014-10-02T14:04:40Z</time>
      </trkpt>
      <trkpt lat="46.00375" lon="4.4967">
        <ele>335.7</ele>
        <time>2014-10-02T14:04:42Z</time>
      </trkpt>
      <trkpt lat="46.00367" lon="4.49681">
        <ele>333.8</ele>
        <time>2014-10-02T14:04:44Z</time>
      </trkpt>
      <trkpt lat="46.00354" lon="4.49683">
        <ele>331.7</ele>
        <time>2014-10-02T14:04:46Z</time>
      </trkpt>
      <trkpt lat="46.0034" lon="4.49684">
        <ele>329.6</ele>
        <time>2014-10-02T14:04:48Z</time>
      </trkpt>
      <trkpt lat="46.00326" lon="4.49685">
        <ele>329.5</ele>
        <time>2014-10-02T14:04:50Z</time>
      </trkpt>
      <trkpt lat="46.00311" lon="4.49687">
        <ele>329.3</ele>
        <time>2014-10-02T14:04:52Z</time>
      </trkpt>
      <trkpt lat="46.00296" lon="4.4969">
        <ele>329.1</ele>
        <time>2014-10-02T14:04:54Z</time>
      </trkpt>
      <trkpt lat="46.00281" lon="4.49691">
        <ele>328.9</ele>
        <time>2014-10-02T14:04:56Z</time>
      </trkpt>
      <trkpt lat="46.00266" lon="4.49692">
        <ele>328.7</ele>
        <time>2014-10-02T14:04:58Z</time>
      </trkpt>
      <trkpt lat="46.0025" lon="4.49696">
        <ele>328.6</ele>
        <time>2014-10-02T14:05:00Z</time>
      </trkpt>
      <trkpt lat="46.00242" lon="4.49697">
        <ele>328.5</ele>
        <time>2014-10-02T14:05:01Z</time>
      </trkpt>
      <trkpt lat="46.00234" lon="4.49698">
        <ele>328.5</ele>
        <time>2014-10-02T14:05:02Z</time>
      </trkpt>
      <trkpt lat="46.00225" lon="4.49699">
        <ele>328.3</ele>
        <time>2014-10-02T14:05:03Z</time>
      </trkpt>
      <trkpt lat="46.00217" lon="4.49701">
        <ele>328.3</ele>
        <time>2014-10-02T14:05:04Z</time>
      </trkpt>
      <trkpt lat="46.00208" lon="4.49704">
        <ele>328.3</ele>
        <time>2014-10-02T14:05:05Z</time>
      </trkpt>
      <trkpt lat="46.002" lon="4.49707">
        <ele>328.3</ele>
        <time>2014-10-02T14:05:06Z</time>
      </trkpt>
      <trkpt lat="46.00191" lon="4.49711">
        <ele>328.3</ele>
        <time>2014-10-02T14:05:07Z</time>
      </trkpt>
      <trkpt lat="46.00183" lon="4.49715">
        <ele>328.3</ele>
        <time>2014-10-02T14:05:08Z</time>
      </trkpt>
      <trkpt lat="46.00175" lon="4.4972">
        <ele>328.3</ele>
        <time>2014-10-02T14:05:09Z</time>
      </trkpt>
      <trkpt lat="46.00167" lon="4.49726">
        <ele>327.9</ele>
        <time>2014-10-02T14:05:10Z</time>
      </trkpt>
      <trkpt lat="46.00159" lon="4.49731">
        <ele>327.5</ele>
        <time>2014-10-02T14:05:11Z</time>
      </trkpt>
      <trkpt lat="46.00151" lon="4.49737">
        <ele>327</ele>
        <time>2014-10-02T14:05:12Z</time>
      </trkpt>
      <trkpt lat="46.00142" lon="4.49742">
        <ele>326.5</ele>
        <time>2014-10-02T14:05:13Z</time>
      </trkpt>
      <trkpt lat="46.00134" lon="4.49748">
        <ele>326.2</ele>
        <time>2014-10-02T14:05:14Z</time>
      </trkpt>
      <trkpt lat="46.00126" lon="4.49754">
        <ele>325.8</ele>
        <time>2014-10-02T14:05:15Z</time>
      </trkpt>
      <trkpt lat="46.00118" lon="4.49759">
        <ele>325.5</ele>
        <time>2014-10-02T14:05:16Z</time>
      </trkpt>
      <trkpt lat="46.0011" lon="4.49764">
        <ele>326.1</ele>
        <time>2014-10-02T14:05:18Z</time>
      </trkpt>
      <trkpt lat="46.00102" lon="4.4977">
        <ele>326.7</ele>
        <time>2014-10-02T14:05:18Z</time>
      </trkpt>
      <trkpt lat="46.00095" lon="4.49776">
        <ele>326.5</ele>
        <time>2014-10-02T14:05:20Z</time>
      </trkpt>
      <trkpt lat="46.00087" lon="4.49781">
        <ele>326.4</ele>
        <time>2014-10-02T14:05:20Z</time>
      </trkpt>
      <trkpt lat="46.00073" lon="4.49791">
        <ele>326.5</ele>
        <time>2014-10-02T14:05:23Z</time>
      </trkpt>
      <trkpt lat="46.00058" lon="4.49801">
        <ele>326.7</ele>
        <time>2014-10-02T14:05:25Z</time>
      </trkpt>
      <trkpt lat="46.00051" lon="4.49806">
        <ele>326.9</ele>
        <time>2014-10-02T14:05:25Z</time>
      </trkpt>
      <trkpt lat="46.00044" lon="4.49812">
        <ele>327.1</ele>
        <time>2014-10-02T14:05:27Z</time>
      </trkpt>
      <trkpt lat="46.00036" lon="4.49817">
        <ele>327.3</ele>
        <time>2014-10-02T14:05:27Z</time>
      </trkpt>
      <trkpt lat="46.00022" lon="4.49828">
        <ele>327</ele>
        <time>2014-10-02T14:05:30Z</time>
      </trkpt>
      <trkpt lat="46.00014" lon="4.49833">
        <ele>327.9</ele>
        <time>2014-10-02T14:05:30Z</time>
      </trkpt>
      <trkpt lat="45.99999" lon="4.49843">
        <ele>327.8</ele>
        <time>2014-10-02T14:05:32Z</time>
      </trkpt>
      <trkpt lat="45.99985" lon="4.49854">
        <ele>327.7</ele>
        <time>2014-10-02T14:05:34Z</time>
      </trkpt>
      <trkpt lat="45.99971" lon="4.49863">
        <ele>328.5</ele>
        <time>2014-10-02T14:05:36Z</time>
      </trkpt>
      <trkpt lat="45.99958" lon="4.49873">
        <ele>329.2</ele>
        <time>2014-10-02T14:05:38Z</time>
      </trkpt>
      <trkpt lat="45.99944" lon="4.49883">
        <ele>329.2</ele>
        <time>2014-10-02T14:05:40Z</time>
      </trkpt>
      <trkpt lat="45.99931" lon="4.49893">
        <ele>329.2</ele>
        <time>2014-10-02T14:05:42Z</time>
      </trkpt>
      <trkpt lat="45.99918" lon="4.49902">
        <ele>329.2</ele>
        <time>2014-10-02T14:05:44Z</time>
      </trkpt>
      <trkpt lat="45.99904" lon="4.49911">
        <ele>329.2</ele>
        <time>2014-10-02T14:05:46Z</time>
      </trkpt>
      <trkpt lat="45.9989" lon="4.49918">
        <ele>329.2</ele>
        <time>2014-10-02T14:05:48Z</time>
      </trkpt>
      <trkpt lat="45.99876" lon="4.49923">
        <ele>329.6</ele>
        <time>2014-10-02T14:05:50Z</time>
      </trkpt>
      <trkpt lat="45.99861" lon="4.49928">
        <ele>328.9</ele>
        <time>2014-10-02T14:05:52Z</time>
      </trkpt>
      <trkpt lat="45.99845" lon="4.4993">
        <ele>328</ele>
        <time>2014-10-02T14:05:54Z</time>
      </trkpt>
      <trkpt lat="45.99837" lon="4.49931">
        <ele>327.1</ele>
        <time>2014-10-02T14:05:55Z</time>
      </trkpt>
      <trkpt lat="45.99821" lon="4.49931">
        <ele>326.2</ele>
        <time>2014-10-02T14:05:57Z</time>
      </trkpt>
      <trkpt lat="45.99805" lon="4.49931">
        <ele>325.3</ele>
        <time>2014-10-02T14:05:59Z</time>
      </trkpt>
      <trkpt lat="45.99796" lon="4.4993">
        <ele>325.1</ele>
        <time>2014-10-02T14:06:00Z</time>
      </trkpt>
      <trkpt lat="45.99788" lon="4.49928">
        <ele>324.9</ele>
        <time>2014-10-02T14:06:01Z</time>
      </trkpt>
      <trkpt lat="45.9978" lon="4.49926">
        <ele>324.7</ele>
        <time>2014-10-02T14:06:02Z</time>
      </trkpt>
      <trkpt lat="45.99771" lon="4.49924">
        <ele>324.5</ele>
        <time>2014-10-02T14:06:03Z</time>
      </trkpt>
      <trkpt lat="45.99763" lon="4.49922">
        <ele>324.4</ele>
        <time>2014-10-02T14:06:04Z</time>
      </trkpt>
      <trkpt lat="45.99755" lon="4.4992">
        <ele>324.2</ele>
        <time>2014-10-02T14:06:05Z</time>
      </trkpt>
      <trkpt lat="45.99747" lon="4.49919">
        <ele>323.7</ele>
        <time>2014-10-02T14:06:06Z</time>
      </trkpt>
      <trkpt lat="45.99739" lon="4.49917">
        <ele>323.5</ele>
        <time>2014-10-02T14:06:08Z</time>
      </trkpt>
      <trkpt lat="45.99731" lon="4.49919">
        <ele>323.2</ele>
        <time>2014-10-02T14:06:08Z</time>
      </trkpt>
      <trkpt lat="45.99723" lon="4.49921">
        <ele>322.9</ele>
        <time>2014-10-02T14:06:09Z</time>
      </trkpt>
      <trkpt lat="45.99715" lon="4.49922">
        <ele>322.6</ele>
        <time>2014-10-02T14:06:11Z</time>
      </trkpt>
      <trkpt lat="45.99707" lon="4.49925">
        <ele>322.4</ele>
        <time>2014-10-02T14:06:11Z</time>
      </trkpt>
      <trkpt lat="45.99699" lon="4.49927">
        <ele>322.1</ele>
        <time>2014-10-02T14:06:12Z</time>
      </trkpt>
      <trkpt lat="45.99691" lon="4.49931">
        <ele>321.8</ele>
        <time>2014-10-02T14:06:13Z</time>
      </trkpt>
      <trkpt lat="45.99683" lon="4.49933">
        <ele>321.5</ele>
        <time>2014-10-02T14:06:15Z</time>
      </trkpt>
      <trkpt lat="45.99675" lon="4.49938">
        <ele>322.5</ele>
        <time>2014-10-02T14:06:15Z</time>
      </trkpt>
      <trkpt lat="45.99667" lon="4.49943">
        <ele>323.5</ele>
        <time>2014-10-02T14:06:16Z</time>
      </trkpt>
      <trkpt lat="45.99659" lon="4.49948">
        <ele>323.7</ele>
        <time>2014-10-02T14:06:18Z</time>
      </trkpt>
      <trkpt lat="45.99652" lon="4.49954">
        <ele>323.9</ele>
        <time>2014-10-02T14:06:18Z</time>
      </trkpt>
      <trkpt lat="45.99644" lon="4.49959">
        <ele>324.1</ele>
        <time>2014-10-02T14:06:19Z</time>
      </trkpt>
      <trkpt lat="45.99636" lon="4.49964">
        <ele>324.3</ele>
        <time>2014-10-02T14:06:20Z</time>
      </trkpt>
      <trkpt lat="45.99628" lon="4.49968">
        <ele>324.5</ele>
        <time>2014-10-02T14:06:21Z</time>
      </trkpt>
      <trkpt lat="45.9962" lon="4.49974">
        <ele>324.6</ele>
        <time>2014-10-02T14:06:22Z</time>
      </trkpt>
      <trkpt lat="45.99612" lon="4.49979">
        <ele>324.8</ele>
        <time>2014-10-02T14:06:23Z</time>
      </trkpt>
      <trkpt lat="45.99604" lon="4.49984">
        <ele>325</ele>
        <time>2014-10-02T14:06:24Z</time>
      </trkpt>
      <trkpt lat="45.99597" lon="4.4999">
        <ele>325.2</ele>
        <time>2014-10-02T14:06:25Z</time>
      </trkpt>
      <trkpt lat="45.99583" lon="4.50004">
        <ele>325</ele>
        <time>2014-10-02T14:06:27Z</time>
      </trkpt>
      <trkpt lat="45.99576" lon="4.50013">
        <ele>323.9</ele>
        <time>2014-10-02T14:06:28Z</time>
      </trkpt>
      <trkpt lat="45.9957" lon="4.50021">
        <ele>323.9</ele>
        <time>2014-10-02T14:06:29Z</time>
      </trkpt>
      <trkpt lat="45.99563" lon="4.50029">
        <ele>323.9</ele>
        <time>2014-10-02T14:06:30Z</time>
      </trkpt>
      <trkpt lat="45.99557" lon="4.50039">
        <ele>323.9</ele>
        <time>2014-10-02T14:06:31Z</time>
      </trkpt>
      <trkpt lat="45.9955" lon="4.50048">
        <ele>323.9</ele>
        <time>2014-10-02T14:06:32Z</time>
      </trkpt>
      <trkpt lat="45.99545" lon="4.50057">
        <ele>323.9</ele>
        <time>2014-10-02T14:06:33Z</time>
      </trkpt>
      <trkpt lat="45.9954" lon="4.50067">
        <ele>323.9</ele>
        <time>2014-10-02T14:06:34Z</time>
      </trkpt>
      <trkpt lat="45.99529" lon="4.50085">
        <ele>324.9</ele>
        <time>2014-10-02T14:06:36Z</time>
      </trkpt>
      <trkpt lat="45.99523" lon="4.50095">
        <ele>325.9</ele>
        <time>2014-10-02T14:06:37Z</time>
      </trkpt>
      <trkpt lat="45.99517" lon="4.50104">
        <ele>326.9</ele>
        <time>2014-10-02T14:06:38Z</time>
      </trkpt>
      <trkpt lat="45.99511" lon="4.50113">
        <ele>326.3</ele>
        <time>2014-10-02T14:06:40Z</time>
      </trkpt>
      <trkpt lat="45.99501" lon="4.50129">
        <ele>326.5</ele>
        <time>2014-10-02T14:06:41Z</time>
      </trkpt>
      <trkpt lat="45.99491" lon="4.50145">
        <ele>326.8</ele>
        <time>2014-10-02T14:06:43Z</time>
      </trkpt>
      <trkpt lat="45.99482" lon="4.50165">
        <ele>327.5</ele>
        <time>2014-10-02T14:06:45Z</time>
      </trkpt>
      <trkpt lat="45.99471" lon="4.50179">
        <ele>328.3</ele>
        <time>2014-10-02T14:06:47Z</time>
      </trkpt>
      <trkpt lat="45.99461" lon="4.50193">
        <ele>329</ele>
        <time>2014-10-02T14:06:49Z</time>
      </trkpt>
      <trkpt lat="45.9945" lon="4.50207">
        <ele>329.7</ele>
        <time>2014-10-02T14:06:51Z</time>
      </trkpt>
      <trkpt lat="45.99438" lon="4.5022">
        <ele>330.5</ele>
        <time>2014-10-02T14:06:54Z</time>
      </trkpt>
      <trkpt lat="45.99428" lon="4.50234">
        <ele>329.9</ele>
        <time>2014-10-02T14:06:55Z</time>
      </trkpt>
      <trkpt lat="45.99416" lon="4.50249">
        <ele>329.4</ele>
        <time>2014-10-02T14:06:57Z</time>
      </trkpt>
      <trkpt lat="45.99406" lon="4.50263">
        <ele>328.8</ele>
        <time>2014-10-02T14:06:59Z</time>
      </trkpt>
      <trkpt lat="45.99394" lon="4.50275">
        <ele>329</ele>
        <time>2014-10-02T14:07:01Z</time>
      </trkpt>
      <trkpt lat="45.99382" lon="4.50289">
        <ele>329.2</ele>
        <time>2014-10-02T14:07:03Z</time>
      </trkpt>
      <trkpt lat="45.9937" lon="4.50304">
        <ele>329.4</ele>
        <time>2014-10-02T14:07:05Z</time>
      </trkpt>
      <trkpt lat="45.99361" lon="4.50311">
        <ele>328.2</ele>
        <time>2014-10-02T14:07:06Z</time>
      </trkpt>
      <trkpt lat="45.99347" lon="4.50323">
        <ele>327</ele>
        <time>2014-10-02T14:07:08Z</time>
      </trkpt>
      <trkpt lat="45.99334" lon="4.50333">
        <ele>325.8</ele>
        <time>2014-10-02T14:07:10Z</time>
      </trkpt>
      <trkpt lat="45.99321" lon="4.50344">
        <ele>324.6</ele>
        <time>2014-10-02T14:07:12Z</time>
      </trkpt>
      <trkpt lat="45.99306" lon="4.50355">
        <ele>323.5</ele>
        <time>2014-10-02T14:07:14Z</time>
      </trkpt>
      <trkpt lat="45.99292" lon="4.50364">
        <ele>322.5</ele>
        <time>2014-10-02T14:07:16Z</time>
      </trkpt>
      <trkpt lat="45.99283" lon="4.50366">
        <ele>321.6</ele>
        <time>2014-10-02T14:07:17Z</time>
      </trkpt>
      <trkpt lat="45.99275" lon="4.50369">
        <ele>320.7</ele>
        <time>2014-10-02T14:07:18Z</time>
      </trkpt>
      <trkpt lat="45.99261" lon="4.50373">
        <ele>321.5</ele>
        <time>2014-10-02T14:07:20Z</time>
      </trkpt>
      <trkpt lat="45.99244" lon="4.50376">
        <ele>322.2</ele>
        <time>2014-10-02T14:07:22Z</time>
      </trkpt>
      <trkpt lat="45.9923" lon="4.50378">
        <ele>322.9</ele>
        <time>2014-10-02T14:07:24Z</time>
      </trkpt>
      <trkpt lat="45.99214" lon="4.5038">
        <ele>324.5</ele>
        <time>2014-10-02T14:07:26Z</time>
      </trkpt>
      <trkpt lat="45.99199" lon="4.50383">
        <ele>326.2</ele>
        <time>2014-10-02T14:07:28Z</time>
      </trkpt>
      <trkpt lat="45.99182" lon="4.50387">
        <ele>327.8</ele>
        <time>2014-10-02T14:07:30Z</time>
      </trkpt>
      <trkpt lat="45.99174" lon="4.50389">
        <ele>329.5</ele>
        <time>2014-10-02T14:07:31Z</time>
      </trkpt>
      <trkpt lat="45.99166" lon="4.5039">
        <ele>331.2</ele>
        <time>2014-10-02T14:07:32Z</time>
      </trkpt>
      <trkpt lat="45.99158" lon="4.50391">
        <ele>332.9</ele>
        <time>2014-10-02T14:07:33Z</time>
      </trkpt>
      <trkpt lat="45.99148" lon="4.50392">
        <ele>334.6</ele>
        <time>2014-10-02T14:07:34Z</time>
      </trkpt>
      <trkpt lat="45.9914" lon="4.50393">
        <ele>336.4</ele>
        <time>2014-10-02T14:07:35Z</time>
      </trkpt>
      <trkpt lat="45.99132" lon="4.50394">
        <ele>336.5</ele>
        <time>2014-10-02T14:07:36Z</time>
      </trkpt>
      <trkpt lat="45.99123" lon="4.50394">
        <ele>334.6</ele>
        <time>2014-10-02T14:07:37Z</time>
      </trkpt>
      <trkpt lat="45.99114" lon="4.50394">
        <ele>332.8</ele>
        <time>2014-10-02T14:07:38Z</time>
      </trkpt>
      <trkpt lat="45.99097" lon="4.50393">
        <ele>332.1</ele>
        <time>2014-10-02T14:07:40Z</time>
      </trkpt>
      <trkpt lat="45.99089" lon="4.50392">
        <ele>331.4</ele>
        <time>2014-10-02T14:07:41Z</time>
      </trkpt>
      <trkpt lat="45.99075" lon="4.50387">
        <ele>330.6</ele>
        <time>2014-10-02T14:07:43Z</time>
      </trkpt>
      <trkpt lat="45.9906" lon="4.50383">
        <ele>329.9</ele>
        <time>2014-10-02T14:07:45Z</time>
      </trkpt>
      <trkpt lat="45.99047" lon="4.50377">
        <ele>329.1</ele>
        <time>2014-10-02T14:07:47Z</time>
      </trkpt>
      <trkpt lat="45.99035" lon="4.50372">
        <ele>327.5</ele>
        <time>2014-10-02T14:07:49Z</time>
      </trkpt>
      <trkpt lat="45.99024" lon="4.50362">
        <ele>325.8</ele>
        <time>2014-10-02T14:07:51Z</time>
      </trkpt>
      <trkpt lat="45.99015" lon="4.50348">
        <ele>324.2</ele>
        <time>2014-10-02T14:07:53Z</time>
      </trkpt>
      <trkpt lat="45.99006" lon="4.50333">
        <ele>322.5</ele>
        <time>2014-10-02T14:07:55Z</time>
      </trkpt>
      <trkpt lat="45.98999" lon="4.50314">
        <ele>322.8</ele>
        <time>2014-10-02T14:07:57Z</time>
      </trkpt>
      <trkpt lat="45.98991" lon="4.50294">
        <ele>323.7</ele>
        <time>2014-10-02T14:07:59Z</time>
      </trkpt>
      <trkpt lat="45.98982" lon="4.50272">
        <ele>323.5</ele>
        <time>2014-10-02T14:08:01Z</time>
      </trkpt>
      <trkpt lat="45.98978" lon="4.50261">
        <ele>322.1</ele>
        <time>2014-10-02T14:08:02Z</time>
      </trkpt>
      <trkpt lat="45.98973" lon="4.50251">
        <ele>320.6</ele>
        <time>2014-10-02T14:08:03Z</time>
      </trkpt>
      <trkpt lat="45.98966" lon="4.50242">
        <ele>319.2</ele>
        <time>2014-10-02T14:08:04Z</time>
      </trkpt>
      <trkpt lat="45.9896" lon="4.50234">
        <ele>317.7</ele>
        <time>2014-10-02T14:08:05Z</time>
      </trkpt>
      <trkpt lat="45.98953" lon="4.50225">
        <ele>317.1</ele>
        <time>2014-10-02T14:08:06Z</time>
      </trkpt>
      <trkpt lat="45.98944" lon="4.5022">
        <ele>316.5</ele>
        <time>2014-10-02T14:08:07Z</time>
      </trkpt>
      <trkpt lat="45.98936" lon="4.50216">
        <ele>315.8</ele>
        <time>2014-10-02T14:08:08Z</time>
      </trkpt>
      <trkpt lat="45.98927" lon="4.50213">
        <ele>315.2</ele>
        <time>2014-10-02T14:08:09Z</time>
      </trkpt>
      <trkpt lat="45.98919" lon="4.50214">
        <ele>314.4</ele>
        <time>2014-10-02T14:08:10Z</time>
      </trkpt>
      <trkpt lat="45.9891" lon="4.50212">
        <ele>312.9</ele>
        <time>2014-10-02T14:08:11Z</time>
      </trkpt>
      <trkpt lat="45.98901" lon="4.50213">
        <ele>312.5</ele>
        <time>2014-10-02T14:08:12Z</time>
      </trkpt>
      <trkpt lat="45.98892" lon="4.50216">
        <ele>313.5</ele>
        <time>2014-10-02T14:08:13Z</time>
      </trkpt>
      <trkpt lat="45.98883" lon="4.50217">
        <ele>314.4</ele>
        <time>2014-10-02T14:08:14Z</time>
      </trkpt>
      <trkpt lat="45.98874" lon="4.50219">
        <ele>315.3</ele>
        <time>2014-10-02T14:08:15Z</time>
      </trkpt>
      <trkpt lat="45.98866" lon="4.5022">
        <ele>316.2</ele>
        <time>2014-10-02T14:08:16Z</time>
      </trkpt>
      <trkpt lat="45.98858" lon="4.50222">
        <ele>317.1</ele>
        <time>2014-10-02T14:08:17Z</time>
      </trkpt>
      <trkpt lat="45.98842" lon="4.50223">
        <ele>317.1</ele>
        <time>2014-10-02T14:08:19Z</time>
      </trkpt>
      <trkpt lat="45.98834" lon="4.50226">
        <ele>317.1</ele>
        <time>2014-10-02T14:08:20Z</time>
      </trkpt>
      <trkpt lat="45.98819" lon="4.50234">
        <ele>317.1</ele>
        <time>2014-10-02T14:08:22Z</time>
      </trkpt>
      <trkpt lat="45.98805" lon="4.50242">
        <ele>317.6</ele>
        <time>2014-10-02T14:08:24Z</time>
      </trkpt>
      <trkpt lat="45.98798" lon="4.50249">
        <ele>318.2</ele>
        <time>2014-10-02T14:08:25Z</time>
      </trkpt>
      <trkpt lat="45.98786" lon="4.5026">
        <ele>317.6</ele>
        <time>2014-10-02T14:08:28Z</time>
      </trkpt>
      <trkpt lat="45.98775" lon="4.50273">
        <ele>317.1</ele>
        <time>2014-10-02T14:08:29Z</time>
      </trkpt>
      <trkpt lat="45.98765" lon="4.50291">
        <ele>316.8</ele>
        <time>2014-10-02T14:08:31Z</time>
      </trkpt>
      <trkpt lat="45.98756" lon="4.5031">
        <ele>316.5</ele>
        <time>2014-10-02T14:08:33Z</time>
      </trkpt>
      <trkpt lat="45.98751" lon="4.5033">
        <ele>316.3</ele>
        <time>2014-10-02T14:08:35Z</time>
      </trkpt>
      <trkpt lat="45.98747" lon="4.5035">
        <ele>316</ele>
        <time>2014-10-02T14:08:37Z</time>
      </trkpt>
      <trkpt lat="45.98744" lon="4.50369">
        <ele>316.7</ele>
        <time>2014-10-02T14:08:39Z</time>
      </trkpt>
      <trkpt lat="45.98741" lon="4.50389">
        <ele>317.5</ele>
        <time>2014-10-02T14:08:41Z</time>
      </trkpt>
      <trkpt lat="45.98741" lon="4.5041">
        <ele>318.2</ele>
        <time>2014-10-02T14:08:43Z</time>
      </trkpt>
      <trkpt lat="45.98739" lon="4.50433">
        <ele>318.5</ele>
        <time>2014-10-02T14:08:45Z</time>
      </trkpt>
      <trkpt lat="45.98737" lon="4.50453">
        <ele>318.9</ele>
        <time>2014-10-02T14:08:47Z</time>
      </trkpt>
      <trkpt lat="45.98734" lon="4.50473">
        <ele>319</ele>
        <time>2014-10-02T14:08:49Z</time>
      </trkpt>
      <trkpt lat="45.98732" lon="4.50494">
        <ele>319.1</ele>
        <time>2014-10-02T14:08:51Z</time>
      </trkpt>
      <trkpt lat="45.98727" lon="4.50513">
        <ele>318.9</ele>
        <time>2014-10-02T14:08:53Z</time>
      </trkpt>
      <trkpt lat="45.98719" lon="4.5053">
        <ele>318.7</ele>
        <time>2014-10-02T14:08:55Z</time>
      </trkpt>
      <trkpt lat="45.9871" lon="4.50546">
        <ele>318.5</ele>
        <time>2014-10-02T14:08:57Z</time>
      </trkpt>
      <trkpt lat="45.98698" lon="4.5056">
        <ele>318.4</ele>
        <time>2014-10-02T14:08:59Z</time>
      </trkpt>
      <trkpt lat="45.98686" lon="4.50572">
        <ele>318.1</ele>
        <time>2014-10-02T14:09:01Z</time>
      </trkpt>
      <trkpt lat="45.98675" lon="4.50583">
        <ele>318.7</ele>
        <time>2014-10-02T14:09:03Z</time>
      </trkpt>
      <trkpt lat="45.98664" lon="4.50593">
        <ele>318.2</ele>
        <time>2014-10-02T14:09:05Z</time>
      </trkpt>
      <trkpt lat="45.98653" lon="4.50602">
        <ele>317.6</ele>
        <time>2014-10-02T14:09:07Z</time>
      </trkpt>
      <trkpt lat="45.98645" lon="4.50614">
        <ele>317.1</ele>
        <time>2014-10-02T14:09:09Z</time>
      </trkpt>
      <trkpt lat="45.98638" lon="4.50627">
        <ele>316.8</ele>
        <time>2014-10-02T14:09:11Z</time>
      </trkpt>
      <trkpt lat="45.98631" lon="4.50641">
        <ele>316.5</ele>
        <time>2014-10-02T14:09:13Z</time>
      </trkpt>
      <trkpt lat="45.98626" lon="4.50656">
        <ele>316.3</ele>
        <time>2014-10-02T14:09:15Z</time>
      </trkpt>
      <trkpt lat="45.98623" lon="4.50671">
        <ele>316</ele>
        <time>2014-10-02T14:09:17Z</time>
      </trkpt>
      <trkpt lat="45.98623" lon="4.50689">
        <ele>315.7</ele>
        <time>2014-10-02T14:09:19Z</time>
      </trkpt>
      <trkpt lat="45.98621" lon="4.50707">
        <ele>315.5</ele>
        <time>2014-10-02T14:09:21Z</time>
      </trkpt>
      <trkpt lat="45.98618" lon="4.50726">
        <ele>315.2</ele>
        <time>2014-10-02T14:09:23Z</time>
      </trkpt>
      <trkpt lat="45.98617" lon="4.50742">
        <ele>314.3</ele>
        <time>2014-10-02T14:09:25Z</time>
      </trkpt>
      <trkpt lat="45.9862" lon="4.50758">
        <ele>314.5</ele>
        <time>2014-10-02T14:09:27Z</time>
      </trkpt>
      <trkpt lat="45.98622" lon="4.50772">
        <ele>314.8</ele>
        <time>2014-10-02T14:09:29Z</time>
      </trkpt>
      <trkpt lat="45.9862" lon="4.50783">
        <ele>315.1</ele>
        <time>2014-10-02T14:09:31Z</time>
      </trkpt>
      <trkpt lat="45.98615" lon="4.50795">
        <ele>315.4</ele>
        <time>2014-10-02T14:09:34Z</time>
      </trkpt>
      <trkpt lat="45.98611" lon="4.50807">
        <ele>316.5</ele>
        <time>2014-10-02T14:09:37Z</time>
      </trkpt>
      <trkpt lat="45.98608" lon="4.5082">
        <ele>317.5</ele>
        <time>2014-10-02T14:09:41Z</time>
      </trkpt>
      <trkpt lat="45.98606" lon="4.50835">
        <ele>318.6</ele>
        <time>2014-10-02T14:09:45Z</time>
      </trkpt>
      <trkpt lat="45.98604" lon="4.50849">
        <ele>319.7</ele>
        <time>2014-10-02T14:09:49Z</time>
      </trkpt>
      <trkpt lat="45.98604" lon="4.50863">
        <ele>320.8</ele>
        <time>2014-10-02T14:09:53Z</time>
      </trkpt>
      <trkpt lat="45.98604" lon="4.50878">
        <ele>321.9</ele>
        <time>2014-10-02T14:09:57Z</time>
      </trkpt>
      <trkpt lat="45.98603" lon="4.50894">
        <ele>322.7</ele>
        <time>2014-10-02T14:10:01Z</time>
      </trkpt>
      <trkpt lat="45.98599" lon="4.50908">
        <ele>325.2</ele>
        <time>2014-10-02T14:10:06Z</time>
      </trkpt>
      <trkpt lat="45.98595" lon="4.50918">
        <ele>327.6</ele>
        <time>2014-10-02T14:10:08Z</time>
      </trkpt>
      <trkpt lat="45.98589" lon="4.50931">
        <ele>330.1</ele>
        <time>2014-10-02T14:10:12Z</time>
      </trkpt>
      <trkpt lat="45.98584" lon="4.50943">
        <ele>332.5</ele>
        <time>2014-10-02T14:10:16Z</time>
      </trkpt>
      <trkpt lat="45.98579" lon="4.50954">
        <ele>334.2</ele>
        <time>2014-10-02T14:10:20Z</time>
      </trkpt>
      <trkpt lat="45.98574" lon="4.50966">
        <ele>335.8</ele>
        <time>2014-10-02T14:10:24Z</time>
      </trkpt>
      <trkpt lat="45.9857" lon="4.50978">
        <ele>335.7</ele>
        <time>2014-10-02T14:10:28Z</time>
      </trkpt>
      <trkpt lat="45.98565" lon="4.50988">
        <ele>335.6</ele>
        <time>2014-10-02T14:10:32Z</time>
      </trkpt>
      <trkpt lat="45.98559" lon="4.50996">
        <ele>335.5</ele>
        <time>2014-10-02T14:10:36Z</time>
      </trkpt>
      <trkpt lat="45.98552" lon="4.51005">
        <ele>337.7</ele>
        <time>2014-10-02T14:10:40Z</time>
      </trkpt>
      <trkpt lat="45.98547" lon="4.51013">
        <ele>339.9</ele>
        <time>2014-10-02T14:10:44Z</time>
      </trkpt>
      <trkpt lat="45.98541" lon="4.51022">
        <ele>340.5</ele>
        <time>2014-10-02T14:10:48Z</time>
      </trkpt>
      <trkpt lat="45.98535" lon="4.51031">
        <ele>341</ele>
        <time>2014-10-02T14:10:52Z</time>
      </trkpt>
      <trkpt lat="45.98529" lon="4.5104">
        <ele>341.5</ele>
        <time>2014-10-02T14:10:56Z</time>
      </trkpt>
      <trkpt lat="45.98523" lon="4.51048">
        <ele>342.1</ele>
        <time>2014-10-02T14:11:00Z</time>
      </trkpt>
      <trkpt lat="45.98515" lon="4.51053">
        <ele>342.6</ele>
        <time>2014-10-02T14:11:04Z</time>
      </trkpt>
      <trkpt lat="45.98507" lon="4.51061">
        <ele>343.2</ele>
        <time>2014-10-02T14:11:10Z</time>
      </trkpt>
      <trkpt lat="45.985" lon="4.51069">
        <ele>345.4</ele>
        <time>2014-10-02T14:11:14Z</time>
      </trkpt>
      <trkpt lat="45.98493" lon="4.51075">
        <ele>347.5</ele>
        <time>2014-10-02T14:11:18Z</time>
      </trkpt>
      <trkpt lat="45.98486" lon="4.51081">
        <ele>349.7</ele>
        <time>2014-10-02T14:11:22Z</time>
      </trkpt>
      <trkpt lat="45.98478" lon="4.51086">
        <ele>349.6</ele>
        <time>2014-10-02T14:11:26Z</time>
      </trkpt>
      <trkpt lat="45.98469" lon="4.51089">
        <ele>349.5</ele>
        <time>2014-10-02T14:11:30Z</time>
      </trkpt>
      <trkpt lat="45.9846" lon="4.51092">
        <ele>349.5</ele>
        <time>2014-10-02T14:11:34Z</time>
      </trkpt>
      <trkpt lat="45.9845" lon="4.51093">
        <ele>349.4</ele>
        <time>2014-10-02T14:11:38Z</time>
      </trkpt>
      <trkpt lat="45.98441" lon="4.51095">
        <ele>349.3</ele>
        <time>2014-10-02T14:11:42Z</time>
      </trkpt>
      <trkpt lat="45.98432" lon="4.51098">
        <ele>349.2</ele>
        <time>2014-10-02T14:11:46Z</time>
      </trkpt>
      <trkpt lat="45.98424" lon="4.51105">
        <ele>349.1</ele>
        <time>2014-10-02T14:11:50Z</time>
      </trkpt>
      <trkpt lat="45.98417" lon="4.51111">
        <ele>348.6</ele>
        <time>2014-10-02T14:11:54Z</time>
      </trkpt>
      <trkpt lat="45.98408" lon="4.5111">
        <ele>348.3</ele>
        <time>2014-10-02T14:11:58Z</time>
      </trkpt>
      <trkpt lat="45.984" lon="4.51106">
        <ele>347.9</ele>
        <time>2014-10-02T14:12:03Z</time>
      </trkpt>
      <trkpt lat="45.98391" lon="4.51097">
        <ele>347.2</ele>
        <time>2014-10-02T14:12:06Z</time>
      </trkpt>
      <trkpt lat="45.98384" lon="4.51084">
        <ele>346.5</ele>
        <time>2014-10-02T14:12:09Z</time>
      </trkpt>
      <trkpt lat="45.9838" lon="4.51073">
        <ele>345.7</ele>
        <time>2014-10-02T14:12:10Z</time>
      </trkpt>
      <trkpt lat="45.9837" lon="4.51066">
        <ele>345</ele>
        <time>2014-10-02T14:12:12Z</time>
      </trkpt>
      <trkpt lat="45.98363" lon="4.51054">
        <ele>344.3</ele>
        <time>2014-10-02T14:12:14Z</time>
      </trkpt>
      <trkpt lat="45.98357" lon="4.51042">
        <ele>343.5</ele>
        <time>2014-10-02T14:12:16Z</time>
      </trkpt>
      <trkpt lat="45.98352" lon="4.51032">
        <ele>342.8</ele>
        <time>2014-10-02T14:12:18Z</time>
      </trkpt>
      <trkpt lat="45.98346" lon="4.51022">
        <ele>342.1</ele>
        <time>2014-10-02T14:12:20Z</time>
      </trkpt>
      <trkpt lat="45.98341" lon="4.51011">
        <ele>341.7</ele>
        <time>2014-10-02T14:12:22Z</time>
      </trkpt>
      <trkpt lat="45.98335" lon="4.51">
        <ele>341.3</ele>
        <time>2014-10-02T14:12:24Z</time>
      </trkpt>
      <trkpt lat="45.98329" lon="4.50989">
        <ele>339.1</ele>
        <time>2014-10-02T14:12:26Z</time>
      </trkpt>
      <trkpt lat="45.9832" lon="4.5098">
        <ele>337.3</ele>
        <time>2014-10-02T14:12:28Z</time>
      </trkpt>
      <trkpt lat="45.98306" lon="4.50972">
        <ele>335.5</ele>
        <time>2014-10-02T14:12:30Z</time>
      </trkpt>
      <trkpt lat="45.98298" lon="4.50966">
        <ele>333.6</ele>
        <time>2014-10-02T14:12:31Z</time>
      </trkpt>
      <trkpt lat="45.9829" lon="4.50963">
        <ele>331.8</ele>
        <time>2014-10-02T14:12:32Z</time>
      </trkpt>
      <trkpt lat="45.98276" lon="4.50959">
        <ele>330</ele>
        <time>2014-10-02T14:12:34Z</time>
      </trkpt>
      <trkpt lat="45.98262" lon="4.50959">
        <ele>328.2</ele>
        <time>2014-10-02T14:12:36Z</time>
      </trkpt>
      <trkpt lat="45.98248" lon="4.50958">
        <ele>326.4</ele>
        <time>2014-10-02T14:12:38Z</time>
      </trkpt>
      <trkpt lat="45.98235" lon="4.50958">
        <ele>324.5</ele>
        <time>2014-10-02T14:12:40Z</time>
      </trkpt>
      <trkpt lat="45.98224" lon="4.50959">
        <ele>322.7</ele>
        <time>2014-10-02T14:12:42Z</time>
      </trkpt>
      <trkpt lat="45.98214" lon="4.50958">
        <ele>321</ele>
        <time>2014-10-02T14:12:46Z</time>
      </trkpt>
      <trkpt lat="45.98222" lon="4.5095">
        <ele>321</ele>
        <time>2014-10-02T14:12:52Z</time>
      </trkpt>
      <trkpt lat="45.9823" lon="4.50947">
        <ele>321</ele>
        <time>2014-10-02T14:12:55Z</time>
      </trkpt>
      <trkpt lat="45.98238" lon="4.50947">
        <ele>321</ele>
        <time>2014-10-02T14:12:59Z</time>
      </trkpt>
      <trkpt lat="45.98237" lon="4.50947">
        <ele>321</ele>
        <time>2014-10-02T14:13:08Z</time>
      </trkpt>
    </trkseg>
  </trk>
</gpx>